GEFSNGP_prec_meanprecacc_006.txt.gz
Total_Precipitation_Accumulation
0.00 0.00 0.00 0.00 0.00 0.00 0.00 0.00 0.00 0.00 0.00 0.00 0.00 0.00 0.00 0.00 0.00 0.00 0.00 0.00 0.00 0.00 0.00 0.00 0.00 0.00 0.00 0.00 0.00 0.00 0.00 0.00 0.00 0.00 0.00 0.00 0.00 0.00 0.00 0.00 0.00 0.00 0.00 0.00
0.00 0.00 0.00 0.00 0.00 0.00 0.00 0.00 0.00 0.00 0.00 0.00 0.00 0.00 0.00 0.00 0.00 0.00 0.00 0.00 0.00 0.00 0.00 0.00 0.00 0.00 0.00 0.00 0.00 0.00 0.00 0.00 0.00 0.00 0.00 0.00 0.00 0.00 0.00 0.00 0.00 0.00 0.00 0.00
0.00 0.00 0.00 0.00 0.00 0.00 0.00 0.00 0.00 0.00 0.00 0.00 0.00 0.00 0.00 0.00 0.00 0.00 0.00 0.00 0.00 0.00 0.00 0.00 0.00 0.00 0.00 0.00 0.00 0.00 0.00 0.00 0.00 0.00 0.00 0.00 0.00 0.00 0.00 0.00 0.00 0.00 0.00 0.00
0.00 0.00 0.00 0.00 0.00 0.00 0.00 0.00 0.00 0.00 0.00 0.00 0.00 0.00 0.00 0.00 0.00 0.00 0.00 0.00 0.00 0.00 0.00 0.00 0.00 0.00 0.00 0.00 0.00 0.00 0.00 0.00 0.00 0.00 0.00 0.00 0.00 0.00 0.00 0.00 0.00 0.00 0.00 0.00
0.00 0.00 0.00 0.00 0.00 0.00 0.00 0.00 0.00 0.00 0.00 0.00 0.00 0.00 0.00 0.00 0.00 0.00 0.00 0.00 0.00 0.00 0.00 0.00 0.00 0.00 0.00 0.00 0.00 0.00 0.00 0.00 0.00 0.00 0.00 0.00 0.00 0.00 0.00 0.00 0.00 0.00 0.00 0.00
0.00 0.00 0.00 0.00 0.00 0.00 0.00 0.00 0.00 0.00 0.00 0.00 0.00 0.00 0.00 0.00 0.00 0.00 0.00 0.00 0.00 0.00 0.00 0.00 0.00 0.00 0.00 0.00 0.00 0.00 0.00 0.00 0.00 0.00 0.00 0.00 0.00 0.00 0.00 0.00 0.00 0.00 0.00 0.00
0.00 0.00 0.00 0.00 0.00 0.00 0.00 0.00 0.00 0.00 0.00 0.00 0.00 0.00 0.00 0.00 0.00 0.00 0.00 0.00 0.00 0.00 0.00 0.00 0.00 0.00 0.00 0.00 0.00 0.00 0.00 0.00 0.00 0.00 0.00 0.00 0.00 0.00 0.00 0.00 0.00 0.00 0.00 0.00
0.00 0.00 0.00 0.00 0.00 0.00 0.00 0.00 0.00 0.00 0.00 0.00 0.00 0.00 0.00 0.00 0.00 0.00 0.00 0.00 0.00 0.00 0.00 0.00 0.00 0.00 0.00 0.00 0.00 0.00 0.00 0.00 0.00 0.00 0.00 0.00 0.00 0.00 0.00 0.00 0.00 0.00 0.00 0.00
0.00 0.00 0.00 0.00 0.00 0.00 0.00 0.00 0.00 0.00 0.00 0.00 0.00 0.00 0.00 0.00 0.00 0.00 0.00 0.00 0.00 0.00 0.00 0.00 0.00 0.00 0.00 0.00 0.00 0.00 0.00 0.00 0.00 0.00 0.00 0.00 0.00 0.00 0.00 0.00 0.00 0.00 0.00 0.00
0.00 0.00 0.00 0.00 0.00 0.00 0.00 0.00 0.00 0.00 0.00 0.00 0.00 0.00 0.00 0.00 0.00 0.00 0.00 0.00 0.00 0.00 0.00 0.00 0.00 0.00 0.00 0.00 0.00 0.00 0.00 0.00 0.00 0.00 0.00 0.00 0.00 0.00 0.00 0.00 0.00 0.00 0.00 0.00
0.00 0.00 0.00 0.00 0.00 0.00 0.00 0.00 0.00 0.00 0.00 0.00 0.00 0.00 0.00 0.00 0.00 0.00 0.00 0.00 0.00 0.00 0.00 0.00 0.00 0.00 0.00 0.00 0.00 0.00 0.00 0.00 0.00 0.00 0.00 0.00 0.00 0.00 0.00 0.00 0.00 0.00 0.01 0.01
0.00 0.00 0.00 0.00 0.00 0.00 0.00 0.00 0.00 0.00 0.00 0.00 0.00 0.00 0.00 0.00 0.00 0.00 0.00 0.00 0.00 0.00 0.00 0.00 0.00 0.00 0.00 0.00 0.00 0.00 0.00 0.00 0.00 0.00 0.00 0.00 0.00 0.00 0.00 0.00 0.00 0.00 0.01 0.01
0.00 0.00 0.00 0.00 0.00 0.00 0.00 0.00 0.00 0.00 0.00 0.00 0.00 0.00 0.00 0.00 0.00 0.00 0.00 0.00 0.00 0.00 0.00 0.00 0.00 0.00 0.00 0.00 0.00 0.00 0.00 0.00 0.00 0.00 0.00 0.00 0.00 0.00 0.00 0.00 0.00 0.00 0.00 0.01
0.00 0.00 0.00 0.00 0.00 0.00 0.00 0.00 0.00 0.00 0.00 0.00 0.00 0.00 0.00 0.00 0.00 0.00 0.00 0.00 0.00 0.00 0.00 0.00 0.00 0.00 0.00 0.00 0.00 0.00 0.00 0.00 0.00 0.00 0.00 0.00 0.00 0.00 0.00 0.00 0.00 0.00 0.00 0.00
0.00 0.00 0.00 0.00 0.00 0.00 0.00 0.00 0.00 0.00 0.00 0.00 0.00 0.00 0.00 0.00 0.00 0.00 0.00 0.00 0.00 0.00 0.00 0.00 0.00 0.00 0.00 0.00 0.00 0.00 0.00 0.00 0.00 0.00 0.00 0.00 0.00 0.00 0.00 0.00 0.00 0.00 0.00 0.00
0.00 0.00 0.00 0.00 0.00 0.00 0.00 0.00 0.00 0.00 0.00 0.00 0.00 0.00 0.00 0.00 0.00 0.00 0.00 0.00 0.00 0.00 0.00 0.00 0.00 0.00 0.00 0.00 0.00 0.00 0.00 0.00 0.00 0.00 0.00 0.00 0.00 0.00 0.00 0.00 0.01 0.01 0.00 0.00
0.00 0.00 0.00 0.00 0.00 0.00 0.00 0.00 0.00 0.00 0.00 0.00 0.00 0.00 0.00 0.00 0.00 0.00 0.00 0.00 0.00 0.00 0.00 0.00 0.00 0.00 0.00 0.00 0.00 0.00 0.00 0.00 0.00 0.00 0.00 0.00 0.00 0.00 0.00 0.01 0.01 0.01 0.00 0.00
0.00 0.00 0.00 0.00 0.00 0.00 0.00 0.00 0.00 0.00 0.00 0.00 0.00 0.00 0.00 0.00 0.00 0.00 0.00 0.00 0.00 0.00 0.00 0.00 0.00 0.00 0.00 0.00 0.00 0.00 0.00 0.00 0.00 0.00 0.00 0.00 0.00 0.01 0.01 0.01 0.01 0.01 0.01 0.01
0.00 0.00 0.00 0.00 0.00 0.00 0.00 0.00 0.00 0.00 0.00 0.00 0.00 0.00 0.00 0.00 0.00 0.00 0.00 0.00 0.00 0.00 0.00 0.00 0.00 0.00 0.00 0.00 0.00 0.00 0.00 0.00 0.00 0.00 0.00 0.00 0.00 0.00 0.00 0.01 0.01 0.01 0.01 0.01
0.00 0.00 0.00 0.00 0.00 0.00 0.00 0.00 0.00 0.00 0.00 0.00 0.00 0.00 0.00 0.00 0.00 0.00 0.00 0.00 0.00 0.00 0.00 0.00 0.00 0.00 0.00 0.00 0.00 0.00 0.00 0.00 0.00 0.00 0.00 0.00 0.00 0.00 0.00 0.00 0.01 0.00 0.00 0.00
0.00 0.00 0.00 0.00 0.00 0.00 0.00 0.00 0.00 0.00 0.00 0.00 0.00 0.00 0.00 0.00 0.00 0.00 0.00 0.00 0.00 0.00 0.00 0.00 0.00 0.00 0.00 0.00 0.00 0.00 0.00 0.00 0.00 0.00 0.00 0.00 0.00 0.00 0.00 0.00 0.00 0.00 0.00 0.00
0.00 0.00 0.00 0.00 0.00 0.00 0.00 0.00 0.00 0.00 0.00 0.00 0.00 0.00 0.00 0.00 0.00 0.00 0.00 0.00 0.00 0.00 0.00 0.00 0.00 0.00 0.00 0.00 0.00 0.00 0.00 0.00 0.00 0.00 0.00 0.00 0.00 0.00 0.00 0.00 0.00 0.01 0.01 0.01
0.00 0.00 0.00 0.00 0.00 0.00 0.00 0.00 0.00 0.00 0.00 0.00 0.00 0.00 0.00 0.00 0.00 0.00 0.00 0.00 0.00 0.00 0.00 0.00 0.00 0.00 0.00 0.00 0.00 0.00 0.00 0.00 0.00 0.00 0.00 0.00 0.00 0.00 0.01 0.01 0.01 0.01 0.01 0.01
0.00 0.00 0.00 0.00 0.00 0.00 0.00 0.00 0.00 0.00 0.00 0.00 0.00 0.00 0.00 0.00 0.00 0.00 0.00 0.00 0.00 0.00 0.00 0.00 0.00 0.00 0.00 0.00 0.00 0.00 0.00 0.00 0.00 0.00 0.00 0.00 0.00 0.01 0.01 0.01 0.01 0.01 0.01 0.01
0.00 0.00 0.00 0.00 0.00 0.00 0.00 0.00 0.00 0.00 0.00 0.00 0.00 0.00 0.00 0.00 0.00 0.00 0.00 0.00 0.00 0.00 0.00 0.00 0.00 0.00 0.00 0.00 0.00 0.00 0.00 0.00 0.00 0.00 0.01 0.01 0.00 0.00 0.00 0.01 0.01 0.01 0.01 0.01
0.00 0.00 0.00 0.00 0.00 0.00 0.00 0.00 0.00 0.00 0.00 0.00 0.00 0.00 0.00 0.00 0.00 0.00 0.00 0.00 0.00 0.00 0.00 0.00 0.00 0.00 0.00 0.00 0.00 0.00 0.00 0.00 0.00 0.00 0.00 0.00 0.00 0.01 0.01 0.01 0.01 0.01 0.01 0.00
0.00 0.00 0.00 0.00 0.00 0.00 0.00 0.00 0.00 0.00 0.00 0.00 0.00 0.00 0.00 0.00 0.00 0.00 0.00 0.00 0.00 0.00 0.00 0.00 0.00 0.00 0.00 0.00 0.00 0.00 0.00 0.00 0.00 0.00 0.01 0.01 0.01 0.01 0.01 0.01 0.01 0.01 0.01 0.00

GEFSNGP_prec_meanprecacc_012.txt.gz
Total_Precipitation_Accumulation
0.00 0.00 0.00 0.00 0.00 0.00 0.00 0.00 0.00 0.00 0.00 0.00 0.00 0.00 0.00 0.00 0.00 0.00 0.00 0.00 0.00 0.00 0.00 0.00 0.00 0.00 0.00 0.00 0.00 0.00 0.00 0.00 0.00 0.00 0.00 0.00 0.00 0.00 0.00 0.00 0.00 0.00 0.00 0.00
0.00 0.00 0.00 0.00 0.00 0.00 0.00 0.00 0.00 0.00 0.00 0.00 0.00 0.00 0.00 0.00 0.00 0.00 0.00 0.00 0.00 0.00 0.00 0.00 0.00 0.00 0.00 0.00 0.00 0.00 0.00 0.00 0.00 0.00 0.00 0.00 0.00 0.00 0.00 0.00 0.00 0.00 0.00 0.00
0.00 0.00 0.00 0.00 0.00 0.00 0.00 0.00 0.00 0.00 0.00 0.00 0.00 0.00 0.00 0.00 0.00 0.00 0.00 0.00 0.00 0.00 0.00 0.00 0.00 0.00 0.00 0.00 0.00 0.00 0.00 0.00 0.00 0.00 0.00 0.00 0.00 0.00 0.00 0.00 0.00 0.00 0.00 0.00
0.00 0.00 0.00 0.00 0.00 0.00 0.00 0.00 0.00 0.00 0.00 0.00 0.00 0.00 0.00 0.00 0.00 0.00 0.00 0.00 0.00 0.00 0.00 0.00 0.00 0.00 0.00 0.00 0.00 0.00 0.00 0.00 0.00 0.00 0.00 0.00 0.00 0.00 0.00 0.00 0.00 0.00 0.00 0.00
0.00 0.00 0.00 0.00 0.00 0.00 0.00 0.00 0.00 0.00 0.00 0.00 0.00 0.00 0.00 0.00 0.00 0.00 0.00 0.00 0.00 0.00 0.00 0.00 0.00 0.00 0.00 0.00 0.00 0.00 0.00 0.00 0.00 0.00 0.00 0.00 0.00 0.00 0.00 0.00 0.00 0.00 0.00 0.00
0.00 0.00 0.00 0.00 0.00 0.00 0.00 0.00 0.00 0.00 0.00 0.00 0.00 0.00 0.00 0.00 0.00 0.00 0.00 0.00 0.00 0.00 0.00 0.00 0.00 0.00 0.00 0.00 0.00 0.00 0.00 0.00 0.00 0.00 0.00 0.00 0.00 0.00 0.00 0.00 0.00 0.00 0.00 0.00
0.00 0.00 0.00 0.00 0.00 0.00 0.00 0.00 0.00 0.00 0.00 0.00 0.00 0.00 0.00 0.00 0.00 0.00 0.00 0.00 0.00 0.00 0.00 0.00 0.00 0.00 0.00 0.00 0.00 0.00 0.00 0.00 0.00 0.00 0.00 0.00 0.00 0.00 0.00 0.00 0.00 0.00 0.00 0.00
0.00 0.00 0.00 0.00 0.00 0.00 0.00 0.00 0.00 0.00 0.00 0.00 0.00 0.00 0.00 0.00 0.00 0.00 0.00 0.00 0.00 0.00 0.00 0.00 0.00 0.00 0.00 0.00 0.00 0.00 0.00 0.00 0.00 0.00 0.00 0.00 0.00 0.00 0.00 0.00 0.00 0.00 0.00 0.00
0.00 0.00 0.00 0.00 0.00 0.00 0.00 0.00 0.00 0.00 0.00 0.00 0.00 0.00 0.00 0.00 0.00 0.00 0.00 0.00 0.00 0.00 0.00 0.00 0.00 0.00 0.00 0.00 0.00 0.00 0.00 0.00 0.00 0.00 0.00 0.00 0.00 0.00 0.00 0.00 0.00 0.00 0.00 0.00
0.00 0.00 0.00 0.00 0.00 0.00 0.00 0.00 0.00 0.00 0.00 0.00 0.00 0.00 0.00 0.00 0.00 0.00 0.00 0.00 0.00 0.00 0.00 0.00 0.00 0.00 0.00 0.00 0.00 0.00 0.00 0.00 0.00 0.00 0.00 0.00 0.00 0.00 0.00 0.00 0.00 0.00 0.00 0.00
0.00 0.00 0.00 0.00 0.00 0.00 0.00 0.00 0.00 0.00 0.00 0.00 0.00 0.00 0.00 0.00 0.00 0.00 0.00 0.00 0.00 0.00 0.00 0.00 0.00 0.00 0.00 0.00 0.00 0.00 0.00 0.00 0.00 0.00 0.00 0.00 0.00 0.00 0.00 0.00 0.00 0.00 0.01 0.01
0.00 0.00 0.00 0.00 0.00 0.00 0.00 0.00 0.00 0.00 0.00 0.00 0.00 0.00 0.00 0.00 0.00 0.00 0.00 0.00 0.00 0.00 0.00 0.00 0.00 0.00 0.00 0.00 0.00 0.00 0.00 0.00 0.00 0.00 0.00 0.00 0.00 0.00 0.00 0.00 0.00 0.00 0.01 0.01
0.00 0.00 0.00 0.00 0.00 0.00 0.00 0.00 0.00 0.00 0.00 0.00 0.00 0.00 0.00 0.00 0.00 0.00 0.00 0.00 0.00 0.00 0.00 0.00 0.00 0.00 0.00 0.00 0.00 0.00 0.00 0.00 0.00 0.00 0.00 0.00 0.00 0.00 0.00 0.00 0.00 0.00 0.00 0.01
0.00 0.00 0.00 0.00 0.00 0.00 0.00 0.00 0.00 0.00 0.00 0.00 0.00 0.00 0.00 0.00 0.00 0.00 0.00 0.00 0.00 0.00 0.00 0.00 0.00 0.00 0.00 0.00 0.00 0.00 0.00 0.00 0.00 0.00 0.00 0.00 0.00 0.00 0.00 0.00 0.00 0.00 0.00 0.00
0.00 0.00 0.00 0.00 0.00 0.00 0.00 0.00 0.00 0.00 0.00 0.00 0.00 0.00 0.00 0.00 0.00 0.00 0.00 0.00 0.00 0.00 0.00 0.00 0.00 0.00 0.00 0.00 0.00 0.00 0.00 0.00 0.00 0.00 0.00 0.00 0.00 0.00 0.00 0.00 0.00 0.00 0.00 0.00
0.00 0.00 0.00 0.00 0.00 0.00 0.00 0.00 0.00 0.00 0.00 0.00 0.00 0.00 0.00 0.00 0.00 0.00 0.00 0.00 0.00 0.00 0.00 0.00 0.00 0.00 0.00 0.00 0.00 0.00 0.00 0.00 0.00 0.00 0.00 0.00 0.00 0.00 0.00 0.00 0.01 0.01 0.01 0.00
0.00 0.00 0.00 0.00 0.00 0.00 0.00 0.00 0.00 0.00 0.00 0.00 0.00 0.00 0.00 0.00 0.00 0.00 0.00 0.00 0.00 0.00 0.00 0.00 0.00 0.00 0.00 0.00 0.00 0.00 0.00 0.00 0.00 0.00 0.00 0.00 0.00 0.00 0.01 0.01 0.01 0.01 0.00 0.00
0.00 0.00 0.00 0.00 0.00 0.00 0.00 0.00 0.00 0.00 0.00 0.00 0.00 0.00 0.00 0.00 0.00 0.00 0.00 0.00 0.00 0.00 0.00 0.00 0.00 0.00 0.00 0.00 0.00 0.00 0.00 0.00 0.00 0.00 0.00 0.00 0.00 0.01 0.01 0.01 0.01 0.01 0.01 0.01
0.00 0.00 0.00 0.00 0.00 0.00 0.00 0.00 0.00 0.00 0.00 0.00 0.00 0.00 0.00 0.00 0.00 0.00 0.00 0.00 0.00 0.00 0.00 0.00 0.00 0.00 0.00 0.00 0.00 0.00 0.00 0.00 0.00 0.00 0.00 0.00 0.00 0.00 0.00 0.01 0.01 0.01 0.01 0.01
0.00 0.00 0.00 0.00 0.00 0.00 0.00 0.00 0.00 0.00 0.00 0.00 0.00 0.00 0.00 0.00 0.00 0.00 0.00 0.00 0.00 0.00 0.00 0.00 0.00 0.00 0.00 0.00 0.00 0.00 0.00 0.00 0.00 0.00 0.00 0.00 0.00 0.00 0.00 0.00 0.01 0.01 0.01 0.01
0.00 0.00 0.00 0.00 0.00 0.00 0.00 0.00 0.00 0.00 0.00 0.00 0.00 0.00 0.00 0.00 0.00 0.00 0.00 0.00 0.00 0.00 0.00 0.00 0.00 0.00 0.00 0.00 0.00 0.00 0.00 0.00 0.00 0.00 0.00 0.00 0.00 0.00 0.00 0.00 0.00 0.01 0.01 0.01
0.00 0.00 0.00 0.00 0.00 0.00 0.00 0.00 0.00 0.00 0.00 0.00 0.00 0.00 0.00 0.00 0.00 0.00 0.00 0.00 0.00 0.00 0.00 0.00 0.00 0.00 0.00 0.00 0.00 0.00 0.00 0.00 0.00 0.00 0.00 0.00 0.00 0.00 0.00 0.01 0.01 0.01 0.01 0.01
0.00 0.00 0.00 0.00 0.00 0.00 0.00 0.00 0.00 0.00 0.00 0.00 0.00 0.00 0.00 0.00 0.00 0.00 0.00 0.00 0.00 0.00 0.00 0.00 0.00 0.00 0.00 0.00 0.00 0.00 0.00 0.00 0.00 0.00 0.00 0.00 0.00 0.01 0.02 0.02 0.02 0.02 0.02 0.02
0.00 0.00 0.00 0.00 0.00 0.00 0.00 0.00 0.00 0.00 0.00 0.00 0.00 0.00 0.00 0.00 0.00 0.00 0.00 0.00 0.00 0.00 0.00 0.00 0.00 0.00 0.00 0.00 0.00 0.00 0.00 0.00 0.00 0.00 0.00 0.01 0.01 0.02 0.02 0.02 0.02 0.01 0.01 0.02
0.00 0.00 0.00 0.00 0.00 0.00 0.00 0.00 0.00 0.00 0.00 0.00 0.00 0.00 0.00 0.00 0.00 0.00 0.00 0.00 0.00 0.00 0.00 0.00 0.00 0.00 0.00 0.00 0.00 0.00 0.00 0.00 0.00 0.00 0.01 0.01 0.01 0.01 0.01 0.01 0.02 0.02 0.02 0.01
0.00 0.00 0.00 0.00 0.00 0.00 0.00 0.00 0.00 0.00 0.00 0.00 0.00 0.00 0.00 0.00 0.00 0.00 0.00 0.00 0.00 0.00 0.00 0.00 0.00 0.00 0.00 0.00 0.00 0.00 0.00 0.00 0.00 0.00 0.01 0.01 0.01 0.02 0.02 0.02 0.01 0.01 0.01 0.01
0.00 0.00 0.00 0.00 0.00 0.00 0.00 0.00 0.00 0.00 0.00 0.00 0.00 0.00 0.00 0.00 0.00 0.00 0.00 0.00 0.00 0.00 0.00 0.00 0.00 0.00 0.00 0.00 0.00 0.00 0.00 0.00 0.00 0.01 0.01 0.02 0.02 0.02 0.02 0.01 0.01 0.01 0.01 0.01

GEFSNGP_prec_meanprecacc_018.txt.gz
Total_Precipitation_Accumulation
0.03 0.01 0.01 0.00 0.00 0.00 0.00 0.00 0.00 0.00 0.00 0.00 0.00 0.00 0.00 0.00 0.00 0.00 0.00 0.00 0.00 0.00 0.00 0.00 0.00 0.00 0.00 0.00 0.00 0.00 0.00 0.00 0.00 0.00 0.00 0.00 0.00 0.00 0.00 0.00 0.00 0.00 0.00 0.00
0.01 0.00 0.00 0.00 0.00 0.00 0.00 0.00 0.00 0.00 0.00 0.00 0.00 0.00 0.00 0.00 0.00 0.00 0.00 0.00 0.00 0.00 0.00 0.00 0.00 0.00 0.00 0.00 0.00 0.00 0.00 0.00 0.00 0.00 0.00 0.00 0.00 0.00 0.00 0.00 0.00 0.00 0.00 0.00
0.01 0.00 0.00 0.00 0.00 0.00 0.00 0.00 0.00 0.00 0.00 0.00 0.00 0.00 0.00 0.00 0.00 0.00 0.00 0.00 0.00 0.00 0.00 0.00 0.00 0.00 0.00 0.00 0.00 0.00 0.00 0.00 0.00 0.00 0.00 0.00 0.00 0.00 0.00 0.00 0.00 0.00 0.00 0.00
0.01 0.00 0.00 0.00 0.00 0.00 0.00 0.00 0.00 0.00 0.00 0.00 0.00 0.00 0.00 0.00 0.00 0.00 0.00 0.00 0.00 0.00 0.00 0.00 0.00 0.00 0.00 0.00 0.00 0.00 0.00 0.00 0.00 0.00 0.00 0.00 0.00 0.00 0.00 0.00 0.00 0.00 0.00 0.00
0.01 0.00 0.00 0.00 0.00 0.00 0.00 0.00 0.00 0.00 0.00 0.00 0.00 0.00 0.00 0.00 0.00 0.00 0.00 0.00 0.00 0.00 0.00 0.00 0.00 0.00 0.00 0.00 0.00 0.00 0.00 0.00 0.00 0.00 0.00 0.00 0.00 0.00 0.00 0.00 0.00 0.00 0.00 0.00
0.01 0.01 0.00 0.00 0.00 0.00 0.00 0.00 0.00 0.00 0.00 0.00 0.00 0.00 0.00 0.00 0.00 0.00 0.00 0.00 0.00 0.00 0.00 0.00 0.00 0.00 0.00 0.00 0.00 0.00 0.00 0.00 0.00 0.00 0.00 0.00 0.00 0.00 0.00 0.00 0.00 0.00 0.00 0.00
0.03 0.01 0.00 0.00 0.00 0.00 0.00 0.00 0.00 0.00 0.00 0.00 0.00 0.00 0.00 0.00 0.00 0.00 0.00 0.00 0.00 0.00 0.00 0.00 0.00 0.00 0.00 0.00 0.00 0.00 0.00 0.00 0.00 0.00 0.00 0.00 0.00 0.00 0.00 0.00 0.00 0.00 0.00 0.00
0.02 0.01 0.00 0.00 0.00 0.00 0.00 0.00 0.00 0.00 0.00 0.00 0.00 0.00 0.00 0.00 0.00 0.00 0.00 0.00 0.00 0.00 0.00 0.00 0.00 0.00 0.00 0.00 0.00 0.00 0.00 0.00 0.00 0.00 0.00 0.00 0.00 0.00 0.00 0.00 0.00 0.00 0.00 0.00
0.00 0.00 0.00 0.00 0.00 0.00 0.00 0.00 0.00 0.00 0.00 0.00 0.00 0.00 0.00 0.00 0.00 0.00 0.00 0.00 0.00 0.00 0.00 0.00 0.00 0.00 0.00 0.00 0.00 0.00 0.00 0.00 0.00 0.00 0.00 0.00 0.00 0.00 0.00 0.00 0.00 0.00 0.00 0.00
0.00 0.00 0.00 0.00 0.00 0.00 0.00 0.00 0.00 0.00 0.00 0.00 0.00 0.00 0.00 0.00 0.00 0.00 0.00 0.00 0.00 0.00 0.00 0.00 0.00 0.00 0.00 0.00 0.00 0.00 0.00 0.00 0.00 0.00 0.00 0.00 0.00 0.00 0.00 0.00 0.00 0.00 0.00 0.00
0.00 0.00 0.00 0.00 0.00 0.00 0.00 0.00 0.00 0.00 0.00 0.00 0.00 0.00 0.00 0.00 0.00 0.00 0.00 0.00 0.00 0.00 0.00 0.00 0.00 0.00 0.00 0.00 0.00 0.00 0.00 0.00 0.00 0.00 0.00 0.00 0.00 0.00 0.00 0.00 0.00 0.00 0.01 0.01
0.00 0.00 0.00 0.00 0.00 0.00 0.00 0.00 0.00 0.00 0.00 0.00 0.00 0.00 0.00 0.00 0.00 0.00 0.00 0.00 0.00 0.00 0.00 0.00 0.00 0.00 0.00 0.00 0.00 0.00 0.00 0.00 0.00 0.00 0.00 0.00 0.00 0.00 0.00 0.00 0.00 0.00 0.01 0.02
0.00 0.00 0.00 0.00 0.00 0.00 0.00 0.00 0.00 0.00 0.00 0.00 0.00 0.00 0.00 0.00 0.00 0.00 0.00 0.00 0.00 0.00 0.00 0.00 0.00 0.00 0.00 0.00 0.00 0.00 0.00 0.00 0.00 0.00 0.00 0.00 0.00 0.00 0.00 0.00 0.00 0.00 0.00 0.01
0.00 0.00 0.00 0.00 0.00 0.00 0.00 0.00 0.00 0.00 0.00 0.00 0.00 0.00 0.00 0.00 0.00 0.00 0.00 0.00 0.00 0.00 0.00 0.00 0.00 0.00 0.00 0.00 0.00 0.00 0.00 0.00 0.00 0.00 0.00 0.00 0.00 0.00 0.00 0.00 0.00 0.00 0.00 0.00
0.00 0.00 0.00 0.00 0.00 0.00 0.00 0.00 0.00 0.00 0.00 0.00 0.00 0.00 0.00 0.00 0.00 0.00 0.00 0.00 0.00 0.00 0.00 0.00 0.00 0.00 0.00 0.00 0.00 0.00 0.00 0.00 0.00 0.00 0.00 0.00 0.00 0.00 0.00 0.00 0.00 0.00 0.00 0.00
0.00 0.00 0.00 0.00 0.00 0.00 0.00 0.00 0.00 0.00 0.00 0.00 0.00 0.00 0.00 0.00 0.00 0.00 0.00 0.00 0.00 0.00 0.00 0.00 0.00 0.00 0.00 0.00 0.00 0.00 0.00 0.00 0.00 0.00 0.00 0.00 0.00 0.00 0.00 0.00 0.01 0.01 0.01 0.00
0.00 0.00 0.00 0.00 0.00 0.00 0.00 0.00 0.00 0.00 0.00 0.00 0.00 0.00 0.00 0.00 0.00 0.00 0.00 0.00 0.00 0.00 0.00 0.00 0.00 0.00 0.00 0.00 0.00 0.00 0.00 0.00 0.00 0.00 0.00 0.00 0.00 0.00 0.01 0.01 0.01 0.01 0.00 0.00
0.00 0.00 0.00 0.00 0.00 0.00 0.00 0.00 0.00 0.00 0.00 0.00 0.00 0.00 0.00 0.00 0.00 0.00 0.00 0.00 0.00 0.00 0.00 0.00 0.00 0.00 0.00 0.00 0.00 0.00 0.00 0.00 0.00 0.00 0.00 0.00 0.00 0.01 0.01 0.01 0.01 0.01 0.01 0.01
0.00 0.00 0.00 0.00 0.00 0.00 0.00 0.00 0.00 0.00 0.00 0.00 0.00 0.00 0.00 0.00 0.00 0.00 0.00 0.00 0.00 0.00 0.00 0.00 0.00 0.00 0.00 0.00 0.00 0.00 0.00 0.00 0.00 0.00 0.00 0.00 0.00 0.00 0.00 0.01 0.01 0.01 0.01 0.01
0.00 0.00 0.00 0.00 0.00 0.00 0.00 0.00 0.00 0.00 0.00 0.00 0.00 0.00 0.00 0.00 0.00 0.00 0.00 0.00 0.00 0.00 0.00 0.00 0.00 0.00 0.00 0.00 0.00 0.00 0.00 0.00 0.00 0.00 0.00 0.00 0.00 0.00 0.00 0.00 0.01 0.01 0.01 0.01
0.00 0.00 0.00 0.00 0.00 0.00 0.00 0.00 0.00 0.00 0.00 0.00 0.00 0.00 0.00 0.00 0.00 0.00 0.00 0.00 0.00 0.00 0.00 0.00 0.00 0.00 0.00 0.00 0.00 0.00 0.00 0.00 0.00 0.00 0.00 0.00 0.00 0.00 0.00 0.00 0.00 0.01 0.01 0.01
0.00 0.00 0.00 0.00 0.00 0.00 0.00 0.00 0.00 0.00 0.00 0.00 0.00 0.00 0.00 0.00 0.00 0.00 0.00 0.00 0.00 0.00 0.00 0.00 0.00 0.00 0.00 0.00 0.00 0.00 0.00 0.00 0.00 0.00 0.00 0.00 0.00 0.00 0.01 0.01 0.02 0.02 0.02 0.02
0.00 0.00 0.00 0.00 0.00 0.00 0.00 0.00 0.00 0.00 0.00 0.00 0.00 0.00 0.00 0.00 0.00 0.00 0.00 0.00 0.00 0.00 0.00 0.00 0.00 0.00 0.00 0.00 0.00 0.00 0.00 0.00 0.00 0.00 0.00 0.00 0.00 0.01 0.03 0.03 0.03 0.03 0.02 0.02
0.00 0.00 0.00 0.00 0.00 0.00 0.00 0.00 0.00 0.00 0.00 0.00 0.00 0.00 0.00 0.00 0.00 0.00 0.00 0.00 0.00 0.00 0.00 0.00 0.00 0.00 0.00 0.00 0.00 0.00 0.00 0.00 0.00 0.00 0.00 0.01 0.01 0.02 0.03 0.03 0.03 0.02 0.02 0.02
0.00 0.00 0.00 0.00 0.00 0.00 0.00 0.00 0.00 0.00 0.00 0.00 0.00 0.00 0.00 0.00 0.00 0.00 0.00 0.00 0.00 0.00 0.00 0.00 0.00 0.00 0.00 0.00 0.00 0.00 0.00 0.00 0.00 0.00 0.01 0.02 0.01 0.02 0.02 0.02 0.03 0.03 0.02 0.02
0.00 0.00 0.00 0.00 0.00 0.00 0.00 0.00 0.00 0.00 0.00 0.00 0.00 0.00 0.00 0.00 0.00 0.00 0.00 0.00 0.00 0.00 0.00 0.00 0.00 0.00 0.00 0.00 0.00 0.00 0.00 0.00 0.00 0.00 0.01 0.01 0.02 0.02 0.02 0.02 0.02 0.02 0.02 0.01
0.00 0.00 0.00 0.00 0.00 0.00 0.00 0.00 0.00 0.00 0.00 0.00 0.00 0.00 0.00 0.00 0.00 0.00 0.00 0.00 0.00 0.00 0.00 0.00 0.00 0.00 0.00 0.00 0.00 0.00 0.00 0.00 0.00 0.01 0.02 0.02 0.02 0.02 0.02 0.02 0.02 0.02 0.02 0.01

GEFSNGP_prec_meanprecacc_024.txt.gz
Total_Precipitation_Accumulation
0.23 0.12 0.12 0.10 0.13 0.16 0.23 0.25 0.19 0.09 0.04 0.02 0.00 0.00 0.00 0.00 0.00 0.00 0.00 0.00 0.00 0.00 0.00 0.00 0.00 0.00 0.00 0.00 0.00 0.00 0.00 0.00 0.00 0.00 0.00 0.00 0.00 0.00 0.00 0.00 0.00 0.00 0.00 0.00
0.24 0.08 0.09 0.09 0.09 0.10 0.15 0.17 0.14 0.07 0.04 0.01 0.00 0.00 0.00 0.00 0.00 0.00 0.00 0.00 0.00 0.00 0.00 0.00 0.00 0.00 0.00 0.00 0.00 0.00 0.00 0.00 0.00 0.00 0.00 0.00 0.00 0.00 0.00 0.00 0.00 0.00 0.00 0.00
0.17 0.07 0.08 0.08 0.05 0.05 0.08 0.09 0.08 0.05 0.03 0.01 0.00 0.00 0.00 0.00 0.00 0.00 0.00 0.00 0.00 0.00 0.00 0.00 0.00 0.00 0.00 0.00 0.00 0.00 0.00 0.00 0.00 0.00 0.00 0.00 0.00 0.00 0.00 0.00 0.00 0.00 0.00 0.00
0.09 0.04 0.05 0.02 0.01 0.02 0.03 0.03 0.03 0.02 0.01 0.00 0.00 0.00 0.00 0.00 0.00 0.00 0.00 0.00 0.00 0.00 0.00 0.00 0.00 0.00 0.00 0.00 0.00 0.00 0.00 0.00 0.00 0.00 0.00 0.00 0.00 0.00 0.00 0.00 0.00 0.00 0.00 0.00
0.04 0.02 0.01 0.00 0.00 0.00 0.01 0.01 0.01 0.00 0.00 0.00 0.00 0.00 0.00 0.00 0.00 0.00 0.00 0.00 0.00 0.00 0.00 0.00 0.00 0.00 0.00 0.00 0.00 0.00 0.00 0.00 0.00 0.00 0.00 0.00 0.00 0.00 0.00 0.00 0.00 0.00 0.00 0.00
0.03 0.01 0.00 0.00 0.00 0.00 0.00 0.00 0.00 0.00 0.00 0.00 0.00 0.00 0.00 0.00 0.00 0.00 0.00 0.00 0.00 0.00 0.00 0.00 0.00 0.00 0.00 0.00 0.00 0.00 0.00 0.00 0.00 0.00 0.00 0.00 0.00 0.00 0.00 0.00 0.00 0.00 0.00 0.00
0.04 0.01 0.00 0.00 0.00 0.00 0.00 0.00 0.00 0.00 0.00 0.00 0.00 0.00 0.00 0.00 0.00 0.00 0.00 0.00 0.00 0.00 0.00 0.00 0.00 0.00 0.00 0.00 0.00 0.00 0.00 0.00 0.00 0.00 0.00 0.00 0.00 0.00 0.00 0.00 0.00 0.00 0.00 0.00
0.03 0.01 0.00 0.00 0.00 0.00 0.00 0.00 0.00 0.00 0.00 0.00 0.00 0.00 0.00 0.00 0.00 0.00 0.00 0.00 0.00 0.00 0.00 0.00 0.00 0.00 0.00 0.00 0.00 0.00 0.00 0.00 0.00 0.00 0.00 0.00 0.00 0.00 0.00 0.00 0.00 0.00 0.00 0.00
0.00 0.00 0.00 0.00 0.00 0.00 0.00 0.00 0.00 0.00 0.00 0.00 0.00 0.00 0.00 0.00 0.00 0.00 0.00 0.00 0.00 0.00 0.00 0.00 0.00 0.00 0.00 0.00 0.00 0.00 0.00 0.00 0.00 0.00 0.00 0.00 0.00 0.00 0.00 0.00 0.00 0.00 0.00 0.00
0.00 0.00 0.00 0.00 0.00 0.00 0.00 0.00 0.00 0.00 0.00 0.00 0.00 0.00 0.00 0.00 0.00 0.00 0.00 0.00 0.00 0.00 0.00 0.00 0.00 0.00 0.00 0.00 0.00 0.00 0.00 0.00 0.00 0.00 0.00 0.00 0.00 0.00 0.00 0.00 0.00 0.00 0.00 0.00
0.00 0.00 0.00 0.00 0.00 0.00 0.00 0.00 0.00 0.00 0.00 0.00 0.00 0.00 0.00 0.00 0.00 0.00 0.00 0.00 0.00 0.00 0.00 0.00 0.00 0.00 0.00 0.00 0.00 0.00 0.00 0.00 0.00 0.00 0.00 0.00 0.00 0.00 0.00 0.00 0.00 0.00 0.01 0.01
0.00 0.00 0.00 0.00 0.00 0.00 0.00 0.00 0.00 0.00 0.00 0.00 0.00 0.00 0.00 0.00 0.00 0.00 0.00 0.00 0.00 0.00 0.00 0.00 0.00 0.00 0.00 0.00 0.00 0.00 0.00 0.00 0.00 0.00 0.00 0.00 0.00 0.00 0.00 0.00 0.00 0.00 0.01 0.02
0.00 0.00 0.00 0.00 0.00 0.00 0.00 0.00 0.00 0.00 0.00 0.00 0.00 0.00 0.00 0.00 0.00 0.00 0.00 0.00 0.00 0.00 0.00 0.00 0.00 0.00 0.00 0.00 0.00 0.00 0.00 0.00 0.00 0.00 0.00 0.00 0.00 0.00 0.00 0.00 0.00 0.00 0.00 0.01
0.00 0.00 0.00 0.00 0.00 0.00 0.00 0.00 0.00 0.00 0.00 0.00 0.00 0.00 0.00 0.00 0.00 0.00 0.00 0.00 0.00 0.00 0.00 0.00 0.00 0.00 0.00 0.00 0.00 0.00 0.00 0.00 0.00 0.00 0.00 0.00 0.00 0.00 0.00 0.00 0.00 0.00 0.00 0.00
0.00 0.00 0.00 0.00 0.00 0.00 0.00 0.00 0.00 0.00 0.00 0.00 0.00 0.00 0.00 0.00 0.00 0.00 0.00 0.00 0.00 0.00 0.00 0.00 0.00 0.00 0.00 0.00 0.00 0.00 0.00 0.00 0.00 0.00 0.00 0.00 0.00 0.00 0.00 0.00 0.00 0.00 0.00 0.00
0.00 0.00 0.00 0.00 0.00 0.00 0.00 0.00 0.00 0.00 0.00 0.00 0.00 0.00 0.00 0.00 0.00 0.00 0.00 0.00 0.00 0.00 0.00 0.00 0.00 0.00 0.00 0.00 0.00 0.00 0.00 0.00 0.00 0.00 0.00 0.00 0.00 0.00 0.00 0.00 0.01 0.01 0.01 0.00
0.00 0.00 0.00 0.00 0.00 0.00 0.00 0.00 0.00 0.00 0.00 0.00 0.00 0.00 0.00 0.00 0.00 0.00 0.00 0.00 0.00 0.00 0.00 0.00 0.00 0.00 0.00 0.00 0.00 0.00 0.00 0.00 0.00 0.00 0.00 0.00 0.00 0.00 0.01 0.01 0.01 0.01 0.00 0.00
0.00 0.00 0.00 0.00 0.00 0.00 0.00 0.00 0.00 0.00 0.00 0.00 0.00 0.00 0.00 0.00 0.00 0.00 0.00 0.00 0.00 0.00 0.00 0.00 0.00 0.00 0.00 0.00 0.00 0.00 0.00 0.00 0.00 0.00 0.00 0.00 0.00 0.01 0.01 0.01 0.01 0.01 0.01 0.01
0.00 0.00 0.00 0.00 0.00 0.00 0.00 0.00 0.00 0.00 0.00 0.00 0.00 0.00 0.00 0.00 0.00 0.00 0.00 0.00 0.00 0.00 0.00 0.00 0.00 0.00 0.00 0.00 0.00 0.00 0.00 0.00 0.00 0.00 0.00 0.00 0.00 0.00 0.00 0.01 0.01 0.01 0.01 0.01
0.00 0.00 0.00 0.00 0.00 0.00 0.00 0.00 0.00 0.00 0.00 0.00 0.00 0.00 0.00 0.00 0.00 0.00 0.00 0.00 0.00 0.00 0.00 0.00 0.00 0.00 0.00 0.00 0.00 0.00 0.00 0.00 0.00 0.00 0.00 0.00 0.00 0.00 0.00 0.00 0.01 0.01 0.01 0.01
0.00 0.00 0.00 0.00 0.00 0.00 0.00 0.00 0.00 0.00 0.00 0.00 0.00 0.00 0.00 0.00 0.00 0.00 0.00 0.00 0.00 0.00 0.00 0.00 0.00 0.00 0.00 0.00 0.00 0.00 0.00 0.00 0.00 0.00 0.00 0.00 0.00 0.00 0.00 0.00 0.01 0.01 0.01 0.02
0.00 0.00 0.00 0.00 0.00 0.00 0.00 0.00 0.00 0.00 0.00 0.00 0.00 0.00 0.00 0.00 0.00 0.00 0.00 0.00 0.00 0.00 0.00 0.00 0.00 0.00 0.00 0.00 0.00 0.00 0.00 0.00 0.00 0.00 0.00 0.00 0.00 0.00 0.01 0.01 0.02 0.03 0.03 0.03
0.00 0.00 0.00 0.00 0.00 0.00 0.00 0.00 0.00 0.00 0.00 0.00 0.00 0.00 0.00 0.00 0.00 0.00 0.00 0.00 0.00 0.00 0.00 0.00 0.00 0.00 0.00 0.00 0.00 0.00 0.00 0.00 0.00 0.00 0.00 0.00 0.00 0.01 0.03 0.03 0.03 0.03 0.03 0.03
0.00 0.00 0.00 0.00 0.00 0.00 0.00 0.00 0.00 0.00 0.00 0.00 0.00 0.00 0.00 0.00 0.00 0.00 0.00 0.00 0.00 0.00 0.00 0.00 0.00 0.00 0.00 0.00 0.00 0.00 0.00 0.00 0.00 0.00 0.00 0.01 0.01 0.02 0.03 0.03 0.03 0.03 0.03 0.03
0.00 0.00 0.00 0.00 0.00 0.00 0.00 0.00 0.00 0.00 0.00 0.00 0.00 0.00 0.00 0.00 0.00 0.00 0.00 0.00 0.00 0.00 0.00 0.00 0.00 0.00 0.00 0.00 0.00 0.00 0.00 0.00 0.00 0.00 0.01 0.02 0.02 0.02 0.02 0.03 0.03 0.03 0.03 0.02
0.00 0.00 0.00 0.00 0.00 0.00 0.00 0.00 0.00 0.00 0.00 0.00 0.00 0.00 0.00 0.00 0.00 0.00 0.00 0.00 0.00 0.00 0.00 0.00 0.00 0.00 0.00 0.00 0.00 0.00 0.00 0.00 0.00 0.00 0.01 0.01 0.02 0.02 0.03 0.03 0.02 0.02 0.02 0.02
0.00 0.00 0.00 0.00 0.00 0.00 0.00 0.00 0.00 0.00 0.00 0.00 0.00 0.00 0.00 0.00 0.00 0.00 0.00 0.00 0.00 0.00 0.00 0.00 0.00 0.00 0.00 0.00 0.00 0.00 0.00 0.00 0.00 0.01 0.02 0.02 0.02 0.03 0.03 0.02 0.02 0.02 0.02 0.02

GEFSNGP_prec_meanprecacc_030.txt.gz
Total_Precipitation_Accumulation
0.36 0.27 0.37 0.33 0.30 0.32 0.38 0.38 0.33 0.19 0.11 0.07 0.04 0.03 0.03 0.02 0.02 0.02 0.01 0.01 0.00 0.00 0.00 0.00 0.00 0.00 0.00 0.00 0.00 0.00 0.00 0.00 0.00 0.00 0.00 0.00 0.00 0.00 0.00 0.00 0.00 0.00 0.00 0.00
0.42 0.24 0.29 0.30 0.26 0.25 0.28 0.30 0.27 0.21 0.17 0.07 0.03 0.02 0.02 0.01 0.01 0.01 0.01 0.00 0.00 0.00 0.00 0.00 0.00 0.00 0.00 0.00 0.00 0.00 0.00 0.00 0.00 0.00 0.00 0.00 0.00 0.00 0.00 0.00 0.00 0.00 0.00 0.00
0.44 0.27 0.29 0.28 0.20 0.20 0.23 0.22 0.21 0.20 0.15 0.06 0.04 0.02 0.01 0.01 0.01 0.01 0.00 0.00 0.00 0.00 0.00 0.00 0.00 0.00 0.00 0.00 0.00 0.00 0.00 0.00 0.00 0.00 0.00 0.00 0.00 0.00 0.00 0.00 0.00 0.00 0.00 0.00
0.34 0.26 0.29 0.18 0.12 0.14 0.16 0.16 0.15 0.13 0.08 0.04 0.02 0.01 0.00 0.00 0.00 0.00 0.00 0.00 0.00 0.00 0.00 0.00 0.00 0.00 0.00 0.00 0.00 0.00 0.00 0.00 0.00 0.00 0.00 0.00 0.00 0.00 0.00 0.00 0.00 0.00 0.00 0.00
0.22 0.17 0.12 0.08 0.07 0.08 0.10 0.10 0.08 0.05 0.03 0.02 0.01 0.01 0.00 0.00 0.00 0.00 0.00 0.00 0.00 0.00 0.00 0.00 0.00 0.00 0.00 0.00 0.00 0.00 0.00 0.00 0.00 0.00 0.00 0.00 0.00 0.00 0.00 0.00 0.00 0.00 0.00 0.00
0.12 0.09 0.06 0.02 0.01 0.01 0.03 0.05 0.02 0.01 0.01 0.01 0.01 0.01 0.01 0.00 0.00 0.00 0.00 0.00 0.00 0.00 0.00 0.00 0.00 0.00 0.00 0.00 0.00 0.00 0.00 0.00 0.00 0.00 0.00 0.00 0.00 0.00 0.00 0.00 0.00 0.00 0.00 0.00
0.07 0.04 0.01 0.00 0.00 0.00 0.02 0.01 0.00 0.00 0.00 0.00 0.00 0.01 0.00 0.00 0.00 0.00 0.00 0.00 0.00 0.00 0.00 0.00 0.00 0.00 0.00 0.00 0.00 0.00 0.00 0.00 0.00 0.00 0.00 0.00 0.00 0.00 0.00 0.00 0.00 0.00 0.00 0.00
0.03 0.02 0.00 0.00 0.00 0.00 0.00 0.00 0.00 0.00 0.00 0.00 0.00 0.00 0.00 0.00 0.00 0.00 0.00 0.00 0.00 0.00 0.00 0.00 0.00 0.00 0.00 0.00 0.00 0.00 0.00 0.00 0.00 0.00 0.00 0.00 0.00 0.00 0.00 0.00 0.00 0.00 0.00 0.00
0.00 0.00 0.00 0.00 0.00 0.00 0.00 0.00 0.00 0.00 0.00 0.00 0.00 0.00 0.00 0.00 0.00 0.00 0.00 0.00 0.00 0.00 0.00 0.00 0.00 0.00 0.00 0.00 0.00 0.00 0.00 0.00 0.00 0.00 0.00 0.00 0.00 0.00 0.00 0.00 0.00 0.00 0.00 0.00
0.00 0.00 0.00 0.00 0.00 0.00 0.00 0.00 0.00 0.00 0.00 0.00 0.00 0.00 0.00 0.00 0.00 0.00 0.00 0.00 0.00 0.00 0.00 0.00 0.00 0.00 0.00 0.00 0.00 0.00 0.00 0.00 0.00 0.00 0.00 0.00 0.00 0.00 0.00 0.00 0.00 0.00 0.00 0.00
0.00 0.00 0.00 0.00 0.00 0.00 0.00 0.00 0.00 0.00 0.00 0.00 0.00 0.00 0.00 0.00 0.00 0.00 0.00 0.00 0.00 0.00 0.00 0.00 0.00 0.00 0.00 0.00 0.00 0.00 0.00 0.00 0.00 0.00 0.00 0.00 0.00 0.00 0.00 0.00 0.00 0.00 0.01 0.01
0.00 0.00 0.00 0.00 0.00 0.00 0.00 0.00 0.00 0.00 0.00 0.00 0.00 0.00 0.00 0.00 0.00 0.00 0.00 0.00 0.00 0.00 0.00 0.00 0.00 0.00 0.00 0.00 0.00 0.00 0.00 0.00 0.00 0.00 0.00 0.00 0.00 0.00 0.00 0.00 0.00 0.00 0.01 0.02
0.00 0.00 0.00 0.00 0.00 0.00 0.00 0.00 0.00 0.00 0.00 0.00 0.00 0.00 0.00 0.00 0.00 0.00 0.00 0.00 0.00 0.00 0.00 0.00 0.00 0.00 0.00 0.00 0.00 0.00 0.00 0.00 0.00 0.00 0.00 0.00 0.00 0.00 0.00 0.00 0.00 0.00 0.00 0.01
0.00 0.00 0.00 0.00 0.00 0.00 0.00 0.00 0.00 0.00 0.00 0.00 0.00 0.00 0.00 0.00 0.00 0.00 0.00 0.00 0.00 0.00 0.00 0.00 0.00 0.00 0.00 0.00 0.00 0.00 0.00 0.00 0.00 0.00 0.00 0.00 0.00 0.00 0.00 0.00 0.00 0.00 0.00 0.00
0.00 0.00 0.00 0.00 0.00 0.00 0.00 0.00 0.00 0.00 0.00 0.00 0.00 0.00 0.00 0.00 0.00 0.00 0.00 0.00 0.00 0.00 0.00 0.00 0.00 0.00 0.00 0.00 0.00 0.00 0.00 0.00 0.00 0.00 0.00 0.00 0.00 0.00 0.00 0.00 0.00 0.00 0.00 0.00
0.00 0.00 0.00 0.00 0.00 0.00 0.00 0.00 0.00 0.00 0.00 0.00 0.00 0.00 0.00 0.00 0.00 0.00 0.00 0.00 0.00 0.00 0.00 0.00 0.00 0.00 0.00 0.00 0.00 0.00 0.00 0.00 0.00 0.00 0.00 0.00 0.00 0.00 0.00 0.00 0.01 0.01 0.01 0.00
0.00 0.00 0.00 0.00 0.00 0.00 0.00 0.00 0.00 0.00 0.00 0.00 0.00 0.00 0.00 0.00 0.00 0.00 0.00 0.00 0.00 0.00 0.00 0.00 0.00 0.00 0.00 0.00 0.00 0.00 0.00 0.00 0.00 0.00 0.00 0.00 0.00 0.00 0.01 0.01 0.01 0.01 0.00 0.00
0.00 0.00 0.00 0.00 0.00 0.00 0.00 0.00 0.00 0.00 0.00 0.00 0.00 0.00 0.00 0.00 0.00 0.00 0.00 0.00 0.00 0.00 0.00 0.00 0.00 0.00 0.00 0.00 0.00 0.00 0.00 0.00 0.00 0.00 0.00 0.00 0.00 0.01 0.01 0.01 0.01 0.01 0.01 0.01
0.00 0.00 0.00 0.00 0.00 0.00 0.00 0.00 0.00 0.00 0.00 0.00 0.00 0.00 0.00 0.00 0.00 0.00 0.00 0.00 0.00 0.00 0.00 0.00 0.00 0.00 0.00 0.00 0.00 0.00 0.00 0.00 0.00 0.00 0.00 0.00 0.00 0.00 0.00 0.01 0.01 0.01 0.01 0.01
0.00 0.00 0.00 0.00 0.00 0.00 0.00 0.00 0.00 0.00 0.00 0.00 0.00 0.00 0.00 0.00 0.00 0.00 0.00 0.00 0.00 0.00 0.00 0.00 0.00 0.00 0.00 0.00 0.00 0.00 0.00 0.00 0.00 0.00 0.00 0.00 0.00 0.00 0.00 0.00 0.01 0.01 0.01 0.01
0.00 0.00 0.00 0.00 0.00 0.00 0.00 0.00 0.00 0.00 0.00 0.00 0.00 0.00 0.00 0.00 0.00 0.00 0.00 0.00 0.00 0.00 0.00 0.00 0.00 0.00 0.00 0.00 0.00 0.00 0.00 0.00 0.00 0.00 0.00 0.00 0.00 0.00 0.00 0.00 0.01 0.01 0.01 0.02
0.00 0.00 0.00 0.00 0.00 0.00 0.00 0.00 0.00 0.00 0.00 0.00 0.00 0.00 0.00 0.00 0.00 0.00 0.00 0.00 0.00 0.00 0.00 0.00 0.00 0.00 0.00 0.00 0.00 0.00 0.00 0.00 0.00 0.00 0.00 0.00 0.00 0.00 0.01 0.01 0.02 0.03 0.03 0.03
0.00 0.00 0.00 0.00 0.00 0.00 0.00 0.00 0.00 0.00 0.00 0.00 0.00 0.00 0.00 0.00 0.00 0.00 0.00 0.00 0.00 0.00 0.00 0.00 0.00 0.00 0.00 0.00 0.00 0.00 0.00 0.00 0.00 0.00 0.00 0.00 0.00 0.01 0.03 0.04 0.04 0.03 0.03 0.03
0.00 0.00 0.00 0.00 0.00 0.00 0.00 0.00 0.00 0.00 0.00 0.00 0.00 0.00 0.00 0.00 0.00 0.00 0.00 0.00 0.00 0.00 0.00 0.00 0.00 0.00 0.00 0.00 0.00 0.00 0.00 0.00 0.00 0.00 0.00 0.01 0.01 0.03 0.03 0.03 0.03 0.03 0.03 0.03
0.00 0.00 0.00 0.00 0.00 0.00 0.00 0.00 0.00 0.00 0.00 0.00 0.00 0.00 0.00 0.00 0.00 0.00 0.00 0.00 0.00 0.00 0.00 0.00 0.00 0.00 0.00 0.00 0.00 0.00 0.00 0.00 0.00 0.00 0.01 0.02 0.02 0.02 0.03 0.03 0.03 0.04 0.03 0.03
0.00 0.00 0.00 0.00 0.00 0.00 0.00 0.00 0.00 0.00 0.00 0.00 0.00 0.00 0.00 0.00 0.00 0.00 0.00 0.00 0.00 0.00 0.00 0.00 0.00 0.00 0.00 0.00 0.00 0.00 0.00 0.00 0.00 0.00 0.01 0.01 0.02 0.03 0.03 0.03 0.03 0.03 0.02 0.02
0.00 0.00 0.00 0.00 0.00 0.00 0.00 0.00 0.00 0.00 0.00 0.00 0.00 0.00 0.00 0.00 0.00 0.00 0.00 0.00 0.00 0.00 0.00 0.00 0.00 0.00 0.00 0.00 0.00 0.00 0.00 0.00 0.00 0.01 0.02 0.02 0.03 0.03 0.03 0.03 0.03 0.03 0.03 0.02

GEFSNGP_prec_meanprecacc_036.txt.gz
Total_Precipitation_Accumulation
0.37 0.29 0.44 0.45 0.43 0.51 0.66 0.58 0.46 0.23 0.13 0.09 0.06 0.08 0.07 0.06 0.04 0.03 0.02 0.02 0.01 0.01 0.00 0.00 0.00 0.00 0.00 0.00 0.00 0.00 0.00 0.00 0.00 0.00 0.00 0.00 0.00 0.00 0.00 0.00 0.00 0.00 0.00 0.00
0.44 0.27 0.37 0.42 0.38 0.38 0.40 0.40 0.35 0.25 0.20 0.10 0.07 0.07 0.07 0.06 0.04 0.03 0.02 0.01 0.01 0.01 0.00 0.00 0.00 0.00 0.00 0.00 0.00 0.00 0.00 0.00 0.00 0.00 0.00 0.00 0.00 0.00 0.00 0.00 0.00 0.00 0.00 0.00
0.48 0.30 0.38 0.42 0.35 0.34 0.33 0.28 0.26 0.25 0.19 0.11 0.10 0.09 0.08 0.06 0.04 0.03 0.02 0.01 0.01 0.01 0.00 0.00 0.00 0.00 0.00 0.00 0.00 0.00 0.00 0.00 0.00 0.00 0.00 0.00 0.00 0.00 0.00 0.00 0.00 0.00 0.00 0.00
0.41 0.32 0.43 0.32 0.25 0.25 0.25 0.22 0.21 0.17 0.11 0.08 0.07 0.06 0.06 0.04 0.03 0.02 0.01 0.01 0.01 0.00 0.00 0.00 0.00 0.00 0.00 0.00 0.00 0.00 0.00 0.00 0.00 0.00 0.00 0.00 0.00 0.00 0.00 0.00 0.00 0.00 0.00 0.00
0.31 0.26 0.22 0.16 0.15 0.17 0.21 0.20 0.15 0.10 0.06 0.04 0.04 0.06 0.05 0.03 0.02 0.02 0.01 0.01 0.00 0.00 0.00 0.00 0.00 0.00 0.00 0.00 0.00 0.00 0.00 0.00 0.00 0.00 0.00 0.00 0.00 0.00 0.00 0.00 0.00 0.00 0.00 0.00
0.20 0.19 0.13 0.07 0.05 0.06 0.12 0.15 0.08 0.07 0.05 0.04 0.04 0.06 0.04 0.02 0.01 0.01 0.01 0.00 0.00 0.00 0.00 0.00 0.00 0.00 0.00 0.00 0.00 0.00 0.00 0.00 0.00 0.00 0.00 0.00 0.00 0.00 0.00 0.00 0.00 0.00 0.00 0.00
0.11 0.10 0.03 0.01 0.01 0.03 0.06 0.06 0.03 0.03 0.03 0.03 0.03 0.02 0.02 0.01 0.00 0.00 0.00 0.00 0.00 0.00 0.00 0.00 0.00 0.00 0.00 0.00 0.00 0.00 0.00 0.00 0.00 0.00 0.00 0.00 0.00 0.00 0.00 0.00 0.00 0.00 0.00 0.00
0.04 0.04 0.01 0.00 0.00 0.01 0.01 0.02 0.02 0.02 0.02 0.02 0.02 0.01 0.01 0.00 0.00 0.00 0.00 0.00 0.00 0.00 0.00 0.00 0.00 0.00 0.00 0.00 0.00 0.00 0.00 0.00 0.00 0.00 0.00 0.00 0.00 0.00 0.00 0.00 0.00 0.00 0.00 0.00
0.00 0.00 0.00 0.00 0.00 0.00 0.00 0.01 0.01 0.02 0.02 0.02 0.01 0.01 0.01 0.00 0.00 0.00 0.00 0.00 0.00 0.00 0.00 0.00 0.00 0.00 0.00 0.00 0.00 0.00 0.00 0.00 0.00 0.00 0.00 0.00 0.00 0.00 0.00 0.00 0.00 0.00 0.00 0.00
0.00 0.00 0.00 0.00 0.00 0.00 0.00 0.00 0.00 0.00 0.00 0.01 0.01 0.02 0.01 0.00 0.00 0.00 0.00 0.00 0.00 0.00 0.00 0.00 0.00 0.00 0.00 0.00 0.00 0.00 0.00 0.00 0.00 0.00 0.00 0.00 0.00 0.00 0.00 0.00 0.00 0.00 0.00 0.00
0.00 0.00 0.00 0.00 0.00 0.00 0.00 0.00 0.00 0.00 0.00 0.00 0.00 0.00 0.00 0.00 0.00 0.00 0.00 0.00 0.00 0.00 0.00 0.00 0.00 0.00 0.00 0.00 0.00 0.00 0.00 0.00 0.00 0.00 0.00 0.00 0.00 0.00 0.00 0.00 0.00 0.00 0.01 0.01
0.00 0.00 0.00 0.00 0.00 0.00 0.00 0.00 0.00 0.00 0.00 0.00 0.00 0.00 0.00 0.00 0.00 0.00 0.00 0.00 0.00 0.00 0.00 0.00 0.00 0.00 0.00 0.00 0.00 0.00 0.00 0.00 0.00 0.00 0.00 0.00 0.00 0.00 0.00 0.00 0.00 0.00 0.01 0.02
0.00 0.00 0.00 0.00 0.00 0.00 0.00 0.00 0.00 0.00 0.00 0.00 0.00 0.00 0.00 0.00 0.00 0.00 0.00 0.00 0.00 0.00 0.00 0.00 0.00 0.00 0.00 0.00 0.00 0.00 0.00 0.00 0.00 0.00 0.00 0.00 0.00 0.00 0.00 0.00 0.00 0.00 0.00 0.01
0.00 0.00 0.00 0.00 0.00 0.00 0.00 0.00 0.00 0.00 0.00 0.00 0.00 0.00 0.00 0.00 0.00 0.00 0.00 0.00 0.00 0.00 0.00 0.00 0.00 0.00 0.00 0.00 0.00 0.00 0.00 0.00 0.00 0.00 0.00 0.00 0.00 0.00 0.00 0.00 0.00 0.00 0.00 0.00
0.00 0.00 0.00 0.00 0.00 0.00 0.00 0.00 0.00 0.00 0.00 0.00 0.00 0.00 0.00 0.00 0.00 0.00 0.00 0.00 0.00 0.00 0.00 0.00 0.00 0.00 0.00 0.00 0.00 0.00 0.00 0.00 0.00 0.00 0.00 0.00 0.00 0.00 0.00 0.00 0.00 0.00 0.00 0.00
0.00 0.00 0.00 0.00 0.00 0.01 0.01 0.00 0.00 0.00 0.00 0.00 0.00 0.00 0.00 0.00 0.00 0.00 0.00 0.00 0.00 0.00 0.00 0.00 0.00 0.00 0.00 0.00 0.00 0.00 0.00 0.00 0.00 0.00 0.00 0.00 0.00 0.00 0.00 0.00 0.01 0.01 0.01 0.00
0.00 0.00 0.00 0.00 0.00 0.01 0.01 0.00 0.00 0.00 0.00 0.00 0.00 0.00 0.00 0.00 0.00 0.00 0.00 0.00 0.00 0.00 0.00 0.00 0.00 0.00 0.00 0.00 0.00 0.00 0.00 0.00 0.00 0.00 0.00 0.00 0.00 0.00 0.01 0.01 0.01 0.01 0.00 0.00
0.00 0.00 0.00 0.00 0.00 0.00 0.00 0.00 0.00 0.00 0.00 0.00 0.00 0.00 0.00 0.00 0.00 0.00 0.00 0.00 0.00 0.00 0.00 0.00 0.00 0.00 0.00 0.00 0.00 0.00 0.00 0.00 0.00 0.00 0.00 0.00 0.00 0.01 0.01 0.01 0.01 0.01 0.01 0.01
0.00 0.00 0.00 0.00 0.00 0.00 0.00 0.00 0.00 0.00 0.00 0.00 0.00 0.00 0.00 0.00 0.00 0.00 0.00 0.00 0.00 0.00 0.00 0.00 0.00 0.00 0.00 0.00 0.00 0.00 0.00 0.00 0.00 0.00 0.00 0.00 0.00 0.00 0.00 0.01 0.01 0.01 0.01 0.01
0.00 0.00 0.00 0.00 0.00 0.00 0.00 0.00 0.00 0.00 0.00 0.00 0.00 0.00 0.00 0.00 0.00 0.00 0.00 0.00 0.00 0.00 0.00 0.00 0.00 0.00 0.00 0.00 0.00 0.00 0.00 0.00 0.00 0.00 0.00 0.00 0.00 0.00 0.00 0.00 0.01 0.01 0.01 0.01
0.00 0.00 0.00 0.00 0.00 0.00 0.00 0.00 0.00 0.00 0.00 0.00 0.00 0.00 0.00 0.00 0.00 0.00 0.00 0.00 0.00 0.00 0.00 0.00 0.00 0.00 0.00 0.00 0.00 0.00 0.00 0.00 0.00 0.00 0.00 0.00 0.00 0.00 0.00 0.00 0.01 0.01 0.01 0.02
0.00 0.00 0.00 0.00 0.00 0.00 0.00 0.00 0.00 0.00 0.00 0.00 0.00 0.00 0.00 0.00 0.00 0.00 0.00 0.00 0.00 0.00 0.00 0.00 0.00 0.00 0.00 0.00 0.00 0.00 0.00 0.00 0.00 0.00 0.00 0.00 0.00 0.00 0.01 0.01 0.02 0.03 0.03 0.03
0.00 0.00 0.00 0.00 0.00 0.00 0.00 0.00 0.00 0.00 0.00 0.00 0.00 0.00 0.00 0.00 0.00 0.00 0.00 0.00 0.00 0.00 0.00 0.00 0.00 0.00 0.00 0.00 0.00 0.00 0.00 0.00 0.00 0.00 0.00 0.00 0.00 0.01 0.03 0.04 0.04 0.04 0.03 0.03
0.00 0.00 0.00 0.00 0.00 0.00 0.00 0.00 0.00 0.00 0.00 0.00 0.00 0.00 0.00 0.00 0.00 0.00 0.00 0.00 0.00 0.00 0.00 0.00 0.00 0.00 0.00 0.00 0.00 0.00 0.00 0.00 0.00 0.00 0.00 0.01 0.01 0.03 0.03 0.03 0.04 0.03 0.03 0.03
0.00 0.00 0.00 0.00 0.00 0.00 0.00 0.00 0.00 0.00 0.00 0.00 0.00 0.00 0.00 0.00 0.00 0.00 0.00 0.00 0.00 0.00 0.00 0.00 0.00 0.00 0.00 0.00 0.00 0.00 0.00 0.00 0.00 0.00 0.01 0.02 0.02 0.02 0.03 0.03 0.03 0.04 0.03 0.03
0.00 0.00 0.00 0.00 0.00 0.00 0.00 0.00 0.00 0.00 0.00 0.00 0.00 0.00 0.00 0.00 0.00 0.00 0.00 0.00 0.00 0.00 0.00 0.00 0.00 0.00 0.00 0.00 0.00 0.00 0.00 0.00 0.00 0.00 0.01 0.01 0.02 0.03 0.03 0.03 0.03 0.03 0.03 0.03
0.00 0.00 0.00 0.00 0.00 0.00 0.00 0.00 0.00 0.00 0.00 0.00 0.00 0.00 0.00 0.00 0.00 0.00 0.00 0.00 0.00 0.00 0.00 0.00 0.00 0.00 0.00 0.00 0.00 0.00 0.00 0.00 0.00 0.01 0.02 0.02 0.03 0.03 0.03 0.03 0.03 0.03 0.03 0.03

GEFSNGP_prec_meanprecacc_042.txt.gz
Total_Precipitation_Accumulation
0.37 0.29 0.44 0.46 0.44 0.53 0.75 0.70 0.59 0.28 0.14 0.09 0.08 0.10 0.10 0.08 0.06 0.05 0.04 0.03 0.02 0.02 0.01 0.01 0.00 0.00 0.00 0.00 0.00 0.00 0.01 0.01 0.01 0.01 0.01 0.01 0.01 0.00 0.00 0.00 0.00 0.00 0.00 0.00
0.44 0.27 0.37 0.42 0.39 0.41 0.45 0.46 0.43 0.30 0.23 0.12 0.10 0.12 0.11 0.09 0.07 0.06 0.04 0.04 0.03 0.02 0.02 0.01 0.00 0.00 0.00 0.00 0.00 0.01 0.01 0.01 0.01 0.01 0.01 0.01 0.00 0.00 0.00 0.00 0.00 0.00 0.00 0.00
0.49 0.30 0.38 0.43 0.37 0.39 0.37 0.32 0.33 0.33 0.25 0.15 0.15 0.15 0.13 0.10 0.07 0.06 0.03 0.03 0.02 0.02 0.01 0.01 0.00 0.00 0.00 0.01 0.01 0.01 0.01 0.01 0.01 0.01 0.01 0.00 0.00 0.00 0.00 0.00 0.00 0.00 0.00 0.00
0.43 0.33 0.45 0.34 0.27 0.28 0.29 0.27 0.28 0.25 0.18 0.14 0.13 0.15 0.14 0.11 0.07 0.05 0.04 0.02 0.01 0.01 0.01 0.00 0.00 0.01 0.01 0.01 0.01 0.01 0.01 0.01 0.01 0.01 0.01 0.01 0.01 0.01 0.01 0.01 0.01 0.01 0.00 0.00
0.34 0.28 0.23 0.18 0.18 0.20 0.26 0.26 0.23 0.16 0.11 0.09 0.10 0.14 0.15 0.12 0.08 0.05 0.03 0.04 0.03 0.03 0.02 0.01 0.02 0.02 0.02 0.02 0.02 0.02 0.03 0.03 0.02 0.02 0.02 0.02 0.02 0.01 0.01 0.01 0.01 0.00 0.00 0.00
0.25 0.23 0.14 0.09 0.06 0.08 0.15 0.21 0.14 0.13 0.12 0.11 0.13 0.15 0.14 0.11 0.08 0.08 0.06 0.05 0.05 0.06 0.06 0.07 0.06 0.06 0.06 0.05 0.06 0.05 0.05 0.04 0.04 0.04 0.03 0.02 0.01 0.01 0.00 0.00 0.00 0.00 0.00 0.00
0.16 0.14 0.04 0.02 0.02 0.03 0.08 0.10 0.05 0.05 0.07 0.09 0.09 0.08 0.09 0.07 0.06 0.07 0.08 0.08 0.07 0.07 0.08 0.09 0.08 0.08 0.07 0.07 0.06 0.06 0.05 0.04 0.02 0.02 0.01 0.01 0.00 0.00 0.00 0.00 0.00 0.00 0.00 0.00
0.05 0.06 0.02 0.00 0.01 0.02 0.02 0.02 0.03 0.04 0.06 0.07 0.07 0.06 0.06 0.06 0.06 0.05 0.04 0.05 0.06 0.06 0.08 0.08 0.09 0.09 0.08 0.07 0.05 0.04 0.03 0.01 0.01 0.00 0.00 0.00 0.00 0.00 0.00 0.00 0.00 0.00 0.00 0.00
0.01 0.01 0.00 0.00 0.00 0.00 0.00 0.01 0.02 0.04 0.05 0.06 0.05 0.05 0.05 0.04 0.03 0.03 0.03 0.03 0.04 0.05 0.05 0.06 0.06 0.07 0.05 0.03 0.02 0.01 0.01 0.01 0.00 0.00 0.00 0.00 0.00 0.00 0.00 0.00 0.00 0.00 0.00 0.00
0.00 0.00 0.00 0.00 0.00 0.00 0.00 0.00 0.00 0.01 0.02 0.05 0.06 0.06 0.06 0.03 0.02 0.02 0.01 0.01 0.02 0.02 0.02 0.02 0.02 0.02 0.01 0.00 0.00 0.00 0.00 0.00 0.00 0.00 0.00 0.00 0.00 0.00 0.00 0.00 0.00 0.00 0.00 0.00
0.00 0.00 0.00 0.00 0.00 0.00 0.00 0.00 0.00 0.00 0.00 0.01 0.02 0.02 0.03 0.03 0.02 0.02 0.01 0.01 0.01 0.00 0.00 0.00 0.00 0.00 0.00 0.00 0.00 0.00 0.00 0.00 0.00 0.00 0.00 0.00 0.00 0.00 0.00 0.00 0.00 0.00 0.01 0.01
0.00 0.00 0.00 0.00 0.00 0.00 0.00 0.00 0.00 0.00 0.00 0.00 0.00 0.00 0.00 0.01 0.00 0.00 0.00 0.00 0.00 0.00 0.00 0.00 0.00 0.00 0.00 0.00 0.00 0.00 0.00 0.00 0.00 0.00 0.00 0.00 0.00 0.00 0.00 0.00 0.00 0.00 0.01 0.02
0.00 0.00 0.00 0.00 0.00 0.00 0.00 0.00 0.00 0.00 0.00 0.00 0.00 0.00 0.00 0.00 0.00 0.00 0.00 0.00 0.00 0.00 0.00 0.00 0.00 0.00 0.00 0.00 0.00 0.00 0.00 0.00 0.00 0.00 0.00 0.00 0.00 0.00 0.00 0.00 0.00 0.00 0.00 0.01
0.00 0.00 0.00 0.00 0.00 0.00 0.00 0.00 0.00 0.00 0.00 0.00 0.00 0.00 0.00 0.00 0.00 0.00 0.00 0.00 0.00 0.00 0.00 0.00 0.00 0.00 0.00 0.00 0.00 0.00 0.00 0.00 0.00 0.00 0.00 0.00 0.00 0.00 0.00 0.00 0.00 0.00 0.00 0.00
0.00 0.00 0.00 0.00 0.00 0.00 0.00 0.00 0.00 0.00 0.00 0.00 0.00 0.00 0.00 0.00 0.00 0.00 0.00 0.00 0.00 0.00 0.00 0.00 0.00 0.00 0.00 0.00 0.00 0.00 0.00 0.00 0.00 0.00 0.00 0.00 0.00 0.00 0.00 0.00 0.00 0.00 0.00 0.00
0.00 0.00 0.00 0.00 0.00 0.01 0.01 0.00 0.00 0.00 0.00 0.00 0.00 0.00 0.00 0.00 0.00 0.00 0.00 0.00 0.00 0.00 0.00 0.00 0.00 0.00 0.00 0.00 0.00 0.00 0.00 0.00 0.00 0.00 0.00 0.00 0.00 0.00 0.00 0.00 0.01 0.01 0.01 0.00
0.00 0.00 0.00 0.01 0.01 0.01 0.01 0.01 0.00 0.00 0.00 0.00 0.00 0.00 0.00 0.00 0.00 0.00 0.00 0.00 0.00 0.00 0.00 0.00 0.00 0.00 0.00 0.00 0.00 0.00 0.00 0.00 0.00 0.00 0.00 0.00 0.00 0.00 0.01 0.01 0.01 0.01 0.00 0.00
0.00 0.00 0.00 0.01 0.01 0.01 0.01 0.01 0.01 0.00 0.00 0.00 0.00 0.00 0.00 0.00 0.00 0.00 0.00 0.00 0.00 0.00 0.00 0.00 0.00 0.00 0.00 0.00 0.00 0.00 0.00 0.00 0.00 0.00 0.00 0.00 0.00 0.01 0.01 0.01 0.01 0.01 0.01 0.01
0.00 0.00 0.00 0.01 0.01 0.01 0.01 0.00 0.00 0.00 0.00 0.00 0.00 0.00 0.00 0.00 0.00 0.00 0.00 0.00 0.00 0.00 0.00 0.00 0.00 0.00 0.00 0.00 0.00 0.00 0.00 0.00 0.00 0.00 0.00 0.00 0.00 0.00 0.00 0.01 0.01 0.01 0.01 0.01
0.00 0.00 0.00 0.00 0.01 0.00 0.00 0.00 0.00 0.00 0.00 0.00 0.00 0.00 0.00 0.00 0.00 0.00 0.00 0.00 0.00 0.00 0.00 0.00 0.00 0.00 0.00 0.00 0.00 0.00 0.00 0.00 0.00 0.00 0.00 0.00 0.00 0.00 0.00 0.00 0.01 0.01 0.01 0.01
0.00 0.00 0.00 0.00 0.00 0.00 0.00 0.00 0.00 0.00 0.00 0.00 0.00 0.00 0.00 0.00 0.00 0.00 0.00 0.00 0.00 0.00 0.00 0.00 0.00 0.00 0.00 0.00 0.00 0.00 0.00 0.00 0.00 0.00 0.00 0.00 0.00 0.00 0.00 0.00 0.01 0.01 0.01 0.02
0.00 0.00 0.00 0.00 0.00 0.00 0.00 0.00 0.00 0.00 0.00 0.00 0.00 0.00 0.00 0.00 0.00 0.00 0.00 0.00 0.00 0.00 0.00 0.00 0.00 0.00 0.00 0.00 0.00 0.00 0.00 0.00 0.00 0.00 0.00 0.00 0.00 0.00 0.01 0.01 0.02 0.03 0.03 0.03
0.00 0.00 0.00 0.00 0.00 0.00 0.00 0.00 0.00 0.00 0.00 0.00 0.00 0.00 0.00 0.00 0.00 0.00 0.00 0.00 0.00 0.00 0.00 0.00 0.00 0.00 0.00 0.00 0.00 0.00 0.00 0.00 0.00 0.00 0.00 0.00 0.00 0.01 0.03 0.04 0.04 0.04 0.03 0.03
0.00 0.01 0.01 0.01 0.01 0.01 0.00 0.00 0.00 0.00 0.00 0.00 0.00 0.00 0.00 0.00 0.00 0.00 0.00 0.00 0.00 0.00 0.00 0.00 0.00 0.00 0.00 0.00 0.00 0.00 0.00 0.00 0.00 0.00 0.00 0.01 0.01 0.03 0.03 0.03 0.04 0.03 0.03 0.03
0.00 0.01 0.01 0.01 0.01 0.01 0.01 0.01 0.00 0.00 0.00 0.00 0.00 0.00 0.00 0.00 0.00 0.00 0.00 0.00 0.00 0.00 0.00 0.00 0.00 0.00 0.00 0.00 0.00 0.00 0.00 0.00 0.00 0.00 0.01 0.02 0.02 0.02 0.03 0.03 0.03 0.04 0.03 0.03
0.00 0.00 0.00 0.01 0.01 0.01 0.01 0.01 0.00 0.00 0.00 0.00 0.00 0.00 0.00 0.00 0.00 0.00 0.00 0.00 0.00 0.00 0.00 0.00 0.00 0.00 0.00 0.00 0.00 0.00 0.00 0.00 0.00 0.00 0.01 0.01 0.02 0.03 0.03 0.03 0.03 0.03 0.03 0.03
0.00 0.00 0.00 0.00 0.01 0.01 0.01 0.01 0.01 0.00 0.00 0.00 0.00 0.00 0.00 0.00 0.00 0.00 0.00 0.00 0.00 0.00 0.00 0.00 0.00 0.00 0.00 0.00 0.00 0.00 0.00 0.00 0.00 0.01 0.02 0.02 0.03 0.03 0.03 0.03 0.03 0.03 0.03 0.03

GEFSNGP_prec_meanprecacc_048.txt.gz
Total_Precipitation_Accumulation
0.37 0.29 0.44 0.46 0.44 0.53 0.75 0.70 0.61 0.29 0.14 0.10 0.09 0.12 0.12 0.10 0.07 0.07 0.06 0.05 0.05 0.04 0.04 0.03 0.02 0.02 0.01 0.01 0.01 0.02 0.03 0.03 0.03 0.04 0.04 0.04 0.03 0.03 0.02 0.02 0.02 0.02 0.02 0.02
0.44 0.27 0.37 0.42 0.39 0.41 0.45 0.47 0.44 0.31 0.24 0.13 0.12 0.14 0.13 0.10 0.08 0.08 0.06 0.06 0.05 0.04 0.04 0.04 0.03 0.02 0.03 0.02 0.02 0.02 0.03 0.03 0.03 0.03 0.03 0.03 0.02 0.02 0.02 0.03 0.03 0.03 0.04 0.06
0.49 0.30 0.38 0.43 0.37 0.39 0.37 0.33 0.34 0.35 0.27 0.17 0.17 0.17 0.14 0.11 0.09 0.08 0.05 0.04 0.03 0.03 0.03 0.03 0.02 0.02 0.02 0.02 0.03 0.03 0.03 0.03 0.03 0.03 0.03 0.03 0.03 0.04 0.05 0.05 0.06 0.06 0.07 0.07
0.43 0.33 0.45 0.34 0.27 0.28 0.30 0.27 0.29 0.27 0.20 0.15 0.15 0.17 0.16 0.12 0.08 0.06 0.04 0.03 0.02 0.01 0.02 0.02 0.02 0.02 0.02 0.02 0.03 0.02 0.02 0.03 0.04 0.04 0.06 0.07 0.09 0.10 0.11 0.11 0.11 0.09 0.08 0.06
0.36 0.29 0.23 0.18 0.18 0.21 0.27 0.27 0.24 0.17 0.12 0.10 0.11 0.16 0.16 0.13 0.09 0.06 0.04 0.04 0.04 0.03 0.03 0.02 0.02 0.03 0.03 0.04 0.05 0.05 0.05 0.07 0.10 0.12 0.14 0.15 0.16 0.16 0.15 0.14 0.12 0.09 0.07 0.04
0.27 0.25 0.14 0.09 0.06 0.08 0.16 0.22 0.15 0.13 0.12 0.12 0.13 0.16 0.14 0.12 0.10 0.10 0.08 0.06 0.06 0.07 0.08 0.08 0.09 0.10 0.10 0.11 0.13 0.15 0.15 0.16 0.19 0.22 0.24 0.23 0.20 0.17 0.14 0.11 0.08 0.05 0.03 0.02
0.19 0.17 0.04 0.02 0.03 0.04 0.10 0.11 0.05 0.06 0.08 0.10 0.09 0.09 0.10 0.08 0.08 0.10 0.11 0.11 0.11 0.11 0.13 0.15 0.14 0.16 0.16 0.16 0.21 0.26 0.28 0.28 0.26 0.25 0.23 0.20 0.16 0.12 0.09 0.06 0.04 0.02 0.01 0.00
0.07 0.07 0.03 0.01 0.01 0.02 0.03 0.03 0.04 0.05 0.06 0.08 0.08 0.07 0.07 0.09 0.09 0.08 0.07 0.09 0.11 0.13 0.15 0.17 0.20 0.23 0.24 0.25 0.27 0.27 0.26 0.24 0.22 0.18 0.15 0.13 0.10 0.07 0.05 0.03 0.01 0.01 0.00 0.00
0.01 0.01 0.00 0.00 0.00 0.00 0.00 0.01 0.02 0.04 0.05 0.06 0.06 0.07 0.06 0.05 0.05 0.06 0.06 0.08 0.10 0.14 0.16 0.18 0.20 0.23 0.25 0.24 0.22 0.21 0.20 0.18 0.14 0.11 0.09 0.06 0.04 0.02 0.01 0.01 0.00 0.00 0.00 0.00
0.01 0.00 0.00 0.00 0.00 0.00 0.00 0.00 0.00 0.01 0.02 0.05 0.07 0.07 0.06 0.03 0.03 0.03 0.03 0.04 0.06 0.08 0.09 0.10 0.11 0.13 0.14 0.12 0.11 0.11 0.10 0.09 0.07 0.04 0.03 0.01 0.01 0.00 0.00 0.00 0.00 0.00 0.00 0.00
0.01 0.00 0.00 0.00 0.00 0.00 0.00 0.00 0.00 0.00 0.00 0.01 0.02 0.03 0.04 0.03 0.03 0.02 0.02 0.02 0.03 0.03 0.03 0.04 0.05 0.05 0.05 0.04 0.03 0.03 0.02 0.02 0.01 0.01 0.00 0.00 0.00 0.00 0.00 0.00 0.00 0.00 0.01 0.01
0.01 0.00 0.00 0.00 0.00 0.00 0.00 0.00 0.00 0.00 0.00 0.00 0.00 0.01 0.01 0.01 0.01 0.00 0.01 0.01 0.01 0.01 0.01 0.01 0.01 0.01 0.01 0.01 0.01 0.00 0.00 0.00 0.00 0.00 0.00 0.00 0.00 0.00 0.00 0.00 0.00 0.00 0.01 0.02
0.00 0.00 0.00 0.00 0.00 0.00 0.00 0.00 0.00 0.00 0.00 0.00 0.01 0.00 0.00 0.00 0.01 0.01 0.00 0.00 0.00 0.00 0.00 0.00 0.00 0.00 0.00 0.00 0.00 0.00 0.00 0.00 0.00 0.00 0.00 0.00 0.00 0.00 0.00 0.00 0.00 0.00 0.00 0.01
0.00 0.00 0.00 0.00 0.00 0.00 0.00 0.00 0.00 0.00 0.00 0.00 0.01 0.00 0.00 0.00 0.01 0.00 0.00 0.00 0.00 0.00 0.00 0.00 0.00 0.00 0.00 0.00 0.00 0.00 0.00 0.00 0.00 0.00 0.00 0.00 0.00 0.00 0.00 0.00 0.00 0.00 0.00 0.00
0.00 0.00 0.00 0.00 0.00 0.00 0.00 0.00 0.00 0.00 0.00 0.00 0.00 0.00 0.00 0.00 0.00 0.00 0.00 0.00 0.00 0.00 0.00 0.00 0.00 0.00 0.00 0.00 0.00 0.00 0.00 0.00 0.00 0.00 0.00 0.00 0.00 0.00 0.00 0.00 0.00 0.00 0.00 0.00
0.00 0.00 0.00 0.00 0.00 0.01 0.01 0.00 0.00 0.00 0.00 0.00 0.00 0.00 0.00 0.00 0.00 0.00 0.00 0.00 0.00 0.00 0.00 0.00 0.00 0.00 0.00 0.00 0.00 0.00 0.00 0.00 0.00 0.00 0.00 0.00 0.00 0.00 0.00 0.00 0.01 0.01 0.01 0.00
0.00 0.00 0.01 0.01 0.01 0.01 0.01 0.01 0.00 0.00 0.00 0.00 0.00 0.00 0.00 0.00 0.00 0.00 0.00 0.00 0.00 0.00 0.00 0.00 0.00 0.00 0.00 0.00 0.00 0.00 0.00 0.00 0.00 0.00 0.00 0.00 0.00 0.00 0.01 0.01 0.01 0.01 0.00 0.00
0.00 0.00 0.01 0.01 0.01 0.01 0.01 0.01 0.01 0.01 0.00 0.00 0.00 0.00 0.00 0.01 0.01 0.01 0.01 0.00 0.00 0.00 0.00 0.00 0.00 0.00 0.00 0.00 0.00 0.00 0.00 0.00 0.00 0.00 0.00 0.00 0.00 0.01 0.01 0.01 0.01 0.01 0.01 0.01
0.00 0.01 0.01 0.01 0.01 0.02 0.01 0.01 0.01 0.01 0.00 0.00 0.00 0.00 0.00 0.00 0.00 0.00 0.00 0.00 0.00 0.00 0.00 0.00 0.00 0.00 0.00 0.00 0.00 0.00 0.00 0.00 0.00 0.00 0.00 0.00 0.00 0.00 0.00 0.01 0.01 0.01 0.01 0.01
0.00 0.01 0.01 0.02 0.02 0.02 0.02 0.01 0.01 0.01 0.01 0.00 0.00 0.00 0.00 0.00 0.00 0.00 0.00 0.00 0.00 0.00 0.00 0.00 0.00 0.00 0.00 0.00 0.00 0.00 0.00 0.00 0.00 0.00 0.00 0.00 0.00 0.00 0.00 0.00 0.01 0.01 0.01 0.01
0.01 0.01 0.02 0.03 0.03 0.03 0.03 0.01 0.01 0.01 0.01 0.00 0.00 0.00 0.00 0.00 0.00 0.00 0.00 0.00 0.00 0.00 0.00 0.00 0.00 0.00 0.00 0.00 0.00 0.00 0.00 0.00 0.00 0.00 0.00 0.00 0.00 0.00 0.00 0.00 0.01 0.01 0.01 0.02
0.01 0.01 0.01 0.02 0.03 0.03 0.03 0.01 0.01 0.01 0.00 0.00 0.00 0.00 0.00 0.00 0.00 0.00 0.00 0.00 0.00 0.00 0.00 0.00 0.00 0.00 0.00 0.00 0.00 0.00 0.00 0.00 0.00 0.00 0.00 0.00 0.00 0.00 0.01 0.01 0.02 0.03 0.03 0.03
0.01 0.02 0.01 0.01 0.02 0.02 0.02 0.02 0.01 0.01 0.00 0.00 0.00 0.00 0.00 0.00 0.00 0.00 0.00 0.00 0.00 0.00 0.00 0.00 0.00 0.00 0.00 0.00 0.00 0.00 0.00 0.00 0.00 0.00 0.00 0.00 0.00 0.01 0.03 0.04 0.04 0.04 0.03 0.03
0.01 0.01 0.01 0.02 0.02 0.02 0.02 0.01 0.01 0.01 0.01 0.00 0.00 0.00 0.00 0.00 0.00 0.00 0.00 0.00 0.00 0.00 0.00 0.00 0.00 0.00 0.00 0.00 0.00 0.00 0.00 0.00 0.00 0.00 0.00 0.01 0.01 0.03 0.03 0.03 0.04 0.03 0.03 0.03
0.01 0.01 0.01 0.01 0.02 0.02 0.02 0.01 0.01 0.01 0.01 0.01 0.01 0.00 0.00 0.00 0.00 0.00 0.00 0.00 0.00 0.00 0.00 0.00 0.00 0.00 0.00 0.00 0.00 0.00 0.00 0.00 0.00 0.00 0.01 0.02 0.02 0.02 0.03 0.03 0.03 0.04 0.03 0.03
0.01 0.01 0.01 0.01 0.01 0.01 0.01 0.01 0.01 0.01 0.01 0.01 0.01 0.01 0.01 0.01 0.00 0.00 0.00 0.00 0.00 0.00 0.00 0.00 0.00 0.00 0.00 0.00 0.00 0.00 0.00 0.00 0.00 0.00 0.01 0.01 0.02 0.03 0.03 0.03 0.03 0.03 0.03 0.03
0.00 0.00 0.01 0.01 0.01 0.01 0.01 0.01 0.01 0.01 0.01 0.01 0.01 0.01 0.01 0.01 0.00 0.00 0.00 0.00 0.00 0.00 0.00 0.00 0.00 0.00 0.00 0.00 0.00 0.00 0.00 0.00 0.00 0.01 0.02 0.02 0.03 0.03 0.03 0.03 0.03 0.03 0.03 0.03

GEFSNGP_prec_meanprecacc_054.txt.gz
Total_Precipitation_Accumulation
0.37 0.29 0.44 0.46 0.44 0.53 0.75 0.70 0.61 0.29 0.14 0.10 0.09 0.12 0.12 0.10 0.08 0.07 0.06 0.05 0.05 0.04 0.04 0.04 0.03 0.03 0.02 0.02 0.02 0.03 0.04 0.05 0.06 0.06 0.06 0.06 0.05 0.05 0.04 0.03 0.03 0.03 0.03 0.04
0.44 0.27 0.37 0.42 0.39 0.41 0.45 0.47 0.44 0.31 0.24 0.13 0.12 0.14 0.13 0.10 0.09 0.08 0.06 0.06 0.05 0.04 0.04 0.04 0.04 0.05 0.05 0.04 0.04 0.04 0.05 0.06 0.06 0.06 0.06 0.06 0.05 0.04 0.04 0.05 0.05 0.06 0.07 0.10
0.49 0.30 0.38 0.43 0.37 0.39 0.37 0.33 0.34 0.36 0.27 0.17 0.17 0.17 0.15 0.11 0.09 0.08 0.05 0.04 0.03 0.03 0.04 0.03 0.03 0.03 0.03 0.04 0.05 0.05 0.06 0.07 0.06 0.06 0.06 0.06 0.07 0.09 0.10 0.10 0.11 0.14 0.17 0.19
0.43 0.33 0.45 0.34 0.27 0.28 0.30 0.27 0.29 0.27 0.20 0.15 0.15 0.17 0.16 0.12 0.08 0.06 0.04 0.03 0.02 0.01 0.02 0.02 0.02 0.02 0.02 0.02 0.04 0.05 0.06 0.08 0.09 0.09 0.12 0.14 0.15 0.18 0.21 0.22 0.23 0.24 0.24 0.23
0.36 0.29 0.23 0.18 0.18 0.21 0.27 0.27 0.24 0.17 0.12 0.10 0.11 0.16 0.16 0.13 0.09 0.06 0.04 0.04 0.04 0.03 0.03 0.02 0.02 0.03 0.04 0.05 0.06 0.06 0.08 0.10 0.13 0.15 0.20 0.24 0.25 0.26 0.29 0.31 0.32 0.30 0.25 0.20
0.29 0.25 0.15 0.09 0.06 0.08 0.17 0.24 0.15 0.13 0.12 0.12 0.14 0.16 0.14 0.12 0.10 0.10 0.08 0.06 0.06 0.07 0.08 0.08 0.09 0.10 0.10 0.11 0.15 0.17 0.18 0.21 0.25 0.29 0.34 0.36 0.35 0.33 0.31 0.28 0.25 0.20 0.15 0.11
0.21 0.18 0.04 0.02 0.03 0.04 0.12 0.14 0.05 0.06 0.08 0.10 0.10 0.09 0.11 0.09 0.08 0.10 0.11 0.11 0.11 0.11 0.13 0.15 0.15 0.16 0.17 0.18 0.24 0.29 0.32 0.34 0.34 0.36 0.36 0.36 0.32 0.28 0.24 0.18 0.13 0.09 0.06 0.04
0.07 0.08 0.03 0.02 0.02 0.03 0.04 0.03 0.04 0.05 0.06 0.08 0.08 0.07 0.08 0.09 0.09 0.08 0.07 0.09 0.11 0.13 0.15 0.17 0.20 0.24 0.25 0.27 0.31 0.31 0.32 0.32 0.30 0.28 0.26 0.24 0.21 0.16 0.12 0.08 0.05 0.03 0.02 0.01
0.01 0.01 0.01 0.01 0.01 0.01 0.00 0.02 0.02 0.04 0.05 0.06 0.06 0.07 0.06 0.05 0.05 0.06 0.06 0.08 0.10 0.14 0.17 0.19 0.21 0.24 0.26 0.26 0.25 0.25 0.24 0.23 0.19 0.16 0.13 0.11 0.09 0.06 0.05 0.03 0.02 0.01 0.00 0.00
0.02 0.00 0.00 0.00 0.00 0.00 0.00 0.00 0.00 0.01 0.02 0.05 0.07 0.07 0.06 0.04 0.03 0.03 0.03 0.05 0.06 0.08 0.10 0.11 0.12 0.14 0.16 0.14 0.13 0.12 0.12 0.11 0.09 0.06 0.04 0.03 0.02 0.01 0.01 0.00 0.00 0.00 0.00 0.00
0.02 0.01 0.00 0.00 0.00 0.00 0.00 0.00 0.00 0.00 0.00 0.01 0.02 0.03 0.04 0.03 0.03 0.02 0.02 0.02 0.03 0.03 0.04 0.05 0.05 0.06 0.06 0.05 0.04 0.04 0.03 0.03 0.02 0.01 0.01 0.00 0.00 0.00 0.00 0.00 0.00 0.00 0.01 0.01
0.02 0.01 0.01 0.00 0.00 0.00 0.00 0.00 0.00 0.00 0.00 0.00 0.00 0.01 0.01 0.01 0.01 0.01 0.01 0.01 0.01 0.01 0.01 0.01 0.01 0.01 0.01 0.01 0.01 0.01 0.00 0.00 0.00 0.00 0.00 0.00 0.00 0.00 0.00 0.00 0.00 0.00 0.01 0.02
0.01 0.01 0.00 0.00 0.00 0.00 0.00 0.00 0.00 0.00 0.00 0.00 0.01 0.00 0.00 0.00 0.01 0.01 0.00 0.00 0.00 0.00 0.00 0.00 0.00 0.00 0.00 0.00 0.00 0.00 0.00 0.00 0.00 0.00 0.00 0.00 0.00 0.00 0.00 0.00 0.00 0.00 0.00 0.01
0.01 0.00 0.00 0.00 0.00 0.00 0.00 0.00 0.00 0.01 0.00 0.00 0.01 0.00 0.00 0.00 0.01 0.00 0.00 0.00 0.00 0.00 0.00 0.00 0.00 0.00 0.00 0.00 0.00 0.00 0.00 0.00 0.00 0.00 0.00 0.00 0.00 0.00 0.00 0.00 0.00 0.00 0.00 0.00
0.00 0.00 0.00 0.00 0.00 0.00 0.00 0.00 0.00 0.00 0.00 0.00 0.00 0.00 0.00 0.00 0.00 0.00 0.00 0.00 0.00 0.00 0.00 0.00 0.00 0.00 0.00 0.00 0.00 0.00 0.00 0.00 0.00 0.00 0.00 0.00 0.00 0.00 0.00 0.00 0.00 0.00 0.00 0.00
0.00 0.00 0.00 0.00 0.00 0.01 0.01 0.01 0.00 0.00 0.00 0.00 0.00 0.00 0.00 0.00 0.00 0.00 0.00 0.00 0.00 0.00 0.00 0.00 0.00 0.00 0.00 0.00 0.00 0.00 0.00 0.00 0.00 0.00 0.00 0.00 0.00 0.00 0.00 0.00 0.01 0.01 0.01 0.00
0.00 0.00 0.01 0.01 0.01 0.01 0.01 0.01 0.01 0.00 0.00 0.00 0.00 0.00 0.00 0.00 0.00 0.01 0.01 0.00 0.00 0.00 0.00 0.00 0.00 0.00 0.00 0.00 0.00 0.00 0.00 0.00 0.00 0.00 0.00 0.00 0.00 0.00 0.01 0.01 0.01 0.01 0.00 0.00
0.00 0.01 0.01 0.01 0.02 0.02 0.01 0.01 0.01 0.01 0.00 0.00 0.00 0.00 0.01 0.01 0.01 0.01 0.01 0.01 0.00 0.00 0.00 0.00 0.00 0.00 0.00 0.00 0.00 0.00 0.00 0.00 0.00 0.00 0.00 0.00 0.00 0.01 0.01 0.01 0.01 0.01 0.01 0.01
0.00 0.01 0.01 0.01 0.02 0.02 0.02 0.01 0.01 0.01 0.01 0.00 0.00 0.01 0.01 0.01 0.01 0.01 0.01 0.01 0.00 0.00 0.00 0.00 0.00 0.00 0.00 0.00 0.00 0.00 0.00 0.00 0.00 0.00 0.00 0.00 0.00 0.00 0.00 0.01 0.01 0.01 0.01 0.01
0.01 0.01 0.02 0.03 0.03 0.03 0.03 0.02 0.02 0.02 0.01 0.01 0.01 0.01 0.01 0.01 0.00 0.00 0.00 0.00 0.00 0.00 0.00 0.00 0.00 0.00 0.00 0.00 0.00 0.00 0.00 0.00 0.00 0.00 0.00 0.00 0.00 0.00 0.00 0.00 0.01 0.01 0.01 0.01
0.02 0.01 0.02 0.03 0.04 0.04 0.04 0.03 0.02 0.02 0.02 0.02 0.01 0.01 0.01 0.01 0.00 0.00 0.00 0.00 0.00 0.00 0.00 0.00 0.00 0.00 0.00 0.00 0.00 0.00 0.00 0.00 0.00 0.00 0.00 0.00 0.00 0.00 0.00 0.00 0.01 0.01 0.01 0.02
0.02 0.02 0.02 0.03 0.04 0.05 0.05 0.04 0.03 0.02 0.02 0.01 0.01 0.01 0.01 0.01 0.00 0.00 0.00 0.00 0.00 0.00 0.00 0.00 0.00 0.00 0.00 0.00 0.00 0.00 0.00 0.00 0.00 0.00 0.00 0.00 0.00 0.00 0.01 0.01 0.02 0.03 0.03 0.03
0.01 0.02 0.02 0.02 0.03 0.04 0.04 0.04 0.03 0.03 0.02 0.02 0.01 0.01 0.01 0.01 0.00 0.00 0.00 0.00 0.00 0.00 0.00 0.00 0.00 0.00 0.00 0.00 0.00 0.00 0.00 0.00 0.00 0.00 0.00 0.00 0.00 0.01 0.03 0.04 0.04 0.04 0.03 0.03
0.01 0.01 0.02 0.03 0.03 0.03 0.03 0.03 0.03 0.03 0.02 0.02 0.02 0.02 0.01 0.01 0.01 0.00 0.00 0.00 0.00 0.00 0.00 0.00 0.00 0.00 0.00 0.00 0.00 0.00 0.00 0.00 0.00 0.00 0.00 0.01 0.01 0.03 0.03 0.03 0.04 0.03 0.03 0.03
0.01 0.02 0.02 0.02 0.02 0.03 0.03 0.02 0.02 0.02 0.02 0.02 0.02 0.01 0.01 0.01 0.01 0.01 0.01 0.00 0.00 0.00 0.00 0.00 0.00 0.00 0.00 0.00 0.00 0.00 0.00 0.00 0.00 0.00 0.01 0.02 0.02 0.02 0.03 0.03 0.03 0.04 0.03 0.03
0.01 0.02 0.02 0.02 0.02 0.02 0.02 0.02 0.02 0.02 0.02 0.02 0.02 0.01 0.01 0.01 0.01 0.01 0.01 0.00 0.00 0.00 0.00 0.00 0.00 0.00 0.00 0.00 0.00 0.00 0.00 0.00 0.00 0.00 0.01 0.01 0.02 0.03 0.03 0.03 0.03 0.03 0.03 0.03
0.01 0.01 0.01 0.01 0.01 0.01 0.02 0.02 0.02 0.02 0.02 0.03 0.03 0.02 0.02 0.01 0.01 0.01 0.01 0.01 0.00 0.00 0.00 0.00 0.00 0.00 0.00 0.00 0.00 0.00 0.00 0.00 0.00 0.01 0.02 0.02 0.03 0.03 0.03 0.03 0.03 0.03 0.03 0.03

GEFSNGP_prec_meanprecacc_060.txt.gz
Total_Precipitation_Accumulation
0.37 0.29 0.44 0.46 0.44 0.53 0.75 0.70 0.61 0.29 0.14 0.10 0.09 0.12 0.12 0.10 0.08 0.07 0.06 0.05 0.05 0.04 0.04 0.04 0.03 0.03 0.02 0.02 0.02 0.03 0.04 0.05 0.06 0.07 0.06 0.07 0.06 0.06 0.06 0.05 0.06 0.06 0.07 0.08
0.44 0.27 0.37 0.42 0.39 0.41 0.45 0.47 0.44 0.31 0.24 0.13 0.12 0.14 0.13 0.10 0.09 0.08 0.06 0.06 0.05 0.04 0.04 0.04 0.04 0.05 0.05 0.04 0.04 0.04 0.06 0.07 0.07 0.07 0.07 0.07 0.07 0.08 0.08 0.09 0.09 0.10 0.13 0.16
0.49 0.30 0.38 0.43 0.37 0.39 0.37 0.33 0.34 0.36 0.27 0.17 0.17 0.17 0.15 0.11 0.09 0.08 0.05 0.04 0.03 0.03 0.04 0.03 0.03 0.03 0.03 0.04 0.05 0.05 0.06 0.08 0.07 0.08 0.08 0.08 0.10 0.14 0.17 0.19 0.20 0.23 0.26 0.30
0.43 0.33 0.45 0.34 0.27 0.28 0.30 0.27 0.29 0.27 0.20 0.15 0.15 0.17 0.16 0.12 0.08 0.06 0.04 0.03 0.02 0.02 0.02 0.02 0.02 0.02 0.02 0.02 0.04 0.05 0.07 0.10 0.12 0.13 0.17 0.20 0.20 0.24 0.30 0.33 0.34 0.36 0.37 0.38
0.37 0.29 0.23 0.18 0.18 0.21 0.27 0.27 0.24 0.17 0.12 0.10 0.11 0.16 0.16 0.13 0.09 0.06 0.04 0.04 0.04 0.03 0.03 0.02 0.03 0.03 0.04 0.05 0.06 0.06 0.08 0.11 0.14 0.17 0.24 0.29 0.31 0.34 0.37 0.41 0.43 0.41 0.37 0.32
0.30 0.26 0.15 0.09 0.06 0.08 0.17 0.24 0.16 0.14 0.12 0.12 0.14 0.16 0.14 0.12 0.10 0.10 0.08 0.06 0.06 0.07 0.08 0.08 0.09 0.10 0.10 0.11 0.15 0.17 0.18 0.22 0.26 0.31 0.37 0.40 0.39 0.39 0.37 0.35 0.33 0.29 0.24 0.20
0.22 0.18 0.04 0.02 0.03 0.04 0.13 0.16 0.06 0.06 0.08 0.10 0.10 0.09 0.11 0.09 0.08 0.10 0.11 0.11 0.11 0.11 0.13 0.15 0.15 0.16 0.17 0.18 0.24 0.30 0.33 0.35 0.35 0.37 0.38 0.38 0.35 0.32 0.28 0.23 0.18 0.14 0.10 0.08
0.08 0.09 0.03 0.02 0.02 0.03 0.05 0.04 0.04 0.05 0.06 0.08 0.08 0.07 0.08 0.09 0.09 0.08 0.07 0.09 0.11 0.13 0.15 0.17 0.20 0.24 0.25 0.27 0.31 0.32 0.32 0.32 0.31 0.30 0.27 0.26 0.23 0.19 0.15 0.11 0.08 0.05 0.03 0.02
0.01 0.01 0.01 0.01 0.02 0.01 0.01 0.02 0.02 0.04 0.05 0.06 0.06 0.07 0.06 0.05 0.05 0.06 0.06 0.08 0.10 0.14 0.17 0.19 0.21 0.24 0.26 0.26 0.25 0.25 0.24 0.23 0.20 0.16 0.14 0.12 0.10 0.08 0.06 0.05 0.03 0.02 0.01 0.01
0.02 0.01 0.00 0.01 0.01 0.01 0.01 0.01 0.01 0.01 0.02 0.05 0.07 0.07 0.06 0.04 0.03 0.03 0.03 0.05 0.06 0.08 0.10 0.11 0.12 0.15 0.16 0.14 0.13 0.13 0.12 0.12 0.09 0.06 0.04 0.03 0.02 0.02 0.01 0.01 0.00 0.00 0.00 0.01
0.02 0.01 0.01 0.01 0.01 0.01 0.01 0.00 0.00 0.00 0.00 0.01 0.02 0.03 0.04 0.03 0.03 0.02 0.02 0.02 0.03 0.03 0.04 0.05 0.05 0.06 0.06 0.05 0.04 0.04 0.03 0.03 0.02 0.02 0.01 0.01 0.00 0.00 0.00 0.00 0.00 0.00 0.01 0.01
0.02 0.02 0.02 0.02 0.01 0.00 0.00 0.00 0.00 0.00 0.00 0.00 0.00 0.01 0.01 0.01 0.01 0.01 0.01 0.01 0.01 0.01 0.01 0.01 0.01 0.01 0.01 0.01 0.01 0.01 0.00 0.00 0.00 0.00 0.00 0.00 0.00 0.00 0.00 0.00 0.00 0.00 0.01 0.02
0.01 0.01 0.01 0.01 0.00 0.00 0.00 0.00 0.00 0.00 0.00 0.01 0.01 0.01 0.00 0.00 0.01 0.01 0.01 0.00 0.00 0.00 0.00 0.00 0.00 0.00 0.00 0.00 0.00 0.00 0.00 0.00 0.00 0.00 0.00 0.00 0.00 0.00 0.00 0.00 0.00 0.00 0.00 0.01
0.01 0.00 0.00 0.00 0.00 0.00 0.00 0.00 0.00 0.01 0.00 0.00 0.01 0.01 0.00 0.00 0.01 0.01 0.01 0.00 0.00 0.00 0.00 0.00 0.00 0.00 0.00 0.00 0.00 0.00 0.00 0.00 0.00 0.00 0.00 0.00 0.00 0.00 0.00 0.00 0.00 0.00 0.00 0.00
0.00 0.01 0.00 0.00 0.00 0.00 0.00 0.00 0.00 0.00 0.00 0.00 0.00 0.00 0.00 0.00 0.00 0.00 0.01 0.01 0.00 0.00 0.00 0.00 0.00 0.00 0.00 0.00 0.00 0.00 0.00 0.00 0.00 0.00 0.00 0.00 0.00 0.00 0.00 0.00 0.00 0.00 0.00 0.00
0.00 0.00 0.00 0.00 0.00 0.01 0.01 0.01 0.00 0.00 0.00 0.00 0.01 0.00 0.00 0.00 0.00 0.01 0.01 0.01 0.01 0.01 0.01 0.00 0.00 0.00 0.00 0.00 0.00 0.00 0.00 0.00 0.00 0.00 0.00 0.00 0.00 0.00 0.00 0.00 0.01 0.01 0.01 0.00
0.00 0.00 0.01 0.01 0.01 0.01 0.01 0.01 0.01 0.00 0.00 0.00 0.00 0.00 0.00 0.00 0.01 0.01 0.01 0.01 0.01 0.01 0.01 0.01 0.00 0.00 0.00 0.00 0.00 0.00 0.00 0.00 0.00 0.00 0.00 0.00 0.00 0.00 0.01 0.01 0.01 0.01 0.00 0.00
0.00 0.01 0.01 0.01 0.02 0.02 0.01 0.01 0.01 0.01 0.01 0.00 0.00 0.01 0.01 0.01 0.01 0.02 0.02 0.01 0.01 0.01 0.01 0.01 0.00 0.00 0.00 0.00 0.00 0.00 0.00 0.00 0.00 0.00 0.00 0.00 0.00 0.01 0.01 0.01 0.01 0.01 0.01 0.01
0.00 0.01 0.01 0.01 0.02 0.02 0.02 0.02 0.01 0.01 0.01 0.01 0.01 0.01 0.01 0.01 0.01 0.01 0.01 0.01 0.01 0.01 0.01 0.01 0.01 0.01 0.01 0.00 0.00 0.00 0.00 0.00 0.00 0.00 0.00 0.00 0.00 0.00 0.00 0.01 0.01 0.01 0.01 0.01
0.01 0.01 0.02 0.03 0.04 0.04 0.04 0.03 0.02 0.02 0.02 0.01 0.01 0.01 0.01 0.01 0.01 0.01 0.01 0.01 0.01 0.01 0.01 0.01 0.01 0.01 0.01 0.00 0.00 0.00 0.00 0.00 0.00 0.00 0.00 0.00 0.00 0.00 0.00 0.00 0.01 0.01 0.01 0.01
0.03 0.02 0.03 0.04 0.05 0.05 0.05 0.04 0.03 0.03 0.03 0.03 0.02 0.02 0.02 0.01 0.01 0.01 0.01 0.01 0.01 0.01 0.01 0.01 0.01 0.01 0.01 0.00 0.00 0.00 0.00 0.00 0.00 0.00 0.00 0.00 0.00 0.00 0.00 0.00 0.01 0.01 0.01 0.02
0.03 0.03 0.03 0.05 0.06 0.06 0.06 0.04 0.03 0.03 0.03 0.02 0.02 0.02 0.02 0.01 0.01 0.01 0.01 0.01 0.01 0.01 0.01 0.01 0.01 0.01 0.00 0.00 0.00 0.00 0.00 0.00 0.00 0.00 0.00 0.00 0.00 0.00 0.01 0.01 0.02 0.03 0.03 0.03
0.02 0.03 0.03 0.04 0.04 0.05 0.06 0.05 0.04 0.04 0.03 0.03 0.03 0.02 0.02 0.02 0.02 0.01 0.01 0.01 0.01 0.01 0.01 0.00 0.01 0.01 0.00 0.00 0.00 0.00 0.00 0.00 0.00 0.00 0.00 0.00 0.00 0.01 0.03 0.04 0.04 0.04 0.03 0.03
0.02 0.02 0.02 0.03 0.04 0.03 0.03 0.03 0.04 0.04 0.04 0.03 0.04 0.03 0.03 0.02 0.02 0.02 0.01 0.01 0.01 0.01 0.01 0.00 0.01 0.01 0.00 0.00 0.00 0.00 0.00 0.00 0.00 0.00 0.00 0.01 0.01 0.03 0.03 0.03 0.04 0.03 0.03 0.03
0.02 0.02 0.02 0.02 0.03 0.03 0.04 0.03 0.03 0.03 0.03 0.03 0.02 0.02 0.02 0.02 0.02 0.02 0.02 0.02 0.01 0.01 0.01 0.01 0.01 0.01 0.00 0.00 0.00 0.00 0.00 0.00 0.00 0.00 0.01 0.02 0.02 0.02 0.03 0.03 0.03 0.04 0.03 0.03
0.01 0.02 0.02 0.02 0.02 0.02 0.02 0.02 0.02 0.03 0.03 0.03 0.03 0.02 0.02 0.02 0.02 0.02 0.01 0.01 0.01 0.01 0.01 0.01 0.01 0.01 0.01 0.00 0.00 0.00 0.00 0.00 0.00 0.00 0.01 0.01 0.02 0.03 0.03 0.03 0.03 0.03 0.03 0.03
0.01 0.01 0.02 0.02 0.02 0.01 0.02 0.02 0.02 0.03 0.03 0.03 0.04 0.03 0.03 0.03 0.02 0.02 0.02 0.01 0.01 0.01 0.01 0.01 0.01 0.01 0.01 0.01 0.00 0.00 0.00 0.00 0.00 0.01 0.02 0.02 0.03 0.03 0.03 0.03 0.03 0.03 0.03 0.03

GEFSNGP_prec_meanprecacc_066.txt.gz
Total_Precipitation_Accumulation
0.37 0.29 0.44 0.46 0.44 0.53 0.75 0.70 0.61 0.29 0.14 0.10 0.09 0.12 0.12 0.10 0.08 0.07 0.06 0.05 0.05 0.04 0.04 0.04 0.03 0.03 0.02 0.02 0.02 0.03 0.04 0.05 0.06 0.07 0.06 0.07 0.06 0.06 0.06 0.06 0.06 0.07 0.08 0.09
0.44 0.27 0.37 0.42 0.39 0.41 0.45 0.47 0.44 0.31 0.24 0.13 0.12 0.14 0.13 0.10 0.09 0.08 0.06 0.06 0.05 0.04 0.04 0.04 0.04 0.05 0.05 0.04 0.04 0.04 0.06 0.07 0.07 0.07 0.07 0.07 0.07 0.08 0.09 0.10 0.10 0.12 0.15 0.19
0.49 0.30 0.38 0.43 0.37 0.39 0.37 0.33 0.34 0.36 0.27 0.17 0.17 0.17 0.15 0.11 0.09 0.08 0.05 0.04 0.03 0.03 0.04 0.03 0.03 0.03 0.03 0.04 0.05 0.05 0.06 0.08 0.08 0.08 0.08 0.08 0.10 0.15 0.18 0.20 0.22 0.26 0.30 0.35
0.44 0.33 0.45 0.34 0.27 0.28 0.30 0.27 0.29 0.27 0.20 0.15 0.15 0.17 0.16 0.12 0.08 0.06 0.04 0.03 0.02 0.02 0.02 0.02 0.02 0.02 0.02 0.02 0.04 0.05 0.07 0.10 0.12 0.13 0.17 0.20 0.20 0.25 0.31 0.35 0.37 0.40 0.41 0.43
0.37 0.30 0.23 0.18 0.18 0.21 0.27 0.27 0.24 0.17 0.12 0.10 0.11 0.16 0.16 0.13 0.09 0.06 0.04 0.04 0.04 0.03 0.03 0.02 0.03 0.03 0.04 0.05 0.06 0.06 0.08 0.11 0.14 0.17 0.24 0.30 0.31 0.34 0.38 0.43 0.46 0.45 0.42 0.38
0.31 0.26 0.15 0.09 0.06 0.08 0.17 0.25 0.16 0.14 0.13 0.12 0.14 0.16 0.15 0.12 0.10 0.10 0.08 0.06 0.06 0.07 0.08 0.09 0.09 0.10 0.10 0.11 0.15 0.17 0.18 0.22 0.26 0.31 0.37 0.40 0.39 0.39 0.38 0.36 0.35 0.31 0.26 0.22
0.23 0.19 0.04 0.02 0.03 0.04 0.14 0.17 0.07 0.06 0.08 0.10 0.10 0.09 0.11 0.09 0.08 0.10 0.11 0.11 0.11 0.11 0.13 0.15 0.15 0.16 0.17 0.18 0.24 0.30 0.33 0.35 0.35 0.37 0.38 0.38 0.35 0.32 0.28 0.23 0.19 0.14 0.11 0.09
0.08 0.09 0.03 0.02 0.02 0.04 0.06 0.04 0.05 0.05 0.06 0.08 0.09 0.07 0.08 0.09 0.09 0.08 0.07 0.09 0.11 0.13 0.15 0.17 0.20 0.24 0.25 0.27 0.31 0.32 0.32 0.32 0.31 0.30 0.27 0.26 0.23 0.19 0.15 0.11 0.08 0.06 0.04 0.02
0.01 0.01 0.01 0.01 0.02 0.01 0.01 0.02 0.03 0.04 0.06 0.06 0.06 0.07 0.06 0.05 0.05 0.06 0.06 0.08 0.10 0.14 0.17 0.19 0.21 0.24 0.26 0.26 0.25 0.25 0.24 0.23 0.20 0.16 0.14 0.12 0.10 0.08 0.06 0.05 0.03 0.02 0.01 0.01
0.02 0.01 0.00 0.01 0.01 0.01 0.01 0.01 0.01 0.01 0.02 0.05 0.07 0.07 0.06 0.04 0.03 0.03 0.03 0.05 0.06 0.08 0.10 0.11 0.12 0.15 0.16 0.14 0.13 0.13 0.12 0.12 0.09 0.06 0.04 0.03 0.02 0.02 0.01 0.01 0.00 0.00 0.00 0.01
0.02 0.01 0.01 0.01 0.01 0.01 0.01 0.01 0.00 0.00 0.01 0.01 0.03 0.03 0.04 0.03 0.03 0.02 0.02 0.02 0.03 0.03 0.04 0.05 0.05 0.06 0.06 0.05 0.04 0.04 0.03 0.03 0.02 0.02 0.01 0.01 0.00 0.00 0.00 0.00 0.00 0.00 0.01 0.01
0.03 0.02 0.02 0.02 0.01 0.01 0.00 0.00 0.00 0.00 0.00 0.00 0.01 0.01 0.01 0.01 0.01 0.01 0.01 0.01 0.01 0.01 0.01 0.01 0.01 0.01 0.01 0.01 0.01 0.01 0.00 0.00 0.00 0.00 0.00 0.00 0.00 0.00 0.00 0.00 0.00 0.00 0.01 0.02
0.02 0.01 0.01 0.01 0.01 0.00 0.00 0.01 0.00 0.00 0.00 0.01 0.01 0.01 0.00 0.00 0.01 0.01 0.01 0.00 0.00 0.00 0.00 0.00 0.00 0.00 0.00 0.00 0.00 0.00 0.00 0.00 0.00 0.00 0.00 0.00 0.00 0.00 0.00 0.00 0.00 0.00 0.00 0.01
0.01 0.00 0.00 0.00 0.00 0.00 0.00 0.00 0.01 0.01 0.01 0.00 0.01 0.01 0.00 0.00 0.01 0.01 0.01 0.00 0.00 0.00 0.00 0.00 0.00 0.00 0.00 0.00 0.00 0.00 0.00 0.00 0.00 0.00 0.00 0.00 0.00 0.00 0.00 0.00 0.00 0.00 0.00 0.00
0.00 0.01 0.00 0.00 0.00 0.00 0.00 0.00 0.00 0.01 0.00 0.00 0.00 0.00 0.01 0.00 0.01 0.01 0.01 0.01 0.01 0.01 0.01 0.00 0.00 0.00 0.00 0.00 0.00 0.00 0.00 0.00 0.00 0.00 0.00 0.00 0.00 0.00 0.00 0.00 0.00 0.00 0.00 0.00
0.00 0.00 0.00 0.00 0.00 0.01 0.01 0.01 0.00 0.00 0.00 0.00 0.01 0.01 0.00 0.00 0.00 0.01 0.01 0.01 0.01 0.01 0.01 0.01 0.00 0.00 0.00 0.00 0.00 0.00 0.00 0.00 0.00 0.00 0.00 0.00 0.00 0.00 0.00 0.00 0.01 0.01 0.01 0.00
0.00 0.00 0.01 0.01 0.01 0.01 0.01 0.01 0.01 0.00 0.00 0.00 0.01 0.01 0.01 0.01 0.01 0.01 0.01 0.01 0.01 0.01 0.01 0.01 0.01 0.01 0.00 0.00 0.00 0.00 0.00 0.00 0.00 0.00 0.00 0.00 0.00 0.00 0.01 0.01 0.01 0.01 0.00 0.00
0.00 0.01 0.01 0.01 0.02 0.02 0.01 0.01 0.01 0.01 0.01 0.01 0.00 0.01 0.01 0.01 0.02 0.02 0.02 0.02 0.01 0.01 0.01 0.01 0.01 0.01 0.01 0.01 0.00 0.00 0.00 0.00 0.00 0.00 0.00 0.00 0.00 0.01 0.01 0.01 0.01 0.01 0.01 0.01
0.00 0.01 0.01 0.01 0.02 0.02 0.02 0.02 0.01 0.01 0.01 0.01 0.01 0.01 0.01 0.01 0.01 0.02 0.02 0.02 0.02 0.02 0.02 0.02 0.02 0.02 0.01 0.01 0.01 0.01 0.00 0.00 0.00 0.00 0.00 0.00 0.00 0.00 0.00 0.01 0.01 0.01 0.01 0.01
0.01 0.01 0.02 0.03 0.04 0.04 0.04 0.03 0.02 0.02 0.02 0.01 0.01 0.01 0.01 0.01 0.01 0.01 0.01 0.01 0.01 0.01 0.02 0.02 0.02 0.02 0.02 0.02 0.02 0.01 0.01 0.00 0.00 0.00 0.00 0.00 0.00 0.00 0.00 0.00 0.01 0.01 0.01 0.01
0.03 0.03 0.04 0.05 0.05 0.06 0.05 0.04 0.03 0.03 0.04 0.03 0.03 0.03 0.02 0.02 0.02 0.02 0.02 0.02 0.02 0.02 0.02 0.02 0.02 0.02 0.02 0.02 0.02 0.02 0.01 0.01 0.00 0.00 0.00 0.00 0.00 0.00 0.00 0.00 0.01 0.01 0.01 0.02
0.05 0.05 0.05 0.06 0.07 0.07 0.07 0.05 0.04 0.04 0.04 0.03 0.03 0.03 0.03 0.03 0.02 0.02 0.02 0.02 0.02 0.02 0.02 0.01 0.01 0.02 0.02 0.02 0.02 0.02 0.01 0.01 0.01 0.00 0.00 0.00 0.00 0.00 0.01 0.01 0.02 0.03 0.03 0.03
0.04 0.04 0.04 0.05 0.06 0.07 0.07 0.07 0.06 0.05 0.04 0.04 0.04 0.04 0.03 0.03 0.03 0.02 0.03 0.02 0.02 0.02 0.01 0.01 0.01 0.02 0.02 0.02 0.01 0.01 0.01 0.01 0.01 0.00 0.00 0.00 0.00 0.02 0.03 0.04 0.04 0.04 0.03 0.03
0.03 0.03 0.03 0.04 0.05 0.04 0.04 0.04 0.05 0.05 0.05 0.05 0.05 0.05 0.04 0.04 0.03 0.02 0.02 0.02 0.03 0.02 0.02 0.01 0.02 0.02 0.02 0.01 0.01 0.01 0.01 0.01 0.01 0.01 0.01 0.01 0.02 0.03 0.03 0.03 0.04 0.03 0.03 0.03
0.02 0.02 0.03 0.03 0.04 0.04 0.04 0.04 0.03 0.03 0.04 0.04 0.03 0.03 0.03 0.03 0.03 0.03 0.03 0.02 0.03 0.03 0.02 0.02 0.02 0.02 0.02 0.02 0.01 0.01 0.01 0.01 0.01 0.01 0.02 0.02 0.02 0.02 0.03 0.03 0.03 0.04 0.03 0.03
0.02 0.02 0.02 0.02 0.02 0.02 0.03 0.03 0.03 0.03 0.03 0.03 0.03 0.03 0.02 0.03 0.03 0.02 0.02 0.02 0.02 0.02 0.02 0.02 0.02 0.02 0.02 0.02 0.02 0.02 0.02 0.02 0.02 0.01 0.01 0.02 0.02 0.03 0.03 0.03 0.03 0.03 0.03 0.03
0.01 0.01 0.02 0.02 0.02 0.02 0.02 0.02 0.02 0.03 0.03 0.03 0.04 0.04 0.03 0.03 0.03 0.02 0.02 0.02 0.02 0.02 0.02 0.02 0.02 0.02 0.02 0.02 0.02 0.02 0.02 0.02 0.02 0.02 0.02 0.03 0.03 0.03 0.03 0.03 0.03 0.03 0.03 0.03

GEFSNGP_prec_meanprecacc_072.txt.gz
Total_Precipitation_Accumulation
0.37 0.29 0.44 0.46 0.44 0.53 0.75 0.70 0.61 0.29 0.14 0.10 0.09 0.12 0.12 0.10 0.08 0.07 0.06 0.05 0.05 0.04 0.04 0.04 0.03 0.03 0.02 0.02 0.02 0.03 0.04 0.05 0.06 0.07 0.06 0.07 0.06 0.06 0.06 0.06 0.06 0.07 0.08 0.09
0.44 0.27 0.37 0.42 0.39 0.41 0.45 0.47 0.44 0.31 0.24 0.13 0.12 0.14 0.13 0.10 0.09 0.08 0.06 0.06 0.05 0.04 0.04 0.04 0.04 0.05 0.05 0.04 0.04 0.04 0.06 0.07 0.07 0.07 0.07 0.07 0.07 0.08 0.09 0.10 0.10 0.12 0.15 0.19
0.49 0.30 0.38 0.43 0.37 0.39 0.37 0.33 0.34 0.36 0.27 0.17 0.17 0.17 0.15 0.11 0.09 0.08 0.05 0.04 0.03 0.03 0.04 0.03 0.03 0.03 0.03 0.04 0.05 0.05 0.06 0.08 0.08 0.08 0.08 0.08 0.10 0.15 0.18 0.20 0.22 0.26 0.30 0.35
0.44 0.33 0.45 0.34 0.27 0.28 0.30 0.27 0.29 0.27 0.20 0.15 0.15 0.17 0.16 0.12 0.08 0.06 0.04 0.03 0.02 0.02 0.02 0.02 0.02 0.02 0.02 0.02 0.04 0.05 0.07 0.10 0.12 0.13 0.17 0.20 0.20 0.25 0.31 0.35 0.37 0.40 0.41 0.43
0.38 0.30 0.23 0.18 0.18 0.21 0.27 0.27 0.24 0.17 0.12 0.10 0.11 0.16 0.16 0.13 0.09 0.06 0.04 0.04 0.04 0.03 0.03 0.02 0.03 0.03 0.04 0.05 0.06 0.06 0.08 0.11 0.14 0.17 0.24 0.30 0.31 0.34 0.38 0.43 0.46 0.45 0.42 0.38
0.31 0.27 0.15 0.09 0.06 0.08 0.17 0.25 0.16 0.14 0.13 0.13 0.14 0.17 0.15 0.12 0.10 0.10 0.08 0.06 0.06 0.07 0.08 0.09 0.09 0.10 0.11 0.11 0.15 0.17 0.18 0.22 0.26 0.31 0.37 0.40 0.39 0.39 0.38 0.36 0.35 0.31 0.26 0.22
0.24 0.20 0.04 0.02 0.03 0.04 0.14 0.17 0.07 0.06 0.08 0.11 0.10 0.09 0.11 0.09 0.08 0.10 0.11 0.11 0.11 0.11 0.13 0.15 0.15 0.16 0.17 0.18 0.24 0.30 0.33 0.35 0.35 0.37 0.38 0.38 0.35 0.32 0.28 0.23 0.19 0.14 0.11 0.09
0.09 0.10 0.04 0.02 0.02 0.04 0.06 0.05 0.05 0.05 0.07 0.08 0.09 0.07 0.08 0.09 0.09 0.08 0.07 0.09 0.11 0.13 0.15 0.17 0.20 0.24 0.25 0.27 0.31 0.32 0.32 0.32 0.31 0.30 0.27 0.26 0.24 0.19 0.15 0.11 0.08 0.06 0.04 0.02
0.02 0.01 0.01 0.01 0.02 0.01 0.01 0.02 0.03 0.05 0.06 0.06 0.06 0.07 0.06 0.05 0.06 0.06 0.06 0.08 0.10 0.14 0.17 0.19 0.21 0.24 0.26 0.26 0.25 0.25 0.24 0.23 0.20 0.16 0.14 0.12 0.10 0.08 0.06 0.05 0.03 0.02 0.01 0.01
0.02 0.01 0.00 0.01 0.01 0.01 0.01 0.01 0.01 0.02 0.03 0.06 0.07 0.07 0.07 0.04 0.03 0.03 0.03 0.05 0.06 0.08 0.10 0.11 0.12 0.15 0.16 0.14 0.13 0.13 0.12 0.12 0.09 0.06 0.04 0.03 0.02 0.02 0.01 0.01 0.00 0.00 0.00 0.01
0.02 0.01 0.01 0.01 0.01 0.01 0.01 0.01 0.00 0.00 0.01 0.02 0.03 0.04 0.04 0.04 0.03 0.03 0.02 0.02 0.03 0.03 0.04 0.05 0.05 0.06 0.06 0.05 0.04 0.04 0.03 0.03 0.02 0.02 0.01 0.01 0.00 0.00 0.00 0.00 0.00 0.00 0.01 0.01
0.03 0.02 0.02 0.02 0.01 0.01 0.00 0.00 0.00 0.00 0.00 0.00 0.01 0.01 0.01 0.01 0.01 0.01 0.01 0.01 0.01 0.01 0.01 0.01 0.01 0.01 0.01 0.01 0.01 0.01 0.00 0.00 0.00 0.00 0.00 0.00 0.00 0.00 0.00 0.00 0.00 0.00 0.01 0.02
0.02 0.02 0.01 0.01 0.01 0.01 0.01 0.01 0.00 0.00 0.00 0.01 0.01 0.01 0.01 0.01 0.01 0.01 0.01 0.01 0.00 0.00 0.00 0.00 0.00 0.00 0.00 0.00 0.00 0.00 0.00 0.00 0.00 0.00 0.00 0.00 0.00 0.00 0.00 0.00 0.00 0.00 0.00 0.01
0.01 0.01 0.00 0.00 0.00 0.00 0.00 0.00 0.01 0.01 0.01 0.00 0.01 0.01 0.00 0.01 0.01 0.01 0.01 0.00 0.00 0.00 0.00 0.00 0.00 0.00 0.00 0.00 0.00 0.00 0.00 0.00 0.00 0.00 0.00 0.00 0.00 0.00 0.00 0.00 0.00 0.00 0.00 0.00
0.01 0.01 0.00 0.00 0.00 0.00 0.00 0.00 0.00 0.01 0.01 0.00 0.01 0.01 0.01 0.01 0.01 0.01 0.01 0.01 0.01 0.01 0.01 0.01 0.00 0.00 0.00 0.00 0.00 0.00 0.00 0.00 0.00 0.00 0.00 0.00 0.00 0.00 0.00 0.00 0.00 0.00 0.00 0.00
0.00 0.00 0.00 0.00 0.00 0.01 0.01 0.01 0.00 0.00 0.00 0.01 0.01 0.01 0.01 0.01 0.01 0.01 0.01 0.01 0.01 0.01 0.01 0.01 0.01 0.01 0.00 0.00 0.00 0.00 0.00 0.00 0.00 0.00 0.00 0.00 0.00 0.00 0.00 0.01 0.01 0.01 0.01 0.00
0.00 0.00 0.01 0.01 0.01 0.01 0.01 0.01 0.01 0.00 0.00 0.01 0.01 0.01 0.01 0.01 0.01 0.01 0.02 0.01 0.01 0.01 0.01 0.01 0.01 0.01 0.01 0.01 0.01 0.01 0.00 0.00 0.00 0.00 0.00 0.00 0.00 0.00 0.01 0.01 0.01 0.01 0.00 0.01
0.00 0.01 0.01 0.02 0.02 0.02 0.02 0.01 0.01 0.01 0.01 0.01 0.01 0.01 0.01 0.01 0.02 0.02 0.02 0.02 0.02 0.02 0.01 0.01 0.02 0.02 0.02 0.01 0.01 0.01 0.01 0.01 0.01 0.01 0.00 0.00 0.01 0.01 0.01 0.01 0.01 0.01 0.01 0.01
0.00 0.01 0.01 0.01 0.02 0.02 0.02 0.02 0.01 0.01 0.01 0.01 0.01 0.01 0.01 0.01 0.02 0.02 0.02 0.02 0.02 0.02 0.02 0.02 0.03 0.02 0.02 0.02 0.02 0.02 0.01 0.01 0.01 0.01 0.01 0.01 0.01 0.01 0.01 0.01 0.01 0.01 0.01 0.01
0.01 0.02 0.02 0.03 0.04 0.04 0.04 0.03 0.02 0.02 0.02 0.01 0.01 0.02 0.02 0.01 0.01 0.01 0.01 0.02 0.02 0.02 0.03 0.04 0.04 0.03 0.02 0.03 0.03 0.02 0.02 0.02 0.02 0.02 0.02 0.02 0.02 0.01 0.01 0.01 0.01 0.01 0.01 0.01
0.04 0.04 0.04 0.05 0.06 0.06 0.06 0.04 0.04 0.04 0.04 0.03 0.03 0.03 0.03 0.03 0.02 0.02 0.02 0.02 0.03 0.02 0.03 0.04 0.04 0.03 0.03 0.03 0.04 0.03 0.03 0.02 0.02 0.02 0.02 0.02 0.02 0.02 0.01 0.01 0.01 0.01 0.01 0.02
0.06 0.06 0.05 0.06 0.07 0.08 0.07 0.06 0.05 0.05 0.04 0.04 0.04 0.04 0.04 0.03 0.03 0.03 0.03 0.03 0.03 0.04 0.03 0.03 0.03 0.03 0.04 0.04 0.03 0.03 0.03 0.03 0.02 0.03 0.03 0.03 0.02 0.02 0.02 0.03 0.03 0.03 0.03 0.03
0.05 0.06 0.06 0.06 0.07 0.08 0.09 0.08 0.07 0.06 0.05 0.05 0.05 0.05 0.05 0.04 0.04 0.04 0.04 0.04 0.03 0.04 0.03 0.02 0.03 0.05 0.05 0.04 0.03 0.02 0.02 0.02 0.02 0.02 0.02 0.02 0.02 0.03 0.05 0.05 0.05 0.04 0.04 0.04
0.06 0.05 0.05 0.06 0.06 0.06 0.06 0.06 0.06 0.06 0.06 0.05 0.06 0.06 0.06 0.05 0.05 0.04 0.04 0.04 0.05 0.05 0.04 0.03 0.04 0.04 0.04 0.03 0.03 0.03 0.03 0.03 0.03 0.03 0.02 0.03 0.03 0.04 0.05 0.05 0.04 0.04 0.03 0.03
0.05 0.04 0.04 0.04 0.04 0.05 0.05 0.05 0.04 0.04 0.04 0.04 0.04 0.04 0.04 0.04 0.04 0.05 0.04 0.04 0.04 0.05 0.04 0.04 0.05 0.04 0.04 0.04 0.04 0.04 0.04 0.03 0.03 0.03 0.03 0.03 0.03 0.04 0.04 0.04 0.04 0.04 0.04 0.03
0.03 0.03 0.03 0.03 0.02 0.03 0.03 0.03 0.03 0.04 0.04 0.04 0.04 0.03 0.03 0.03 0.03 0.03 0.03 0.03 0.04 0.04 0.04 0.04 0.05 0.05 0.05 0.04 0.04 0.04 0.04 0.04 0.04 0.03 0.03 0.03 0.04 0.04 0.04 0.04 0.04 0.04 0.04 0.04
0.02 0.02 0.02 0.02 0.02 0.02 0.02 0.02 0.02 0.03 0.04 0.04 0.04 0.04 0.04 0.04 0.03 0.03 0.03 0.03 0.03 0.03 0.03 0.04 0.04 0.04 0.04 0.05 0.05 0.04 0.04 0.04 0.04 0.04 0.04 0.04 0.04 0.04 0.04 0.04 0.04 0.04 0.04 0.04

GEFSNGP_prec_meanprecacc_078.txt.gz
Total_Precipitation_Accumulation
0.37 0.29 0.44 0.46 0.44 0.53 0.76 0.71 0.61 0.29 0.14 0.10 0.09 0.12 0.12 0.10 0.08 0.07 0.06 0.05 0.05 0.04 0.04 0.04 0.03 0.03 0.02 0.02 0.02 0.03 0.04 0.05 0.06 0.07 0.06 0.07 0.06 0.06 0.06 0.06 0.06 0.07 0.08 0.09
0.44 0.27 0.37 0.42 0.39 0.41 0.45 0.47 0.44 0.31 0.24 0.13 0.12 0.14 0.13 0.10 0.09 0.08 0.06 0.06 0.05 0.04 0.04 0.04 0.04 0.05 0.05 0.04 0.04 0.04 0.06 0.07 0.07 0.07 0.07 0.07 0.07 0.08 0.09 0.10 0.10 0.12 0.15 0.19
0.49 0.30 0.38 0.43 0.37 0.39 0.37 0.33 0.34 0.36 0.27 0.17 0.17 0.17 0.15 0.11 0.09 0.08 0.05 0.04 0.03 0.03 0.04 0.03 0.03 0.03 0.03 0.04 0.05 0.05 0.06 0.08 0.08 0.08 0.08 0.08 0.10 0.15 0.18 0.20 0.22 0.26 0.30 0.35
0.44 0.33 0.45 0.34 0.27 0.28 0.30 0.27 0.29 0.27 0.20 0.15 0.15 0.17 0.16 0.12 0.08 0.06 0.04 0.03 0.02 0.02 0.02 0.02 0.02 0.02 0.02 0.03 0.04 0.05 0.07 0.10 0.12 0.13 0.17 0.20 0.20 0.25 0.31 0.35 0.37 0.40 0.41 0.43
0.39 0.30 0.23 0.18 0.18 0.21 0.27 0.27 0.24 0.17 0.12 0.10 0.11 0.16 0.16 0.13 0.09 0.06 0.04 0.04 0.04 0.03 0.03 0.02 0.03 0.03 0.04 0.05 0.06 0.06 0.08 0.11 0.14 0.17 0.24 0.30 0.31 0.34 0.38 0.43 0.46 0.45 0.42 0.38
0.34 0.28 0.15 0.09 0.06 0.08 0.17 0.25 0.16 0.14 0.13 0.13 0.14 0.17 0.15 0.12 0.10 0.10 0.08 0.06 0.06 0.07 0.08 0.09 0.09 0.10 0.11 0.11 0.15 0.17 0.18 0.22 0.26 0.31 0.37 0.40 0.39 0.39 0.38 0.36 0.35 0.31 0.26 0.22
0.26 0.21 0.04 0.02 0.03 0.04 0.14 0.17 0.07 0.06 0.08 0.11 0.10 0.09 0.11 0.09 0.08 0.10 0.11 0.11 0.11 0.11 0.13 0.15 0.15 0.16 0.17 0.18 0.24 0.30 0.33 0.35 0.35 0.37 0.38 0.38 0.35 0.32 0.28 0.23 0.19 0.14 0.11 0.09
0.10 0.12 0.04 0.02 0.02 0.04 0.06 0.05 0.05 0.05 0.07 0.08 0.09 0.08 0.08 0.09 0.09 0.08 0.08 0.09 0.11 0.13 0.15 0.17 0.20 0.24 0.25 0.28 0.31 0.32 0.32 0.32 0.31 0.30 0.27 0.26 0.24 0.19 0.15 0.11 0.08 0.06 0.04 0.02
0.02 0.02 0.01 0.01 0.02 0.01 0.01 0.03 0.04 0.05 0.06 0.07 0.06 0.07 0.06 0.05 0.06 0.06 0.06 0.08 0.11 0.14 0.17 0.19 0.21 0.24 0.26 0.26 0.25 0.25 0.24 0.23 0.20 0.16 0.14 0.12 0.10 0.08 0.06 0.05 0.03 0.02 0.01 0.01
0.03 0.01 0.00 0.01 0.01 0.01 0.01 0.01 0.01 0.02 0.03 0.07 0.08 0.08 0.07 0.04 0.04 0.04 0.04 0.05 0.06 0.08 0.10 0.11 0.12 0.15 0.16 0.14 0.13 0.13 0.12 0.12 0.09 0.06 0.04 0.03 0.02 0.02 0.01 0.01 0.00 0.00 0.00 0.01
0.03 0.01 0.01 0.01 0.01 0.01 0.01 0.01 0.00 0.00 0.01 0.02 0.04 0.04 0.05 0.05 0.04 0.04 0.04 0.03 0.03 0.03 0.04 0.05 0.05 0.06 0.06 0.05 0.04 0.04 0.03 0.03 0.02 0.02 0.01 0.01 0.01 0.00 0.00 0.00 0.00 0.00 0.01 0.01
0.04 0.03 0.02 0.02 0.02 0.01 0.01 0.00 0.00 0.00 0.01 0.01 0.01 0.02 0.02 0.02 0.02 0.02 0.03 0.02 0.02 0.02 0.02 0.02 0.02 0.02 0.02 0.01 0.01 0.01 0.00 0.00 0.00 0.00 0.00 0.00 0.00 0.00 0.00 0.00 0.00 0.00 0.01 0.02
0.02 0.02 0.02 0.02 0.01 0.01 0.01 0.01 0.01 0.01 0.01 0.01 0.01 0.01 0.01 0.01 0.02 0.01 0.01 0.01 0.01 0.01 0.01 0.01 0.01 0.01 0.01 0.00 0.00 0.00 0.00 0.00 0.00 0.00 0.00 0.00 0.00 0.00 0.00 0.00 0.00 0.00 0.00 0.01
0.01 0.01 0.01 0.01 0.00 0.01 0.01 0.01 0.01 0.01 0.01 0.01 0.01 0.01 0.01 0.01 0.01 0.01 0.01 0.01 0.01 0.01 0.01 0.01 0.01 0.01 0.01 0.00 0.00 0.00 0.00 0.00 0.00 0.00 0.00 0.00 0.00 0.00 0.00 0.00 0.00 0.00 0.00 0.00
0.01 0.01 0.01 0.00 0.00 0.00 0.00 0.00 0.00 0.01 0.01 0.00 0.01 0.01 0.01 0.01 0.01 0.01 0.01 0.01 0.01 0.01 0.01 0.01 0.01 0.01 0.01 0.01 0.01 0.00 0.00 0.00 0.00 0.00 0.00 0.00 0.00 0.00 0.00 0.00 0.00 0.00 0.00 0.00
0.01 0.01 0.01 0.01 0.00 0.01 0.01 0.01 0.00 0.00 0.00 0.01 0.01 0.01 0.01 0.01 0.01 0.01 0.02 0.02 0.02 0.02 0.02 0.01 0.01 0.01 0.01 0.01 0.01 0.01 0.01 0.01 0.01 0.01 0.00 0.00 0.00 0.00 0.01 0.01 0.01 0.01 0.01 0.00
0.01 0.01 0.01 0.02 0.01 0.01 0.01 0.01 0.01 0.01 0.01 0.01 0.01 0.01 0.01 0.01 0.02 0.02 0.02 0.02 0.02 0.02 0.03 0.03 0.03 0.03 0.02 0.02 0.01 0.01 0.01 0.01 0.01 0.01 0.01 0.01 0.01 0.01 0.01 0.02 0.02 0.01 0.01 0.01
0.01 0.01 0.01 0.02 0.02 0.02 0.02 0.01 0.01 0.01 0.01 0.01 0.01 0.01 0.02 0.02 0.02 0.03 0.03 0.03 0.02 0.02 0.02 0.02 0.03 0.03 0.03 0.03 0.02 0.02 0.02 0.02 0.02 0.02 0.01 0.01 0.02 0.02 0.02 0.02 0.02 0.01 0.01 0.01
0.01 0.01 0.01 0.02 0.02 0.02 0.02 0.02 0.02 0.01 0.01 0.01 0.01 0.01 0.02 0.02 0.02 0.02 0.02 0.02 0.02 0.03 0.03 0.04 0.05 0.04 0.03 0.03 0.04 0.03 0.03 0.03 0.03 0.03 0.03 0.03 0.03 0.03 0.02 0.02 0.02 0.02 0.02 0.02
0.02 0.02 0.03 0.04 0.05 0.05 0.05 0.04 0.03 0.03 0.02 0.02 0.02 0.02 0.02 0.02 0.02 0.02 0.02 0.02 0.02 0.02 0.04 0.05 0.06 0.04 0.04 0.04 0.06 0.04 0.04 0.04 0.04 0.04 0.04 0.04 0.04 0.03 0.02 0.02 0.02 0.02 0.02 0.02
0.05 0.04 0.05 0.06 0.07 0.07 0.06 0.05 0.04 0.04 0.04 0.04 0.03 0.03 0.04 0.04 0.03 0.03 0.03 0.03 0.03 0.03 0.03 0.05 0.05 0.04 0.05 0.06 0.07 0.06 0.05 0.05 0.04 0.05 0.05 0.05 0.05 0.04 0.03 0.03 0.03 0.02 0.02 0.02
0.07 0.07 0.06 0.07 0.08 0.09 0.08 0.06 0.05 0.05 0.05 0.04 0.04 0.04 0.04 0.04 0.04 0.04 0.04 0.04 0.04 0.05 0.04 0.04 0.04 0.05 0.07 0.08 0.07 0.05 0.05 0.05 0.05 0.05 0.05 0.05 0.05 0.05 0.05 0.05 0.05 0.05 0.04 0.04
0.07 0.07 0.07 0.07 0.08 0.09 0.09 0.08 0.07 0.06 0.06 0.05 0.05 0.05 0.05 0.05 0.05 0.05 0.05 0.05 0.05 0.05 0.04 0.04 0.05 0.07 0.08 0.07 0.05 0.05 0.06 0.06 0.05 0.05 0.05 0.05 0.05 0.06 0.07 0.07 0.06 0.05 0.05 0.05
0.07 0.07 0.06 0.06 0.07 0.06 0.06 0.06 0.06 0.07 0.06 0.06 0.06 0.06 0.06 0.06 0.06 0.05 0.05 0.06 0.06 0.07 0.05 0.05 0.06 0.07 0.07 0.06 0.05 0.06 0.06 0.06 0.06 0.06 0.06 0.06 0.06 0.06 0.07 0.06 0.06 0.05 0.04 0.04
0.07 0.06 0.05 0.05 0.05 0.05 0.05 0.05 0.05 0.04 0.05 0.05 0.05 0.04 0.04 0.05 0.05 0.05 0.05 0.05 0.06 0.07 0.06 0.06 0.07 0.07 0.07 0.07 0.07 0.07 0.07 0.07 0.07 0.07 0.07 0.06 0.06 0.06 0.06 0.06 0.06 0.06 0.05 0.04
0.05 0.04 0.04 0.03 0.03 0.03 0.03 0.03 0.04 0.04 0.04 0.04 0.04 0.04 0.04 0.04 0.04 0.04 0.04 0.04 0.05 0.06 0.06 0.06 0.07 0.08 0.08 0.08 0.08 0.08 0.08 0.08 0.08 0.07 0.06 0.06 0.06 0.07 0.06 0.06 0.05 0.05 0.05 0.05
0.03 0.03 0.03 0.03 0.02 0.02 0.02 0.02 0.02 0.03 0.04 0.04 0.05 0.05 0.04 0.04 0.04 0.04 0.03 0.03 0.03 0.04 0.04 0.05 0.05 0.06 0.06 0.07 0.08 0.08 0.08 0.07 0.07 0.07 0.07 0.07 0.06 0.06 0.06 0.06 0.06 0.06 0.06 0.05

GEFSNGP_prec_meanprecacc_084.txt.gz
Total_Precipitation_Accumulation
0.38 0.29 0.44 0.46 0.44 0.54 0.77 0.72 0.62 0.29 0.14 0.10 0.09 0.12 0.12 0.10 0.08 0.07 0.06 0.05 0.05 0.04 0.04 0.04 0.03 0.03 0.02 0.02 0.02 0.03 0.04 0.05 0.06 0.07 0.06 0.07 0.06 0.06 0.06 0.06 0.06 0.07 0.08 0.09
0.44 0.27 0.37 0.42 0.39 0.41 0.45 0.47 0.45 0.31 0.24 0.13 0.12 0.14 0.13 0.10 0.09 0.08 0.06 0.06 0.05 0.04 0.04 0.04 0.04 0.05 0.05 0.04 0.04 0.04 0.06 0.07 0.07 0.07 0.07 0.07 0.07 0.08 0.09 0.10 0.10 0.12 0.15 0.19
0.49 0.30 0.39 0.43 0.37 0.39 0.37 0.33 0.34 0.36 0.27 0.17 0.17 0.17 0.15 0.11 0.09 0.08 0.05 0.04 0.03 0.03 0.04 0.03 0.03 0.03 0.03 0.04 0.05 0.05 0.06 0.08 0.08 0.08 0.08 0.08 0.10 0.15 0.18 0.20 0.22 0.26 0.30 0.35
0.46 0.34 0.46 0.34 0.27 0.28 0.30 0.27 0.29 0.27 0.20 0.15 0.15 0.17 0.16 0.12 0.08 0.06 0.04 0.03 0.02 0.02 0.02 0.02 0.02 0.02 0.02 0.03 0.04 0.05 0.07 0.10 0.12 0.13 0.17 0.20 0.20 0.25 0.31 0.35 0.37 0.40 0.41 0.43
0.43 0.33 0.24 0.18 0.18 0.21 0.27 0.27 0.24 0.17 0.12 0.10 0.11 0.16 0.16 0.13 0.09 0.06 0.04 0.04 0.04 0.03 0.03 0.02 0.03 0.03 0.04 0.05 0.06 0.06 0.08 0.11 0.14 0.17 0.24 0.30 0.31 0.34 0.38 0.43 0.46 0.45 0.42 0.38
0.38 0.31 0.16 0.09 0.06 0.08 0.17 0.25 0.16 0.14 0.13 0.13 0.14 0.17 0.15 0.12 0.10 0.10 0.08 0.06 0.06 0.07 0.08 0.09 0.09 0.10 0.11 0.11 0.15 0.17 0.18 0.22 0.26 0.31 0.37 0.40 0.40 0.39 0.38 0.36 0.35 0.31 0.26 0.22
0.30 0.25 0.05 0.03 0.03 0.05 0.14 0.17 0.07 0.06 0.08 0.11 0.10 0.09 0.11 0.09 0.08 0.10 0.11 0.11 0.11 0.11 0.13 0.15 0.15 0.16 0.17 0.18 0.24 0.30 0.33 0.35 0.35 0.37 0.38 0.38 0.35 0.32 0.28 0.23 0.19 0.14 0.11 0.09
0.12 0.15 0.06 0.02 0.03 0.05 0.06 0.05 0.05 0.06 0.07 0.08 0.09 0.08 0.08 0.10 0.09 0.08 0.08 0.09 0.11 0.13 0.15 0.17 0.20 0.24 0.25 0.28 0.31 0.32 0.32 0.32 0.31 0.30 0.27 0.26 0.24 0.20 0.15 0.12 0.08 0.06 0.04 0.02
0.04 0.03 0.02 0.02 0.02 0.02 0.02 0.03 0.04 0.06 0.07 0.07 0.07 0.08 0.06 0.05 0.06 0.06 0.06 0.08 0.11 0.14 0.17 0.19 0.21 0.24 0.26 0.26 0.25 0.25 0.24 0.23 0.20 0.16 0.14 0.13 0.10 0.08 0.06 0.05 0.03 0.02 0.01 0.01
0.04 0.02 0.01 0.02 0.02 0.02 0.02 0.01 0.01 0.02 0.04 0.07 0.08 0.08 0.07 0.04 0.04 0.04 0.04 0.05 0.06 0.08 0.10 0.11 0.12 0.15 0.16 0.15 0.13 0.13 0.12 0.12 0.09 0.06 0.05 0.04 0.03 0.02 0.01 0.01 0.01 0.00 0.00 0.01
0.05 0.03 0.02 0.02 0.02 0.02 0.01 0.01 0.01 0.01 0.02 0.03 0.04 0.04 0.05 0.05 0.04 0.04 0.04 0.03 0.03 0.03 0.04 0.05 0.05 0.06 0.06 0.06 0.05 0.04 0.03 0.03 0.02 0.02 0.01 0.01 0.01 0.01 0.00 0.00 0.00 0.00 0.01 0.01
0.07 0.04 0.04 0.03 0.02 0.02 0.01 0.01 0.01 0.01 0.01 0.01 0.02 0.02 0.02 0.02 0.02 0.02 0.03 0.03 0.02 0.02 0.02 0.02 0.02 0.02 0.02 0.02 0.01 0.01 0.01 0.01 0.00 0.00 0.00 0.00 0.00 0.00 0.01 0.00 0.00 0.00 0.01 0.02
0.03 0.03 0.03 0.02 0.01 0.01 0.02 0.02 0.01 0.01 0.01 0.01 0.01 0.01 0.01 0.01 0.02 0.02 0.01 0.01 0.02 0.02 0.02 0.02 0.02 0.01 0.01 0.01 0.01 0.01 0.01 0.00 0.00 0.00 0.00 0.00 0.00 0.01 0.01 0.01 0.00 0.00 0.00 0.01
0.02 0.02 0.01 0.01 0.01 0.01 0.01 0.01 0.02 0.02 0.01 0.01 0.01 0.01 0.01 0.01 0.02 0.02 0.01 0.01 0.01 0.01 0.02 0.02 0.02 0.02 0.02 0.02 0.01 0.01 0.01 0.01 0.01 0.00 0.00 0.00 0.00 0.01 0.01 0.01 0.01 0.00 0.00 0.00
0.01 0.02 0.02 0.02 0.02 0.02 0.01 0.01 0.01 0.02 0.01 0.01 0.01 0.01 0.01 0.01 0.02 0.02 0.02 0.02 0.02 0.02 0.02 0.01 0.01 0.02 0.02 0.02 0.02 0.01 0.01 0.01 0.01 0.01 0.01 0.01 0.01 0.01 0.01 0.01 0.01 0.01 0.01 0.01
0.02 0.02 0.02 0.01 0.02 0.02 0.02 0.02 0.02 0.02 0.01 0.01 0.02 0.02 0.02 0.02 0.02 0.02 0.03 0.03 0.03 0.03 0.03 0.02 0.02 0.02 0.02 0.02 0.02 0.02 0.02 0.02 0.02 0.01 0.01 0.01 0.01 0.01 0.02 0.02 0.02 0.02 0.01 0.01
0.03 0.03 0.03 0.04 0.03 0.03 0.02 0.02 0.02 0.01 0.01 0.01 0.02 0.02 0.02 0.02 0.02 0.03 0.03 0.03 0.03 0.03 0.04 0.04 0.04 0.04 0.03 0.02 0.02 0.02 0.02 0.02 0.03 0.02 0.02 0.02 0.02 0.02 0.03 0.03 0.03 0.02 0.01 0.01
0.03 0.03 0.03 0.04 0.04 0.03 0.03 0.02 0.02 0.02 0.01 0.01 0.01 0.02 0.02 0.02 0.02 0.03 0.03 0.03 0.03 0.02 0.02 0.03 0.04 0.04 0.04 0.04 0.04 0.04 0.04 0.04 0.04 0.03 0.03 0.03 0.03 0.03 0.04 0.04 0.03 0.02 0.02 0.02
0.03 0.03 0.03 0.03 0.03 0.03 0.03 0.03 0.02 0.02 0.02 0.02 0.02 0.02 0.03 0.03 0.03 0.03 0.03 0.03 0.03 0.03 0.03 0.04 0.05 0.05 0.04 0.04 0.06 0.05 0.05 0.05 0.06 0.05 0.06 0.06 0.06 0.05 0.04 0.04 0.04 0.03 0.03 0.03
0.03 0.04 0.06 0.06 0.07 0.06 0.06 0.05 0.04 0.03 0.03 0.02 0.02 0.03 0.03 0.03 0.02 0.02 0.02 0.02 0.03 0.03 0.04 0.06 0.06 0.05 0.04 0.05 0.07 0.06 0.05 0.06 0.07 0.07 0.08 0.08 0.07 0.06 0.05 0.05 0.04 0.04 0.03 0.03
0.06 0.07 0.08 0.09 0.09 0.09 0.08 0.06 0.05 0.05 0.04 0.04 0.04 0.04 0.04 0.04 0.04 0.03 0.03 0.04 0.04 0.03 0.04 0.05 0.05 0.05 0.06 0.07 0.09 0.07 0.07 0.07 0.08 0.08 0.08 0.08 0.08 0.07 0.06 0.05 0.05 0.05 0.04 0.04
0.10 0.09 0.09 0.10 0.11 0.11 0.10 0.07 0.06 0.05 0.05 0.05 0.05 0.05 0.04 0.05 0.05 0.04 0.04 0.05 0.05 0.06 0.05 0.04 0.04 0.06 0.08 0.09 0.08 0.07 0.08 0.08 0.08 0.08 0.09 0.09 0.09 0.08 0.08 0.08 0.08 0.07 0.06 0.06
0.10 0.10 0.10 0.10 0.10 0.10 0.10 0.09 0.08 0.07 0.06 0.06 0.06 0.06 0.05 0.05 0.05 0.05 0.06 0.06 0.05 0.06 0.05 0.04 0.06 0.08 0.09 0.08 0.07 0.07 0.08 0.08 0.08 0.08 0.07 0.08 0.08 0.09 0.10 0.09 0.09 0.08 0.07 0.07
0.11 0.11 0.10 0.09 0.09 0.08 0.07 0.07 0.07 0.07 0.07 0.06 0.06 0.07 0.07 0.07 0.06 0.05 0.05 0.06 0.07 0.07 0.06 0.05 0.07 0.08 0.08 0.07 0.07 0.08 0.08 0.08 0.08 0.08 0.08 0.08 0.09 0.09 0.10 0.09 0.09 0.07 0.07 0.06
0.11 0.10 0.09 0.08 0.07 0.07 0.07 0.06 0.05 0.05 0.05 0.05 0.05 0.05 0.05 0.05 0.06 0.06 0.06 0.06 0.07 0.07 0.06 0.07 0.08 0.08 0.09 0.08 0.08 0.09 0.10 0.10 0.10 0.10 0.10 0.09 0.09 0.09 0.09 0.09 0.09 0.08 0.08 0.07
0.08 0.07 0.07 0.06 0.05 0.05 0.05 0.05 0.04 0.04 0.04 0.05 0.05 0.04 0.04 0.04 0.04 0.04 0.04 0.04 0.05 0.06 0.07 0.07 0.08 0.09 0.09 0.09 0.10 0.10 0.10 0.10 0.10 0.09 0.08 0.08 0.08 0.09 0.08 0.08 0.08 0.08 0.07 0.06
0.06 0.05 0.05 0.04 0.03 0.03 0.03 0.03 0.03 0.04 0.05 0.05 0.05 0.05 0.05 0.04 0.04 0.04 0.04 0.03 0.03 0.04 0.05 0.05 0.06 0.07 0.08 0.09 0.09 0.09 0.09 0.09 0.09 0.09 0.09 0.09 0.09 0.08 0.08 0.08 0.08 0.07 0.07 0.07

GEFSNGP_prec_meanprecacc_090.txt.gz
Total_Precipitation_Accumulation
0.39 0.31 0.47 0.48 0.45 0.55 0.79 0.75 0.65 0.30 0.15 0.10 0.09 0.13 0.12 0.10 0.08 0.07 0.06 0.05 0.05 0.04 0.04 0.04 0.03 0.03 0.02 0.02 0.02 0.03 0.04 0.05 0.06 0.07 0.06 0.07 0.06 0.06 0.06 0.06 0.06 0.07 0.08 0.09
0.45 0.27 0.38 0.44 0.40 0.42 0.46 0.48 0.45 0.32 0.24 0.13 0.12 0.14 0.13 0.10 0.09 0.08 0.06 0.06 0.05 0.04 0.04 0.04 0.04 0.05 0.05 0.04 0.04 0.04 0.06 0.07 0.07 0.07 0.07 0.07 0.07 0.08 0.09 0.10 0.10 0.12 0.15 0.19
0.51 0.31 0.40 0.44 0.38 0.39 0.38 0.33 0.35 0.36 0.27 0.17 0.17 0.17 0.15 0.11 0.09 0.08 0.05 0.04 0.03 0.03 0.04 0.03 0.03 0.03 0.03 0.04 0.05 0.05 0.06 0.08 0.08 0.08 0.08 0.08 0.10 0.15 0.18 0.20 0.22 0.26 0.30 0.35
0.49 0.36 0.48 0.35 0.27 0.28 0.30 0.27 0.30 0.27 0.20 0.15 0.15 0.17 0.16 0.12 0.08 0.06 0.04 0.03 0.02 0.02 0.02 0.02 0.02 0.02 0.02 0.03 0.04 0.05 0.07 0.10 0.12 0.13 0.17 0.20 0.20 0.25 0.31 0.35 0.37 0.40 0.41 0.43
0.47 0.36 0.25 0.18 0.18 0.21 0.27 0.27 0.24 0.18 0.12 0.11 0.11 0.16 0.16 0.13 0.09 0.06 0.04 0.04 0.04 0.03 0.03 0.02 0.03 0.03 0.04 0.05 0.06 0.06 0.08 0.11 0.14 0.17 0.24 0.30 0.31 0.34 0.38 0.43 0.46 0.45 0.42 0.38
0.42 0.35 0.18 0.10 0.06 0.08 0.17 0.26 0.16 0.14 0.13 0.13 0.14 0.17 0.15 0.12 0.11 0.10 0.08 0.06 0.06 0.07 0.08 0.09 0.09 0.10 0.11 0.11 0.15 0.18 0.19 0.22 0.26 0.31 0.37 0.40 0.40 0.39 0.38 0.36 0.35 0.31 0.26 0.22
0.33 0.29 0.07 0.03 0.03 0.05 0.16 0.20 0.07 0.07 0.09 0.12 0.11 0.10 0.11 0.09 0.08 0.10 0.11 0.11 0.11 0.11 0.13 0.15 0.15 0.16 0.17 0.18 0.25 0.30 0.33 0.35 0.35 0.37 0.38 0.38 0.35 0.32 0.29 0.23 0.19 0.15 0.11 0.09
0.15 0.20 0.09 0.04 0.04 0.07 0.09 0.06 0.06 0.07 0.08 0.09 0.10 0.08 0.08 0.10 0.09 0.08 0.08 0.09 0.11 0.13 0.15 0.17 0.20 0.24 0.25 0.28 0.31 0.32 0.32 0.32 0.32 0.30 0.27 0.26 0.24 0.20 0.16 0.12 0.08 0.06 0.04 0.02
0.08 0.09 0.07 0.05 0.05 0.04 0.03 0.04 0.05 0.07 0.08 0.08 0.08 0.10 0.08 0.06 0.06 0.06 0.06 0.08 0.11 0.14 0.17 0.19 0.21 0.24 0.26 0.26 0.26 0.25 0.25 0.23 0.20 0.17 0.14 0.13 0.10 0.08 0.07 0.05 0.03 0.02 0.01 0.01
0.06 0.04 0.04 0.04 0.03 0.03 0.02 0.02 0.02 0.03 0.05 0.08 0.09 0.10 0.09 0.05 0.04 0.04 0.04 0.05 0.06 0.08 0.10 0.11 0.12 0.15 0.16 0.15 0.13 0.13 0.12 0.12 0.09 0.06 0.05 0.04 0.03 0.02 0.01 0.01 0.01 0.01 0.00 0.01
0.07 0.04 0.04 0.04 0.03 0.03 0.02 0.02 0.01 0.01 0.02 0.03 0.05 0.05 0.06 0.06 0.05 0.05 0.04 0.04 0.04 0.04 0.04 0.05 0.06 0.06 0.06 0.06 0.05 0.05 0.04 0.03 0.03 0.02 0.01 0.01 0.01 0.01 0.01 0.01 0.01 0.01 0.01 0.01
0.08 0.05 0.05 0.04 0.03 0.03 0.03 0.02 0.02 0.02 0.02 0.02 0.02 0.03 0.03 0.03 0.02 0.03 0.03 0.03 0.03 0.03 0.02 0.02 0.02 0.02 0.02 0.02 0.02 0.02 0.01 0.01 0.01 0.01 0.01 0.01 0.01 0.01 0.01 0.01 0.01 0.01 0.01 0.02
0.05 0.04 0.03 0.03 0.02 0.02 0.02 0.02 0.02 0.02 0.02 0.02 0.03 0.03 0.03 0.02 0.03 0.02 0.02 0.02 0.02 0.02 0.02 0.02 0.02 0.02 0.02 0.01 0.01 0.01 0.01 0.01 0.01 0.01 0.01 0.01 0.01 0.01 0.01 0.01 0.01 0.01 0.01 0.01
0.03 0.03 0.03 0.02 0.01 0.01 0.02 0.02 0.02 0.02 0.02 0.02 0.03 0.03 0.02 0.02 0.03 0.02 0.02 0.02 0.02 0.02 0.02 0.02 0.03 0.03 0.03 0.03 0.03 0.03 0.03 0.03 0.02 0.02 0.02 0.02 0.02 0.02 0.02 0.02 0.01 0.01 0.01 0.01
0.02 0.03 0.04 0.03 0.03 0.03 0.03 0.02 0.02 0.03 0.02 0.02 0.02 0.02 0.02 0.03 0.03 0.03 0.03 0.03 0.03 0.02 0.02 0.02 0.02 0.03 0.03 0.03 0.03 0.03 0.03 0.03 0.03 0.03 0.03 0.02 0.02 0.02 0.02 0.02 0.02 0.01 0.01 0.01
0.03 0.03 0.03 0.02 0.02 0.02 0.03 0.03 0.03 0.04 0.03 0.03 0.04 0.04 0.04 0.04 0.04 0.04 0.04 0.04 0.04 0.04 0.04 0.03 0.03 0.03 0.03 0.03 0.03 0.03 0.03 0.04 0.04 0.03 0.03 0.03 0.03 0.03 0.03 0.03 0.03 0.03 0.02 0.02
0.04 0.04 0.04 0.05 0.04 0.04 0.03 0.03 0.03 0.03 0.03 0.03 0.04 0.04 0.04 0.03 0.03 0.04 0.04 0.04 0.03 0.04 0.05 0.05 0.05 0.05 0.04 0.04 0.04 0.04 0.04 0.04 0.06 0.04 0.03 0.03 0.04 0.04 0.04 0.05 0.04 0.03 0.02 0.02
0.04 0.04 0.05 0.05 0.05 0.05 0.05 0.04 0.04 0.04 0.03 0.02 0.02 0.03 0.03 0.03 0.03 0.04 0.04 0.04 0.04 0.04 0.03 0.03 0.04 0.05 0.05 0.05 0.05 0.05 0.05 0.05 0.05 0.05 0.04 0.05 0.06 0.05 0.05 0.05 0.04 0.04 0.03 0.04
0.04 0.04 0.04 0.04 0.05 0.05 0.05 0.05 0.04 0.04 0.03 0.03 0.03 0.03 0.04 0.03 0.03 0.03 0.04 0.04 0.04 0.04 0.05 0.05 0.06 0.05 0.04 0.05 0.07 0.06 0.06 0.07 0.07 0.07 0.08 0.09 0.09 0.07 0.06 0.06 0.05 0.05 0.05 0.05
0.04 0.05 0.06 0.08 0.08 0.09 0.08 0.07 0.06 0.06 0.05 0.04 0.03 0.03 0.03 0.03 0.03 0.03 0.03 0.03 0.03 0.04 0.05 0.06 0.07 0.05 0.05 0.05 0.08 0.07 0.06 0.07 0.09 0.10 0.11 0.11 0.10 0.08 0.07 0.07 0.07 0.06 0.06 0.05
0.07 0.07 0.08 0.10 0.10 0.10 0.10 0.09 0.07 0.06 0.06 0.05 0.04 0.05 0.05 0.05 0.04 0.04 0.04 0.04 0.04 0.04 0.04 0.06 0.06 0.05 0.06 0.07 0.10 0.08 0.08 0.09 0.10 0.10 0.11 0.11 0.11 0.10 0.09 0.08 0.08 0.08 0.07 0.07
0.10 0.10 0.11 0.12 0.13 0.13 0.12 0.09 0.07 0.06 0.06 0.05 0.05 0.05 0.05 0.05 0.06 0.05 0.05 0.05 0.06 0.06 0.05 0.04 0.05 0.06 0.08 0.10 0.09 0.08 0.09 0.10 0.10 0.10 0.11 0.11 0.11 0.11 0.10 0.10 0.11 0.10 0.09 0.09
0.11 0.11 0.11 0.11 0.12 0.13 0.12 0.11 0.09 0.08 0.07 0.07 0.07 0.07 0.06 0.06 0.06 0.06 0.06 0.06 0.05 0.06 0.05 0.04 0.06 0.08 0.09 0.08 0.07 0.07 0.08 0.09 0.09 0.10 0.10 0.10 0.10 0.11 0.12 0.11 0.11 0.10 0.09 0.09
0.12 0.11 0.11 0.10 0.10 0.09 0.09 0.09 0.09 0.09 0.08 0.07 0.07 0.07 0.07 0.07 0.07 0.06 0.05 0.07 0.07 0.08 0.06 0.06 0.08 0.09 0.09 0.07 0.07 0.08 0.09 0.09 0.10 0.10 0.10 0.10 0.11 0.11 0.12 0.11 0.11 0.09 0.09 0.09
0.12 0.11 0.10 0.09 0.09 0.09 0.09 0.08 0.07 0.06 0.06 0.06 0.05 0.05 0.05 0.06 0.06 0.06 0.06 0.06 0.07 0.08 0.07 0.08 0.09 0.09 0.09 0.08 0.09 0.10 0.10 0.10 0.11 0.11 0.11 0.11 0.10 0.10 0.10 0.10 0.11 0.10 0.10 0.09
0.09 0.08 0.08 0.07 0.06 0.06 0.07 0.06 0.06 0.06 0.05 0.05 0.05 0.04 0.04 0.04 0.04 0.04 0.04 0.04 0.05 0.07 0.07 0.07 0.09 0.10 0.10 0.10 0.10 0.11 0.11 0.11 0.12 0.11 0.09 0.09 0.10 0.11 0.10 0.10 0.10 0.10 0.09 0.08
0.07 0.06 0.06 0.05 0.05 0.04 0.05 0.04 0.04 0.05 0.05 0.05 0.06 0.05 0.05 0.05 0.04 0.04 0.04 0.03 0.03 0.04 0.05 0.05 0.06 0.07 0.08 0.09 0.10 0.10 0.10 0.10 0.10 0.10 0.10 0.10 0.10 0.10 0.10 0.09 0.10 0.09 0.09 0.09

GEFSNGP_prec_meanprecacc_096.txt.gz
Total_Precipitation_Accumulation
0.39 0.31 0.47 0.49 0.46 0.56 0.82 0.77 0.68 0.32 0.16 0.11 0.10 0.14 0.14 0.11 0.08 0.07 0.06 0.05 0.05 0.04 0.04 0.04 0.03 0.03 0.02 0.02 0.03 0.03 0.05 0.06 0.06 0.07 0.07 0.07 0.07 0.06 0.07 0.07 0.06 0.07 0.08 0.09
0.45 0.28 0.38 0.44 0.41 0.43 0.47 0.49 0.47 0.33 0.25 0.13 0.12 0.15 0.14 0.11 0.09 0.08 0.07 0.06 0.05 0.05 0.04 0.04 0.04 0.05 0.05 0.04 0.04 0.04 0.06 0.07 0.07 0.07 0.07 0.07 0.07 0.08 0.09 0.10 0.10 0.12 0.15 0.19
0.51 0.31 0.40 0.44 0.38 0.39 0.38 0.34 0.36 0.37 0.28 0.18 0.18 0.18 0.15 0.12 0.09 0.08 0.05 0.04 0.03 0.03 0.04 0.03 0.03 0.03 0.03 0.04 0.05 0.05 0.06 0.08 0.08 0.08 0.08 0.08 0.10 0.15 0.19 0.21 0.22 0.26 0.30 0.35
0.50 0.36 0.48 0.35 0.27 0.29 0.31 0.28 0.30 0.28 0.21 0.16 0.16 0.18 0.17 0.12 0.09 0.06 0.04 0.03 0.02 0.02 0.02 0.02 0.02 0.02 0.02 0.03 0.04 0.06 0.07 0.10 0.12 0.14 0.17 0.20 0.20 0.25 0.31 0.35 0.37 0.40 0.41 0.43
0.48 0.36 0.26 0.18 0.18 0.21 0.28 0.29 0.25 0.18 0.13 0.11 0.12 0.17 0.17 0.14 0.09 0.06 0.05 0.04 0.04 0.03 0.03 0.02 0.03 0.03 0.04 0.05 0.06 0.06 0.08 0.11 0.14 0.17 0.24 0.30 0.31 0.34 0.38 0.43 0.46 0.45 0.42 0.38
0.43 0.37 0.18 0.11 0.07 0.09 0.18 0.27 0.17 0.15 0.14 0.14 0.15 0.18 0.16 0.13 0.11 0.10 0.09 0.07 0.06 0.07 0.08 0.09 0.09 0.10 0.11 0.11 0.15 0.18 0.19 0.22 0.26 0.31 0.37 0.40 0.40 0.39 0.38 0.36 0.35 0.31 0.26 0.22
0.34 0.31 0.08 0.04 0.04 0.06 0.19 0.23 0.10 0.09 0.11 0.14 0.13 0.12 0.12 0.10 0.09 0.11 0.12 0.12 0.11 0.11 0.13 0.15 0.15 0.16 0.17 0.18 0.25 0.30 0.33 0.35 0.36 0.38 0.39 0.39 0.36 0.33 0.29 0.24 0.19 0.15 0.12 0.09
0.16 0.22 0.11 0.05 0.06 0.10 0.13 0.10 0.09 0.10 0.11 0.12 0.12 0.10 0.09 0.11 0.10 0.09 0.08 0.10 0.12 0.13 0.15 0.18 0.21 0.25 0.26 0.28 0.32 0.32 0.33 0.33 0.32 0.30 0.28 0.28 0.25 0.21 0.16 0.12 0.08 0.06 0.04 0.02
0.09 0.10 0.08 0.07 0.07 0.07 0.06 0.07 0.07 0.09 0.10 0.09 0.09 0.10 0.09 0.08 0.08 0.08 0.08 0.09 0.11 0.15 0.17 0.19 0.21 0.25 0.27 0.27 0.26 0.25 0.25 0.23 0.20 0.17 0.15 0.13 0.11 0.09 0.07 0.05 0.03 0.02 0.01 0.01
0.07 0.04 0.04 0.05 0.05 0.05 0.04 0.03 0.03 0.04 0.05 0.08 0.10 0.10 0.09 0.06 0.06 0.06 0.06 0.07 0.08 0.10 0.11 0.11 0.12 0.15 0.17 0.15 0.14 0.13 0.13 0.12 0.10 0.07 0.05 0.04 0.03 0.02 0.02 0.01 0.01 0.01 0.01 0.01
0.07 0.04 0.04 0.04 0.04 0.04 0.03 0.02 0.02 0.01 0.02 0.04 0.05 0.06 0.07 0.06 0.06 0.06 0.06 0.06 0.06 0.06 0.06 0.06 0.06 0.07 0.07 0.06 0.06 0.05 0.05 0.04 0.03 0.03 0.02 0.02 0.01 0.01 0.01 0.01 0.01 0.01 0.01 0.02
0.09 0.05 0.05 0.05 0.03 0.04 0.03 0.02 0.02 0.02 0.03 0.03 0.03 0.04 0.03 0.03 0.03 0.04 0.05 0.05 0.06 0.06 0.06 0.06 0.05 0.04 0.04 0.03 0.03 0.03 0.03 0.02 0.02 0.02 0.02 0.01 0.01 0.01 0.02 0.02 0.02 0.02 0.01 0.02
0.05 0.04 0.04 0.03 0.02 0.02 0.03 0.03 0.02 0.02 0.03 0.03 0.04 0.04 0.03 0.04 0.05 0.05 0.05 0.06 0.06 0.06 0.05 0.05 0.05 0.05 0.04 0.04 0.04 0.03 0.03 0.03 0.02 0.02 0.02 0.02 0.02 0.02 0.02 0.02 0.03 0.02 0.02 0.02
0.03 0.04 0.04 0.03 0.02 0.02 0.02 0.02 0.03 0.03 0.03 0.03 0.04 0.03 0.03 0.04 0.05 0.06 0.06 0.06 0.06 0.06 0.05 0.04 0.04 0.05 0.05 0.04 0.04 0.04 0.04 0.04 0.04 0.03 0.03 0.03 0.03 0.03 0.03 0.03 0.02 0.02 0.02 0.02
0.02 0.04 0.05 0.04 0.03 0.03 0.03 0.03 0.03 0.03 0.03 0.03 0.03 0.03 0.03 0.04 0.06 0.06 0.06 0.06 0.06 0.05 0.05 0.05 0.04 0.04 0.04 0.04 0.04 0.04 0.04 0.04 0.05 0.05 0.05 0.04 0.04 0.04 0.04 0.03 0.03 0.03 0.02 0.03
0.03 0.03 0.03 0.02 0.02 0.03 0.03 0.04 0.04 0.04 0.05 0.04 0.05 0.06 0.06 0.07 0.06 0.06 0.06 0.06 0.06 0.05 0.05 0.05 0.04 0.05 0.04 0.04 0.05 0.05 0.04 0.06 0.06 0.04 0.04 0.05 0.05 0.05 0.04 0.04 0.04 0.04 0.04 0.03
0.04 0.04 0.05 0.05 0.04 0.04 0.04 0.04 0.04 0.05 0.05 0.05 0.06 0.06 0.06 0.06 0.06 0.05 0.05 0.05 0.05 0.05 0.06 0.06 0.06 0.06 0.05 0.05 0.05 0.05 0.05 0.06 0.08 0.06 0.05 0.05 0.06 0.06 0.06 0.06 0.06 0.05 0.03 0.05
0.05 0.05 0.05 0.06 0.05 0.05 0.05 0.05 0.05 0.04 0.05 0.05 0.04 0.04 0.05 0.05 0.05 0.06 0.06 0.05 0.05 0.05 0.05 0.05 0.05 0.06 0.06 0.06 0.07 0.07 0.07 0.07 0.07 0.06 0.07 0.07 0.08 0.07 0.07 0.07 0.06 0.05 0.04 0.06
0.04 0.04 0.04 0.04 0.05 0.06 0.06 0.06 0.06 0.05 0.05 0.05 0.05 0.06 0.06 0.05 0.05 0.05 0.05 0.05 0.06 0.06 0.06 0.06 0.07 0.06 0.06 0.06 0.08 0.07 0.07 0.08 0.09 0.09 0.10 0.12 0.12 0.09 0.08 0.07 0.07 0.06 0.07 0.06
0.04 0.05 0.07 0.08 0.09 0.09 0.09 0.09 0.08 0.08 0.07 0.06 0.06 0.06 0.05 0.05 0.05 0.04 0.04 0.04 0.05 0.05 0.06 0.08 0.08 0.07 0.06 0.07 0.09 0.08 0.07 0.09 0.11 0.12 0.13 0.13 0.12 0.11 0.10 0.09 0.09 0.08 0.07 0.07
0.07 0.07 0.09 0.10 0.11 0.11 0.11 0.10 0.09 0.09 0.08 0.07 0.06 0.06 0.07 0.07 0.06 0.06 0.06 0.06 0.06 0.06 0.05 0.07 0.07 0.06 0.07 0.08 0.11 0.09 0.09 0.10 0.11 0.12 0.13 0.13 0.13 0.12 0.11 0.10 0.10 0.09 0.09 0.08
0.10 0.10 0.11 0.12 0.14 0.14 0.13 0.10 0.09 0.08 0.07 0.07 0.07 0.06 0.06 0.06 0.07 0.07 0.07 0.07 0.07 0.07 0.06 0.05 0.05 0.07 0.08 0.10 0.09 0.08 0.09 0.11 0.11 0.12 0.12 0.12 0.13 0.12 0.12 0.12 0.12 0.11 0.11 0.10
0.11 0.11 0.11 0.11 0.12 0.14 0.13 0.12 0.10 0.09 0.09 0.08 0.08 0.08 0.08 0.07 0.07 0.07 0.07 0.07 0.06 0.07 0.06 0.05 0.06 0.09 0.10 0.08 0.07 0.08 0.09 0.10 0.10 0.10 0.11 0.11 0.11 0.12 0.13 0.12 0.12 0.11 0.11 0.10
0.12 0.12 0.11 0.11 0.10 0.10 0.10 0.10 0.10 0.10 0.09 0.09 0.09 0.09 0.09 0.09 0.08 0.07 0.06 0.07 0.08 0.08 0.07 0.06 0.08 0.09 0.09 0.08 0.07 0.09 0.09 0.10 0.10 0.11 0.11 0.11 0.12 0.12 0.12 0.12 0.11 0.10 0.09 0.09
0.12 0.11 0.10 0.10 0.09 0.10 0.09 0.09 0.08 0.08 0.08 0.08 0.07 0.06 0.06 0.07 0.07 0.07 0.07 0.06 0.08 0.08 0.07 0.08 0.09 0.09 0.09 0.09 0.09 0.10 0.11 0.11 0.12 0.12 0.12 0.12 0.11 0.11 0.11 0.11 0.11 0.11 0.11 0.10
0.09 0.08 0.08 0.07 0.07 0.07 0.07 0.07 0.07 0.07 0.07 0.07 0.06 0.05 0.05 0.05 0.05 0.05 0.05 0.05 0.06 0.07 0.07 0.08 0.09 0.10 0.10 0.10 0.11 0.11 0.12 0.12 0.13 0.11 0.10 0.10 0.10 0.11 0.11 0.10 0.11 0.11 0.10 0.09
0.07 0.06 0.06 0.06 0.05 0.05 0.05 0.05 0.06 0.06 0.07 0.07 0.07 0.06 0.06 0.05 0.05 0.05 0.04 0.04 0.04 0.04 0.05 0.06 0.06 0.07 0.08 0.09 0.10 0.10 0.11 0.11 0.11 0.11 0.11 0.11 0.11 0.11 0.10 0.10 0.10 0.10 0.10 0.09

GEFSNGP_prec_meanprecacc_102.txt.gz
Total_Precipitation_Accumulation
0.39 0.31 0.47 0.49 0.46 0.56 0.82 0.78 0.70 0.33 0.17 0.11 0.11 0.15 0.14 0.12 0.09 0.07 0.06 0.05 0.05 0.05 0.05 0.04 0.03 0.03 0.02 0.02 0.03 0.04 0.05 0.06 0.07 0.08 0.08 0.08 0.08 0.08 0.09 0.09 0.09 0.10 0.11 0.11
0.46 0.28 0.38 0.44 0.41 0.43 0.47 0.49 0.48 0.34 0.26 0.15 0.13 0.16 0.15 0.12 0.10 0.09 0.07 0.06 0.06 0.05 0.05 0.04 0.05 0.05 0.05 0.04 0.04 0.04 0.06 0.08 0.07 0.07 0.08 0.08 0.08 0.09 0.10 0.11 0.12 0.14 0.17 0.21
0.51 0.31 0.40 0.45 0.39 0.40 0.39 0.35 0.37 0.39 0.30 0.19 0.19 0.19 0.16 0.13 0.11 0.09 0.06 0.04 0.04 0.04 0.04 0.04 0.03 0.04 0.03 0.04 0.05 0.06 0.07 0.08 0.08 0.08 0.08 0.08 0.10 0.15 0.19 0.21 0.23 0.27 0.31 0.36
0.50 0.36 0.48 0.35 0.27 0.29 0.32 0.30 0.32 0.29 0.22 0.17 0.17 0.18 0.17 0.14 0.10 0.07 0.05 0.03 0.02 0.02 0.03 0.03 0.03 0.03 0.02 0.03 0.05 0.06 0.07 0.10 0.13 0.14 0.18 0.20 0.21 0.25 0.31 0.35 0.37 0.40 0.42 0.44
0.48 0.37 0.26 0.19 0.18 0.21 0.28 0.30 0.26 0.19 0.13 0.11 0.12 0.17 0.17 0.14 0.10 0.07 0.05 0.05 0.04 0.04 0.03 0.03 0.03 0.03 0.04 0.05 0.06 0.07 0.08 0.12 0.15 0.17 0.24 0.30 0.31 0.34 0.39 0.43 0.47 0.46 0.43 0.38
0.44 0.38 0.18 0.11 0.07 0.09 0.19 0.29 0.18 0.16 0.15 0.14 0.16 0.19 0.17 0.13 0.12 0.11 0.09 0.07 0.07 0.07 0.08 0.09 0.09 0.10 0.11 0.12 0.15 0.18 0.19 0.22 0.27 0.31 0.37 0.41 0.40 0.40 0.39 0.37 0.36 0.32 0.27 0.22
0.34 0.31 0.08 0.04 0.04 0.07 0.20 0.25 0.11 0.10 0.12 0.15 0.14 0.13 0.13 0.10 0.10 0.12 0.13 0.12 0.12 0.12 0.14 0.15 0.15 0.17 0.18 0.19 0.25 0.31 0.34 0.36 0.36 0.38 0.39 0.40 0.37 0.34 0.30 0.25 0.20 0.16 0.12 0.10
0.16 0.22 0.11 0.05 0.06 0.10 0.13 0.10 0.10 0.11 0.12 0.13 0.13 0.10 0.10 0.11 0.11 0.09 0.09 0.11 0.13 0.14 0.17 0.19 0.21 0.25 0.27 0.29 0.33 0.33 0.33 0.33 0.32 0.31 0.29 0.28 0.26 0.23 0.19 0.15 0.11 0.08 0.05 0.04
0.09 0.10 0.08 0.07 0.07 0.07 0.07 0.07 0.08 0.09 0.11 0.10 0.10 0.11 0.09 0.08 0.08 0.08 0.09 0.10 0.12 0.16 0.18 0.21 0.22 0.26 0.28 0.28 0.27 0.26 0.26 0.24 0.21 0.17 0.16 0.15 0.13 0.11 0.09 0.08 0.06 0.04 0.03 0.02
0.07 0.04 0.04 0.05 0.05 0.05 0.04 0.04 0.03 0.04 0.06 0.09 0.11 0.11 0.10 0.07 0.06 0.06 0.07 0.08 0.09 0.11 0.12 0.13 0.14 0.16 0.18 0.17 0.16 0.15 0.14 0.14 0.12 0.09 0.07 0.06 0.05 0.04 0.03 0.03 0.02 0.02 0.02 0.02
0.07 0.04 0.04 0.04 0.04 0.04 0.03 0.02 0.02 0.02 0.02 0.04 0.06 0.06 0.08 0.07 0.07 0.07 0.06 0.07 0.07 0.08 0.08 0.08 0.08 0.09 0.09 0.08 0.08 0.08 0.08 0.07 0.07 0.05 0.05 0.05 0.04 0.04 0.03 0.03 0.03 0.03 0.02 0.03
0.09 0.05 0.06 0.05 0.04 0.04 0.03 0.03 0.02 0.03 0.03 0.03 0.04 0.05 0.04 0.04 0.04 0.04 0.06 0.06 0.07 0.07 0.08 0.09 0.08 0.07 0.06 0.06 0.06 0.06 0.07 0.07 0.07 0.06 0.06 0.06 0.05 0.05 0.05 0.05 0.05 0.04 0.04 0.04
0.05 0.04 0.04 0.03 0.02 0.02 0.03 0.03 0.02 0.03 0.03 0.04 0.04 0.05 0.05 0.05 0.06 0.07 0.08 0.09 0.09 0.08 0.07 0.08 0.09 0.09 0.08 0.07 0.07 0.07 0.07 0.07 0.07 0.07 0.07 0.07 0.07 0.06 0.06 0.05 0.05 0.05 0.04 0.04
0.03 0.04 0.04 0.03 0.03 0.02 0.02 0.02 0.03 0.03 0.03 0.03 0.04 0.04 0.04 0.05 0.06 0.08 0.09 0.10 0.10 0.09 0.08 0.07 0.08 0.09 0.09 0.08 0.07 0.08 0.08 0.09 0.09 0.08 0.07 0.07 0.07 0.07 0.06 0.05 0.04 0.03 0.04 0.05
0.02 0.04 0.05 0.04 0.03 0.03 0.03 0.03 0.03 0.03 0.03 0.03 0.03 0.03 0.04 0.05 0.07 0.09 0.09 0.09 0.10 0.09 0.08 0.07 0.07 0.07 0.08 0.08 0.07 0.06 0.06 0.07 0.08 0.08 0.08 0.08 0.08 0.07 0.07 0.06 0.05 0.04 0.04 0.05
0.03 0.03 0.03 0.02 0.02 0.03 0.04 0.04 0.04 0.05 0.05 0.05 0.06 0.07 0.08 0.08 0.08 0.07 0.08 0.08 0.08 0.08 0.07 0.06 0.06 0.07 0.07 0.06 0.07 0.06 0.06 0.08 0.08 0.07 0.07 0.08 0.08 0.08 0.07 0.07 0.07 0.06 0.05 0.05
0.04 0.04 0.05 0.05 0.04 0.04 0.04 0.04 0.04 0.05 0.06 0.06 0.07 0.07 0.07 0.07 0.07 0.07 0.07 0.07 0.06 0.07 0.08 0.08 0.08 0.08 0.07 0.07 0.07 0.07 0.07 0.08 0.11 0.09 0.07 0.07 0.08 0.08 0.08 0.09 0.08 0.06 0.05 0.07
0.05 0.05 0.05 0.06 0.06 0.05 0.05 0.05 0.05 0.05 0.06 0.06 0.06 0.07 0.08 0.08 0.08 0.08 0.08 0.08 0.07 0.07 0.07 0.07 0.07 0.07 0.08 0.08 0.08 0.08 0.09 0.09 0.09 0.09 0.09 0.10 0.11 0.10 0.10 0.09 0.08 0.07 0.06 0.08
0.04 0.04 0.04 0.04 0.05 0.06 0.06 0.07 0.06 0.06 0.06 0.06 0.07 0.08 0.08 0.08 0.07 0.07 0.07 0.08 0.08 0.09 0.08 0.07 0.09 0.08 0.07 0.08 0.10 0.09 0.09 0.10 0.11 0.11 0.12 0.14 0.14 0.11 0.10 0.09 0.09 0.08 0.08 0.08
0.04 0.05 0.07 0.08 0.09 0.09 0.10 0.09 0.09 0.09 0.09 0.08 0.08 0.07 0.07 0.08 0.07 0.06 0.06 0.06 0.07 0.07 0.08 0.09 0.10 0.08 0.08 0.08 0.11 0.09 0.09 0.10 0.12 0.13 0.14 0.15 0.14 0.12 0.11 0.11 0.10 0.10 0.09 0.09
0.07 0.07 0.09 0.10 0.11 0.11 0.11 0.10 0.10 0.09 0.09 0.08 0.08 0.08 0.09 0.09 0.08 0.07 0.07 0.07 0.07 0.07 0.07 0.08 0.08 0.07 0.08 0.10 0.12 0.10 0.10 0.11 0.12 0.13 0.14 0.14 0.15 0.14 0.13 0.12 0.11 0.11 0.10 0.10
0.10 0.10 0.11 0.12 0.14 0.14 0.13 0.10 0.09 0.08 0.08 0.08 0.08 0.08 0.08 0.08 0.08 0.08 0.08 0.08 0.08 0.09 0.07 0.06 0.06 0.08 0.09 0.11 0.10 0.09 0.10 0.11 0.12 0.12 0.13 0.14 0.14 0.14 0.13 0.13 0.14 0.13 0.12 0.12
0.11 0.11 0.11 0.12 0.12 0.14 0.13 0.12 0.10 0.10 0.09 0.09 0.09 0.09 0.09 0.09 0.09 0.08 0.09 0.08 0.07 0.07 0.06 0.05 0.07 0.09 0.10 0.09 0.08 0.08 0.09 0.10 0.11 0.11 0.11 0.12 0.13 0.13 0.14 0.14 0.13 0.12 0.12 0.11
0.12 0.12 0.11 0.11 0.10 0.10 0.10 0.10 0.10 0.10 0.10 0.10 0.10 0.10 0.10 0.10 0.09 0.08 0.07 0.08 0.09 0.09 0.07 0.07 0.09 0.09 0.09 0.08 0.08 0.09 0.10 0.10 0.11 0.11 0.12 0.12 0.13 0.13 0.13 0.13 0.12 0.11 0.10 0.10
0.12 0.11 0.11 0.10 0.09 0.10 0.10 0.09 0.08 0.08 0.08 0.08 0.07 0.07 0.07 0.08 0.08 0.08 0.07 0.07 0.08 0.09 0.08 0.08 0.10 0.10 0.10 0.09 0.10 0.11 0.12 0.12 0.13 0.13 0.13 0.13 0.12 0.12 0.12 0.12 0.12 0.12 0.11 0.10
0.09 0.09 0.08 0.07 0.07 0.07 0.07 0.07 0.07 0.07 0.07 0.07 0.06 0.06 0.05 0.06 0.06 0.06 0.06 0.06 0.06 0.08 0.08 0.08 0.10 0.10 0.11 0.10 0.11 0.12 0.12 0.13 0.13 0.12 0.11 0.11 0.11 0.12 0.11 0.11 0.11 0.11 0.10 0.10
0.07 0.06 0.06 0.06 0.05 0.05 0.05 0.06 0.06 0.06 0.07 0.07 0.07 0.06 0.06 0.06 0.06 0.05 0.05 0.05 0.04 0.05 0.06 0.06 0.07 0.07 0.08 0.10 0.10 0.11 0.11 0.11 0.11 0.11 0.11 0.12 0.12 0.12 0.11 0.11 0.11 0.11 0.10 0.10

GEFSNGP_prec_meanprecacc_108.txt.gz
Total_Precipitation_Accumulation
0.39 0.31 0.47 0.49 0.46 0.56 0.82 0.79 0.70 0.33 0.17 0.12 0.12 0.16 0.15 0.12 0.09 0.08 0.07 0.06 0.05 0.05 0.05 0.04 0.03 0.03 0.02 0.03 0.04 0.05 0.06 0.08 0.08 0.09 0.09 0.10 0.10 0.10 0.11 0.12 0.13 0.13 0.14 0.15
0.46 0.28 0.38 0.44 0.41 0.43 0.48 0.50 0.48 0.35 0.27 0.15 0.14 0.16 0.15 0.12 0.11 0.10 0.08 0.07 0.06 0.05 0.05 0.04 0.05 0.05 0.05 0.05 0.04 0.05 0.07 0.08 0.08 0.08 0.09 0.09 0.10 0.11 0.12 0.13 0.15 0.16 0.19 0.23
0.51 0.31 0.40 0.45 0.39 0.40 0.40 0.36 0.38 0.40 0.30 0.19 0.19 0.19 0.17 0.14 0.12 0.10 0.07 0.05 0.04 0.04 0.04 0.04 0.04 0.04 0.04 0.04 0.05 0.06 0.07 0.09 0.09 0.09 0.09 0.09 0.12 0.17 0.21 0.23 0.25 0.29 0.33 0.38
0.50 0.36 0.48 0.35 0.27 0.29 0.32 0.31 0.32 0.30 0.22 0.17 0.17 0.19 0.18 0.15 0.11 0.08 0.05 0.04 0.03 0.02 0.03 0.03 0.03 0.03 0.02 0.03 0.05 0.07 0.08 0.12 0.14 0.14 0.18 0.21 0.22 0.26 0.33 0.37 0.39 0.42 0.44 0.45
0.49 0.37 0.26 0.19 0.18 0.21 0.28 0.30 0.26 0.19 0.13 0.11 0.12 0.17 0.18 0.15 0.11 0.08 0.06 0.06 0.05 0.05 0.04 0.04 0.03 0.04 0.04 0.05 0.06 0.07 0.09 0.13 0.16 0.19 0.25 0.31 0.32 0.35 0.40 0.45 0.49 0.47 0.44 0.40
0.44 0.38 0.18 0.11 0.07 0.09 0.19 0.30 0.18 0.16 0.15 0.14 0.16 0.19 0.17 0.13 0.12 0.12 0.10 0.08 0.08 0.09 0.09 0.10 0.10 0.11 0.12 0.12 0.16 0.19 0.19 0.23 0.27 0.32 0.38 0.42 0.41 0.41 0.40 0.38 0.38 0.34 0.29 0.24
0.35 0.31 0.08 0.04 0.04 0.07 0.20 0.25 0.11 0.10 0.12 0.15 0.14 0.13 0.13 0.10 0.10 0.13 0.14 0.13 0.13 0.13 0.15 0.17 0.16 0.17 0.19 0.20 0.27 0.32 0.35 0.36 0.37 0.39 0.40 0.41 0.38 0.36 0.32 0.26 0.22 0.18 0.14 0.11
0.16 0.22 0.11 0.05 0.06 0.10 0.13 0.10 0.10 0.11 0.13 0.13 0.13 0.11 0.10 0.12 0.11 0.10 0.10 0.12 0.14 0.16 0.17 0.20 0.23 0.26 0.27 0.30 0.34 0.34 0.34 0.34 0.34 0.32 0.30 0.30 0.28 0.25 0.22 0.18 0.13 0.10 0.08 0.07
0.09 0.10 0.08 0.07 0.07 0.07 0.07 0.07 0.08 0.09 0.11 0.10 0.10 0.11 0.09 0.08 0.08 0.08 0.09 0.11 0.14 0.17 0.20 0.22 0.24 0.27 0.29 0.29 0.28 0.28 0.27 0.25 0.23 0.20 0.19 0.17 0.15 0.14 0.13 0.11 0.09 0.08 0.06 0.05
0.07 0.04 0.04 0.05 0.05 0.05 0.04 0.04 0.03 0.04 0.06 0.09 0.11 0.11 0.10 0.07 0.06 0.07 0.07 0.08 0.10 0.12 0.14 0.15 0.15 0.17 0.19 0.18 0.17 0.17 0.16 0.16 0.14 0.12 0.10 0.09 0.09 0.09 0.08 0.07 0.06 0.06 0.05 0.05
0.07 0.05 0.04 0.04 0.04 0.04 0.03 0.02 0.02 0.02 0.02 0.04 0.06 0.07 0.08 0.07 0.07 0.07 0.07 0.07 0.08 0.08 0.09 0.10 0.10 0.10 0.10 0.09 0.09 0.10 0.10 0.11 0.10 0.10 0.09 0.09 0.09 0.09 0.09 0.09 0.09 0.08 0.07 0.06
0.09 0.06 0.06 0.05 0.04 0.04 0.03 0.03 0.02 0.03 0.03 0.03 0.04 0.05 0.04 0.04 0.04 0.05 0.06 0.07 0.07 0.07 0.09 0.11 0.11 0.09 0.09 0.07 0.07 0.09 0.10 0.10 0.10 0.10 0.10 0.10 0.10 0.10 0.11 0.11 0.11 0.10 0.09 0.09
0.05 0.04 0.04 0.04 0.03 0.02 0.03 0.03 0.03 0.03 0.03 0.04 0.05 0.05 0.05 0.05 0.06 0.07 0.08 0.09 0.09 0.09 0.09 0.10 0.12 0.11 0.10 0.10 0.09 0.09 0.10 0.11 0.11 0.12 0.12 0.11 0.11 0.11 0.11 0.11 0.11 0.11 0.10 0.10
0.03 0.04 0.04 0.03 0.03 0.02 0.02 0.02 0.03 0.03 0.03 0.04 0.05 0.04 0.04 0.05 0.06 0.08 0.10 0.11 0.12 0.11 0.11 0.10 0.10 0.12 0.12 0.10 0.11 0.12 0.12 0.13 0.13 0.13 0.12 0.12 0.11 0.11 0.11 0.11 0.10 0.08 0.08 0.10
0.02 0.04 0.05 0.04 0.03 0.03 0.03 0.03 0.03 0.03 0.03 0.03 0.03 0.03 0.04 0.05 0.07 0.09 0.09 0.10 0.11 0.11 0.11 0.11 0.11 0.12 0.12 0.12 0.10 0.10 0.10 0.11 0.11 0.11 0.12 0.13 0.13 0.12 0.12 0.11 0.10 0.09 0.09 0.10
0.03 0.03 0.03 0.02 0.02 0.03 0.04 0.04 0.04 0.05 0.05 0.05 0.06 0.07 0.08 0.09 0.08 0.08 0.08 0.09 0.10 0.10 0.09 0.08 0.09 0.10 0.09 0.09 0.09 0.09 0.09 0.11 0.12 0.10 0.10 0.11 0.12 0.12 0.12 0.12 0.12 0.11 0.10 0.10
0.04 0.04 0.05 0.05 0.04 0.04 0.04 0.04 0.04 0.05 0.06 0.06 0.07 0.08 0.08 0.08 0.08 0.07 0.08 0.08 0.08 0.08 0.09 0.09 0.10 0.09 0.08 0.08 0.08 0.08 0.09 0.10 0.13 0.11 0.10 0.10 0.11 0.12 0.12 0.13 0.12 0.11 0.09 0.11
0.05 0.05 0.05 0.06 0.06 0.05 0.05 0.05 0.05 0.05 0.06 0.06 0.06 0.07 0.09 0.09 0.09 0.09 0.09 0.09 0.09 0.08 0.08 0.08 0.08 0.08 0.08 0.09 0.09 0.09 0.10 0.10 0.11 0.11 0.11 0.13 0.14 0.13 0.13 0.13 0.11 0.11 0.10 0.12
0.04 0.04 0.04 0.04 0.05 0.06 0.06 0.07 0.06 0.06 0.06 0.07 0.07 0.08 0.09 0.09 0.09 0.09 0.09 0.10 0.10 0.11 0.10 0.09 0.11 0.09 0.08 0.09 0.11 0.09 0.10 0.11 0.12 0.13 0.14 0.17 0.17 0.14 0.13 0.13 0.12 0.11 0.11 0.11
0.04 0.05 0.07 0.08 0.09 0.09 0.10 0.09 0.09 0.09 0.09 0.08 0.08 0.08 0.08 0.08 0.08 0.08 0.08 0.08 0.08 0.09 0.09 0.11 0.11 0.10 0.09 0.10 0.13 0.10 0.10 0.12 0.14 0.15 0.16 0.17 0.17 0.15 0.14 0.14 0.13 0.12 0.12 0.11
0.07 0.07 0.09 0.11 0.11 0.12 0.11 0.10 0.10 0.09 0.09 0.08 0.08 0.09 0.09 0.10 0.09 0.09 0.09 0.09 0.09 0.08 0.08 0.10 0.09 0.09 0.10 0.11 0.14 0.12 0.12 0.12 0.13 0.14 0.15 0.16 0.16 0.16 0.14 0.13 0.13 0.12 0.12 0.11
0.10 0.10 0.11 0.12 0.14 0.14 0.13 0.10 0.09 0.08 0.08 0.08 0.08 0.08 0.08 0.08 0.09 0.09 0.09 0.09 0.10 0.10 0.08 0.07 0.07 0.09 0.11 0.13 0.12 0.11 0.12 0.13 0.13 0.14 0.15 0.15 0.15 0.15 0.15 0.15 0.15 0.14 0.13 0.13
0.11 0.11 0.11 0.12 0.12 0.14 0.13 0.12 0.10 0.10 0.09 0.09 0.09 0.09 0.09 0.09 0.09 0.09 0.09 0.08 0.07 0.08 0.07 0.06 0.08 0.10 0.11 0.10 0.09 0.10 0.11 0.12 0.12 0.13 0.13 0.13 0.14 0.14 0.15 0.15 0.14 0.13 0.13 0.12
0.12 0.12 0.11 0.11 0.10 0.10 0.10 0.10 0.10 0.10 0.10 0.10 0.10 0.10 0.10 0.10 0.09 0.08 0.08 0.08 0.09 0.09 0.07 0.07 0.09 0.10 0.10 0.09 0.08 0.10 0.11 0.11 0.12 0.12 0.12 0.13 0.14 0.14 0.15 0.14 0.13 0.12 0.11 0.11
0.12 0.11 0.11 0.10 0.09 0.10 0.10 0.09 0.08 0.08 0.08 0.08 0.07 0.07 0.07 0.08 0.08 0.08 0.08 0.08 0.09 0.09 0.08 0.09 0.10 0.10 0.10 0.10 0.10 0.11 0.12 0.12 0.13 0.14 0.14 0.13 0.13 0.13 0.13 0.13 0.13 0.13 0.12 0.11
0.09 0.09 0.08 0.08 0.07 0.07 0.07 0.07 0.07 0.07 0.07 0.07 0.07 0.06 0.06 0.06 0.06 0.06 0.06 0.06 0.07 0.08 0.08 0.09 0.10 0.11 0.11 0.11 0.12 0.13 0.13 0.13 0.14 0.13 0.11 0.12 0.12 0.13 0.12 0.12 0.12 0.12 0.11 0.10
0.07 0.06 0.06 0.06 0.05 0.05 0.06 0.06 0.06 0.06 0.07 0.07 0.07 0.07 0.06 0.06 0.06 0.06 0.05 0.05 0.05 0.05 0.06 0.06 0.07 0.08 0.09 0.10 0.11 0.11 0.12 0.12 0.12 0.12 0.12 0.12 0.12 0.12 0.12 0.11 0.11 0.11 0.11 0.10

GEFSNGP_prec_meanprecacc_114.txt.gz
Total_Precipitation_Accumulation
0.40 0.31 0.48 0.49 0.46 0.56 0.82 0.79 0.71 0.33 0.17 0.13 0.12 0.16 0.15 0.13 0.11 0.11 0.09 0.08 0.09 0.09 0.10 0.09 0.06 0.05 0.03 0.03 0.04 0.06 0.07 0.09 0.10 0.11 0.12 0.14 0.15 0.16 0.18 0.18 0.19 0.21 0.23 0.25
0.46 0.28 0.38 0.44 0.41 0.43 0.48 0.50 0.49 0.35 0.27 0.16 0.14 0.16 0.15 0.13 0.11 0.11 0.09 0.09 0.08 0.07 0.08 0.08 0.07 0.06 0.06 0.06 0.05 0.06 0.08 0.10 0.10 0.11 0.11 0.11 0.13 0.15 0.17 0.18 0.20 0.23 0.28 0.34
0.52 0.31 0.40 0.45 0.39 0.40 0.40 0.36 0.38 0.40 0.30 0.19 0.19 0.19 0.17 0.14 0.12 0.10 0.07 0.06 0.05 0.05 0.06 0.06 0.05 0.06 0.05 0.06 0.06 0.07 0.09 0.10 0.11 0.12 0.12 0.12 0.13 0.19 0.24 0.28 0.30 0.35 0.40 0.48
0.51 0.37 0.48 0.35 0.27 0.29 0.32 0.31 0.32 0.30 0.22 0.17 0.17 0.19 0.18 0.15 0.12 0.08 0.05 0.04 0.03 0.03 0.03 0.04 0.03 0.04 0.04 0.04 0.06 0.08 0.10 0.13 0.15 0.16 0.21 0.24 0.24 0.28 0.35 0.40 0.42 0.46 0.48 0.51
0.49 0.37 0.26 0.19 0.18 0.21 0.28 0.30 0.26 0.19 0.13 0.11 0.12 0.17 0.18 0.15 0.11 0.08 0.06 0.06 0.05 0.05 0.05 0.04 0.04 0.04 0.05 0.06 0.07 0.08 0.10 0.14 0.18 0.20 0.26 0.33 0.34 0.37 0.43 0.48 0.51 0.50 0.48 0.44
0.45 0.38 0.19 0.11 0.07 0.09 0.19 0.30 0.18 0.16 0.15 0.14 0.16 0.19 0.17 0.13 0.12 0.12 0.11 0.08 0.09 0.09 0.10 0.11 0.11 0.12 0.13 0.13 0.17 0.20 0.21 0.24 0.29 0.34 0.40 0.43 0.43 0.42 0.41 0.41 0.41 0.38 0.33 0.28
0.35 0.31 0.08 0.04 0.04 0.07 0.20 0.25 0.11 0.10 0.12 0.15 0.14 0.13 0.13 0.10 0.10 0.13 0.14 0.13 0.13 0.14 0.16 0.18 0.17 0.19 0.20 0.21 0.28 0.33 0.36 0.37 0.38 0.41 0.42 0.43 0.40 0.37 0.34 0.29 0.24 0.21 0.19 0.17
0.17 0.22 0.11 0.05 0.06 0.10 0.13 0.10 0.10 0.11 0.13 0.13 0.13 0.11 0.10 0.12 0.11 0.10 0.10 0.12 0.14 0.16 0.18 0.21 0.24 0.28 0.29 0.31 0.35 0.36 0.36 0.36 0.35 0.34 0.32 0.32 0.30 0.27 0.24 0.21 0.17 0.15 0.13 0.13
0.09 0.10 0.08 0.07 0.07 0.07 0.07 0.07 0.08 0.10 0.11 0.10 0.10 0.11 0.09 0.08 0.08 0.08 0.09 0.11 0.14 0.18 0.20 0.23 0.25 0.28 0.30 0.30 0.29 0.29 0.29 0.27 0.24 0.22 0.20 0.19 0.18 0.16 0.15 0.14 0.13 0.12 0.12 0.12
0.07 0.04 0.04 0.05 0.05 0.05 0.04 0.04 0.03 0.04 0.06 0.09 0.11 0.11 0.10 0.07 0.06 0.07 0.07 0.08 0.11 0.13 0.14 0.16 0.16 0.18 0.20 0.18 0.18 0.17 0.17 0.17 0.16 0.14 0.13 0.13 0.12 0.13 0.12 0.11 0.10 0.10 0.10 0.11
0.07 0.05 0.04 0.04 0.04 0.04 0.03 0.02 0.02 0.02 0.02 0.04 0.06 0.07 0.08 0.07 0.07 0.07 0.07 0.07 0.08 0.08 0.09 0.10 0.10 0.10 0.11 0.10 0.10 0.11 0.11 0.12 0.12 0.13 0.13 0.14 0.14 0.14 0.15 0.15 0.15 0.15 0.12 0.12
0.09 0.06 0.06 0.05 0.04 0.04 0.03 0.03 0.02 0.03 0.03 0.03 0.04 0.05 0.04 0.04 0.04 0.05 0.06 0.07 0.07 0.07 0.09 0.11 0.11 0.10 0.09 0.08 0.08 0.10 0.11 0.12 0.12 0.13 0.13 0.13 0.14 0.15 0.17 0.17 0.17 0.17 0.17 0.16
0.06 0.04 0.04 0.04 0.03 0.02 0.03 0.03 0.03 0.03 0.03 0.04 0.05 0.05 0.05 0.05 0.06 0.07 0.08 0.09 0.09 0.09 0.09 0.11 0.12 0.12 0.11 0.11 0.11 0.11 0.12 0.13 0.13 0.14 0.15 0.14 0.14 0.15 0.15 0.16 0.16 0.16 0.16 0.17
0.03 0.04 0.04 0.03 0.03 0.02 0.02 0.02 0.03 0.03 0.03 0.04 0.05 0.05 0.05 0.05 0.06 0.08 0.10 0.12 0.12 0.11 0.11 0.10 0.11 0.13 0.13 0.11 0.11 0.13 0.14 0.15 0.16 0.15 0.15 0.14 0.14 0.14 0.15 0.15 0.14 0.12 0.14 0.16
0.02 0.04 0.05 0.04 0.03 0.03 0.03 0.03 0.03 0.03 0.03 0.03 0.03 0.04 0.04 0.06 0.07 0.09 0.10 0.10 0.12 0.12 0.12 0.12 0.12 0.12 0.13 0.12 0.11 0.11 0.13 0.13 0.14 0.15 0.16 0.17 0.17 0.17 0.16 0.16 0.15 0.14 0.13 0.15
0.03 0.03 0.03 0.02 0.02 0.03 0.04 0.04 0.04 0.05 0.05 0.05 0.06 0.07 0.08 0.09 0.09 0.08 0.09 0.09 0.10 0.10 0.09 0.09 0.10 0.10 0.10 0.10 0.11 0.11 0.11 0.15 0.15 0.14 0.14 0.15 0.17 0.18 0.17 0.18 0.17 0.16 0.15 0.15
0.04 0.04 0.05 0.05 0.04 0.04 0.04 0.04 0.04 0.05 0.06 0.06 0.07 0.08 0.08 0.09 0.08 0.08 0.08 0.08 0.08 0.09 0.10 0.10 0.10 0.10 0.09 0.09 0.09 0.09 0.10 0.12 0.16 0.14 0.13 0.14 0.14 0.16 0.16 0.17 0.17 0.16 0.14 0.16
0.05 0.05 0.05 0.06 0.06 0.05 0.05 0.05 0.05 0.05 0.06 0.06 0.06 0.07 0.09 0.09 0.10 0.10 0.10 0.10 0.09 0.09 0.09 0.09 0.09 0.09 0.09 0.09 0.10 0.10 0.11 0.11 0.12 0.12 0.13 0.15 0.17 0.17 0.17 0.17 0.15 0.15 0.14 0.16
0.04 0.04 0.04 0.04 0.05 0.06 0.06 0.07 0.06 0.06 0.06 0.07 0.07 0.08 0.09 0.09 0.09 0.09 0.09 0.10 0.10 0.11 0.11 0.10 0.11 0.10 0.09 0.10 0.12 0.10 0.11 0.12 0.13 0.14 0.15 0.18 0.19 0.17 0.16 0.16 0.16 0.15 0.15 0.15
0.04 0.05 0.07 0.08 0.09 0.09 0.10 0.09 0.09 0.09 0.09 0.08 0.08 0.08 0.08 0.08 0.08 0.08 0.08 0.08 0.09 0.09 0.10 0.12 0.12 0.10 0.10 0.10 0.13 0.11 0.11 0.12 0.14 0.16 0.17 0.18 0.18 0.17 0.16 0.16 0.16 0.15 0.15 0.14
0.07 0.07 0.09 0.11 0.11 0.12 0.11 0.10 0.10 0.09 0.09 0.08 0.08 0.09 0.10 0.10 0.09 0.09 0.09 0.09 0.09 0.08 0.08 0.10 0.10 0.09 0.10 0.12 0.15 0.13 0.13 0.13 0.14 0.15 0.16 0.17 0.18 0.17 0.16 0.15 0.15 0.15 0.14 0.13
0.10 0.10 0.11 0.12 0.14 0.14 0.13 0.10 0.09 0.08 0.08 0.08 0.08 0.08 0.08 0.08 0.09 0.09 0.09 0.09 0.10 0.10 0.08 0.07 0.07 0.09 0.12 0.14 0.12 0.12 0.13 0.14 0.14 0.15 0.16 0.17 0.17 0.17 0.17 0.17 0.17 0.16 0.15 0.14
0.11 0.11 0.11 0.12 0.13 0.14 0.13 0.12 0.11 0.10 0.09 0.09 0.09 0.09 0.09 0.09 0.09 0.09 0.09 0.08 0.07 0.08 0.07 0.06 0.08 0.11 0.12 0.10 0.09 0.10 0.12 0.13 0.13 0.14 0.14 0.15 0.16 0.16 0.17 0.16 0.16 0.15 0.14 0.14
0.12 0.12 0.11 0.11 0.11 0.10 0.10 0.11 0.11 0.11 0.10 0.10 0.10 0.10 0.10 0.10 0.09 0.08 0.08 0.08 0.09 0.09 0.07 0.07 0.09 0.10 0.10 0.09 0.09 0.10 0.11 0.12 0.12 0.13 0.13 0.14 0.15 0.15 0.16 0.15 0.15 0.13 0.13 0.12
0.12 0.11 0.11 0.10 0.10 0.10 0.10 0.09 0.09 0.08 0.08 0.08 0.08 0.07 0.07 0.08 0.09 0.08 0.08 0.08 0.09 0.10 0.08 0.09 0.10 0.10 0.10 0.10 0.10 0.12 0.13 0.13 0.14 0.15 0.15 0.14 0.13 0.14 0.14 0.14 0.14 0.14 0.13 0.12
0.10 0.09 0.08 0.08 0.07 0.07 0.08 0.07 0.07 0.07 0.07 0.07 0.07 0.06 0.06 0.06 0.06 0.06 0.06 0.06 0.07 0.08 0.09 0.09 0.10 0.11 0.11 0.11 0.12 0.13 0.13 0.14 0.14 0.13 0.12 0.12 0.13 0.14 0.13 0.13 0.13 0.13 0.12 0.11
0.08 0.07 0.07 0.06 0.06 0.05 0.06 0.06 0.06 0.07 0.07 0.07 0.08 0.07 0.07 0.06 0.06 0.06 0.06 0.05 0.05 0.06 0.06 0.07 0.07 0.08 0.09 0.10 0.11 0.12 0.12 0.12 0.12 0.12 0.13 0.13 0.13 0.13 0.13 0.12 0.12 0.12 0.12 0.11

GEFSNGP_prec_meanprecacc_120.txt.gz
Total_Precipitation_Accumulation
0.40 0.32 0.49 0.49 0.47 0.57 0.83 0.79 0.71 0.34 0.18 0.14 0.14 0.18 0.18 0.15 0.13 0.14 0.15 0.15 0.14 0.15 0.15 0.13 0.10 0.07 0.05 0.05 0.06 0.08 0.10 0.12 0.13 0.14 0.14 0.17 0.19 0.20 0.22 0.23 0.28 0.30 0.32 0.32
0.46 0.28 0.39 0.45 0.41 0.44 0.49 0.51 0.49 0.36 0.28 0.18 0.17 0.18 0.17 0.14 0.13 0.13 0.13 0.14 0.14 0.13 0.13 0.12 0.11 0.09 0.09 0.08 0.08 0.08 0.10 0.12 0.12 0.13 0.13 0.14 0.17 0.19 0.19 0.21 0.25 0.30 0.37 0.42
0.53 0.32 0.41 0.45 0.39 0.41 0.41 0.37 0.39 0.41 0.32 0.21 0.21 0.21 0.19 0.16 0.13 0.12 0.10 0.09 0.10 0.12 0.12 0.12 0.11 0.10 0.09 0.09 0.09 0.09 0.10 0.11 0.12 0.13 0.15 0.15 0.17 0.22 0.27 0.31 0.34 0.39 0.46 0.56
0.52 0.37 0.49 0.36 0.28 0.30 0.33 0.32 0.33 0.30 0.23 0.18 0.18 0.20 0.20 0.16 0.13 0.10 0.07 0.06 0.06 0.06 0.08 0.08 0.07 0.07 0.07 0.08 0.09 0.10 0.11 0.14 0.16 0.17 0.23 0.28 0.28 0.32 0.38 0.42 0.45 0.49 0.52 0.57
0.50 0.38 0.26 0.19 0.19 0.22 0.29 0.31 0.27 0.19 0.14 0.12 0.13 0.18 0.19 0.16 0.12 0.09 0.07 0.07 0.06 0.06 0.06 0.06 0.07 0.07 0.08 0.09 0.09 0.10 0.12 0.15 0.19 0.21 0.27 0.36 0.38 0.41 0.45 0.50 0.54 0.53 0.52 0.49
0.46 0.39 0.19 0.12 0.07 0.10 0.19 0.30 0.19 0.16 0.15 0.14 0.16 0.20 0.17 0.14 0.12 0.12 0.11 0.09 0.09 0.10 0.10 0.11 0.12 0.13 0.13 0.14 0.17 0.20 0.22 0.25 0.30 0.35 0.41 0.45 0.46 0.45 0.44 0.44 0.44 0.41 0.36 0.33
0.35 0.32 0.08 0.04 0.04 0.07 0.20 0.25 0.11 0.10 0.12 0.15 0.14 0.14 0.13 0.10 0.10 0.13 0.14 0.13 0.13 0.14 0.16 0.18 0.18 0.19 0.21 0.22 0.28 0.34 0.36 0.38 0.39 0.42 0.44 0.44 0.42 0.39 0.35 0.31 0.27 0.25 0.23 0.21
0.17 0.23 0.11 0.05 0.06 0.10 0.13 0.10 0.10 0.11 0.13 0.13 0.13 0.11 0.10 0.12 0.11 0.10 0.10 0.12 0.14 0.16 0.18 0.21 0.24 0.28 0.29 0.32 0.36 0.37 0.37 0.37 0.36 0.35 0.33 0.33 0.31 0.29 0.25 0.22 0.20 0.18 0.17 0.18
0.09 0.10 0.08 0.08 0.07 0.07 0.07 0.07 0.08 0.10 0.11 0.10 0.10 0.11 0.09 0.08 0.08 0.08 0.09 0.11 0.14 0.18 0.21 0.23 0.25 0.28 0.30 0.30 0.29 0.30 0.30 0.28 0.26 0.23 0.22 0.21 0.20 0.18 0.17 0.16 0.15 0.16 0.17 0.18
0.07 0.04 0.04 0.05 0.05 0.05 0.04 0.04 0.03 0.04 0.06 0.09 0.11 0.11 0.10 0.07 0.06 0.07 0.07 0.09 0.11 0.13 0.14 0.16 0.16 0.18 0.20 0.19 0.18 0.18 0.18 0.18 0.17 0.15 0.15 0.15 0.15 0.16 0.15 0.14 0.14 0.14 0.16 0.17
0.08 0.05 0.04 0.05 0.04 0.04 0.03 0.02 0.02 0.02 0.02 0.04 0.06 0.07 0.08 0.07 0.07 0.07 0.07 0.07 0.08 0.08 0.09 0.10 0.10 0.10 0.11 0.10 0.11 0.12 0.13 0.13 0.13 0.14 0.15 0.16 0.17 0.18 0.20 0.19 0.20 0.19 0.18 0.18
0.09 0.06 0.06 0.05 0.04 0.04 0.03 0.03 0.02 0.03 0.03 0.03 0.04 0.05 0.04 0.04 0.04 0.05 0.07 0.07 0.07 0.08 0.09 0.11 0.11 0.10 0.10 0.08 0.08 0.11 0.13 0.13 0.14 0.15 0.15 0.16 0.18 0.19 0.22 0.22 0.23 0.23 0.23 0.22
0.06 0.04 0.04 0.04 0.03 0.02 0.03 0.03 0.03 0.03 0.03 0.04 0.05 0.05 0.05 0.05 0.06 0.07 0.09 0.10 0.10 0.09 0.09 0.11 0.12 0.12 0.11 0.11 0.11 0.11 0.12 0.14 0.15 0.16 0.17 0.16 0.17 0.19 0.19 0.20 0.22 0.22 0.22 0.23
0.03 0.04 0.04 0.03 0.03 0.02 0.02 0.02 0.03 0.03 0.03 0.04 0.05 0.05 0.05 0.05 0.06 0.09 0.10 0.12 0.12 0.12 0.11 0.11 0.11 0.13 0.13 0.11 0.12 0.13 0.14 0.16 0.16 0.16 0.16 0.16 0.16 0.17 0.18 0.19 0.18 0.17 0.18 0.21
0.02 0.04 0.05 0.04 0.03 0.03 0.03 0.03 0.03 0.03 0.04 0.03 0.03 0.04 0.04 0.06 0.07 0.09 0.10 0.11 0.12 0.12 0.12 0.12 0.12 0.13 0.13 0.13 0.11 0.11 0.13 0.14 0.15 0.15 0.17 0.18 0.18 0.18 0.18 0.19 0.18 0.18 0.18 0.20
0.03 0.03 0.03 0.02 0.02 0.03 0.04 0.04 0.04 0.05 0.05 0.05 0.06 0.07 0.08 0.09 0.09 0.09 0.09 0.10 0.10 0.10 0.09 0.09 0.10 0.11 0.10 0.11 0.11 0.11 0.11 0.15 0.16 0.14 0.14 0.16 0.18 0.19 0.19 0.20 0.20 0.20 0.19 0.20
0.04 0.04 0.05 0.05 0.04 0.04 0.04 0.04 0.04 0.05 0.06 0.06 0.07 0.08 0.08 0.09 0.08 0.08 0.08 0.08 0.08 0.09 0.10 0.10 0.10 0.10 0.09 0.09 0.09 0.10 0.10 0.12 0.16 0.15 0.14 0.15 0.15 0.17 0.18 0.20 0.20 0.20 0.19 0.22
0.05 0.05 0.05 0.06 0.06 0.05 0.05 0.05 0.05 0.05 0.06 0.06 0.06 0.07 0.09 0.09 0.10 0.10 0.10 0.10 0.09 0.09 0.09 0.09 0.09 0.09 0.09 0.10 0.10 0.10 0.11 0.12 0.12 0.13 0.14 0.16 0.18 0.18 0.19 0.19 0.18 0.18 0.18 0.21
0.04 0.04 0.04 0.04 0.05 0.06 0.06 0.07 0.06 0.06 0.06 0.07 0.07 0.08 0.09 0.09 0.09 0.09 0.09 0.10 0.10 0.11 0.11 0.10 0.12 0.10 0.09 0.10 0.12 0.10 0.11 0.12 0.13 0.14 0.16 0.19 0.20 0.18 0.18 0.18 0.18 0.18 0.19 0.19
0.04 0.05 0.07 0.08 0.09 0.09 0.10 0.09 0.09 0.09 0.09 0.08 0.08 0.08 0.08 0.09 0.08 0.08 0.08 0.08 0.09 0.09 0.10 0.12 0.12 0.11 0.10 0.11 0.14 0.11 0.11 0.13 0.14 0.16 0.17 0.19 0.19 0.18 0.17 0.18 0.18 0.18 0.18 0.17
0.07 0.07 0.09 0.11 0.11 0.12 0.11 0.10 0.10 0.09 0.09 0.08 0.08 0.09 0.10 0.10 0.09 0.09 0.09 0.09 0.09 0.09 0.09 0.11 0.10 0.10 0.11 0.13 0.15 0.13 0.13 0.13 0.14 0.15 0.17 0.18 0.18 0.18 0.17 0.17 0.17 0.17 0.16 0.16
0.10 0.10 0.11 0.12 0.14 0.14 0.13 0.10 0.09 0.08 0.08 0.08 0.08 0.08 0.08 0.08 0.09 0.09 0.09 0.10 0.10 0.10 0.08 0.07 0.08 0.10 0.12 0.14 0.13 0.13 0.14 0.15 0.15 0.15 0.17 0.17 0.18 0.18 0.18 0.18 0.19 0.18 0.18 0.17
0.11 0.11 0.11 0.12 0.13 0.14 0.13 0.12 0.11 0.10 0.09 0.09 0.09 0.09 0.09 0.09 0.09 0.09 0.09 0.08 0.08 0.08 0.07 0.06 0.08 0.11 0.12 0.11 0.10 0.11 0.12 0.14 0.14 0.15 0.15 0.16 0.17 0.17 0.18 0.18 0.18 0.17 0.16 0.16
0.12 0.12 0.11 0.11 0.11 0.10 0.10 0.11 0.11 0.11 0.11 0.10 0.10 0.10 0.11 0.11 0.10 0.08 0.08 0.09 0.09 0.09 0.08 0.07 0.10 0.10 0.10 0.09 0.09 0.11 0.12 0.12 0.13 0.14 0.14 0.15 0.16 0.17 0.17 0.17 0.16 0.15 0.14 0.14
0.12 0.11 0.11 0.10 0.10 0.10 0.10 0.10 0.09 0.09 0.09 0.09 0.08 0.08 0.08 0.09 0.09 0.09 0.08 0.08 0.09 0.10 0.09 0.09 0.11 0.11 0.11 0.10 0.11 0.12 0.13 0.14 0.15 0.16 0.16 0.16 0.15 0.15 0.15 0.15 0.15 0.15 0.14 0.13
0.10 0.09 0.09 0.08 0.07 0.07 0.08 0.08 0.08 0.08 0.08 0.08 0.08 0.07 0.06 0.06 0.06 0.06 0.06 0.06 0.07 0.09 0.09 0.09 0.11 0.12 0.12 0.12 0.13 0.14 0.14 0.15 0.15 0.14 0.13 0.14 0.14 0.15 0.15 0.14 0.14 0.14 0.13 0.12
0.08 0.07 0.07 0.07 0.06 0.06 0.06 0.06 0.07 0.07 0.08 0.09 0.09 0.08 0.07 0.07 0.07 0.06 0.06 0.05 0.05 0.06 0.07 0.07 0.08 0.09 0.10 0.11 0.12 0.13 0.13 0.13 0.13 0.14 0.14 0.14 0.14 0.14 0.14 0.14 0.14 0.13 0.13 0.12

GEFSNGP_prec_meanprecacc_126.txt.gz
Total_Precipitation_Accumulation
0.40 0.32 0.49 0.50 0.47 0.58 0.84 0.80 0.72 0.34 0.19 0.14 0.15 0.20 0.19 0.16 0.14 0.15 0.16 0.16 0.16 0.17 0.18 0.14 0.11 0.09 0.07 0.07 0.09 0.11 0.13 0.15 0.15 0.16 0.17 0.20 0.22 0.25 0.28 0.31 0.36 0.38 0.40 0.40
0.46 0.29 0.40 0.45 0.42 0.44 0.49 0.51 0.50 0.36 0.28 0.19 0.19 0.20 0.18 0.15 0.13 0.13 0.13 0.15 0.16 0.15 0.17 0.14 0.13 0.11 0.10 0.10 0.09 0.11 0.14 0.14 0.15 0.17 0.17 0.18 0.21 0.25 0.25 0.28 0.33 0.37 0.43 0.49
0.53 0.32 0.41 0.46 0.41 0.42 0.42 0.38 0.40 0.42 0.33 0.24 0.24 0.22 0.20 0.16 0.13 0.12 0.10 0.10 0.13 0.14 0.15 0.14 0.12 0.11 0.10 0.10 0.10 0.10 0.13 0.14 0.15 0.17 0.19 0.19 0.22 0.27 0.33 0.38 0.43 0.48 0.52 0.62
0.52 0.38 0.50 0.37 0.29 0.31 0.34 0.33 0.35 0.33 0.25 0.21 0.20 0.21 0.21 0.16 0.13 0.10 0.07 0.06 0.07 0.09 0.10 0.10 0.09 0.09 0.09 0.09 0.10 0.12 0.14 0.18 0.20 0.21 0.28 0.33 0.33 0.36 0.43 0.49 0.53 0.57 0.58 0.62
0.51 0.39 0.27 0.20 0.19 0.22 0.30 0.33 0.29 0.22 0.16 0.14 0.15 0.20 0.21 0.17 0.12 0.09 0.07 0.07 0.07 0.08 0.10 0.09 0.10 0.10 0.10 0.11 0.13 0.14 0.17 0.21 0.24 0.26 0.33 0.42 0.44 0.46 0.50 0.54 0.58 0.58 0.56 0.53
0.47 0.40 0.20 0.12 0.08 0.10 0.19 0.31 0.21 0.19 0.17 0.17 0.18 0.22 0.20 0.16 0.14 0.13 0.12 0.09 0.10 0.10 0.11 0.13 0.16 0.16 0.17 0.18 0.23 0.25 0.26 0.30 0.35 0.40 0.46 0.49 0.50 0.49 0.47 0.46 0.47 0.44 0.39 0.36
0.36 0.33 0.09 0.05 0.04 0.07 0.20 0.25 0.13 0.13 0.14 0.16 0.16 0.15 0.15 0.11 0.11 0.13 0.15 0.14 0.14 0.15 0.17 0.19 0.19 0.20 0.22 0.24 0.32 0.37 0.40 0.41 0.42 0.45 0.48 0.47 0.45 0.42 0.37 0.32 0.29 0.27 0.26 0.24
0.18 0.24 0.12 0.06 0.06 0.10 0.14 0.10 0.11 0.13 0.15 0.15 0.14 0.11 0.11 0.12 0.11 0.10 0.11 0.13 0.15 0.17 0.19 0.22 0.25 0.29 0.30 0.32 0.37 0.40 0.40 0.39 0.38 0.36 0.35 0.36 0.35 0.33 0.28 0.24 0.22 0.20 0.20 0.21
0.10 0.11 0.09 0.08 0.08 0.08 0.07 0.08 0.08 0.10 0.12 0.11 0.11 0.12 0.10 0.08 0.09 0.09 0.10 0.12 0.15 0.19 0.22 0.25 0.26 0.29 0.31 0.31 0.30 0.31 0.32 0.30 0.27 0.24 0.23 0.23 0.23 0.23 0.21 0.19 0.18 0.19 0.20 0.22
0.07 0.05 0.04 0.05 0.05 0.05 0.05 0.04 0.03 0.04 0.06 0.09 0.12 0.12 0.11 0.07 0.07 0.07 0.08 0.09 0.11 0.13 0.15 0.17 0.17 0.19 0.20 0.19 0.19 0.19 0.19 0.19 0.18 0.16 0.16 0.16 0.17 0.19 0.19 0.18 0.17 0.17 0.19 0.22
0.08 0.05 0.05 0.05 0.04 0.04 0.03 0.02 0.02 0.02 0.02 0.04 0.06 0.07 0.08 0.08 0.07 0.07 0.07 0.08 0.08 0.09 0.09 0.10 0.11 0.11 0.11 0.10 0.11 0.12 0.13 0.13 0.14 0.15 0.16 0.17 0.18 0.20 0.23 0.23 0.24 0.23 0.21 0.22
0.09 0.06 0.06 0.05 0.04 0.04 0.03 0.03 0.02 0.03 0.03 0.03 0.04 0.05 0.04 0.04 0.04 0.05 0.07 0.07 0.07 0.08 0.09 0.11 0.11 0.10 0.10 0.08 0.08 0.11 0.13 0.14 0.14 0.15 0.16 0.17 0.19 0.20 0.24 0.25 0.27 0.27 0.27 0.27
0.06 0.04 0.04 0.04 0.03 0.02 0.03 0.03 0.03 0.03 0.03 0.04 0.05 0.05 0.05 0.05 0.06 0.08 0.09 0.10 0.10 0.09 0.09 0.11 0.12 0.12 0.11 0.11 0.11 0.11 0.13 0.15 0.15 0.17 0.18 0.17 0.18 0.20 0.21 0.22 0.24 0.25 0.26 0.28
0.03 0.04 0.04 0.03 0.03 0.02 0.02 0.02 0.03 0.03 0.03 0.04 0.05 0.05 0.05 0.05 0.06 0.09 0.10 0.12 0.12 0.12 0.11 0.11 0.11 0.13 0.13 0.11 0.12 0.13 0.14 0.16 0.17 0.17 0.17 0.17 0.17 0.18 0.19 0.20 0.19 0.19 0.20 0.24
0.02 0.04 0.05 0.04 0.03 0.03 0.03 0.03 0.03 0.03 0.04 0.03 0.03 0.04 0.04 0.06 0.07 0.09 0.10 0.11 0.12 0.12 0.12 0.12 0.12 0.13 0.13 0.13 0.11 0.11 0.13 0.14 0.15 0.16 0.18 0.19 0.19 0.19 0.19 0.20 0.19 0.19 0.20 0.22
0.03 0.03 0.03 0.02 0.02 0.03 0.04 0.04 0.04 0.05 0.05 0.05 0.06 0.07 0.08 0.09 0.09 0.09 0.09 0.10 0.10 0.10 0.09 0.09 0.10 0.11 0.10 0.11 0.11 0.11 0.11 0.15 0.16 0.15 0.15 0.16 0.19 0.20 0.20 0.20 0.21 0.21 0.21 0.22
0.04 0.04 0.05 0.05 0.04 0.04 0.04 0.04 0.04 0.05 0.06 0.06 0.07 0.08 0.08 0.09 0.08 0.08 0.08 0.08 0.08 0.09 0.10 0.10 0.11 0.10 0.09 0.09 0.10 0.10 0.10 0.12 0.16 0.15 0.14 0.15 0.16 0.17 0.19 0.20 0.21 0.21 0.20 0.24
0.05 0.05 0.05 0.06 0.06 0.05 0.05 0.05 0.05 0.05 0.06 0.06 0.06 0.07 0.09 0.09 0.10 0.10 0.10 0.10 0.09 0.09 0.09 0.09 0.09 0.09 0.09 0.10 0.10 0.11 0.11 0.12 0.12 0.13 0.14 0.16 0.18 0.18 0.19 0.19 0.19 0.19 0.19 0.22
0.04 0.04 0.04 0.04 0.05 0.06 0.06 0.07 0.06 0.06 0.06 0.07 0.07 0.08 0.09 0.09 0.09 0.09 0.09 0.10 0.10 0.11 0.11 0.10 0.12 0.10 0.09 0.10 0.12 0.11 0.11 0.13 0.14 0.14 0.16 0.19 0.20 0.18 0.18 0.18 0.18 0.19 0.20 0.20
0.04 0.05 0.07 0.08 0.09 0.09 0.10 0.09 0.09 0.09 0.09 0.08 0.08 0.08 0.08 0.09 0.08 0.08 0.08 0.08 0.09 0.10 0.10 0.12 0.12 0.11 0.10 0.11 0.14 0.11 0.11 0.13 0.15 0.16 0.18 0.19 0.19 0.18 0.18 0.18 0.18 0.19 0.19 0.19
0.07 0.07 0.09 0.11 0.11 0.12 0.11 0.10 0.10 0.09 0.09 0.08 0.08 0.09 0.10 0.10 0.09 0.09 0.09 0.09 0.09 0.09 0.09 0.11 0.10 0.10 0.11 0.13 0.15 0.14 0.13 0.14 0.14 0.16 0.17 0.18 0.19 0.19 0.18 0.18 0.18 0.18 0.18 0.18
0.10 0.10 0.11 0.12 0.14 0.14 0.13 0.10 0.09 0.08 0.08 0.08 0.08 0.08 0.08 0.08 0.09 0.09 0.09 0.10 0.10 0.10 0.08 0.08 0.08 0.10 0.13 0.15 0.13 0.13 0.14 0.15 0.15 0.16 0.17 0.18 0.19 0.19 0.18 0.19 0.20 0.19 0.19 0.19
0.11 0.11 0.11 0.12 0.13 0.14 0.13 0.12 0.11 0.10 0.09 0.09 0.09 0.09 0.09 0.09 0.09 0.09 0.09 0.09 0.08 0.09 0.08 0.06 0.09 0.11 0.13 0.11 0.10 0.11 0.13 0.14 0.15 0.15 0.16 0.16 0.18 0.18 0.19 0.19 0.19 0.18 0.18 0.18
0.12 0.12 0.11 0.11 0.11 0.10 0.10 0.11 0.11 0.11 0.11 0.10 0.11 0.11 0.11 0.11 0.10 0.09 0.08 0.09 0.10 0.10 0.08 0.08 0.10 0.11 0.11 0.10 0.10 0.11 0.12 0.13 0.14 0.15 0.15 0.16 0.17 0.18 0.18 0.18 0.18 0.16 0.16 0.16
0.12 0.11 0.11 0.10 0.10 0.10 0.10 0.10 0.09 0.09 0.09 0.09 0.08 0.08 0.08 0.09 0.10 0.09 0.09 0.09 0.10 0.11 0.10 0.11 0.12 0.12 0.12 0.11 0.12 0.13 0.14 0.14 0.16 0.17 0.17 0.17 0.16 0.17 0.17 0.16 0.17 0.17 0.16 0.15
0.10 0.09 0.09 0.08 0.07 0.08 0.08 0.08 0.08 0.08 0.08 0.08 0.08 0.07 0.07 0.07 0.07 0.08 0.08 0.08 0.09 0.10 0.10 0.11 0.12 0.13 0.13 0.13 0.13 0.14 0.15 0.15 0.16 0.16 0.15 0.15 0.16 0.17 0.16 0.16 0.16 0.16 0.15 0.14
0.08 0.08 0.08 0.07 0.07 0.07 0.07 0.07 0.07 0.08 0.08 0.09 0.09 0.08 0.08 0.08 0.08 0.08 0.07 0.07 0.06 0.07 0.08 0.08 0.09 0.09 0.10 0.12 0.13 0.13 0.14 0.14 0.15 0.15 0.15 0.16 0.16 0.16 0.16 0.15 0.16 0.15 0.15 0.14

GEFSNGP_prec_meanprecacc_132.txt.gz
Total_Precipitation_Accumulation
0.40 0.32 0.49 0.50 0.48 0.58 0.85 0.81 0.73 0.35 0.19 0.14 0.16 0.22 0.20 0.17 0.15 0.16 0.18 0.19 0.20 0.21 0.20 0.17 0.14 0.12 0.10 0.10 0.12 0.14 0.16 0.17 0.18 0.19 0.20 0.22 0.24 0.27 0.30 0.34 0.39 0.42 0.44 0.44
0.46 0.29 0.40 0.46 0.43 0.45 0.50 0.52 0.51 0.37 0.29 0.19 0.19 0.21 0.19 0.16 0.14 0.14 0.15 0.17 0.18 0.17 0.18 0.16 0.15 0.14 0.13 0.13 0.12 0.14 0.16 0.16 0.16 0.18 0.18 0.21 0.24 0.27 0.28 0.32 0.38 0.43 0.49 0.55
0.53 0.32 0.41 0.47 0.41 0.43 0.42 0.39 0.41 0.43 0.34 0.25 0.25 0.23 0.20 0.17 0.14 0.13 0.11 0.11 0.14 0.15 0.16 0.15 0.14 0.13 0.12 0.13 0.13 0.14 0.15 0.16 0.17 0.19 0.21 0.22 0.26 0.30 0.36 0.41 0.49 0.56 0.59 0.69
0.53 0.38 0.50 0.37 0.30 0.32 0.35 0.34 0.36 0.34 0.26 0.22 0.22 0.22 0.21 0.16 0.13 0.10 0.08 0.06 0.07 0.10 0.10 0.10 0.09 0.10 0.11 0.10 0.12 0.13 0.16 0.20 0.22 0.23 0.30 0.36 0.36 0.39 0.46 0.52 0.59 0.66 0.66 0.69
0.52 0.39 0.27 0.20 0.20 0.23 0.31 0.34 0.30 0.23 0.17 0.15 0.17 0.21 0.21 0.17 0.13 0.09 0.07 0.07 0.07 0.08 0.10 0.10 0.10 0.11 0.12 0.13 0.14 0.15 0.18 0.23 0.26 0.28 0.37 0.46 0.46 0.48 0.52 0.57 0.63 0.65 0.64 0.59
0.48 0.41 0.21 0.13 0.08 0.10 0.20 0.32 0.22 0.19 0.18 0.18 0.19 0.23 0.21 0.16 0.14 0.13 0.12 0.10 0.10 0.11 0.12 0.14 0.16 0.17 0.17 0.19 0.24 0.27 0.28 0.32 0.37 0.43 0.50 0.54 0.54 0.53 0.50 0.48 0.50 0.48 0.44 0.40
0.37 0.34 0.09 0.05 0.05 0.07 0.21 0.26 0.13 0.13 0.15 0.18 0.18 0.17 0.16 0.12 0.11 0.14 0.15 0.15 0.14 0.15 0.17 0.19 0.19 0.21 0.22 0.25 0.33 0.39 0.42 0.45 0.45 0.49 0.51 0.51 0.49 0.45 0.40 0.34 0.32 0.31 0.30 0.28
0.18 0.25 0.13 0.06 0.07 0.11 0.15 0.11 0.11 0.14 0.16 0.16 0.16 0.13 0.12 0.14 0.12 0.11 0.11 0.13 0.15 0.17 0.19 0.22 0.25 0.29 0.30 0.32 0.38 0.40 0.42 0.42 0.40 0.38 0.38 0.39 0.38 0.36 0.31 0.27 0.25 0.24 0.25 0.26
0.10 0.11 0.09 0.08 0.08 0.08 0.07 0.08 0.08 0.11 0.13 0.13 0.13 0.13 0.11 0.10 0.10 0.10 0.10 0.12 0.15 0.19 0.22 0.25 0.26 0.29 0.31 0.31 0.30 0.31 0.32 0.32 0.29 0.25 0.24 0.25 0.25 0.25 0.25 0.23 0.21 0.23 0.26 0.27
0.07 0.05 0.04 0.05 0.05 0.06 0.05 0.04 0.03 0.04 0.07 0.11 0.13 0.13 0.12 0.09 0.08 0.08 0.08 0.09 0.12 0.13 0.15 0.17 0.17 0.19 0.21 0.20 0.19 0.19 0.19 0.21 0.21 0.19 0.18 0.18 0.19 0.21 0.21 0.21 0.20 0.20 0.24 0.27
0.08 0.05 0.05 0.05 0.04 0.04 0.03 0.02 0.02 0.02 0.03 0.05 0.08 0.08 0.09 0.09 0.08 0.08 0.08 0.08 0.09 0.09 0.09 0.11 0.11 0.11 0.11 0.11 0.11 0.13 0.14 0.15 0.16 0.17 0.18 0.18 0.20 0.22 0.24 0.25 0.27 0.26 0.23 0.25
0.09 0.06 0.06 0.05 0.04 0.04 0.03 0.03 0.02 0.03 0.03 0.04 0.05 0.05 0.05 0.05 0.05 0.06 0.07 0.08 0.08 0.08 0.09 0.12 0.11 0.10 0.10 0.09 0.09 0.11 0.13 0.14 0.16 0.17 0.17 0.18 0.20 0.21 0.25 0.26 0.28 0.30 0.30 0.29
0.06 0.04 0.04 0.04 0.03 0.02 0.03 0.03 0.03 0.03 0.03 0.04 0.05 0.05 0.05 0.05 0.06 0.08 0.09 0.10 0.10 0.09 0.09 0.11 0.13 0.12 0.12 0.12 0.11 0.11 0.13 0.15 0.16 0.17 0.18 0.18 0.19 0.21 0.21 0.22 0.24 0.26 0.27 0.29
0.03 0.04 0.04 0.03 0.03 0.02 0.02 0.02 0.03 0.03 0.03 0.04 0.05 0.05 0.05 0.05 0.06 0.09 0.11 0.12 0.13 0.12 0.11 0.11 0.11 0.14 0.13 0.12 0.12 0.14 0.14 0.16 0.17 0.17 0.18 0.17 0.18 0.19 0.19 0.20 0.20 0.19 0.21 0.25
0.02 0.04 0.05 0.04 0.03 0.03 0.03 0.03 0.03 0.03 0.04 0.03 0.04 0.04 0.05 0.06 0.08 0.09 0.10 0.11 0.12 0.12 0.12 0.12 0.12 0.13 0.13 0.13 0.11 0.11 0.13 0.14 0.15 0.16 0.18 0.19 0.19 0.19 0.19 0.20 0.20 0.20 0.20 0.22
0.03 0.03 0.03 0.02 0.02 0.03 0.04 0.04 0.04 0.05 0.05 0.05 0.06 0.07 0.09 0.09 0.09 0.09 0.09 0.10 0.10 0.10 0.09 0.09 0.10 0.11 0.10 0.11 0.11 0.11 0.11 0.15 0.16 0.15 0.15 0.16 0.19 0.20 0.20 0.21 0.21 0.21 0.22 0.23
0.04 0.04 0.05 0.05 0.04 0.04 0.04 0.04 0.04 0.05 0.06 0.06 0.07 0.08 0.09 0.09 0.08 0.08 0.08 0.08 0.08 0.09 0.10 0.10 0.11 0.10 0.09 0.09 0.10 0.10 0.10 0.12 0.16 0.15 0.14 0.15 0.16 0.17 0.19 0.20 0.21 0.21 0.21 0.25
0.05 0.05 0.05 0.06 0.06 0.05 0.05 0.05 0.05 0.05 0.06 0.06 0.06 0.07 0.09 0.09 0.10 0.10 0.10 0.10 0.09 0.09 0.09 0.09 0.09 0.09 0.09 0.10 0.10 0.11 0.11 0.12 0.12 0.13 0.14 0.16 0.18 0.18 0.19 0.19 0.19 0.19 0.19 0.23
0.04 0.04 0.04 0.04 0.05 0.06 0.06 0.07 0.06 0.06 0.06 0.07 0.07 0.08 0.09 0.09 0.09 0.09 0.09 0.10 0.11 0.11 0.11 0.10 0.12 0.10 0.09 0.10 0.12 0.11 0.11 0.13 0.14 0.14 0.16 0.19 0.20 0.18 0.18 0.18 0.19 0.19 0.20 0.21
0.04 0.05 0.07 0.08 0.09 0.09 0.10 0.09 0.09 0.09 0.09 0.08 0.08 0.08 0.08 0.09 0.08 0.08 0.08 0.08 0.09 0.10 0.10 0.12 0.12 0.11 0.10 0.11 0.14 0.11 0.11 0.13 0.15 0.16 0.18 0.19 0.19 0.19 0.18 0.18 0.19 0.19 0.19 0.19
0.07 0.07 0.09 0.11 0.11 0.12 0.11 0.10 0.10 0.09 0.09 0.08 0.08 0.09 0.10 0.10 0.09 0.09 0.09 0.09 0.09 0.09 0.09 0.11 0.10 0.10 0.11 0.13 0.15 0.14 0.13 0.14 0.15 0.16 0.18 0.19 0.20 0.19 0.19 0.18 0.18 0.18 0.18 0.18
0.10 0.10 0.11 0.12 0.14 0.14 0.13 0.10 0.09 0.08 0.08 0.08 0.08 0.08 0.08 0.08 0.09 0.09 0.09 0.10 0.10 0.10 0.08 0.08 0.08 0.10 0.13 0.15 0.13 0.13 0.14 0.15 0.16 0.17 0.18 0.19 0.20 0.20 0.19 0.20 0.20 0.20 0.20 0.20
0.11 0.11 0.11 0.12 0.13 0.14 0.13 0.12 0.11 0.10 0.09 0.09 0.09 0.09 0.09 0.09 0.09 0.09 0.09 0.09 0.08 0.09 0.08 0.06 0.09 0.12 0.13 0.12 0.11 0.12 0.13 0.15 0.16 0.16 0.17 0.18 0.19 0.20 0.20 0.20 0.19 0.19 0.19 0.19
0.12 0.12 0.11 0.11 0.11 0.10 0.10 0.11 0.11 0.11 0.11 0.10 0.11 0.11 0.11 0.11 0.10 0.09 0.08 0.09 0.10 0.10 0.09 0.08 0.11 0.12 0.12 0.11 0.11 0.13 0.14 0.15 0.16 0.17 0.17 0.18 0.19 0.19 0.19 0.19 0.18 0.17 0.17 0.17
0.12 0.11 0.11 0.10 0.10 0.10 0.10 0.10 0.09 0.09 0.09 0.09 0.08 0.08 0.08 0.09 0.10 0.09 0.09 0.09 0.10 0.11 0.10 0.11 0.13 0.13 0.13 0.13 0.13 0.15 0.16 0.16 0.18 0.19 0.19 0.18 0.17 0.18 0.18 0.17 0.18 0.18 0.17 0.16
0.10 0.09 0.09 0.08 0.08 0.08 0.08 0.08 0.08 0.08 0.08 0.08 0.08 0.07 0.07 0.07 0.07 0.08 0.08 0.08 0.09 0.10 0.11 0.11 0.13 0.14 0.14 0.14 0.15 0.16 0.16 0.17 0.18 0.17 0.16 0.16 0.17 0.18 0.17 0.17 0.17 0.17 0.16 0.16
0.08 0.08 0.08 0.07 0.07 0.07 0.07 0.07 0.07 0.08 0.09 0.09 0.09 0.09 0.08 0.08 0.08 0.08 0.07 0.07 0.07 0.08 0.08 0.09 0.10 0.11 0.12 0.13 0.14 0.14 0.15 0.15 0.15 0.16 0.16 0.17 0.17 0.17 0.17 0.17 0.17 0.17 0.16 0.16

GEFSNGP_prec_meanprecacc_138.txt.gz
Total_Precipitation_Accumulation
0.40 0.32 0.49 0.50 0.48 0.58 0.86 0.82 0.75 0.35 0.19 0.15 0.17 0.23 0.22 0.19 0.17 0.18 0.20 0.21 0.22 0.23 0.23 0.20 0.17 0.15 0.13 0.13 0.15 0.18 0.19 0.20 0.21 0.23 0.23 0.25 0.26 0.29 0.31 0.34 0.40 0.43 0.47 0.48
0.46 0.29 0.40 0.46 0.43 0.45 0.50 0.53 0.52 0.37 0.29 0.19 0.20 0.21 0.21 0.18 0.16 0.16 0.16 0.19 0.20 0.19 0.21 0.19 0.19 0.18 0.16 0.15 0.15 0.17 0.18 0.18 0.19 0.21 0.22 0.23 0.27 0.29 0.30 0.33 0.39 0.44 0.51 0.57
0.53 0.32 0.42 0.47 0.41 0.44 0.43 0.40 0.42 0.44 0.34 0.25 0.25 0.23 0.22 0.18 0.15 0.14 0.12 0.12 0.15 0.16 0.18 0.18 0.17 0.16 0.15 0.15 0.15 0.16 0.17 0.17 0.19 0.21 0.24 0.25 0.28 0.32 0.38 0.43 0.50 0.57 0.60 0.70
0.53 0.38 0.50 0.37 0.30 0.32 0.36 0.34 0.37 0.35 0.27 0.23 0.23 0.23 0.21 0.17 0.14 0.11 0.09 0.07 0.08 0.11 0.12 0.12 0.11 0.12 0.13 0.12 0.13 0.15 0.17 0.21 0.23 0.24 0.31 0.37 0.38 0.41 0.48 0.55 0.61 0.68 0.68 0.71
0.53 0.40 0.27 0.20 0.20 0.23 0.31 0.34 0.31 0.23 0.17 0.16 0.17 0.21 0.21 0.17 0.13 0.10 0.08 0.08 0.07 0.08 0.10 0.10 0.11 0.12 0.13 0.14 0.15 0.16 0.19 0.24 0.27 0.28 0.37 0.46 0.47 0.49 0.54 0.59 0.65 0.67 0.66 0.62
0.49 0.42 0.21 0.13 0.08 0.10 0.20 0.32 0.22 0.20 0.18 0.18 0.20 0.24 0.21 0.16 0.14 0.13 0.12 0.10 0.10 0.11 0.12 0.14 0.16 0.17 0.18 0.21 0.26 0.28 0.29 0.33 0.38 0.44 0.51 0.54 0.55 0.54 0.51 0.50 0.52 0.50 0.46 0.42
0.39 0.35 0.10 0.05 0.05 0.07 0.21 0.27 0.13 0.14 0.16 0.18 0.19 0.18 0.17 0.12 0.11 0.14 0.15 0.15 0.14 0.15 0.17 0.19 0.19 0.21 0.23 0.26 0.35 0.40 0.43 0.45 0.46 0.49 0.52 0.51 0.50 0.46 0.41 0.36 0.34 0.32 0.32 0.30
0.19 0.26 0.13 0.06 0.07 0.11 0.15 0.11 0.11 0.14 0.16 0.17 0.17 0.14 0.13 0.14 0.12 0.11 0.11 0.13 0.15 0.18 0.20 0.23 0.25 0.29 0.31 0.33 0.38 0.41 0.42 0.42 0.41 0.39 0.38 0.40 0.39 0.37 0.32 0.29 0.26 0.26 0.26 0.28
0.10 0.11 0.09 0.08 0.08 0.08 0.07 0.08 0.08 0.11 0.13 0.13 0.14 0.14 0.12 0.11 0.11 0.10 0.11 0.12 0.15 0.19 0.23 0.27 0.28 0.30 0.32 0.32 0.31 0.32 0.33 0.32 0.30 0.26 0.24 0.25 0.26 0.26 0.26 0.24 0.23 0.25 0.28 0.30
0.07 0.05 0.04 0.06 0.05 0.06 0.05 0.04 0.04 0.05 0.07 0.11 0.14 0.14 0.13 0.11 0.10 0.08 0.09 0.10 0.12 0.14 0.16 0.18 0.19 0.21 0.22 0.21 0.20 0.20 0.20 0.21 0.21 0.19 0.18 0.18 0.19 0.21 0.22 0.23 0.22 0.22 0.26 0.31
0.08 0.05 0.05 0.05 0.04 0.04 0.03 0.02 0.02 0.02 0.03 0.06 0.08 0.08 0.10 0.10 0.09 0.08 0.08 0.08 0.09 0.09 0.09 0.11 0.11 0.12 0.12 0.12 0.13 0.14 0.14 0.15 0.16 0.17 0.18 0.19 0.20 0.22 0.25 0.26 0.29 0.28 0.26 0.28
0.10 0.06 0.06 0.05 0.04 0.04 0.04 0.03 0.03 0.03 0.03 0.04 0.05 0.06 0.05 0.06 0.06 0.06 0.07 0.08 0.08 0.08 0.09 0.12 0.11 0.10 0.10 0.09 0.09 0.11 0.13 0.14 0.16 0.17 0.17 0.18 0.20 0.22 0.26 0.27 0.30 0.31 0.31 0.31
0.06 0.04 0.05 0.04 0.03 0.03 0.03 0.03 0.03 0.03 0.03 0.04 0.05 0.05 0.05 0.06 0.07 0.08 0.09 0.10 0.10 0.09 0.09 0.11 0.13 0.12 0.12 0.12 0.12 0.12 0.13 0.15 0.16 0.17 0.19 0.18 0.19 0.21 0.22 0.23 0.25 0.27 0.28 0.31
0.03 0.04 0.05 0.04 0.03 0.02 0.02 0.03 0.03 0.03 0.03 0.04 0.05 0.05 0.05 0.05 0.07 0.10 0.11 0.13 0.13 0.12 0.12 0.11 0.12 0.14 0.13 0.12 0.13 0.15 0.15 0.16 0.18 0.17 0.18 0.18 0.18 0.19 0.20 0.21 0.20 0.19 0.21 0.25
0.02 0.04 0.05 0.05 0.04 0.04 0.03 0.03 0.03 0.03 0.04 0.03 0.04 0.04 0.05 0.06 0.08 0.10 0.10 0.11 0.13 0.12 0.12 0.12 0.12 0.13 0.14 0.13 0.12 0.12 0.13 0.14 0.15 0.16 0.18 0.19 0.19 0.19 0.20 0.20 0.20 0.20 0.21 0.23
0.03 0.03 0.03 0.03 0.02 0.03 0.04 0.04 0.04 0.05 0.05 0.05 0.06 0.07 0.09 0.09 0.09 0.09 0.09 0.10 0.10 0.10 0.10 0.09 0.10 0.11 0.11 0.11 0.12 0.11 0.12 0.15 0.16 0.15 0.15 0.17 0.19 0.20 0.20 0.21 0.22 0.22 0.22 0.24
0.04 0.05 0.05 0.05 0.04 0.04 0.04 0.04 0.04 0.05 0.06 0.06 0.07 0.08 0.09 0.09 0.08 0.08 0.08 0.08 0.08 0.09 0.10 0.10 0.11 0.10 0.09 0.09 0.10 0.10 0.10 0.13 0.17 0.15 0.15 0.15 0.16 0.18 0.19 0.21 0.22 0.22 0.21 0.26
0.05 0.05 0.05 0.06 0.06 0.05 0.05 0.05 0.05 0.05 0.06 0.06 0.06 0.07 0.09 0.09 0.10 0.10 0.10 0.10 0.09 0.09 0.09 0.09 0.09 0.09 0.09 0.10 0.10 0.11 0.11 0.12 0.13 0.13 0.14 0.16 0.18 0.18 0.19 0.20 0.19 0.19 0.20 0.23
0.04 0.04 0.04 0.05 0.06 0.06 0.06 0.07 0.06 0.06 0.06 0.07 0.07 0.08 0.09 0.09 0.09 0.09 0.09 0.10 0.11 0.11 0.11 0.10 0.12 0.10 0.09 0.10 0.12 0.11 0.11 0.13 0.14 0.14 0.16 0.19 0.21 0.18 0.18 0.19 0.19 0.20 0.21 0.21
0.04 0.05 0.07 0.08 0.09 0.10 0.10 0.09 0.09 0.09 0.09 0.08 0.08 0.08 0.08 0.09 0.08 0.08 0.08 0.09 0.09 0.10 0.10 0.12 0.12 0.11 0.10 0.11 0.14 0.11 0.11 0.13 0.15 0.16 0.18 0.19 0.20 0.19 0.18 0.19 0.19 0.20 0.20 0.20
0.07 0.07 0.09 0.11 0.11 0.12 0.11 0.10 0.10 0.09 0.09 0.08 0.08 0.09 0.10 0.10 0.09 0.09 0.09 0.09 0.09 0.09 0.09 0.11 0.10 0.10 0.11 0.13 0.15 0.14 0.13 0.14 0.15 0.16 0.18 0.19 0.20 0.20 0.19 0.19 0.19 0.19 0.19 0.20
0.10 0.10 0.11 0.13 0.14 0.14 0.13 0.10 0.09 0.08 0.08 0.08 0.08 0.08 0.08 0.09 0.09 0.09 0.09 0.10 0.10 0.10 0.08 0.08 0.08 0.10 0.13 0.15 0.14 0.13 0.14 0.15 0.16 0.17 0.18 0.19 0.20 0.20 0.20 0.21 0.22 0.21 0.21 0.21
0.11 0.12 0.11 0.12 0.13 0.14 0.13 0.12 0.11 0.10 0.09 0.09 0.09 0.10 0.09 0.09 0.09 0.09 0.10 0.09 0.08 0.09 0.08 0.07 0.09 0.12 0.13 0.12 0.11 0.12 0.14 0.15 0.16 0.17 0.18 0.19 0.20 0.21 0.22 0.22 0.21 0.20 0.20 0.20
0.13 0.12 0.11 0.11 0.11 0.10 0.10 0.11 0.11 0.11 0.11 0.11 0.11 0.11 0.11 0.11 0.10 0.09 0.09 0.09 0.10 0.10 0.09 0.08 0.11 0.12 0.12 0.11 0.11 0.13 0.14 0.15 0.16 0.17 0.18 0.19 0.20 0.21 0.21 0.20 0.20 0.19 0.18 0.18
0.12 0.11 0.11 0.10 0.10 0.10 0.10 0.10 0.09 0.09 0.09 0.09 0.09 0.08 0.09 0.09 0.10 0.10 0.09 0.09 0.11 0.12 0.10 0.11 0.13 0.13 0.13 0.13 0.14 0.15 0.16 0.17 0.18 0.19 0.20 0.19 0.19 0.19 0.19 0.19 0.19 0.19 0.18 0.17
0.10 0.09 0.09 0.08 0.08 0.08 0.08 0.08 0.08 0.08 0.09 0.09 0.08 0.08 0.07 0.08 0.08 0.08 0.08 0.08 0.09 0.11 0.11 0.12 0.13 0.14 0.15 0.15 0.16 0.16 0.17 0.18 0.19 0.18 0.17 0.17 0.18 0.19 0.19 0.18 0.18 0.18 0.17 0.17
0.09 0.08 0.08 0.08 0.07 0.07 0.07 0.07 0.08 0.08 0.09 0.09 0.10 0.09 0.09 0.09 0.09 0.08 0.08 0.07 0.07 0.08 0.09 0.10 0.10 0.11 0.12 0.13 0.14 0.15 0.15 0.16 0.16 0.16 0.17 0.18 0.18 0.18 0.18 0.18 0.18 0.18 0.17 0.17

GEFSNGP_prec_meanprecacc_144.txt.gz
Total_Precipitation_Accumulation
0.40 0.32 0.49 0.50 0.48 0.59 0.87 0.83 0.76 0.36 0.19 0.15 0.17 0.23 0.22 0.20 0.17 0.19 0.20 0.22 0.23 0.24 0.24 0.21 0.18 0.16 0.15 0.15 0.16 0.20 0.21 0.21 0.22 0.25 0.26 0.28 0.29 0.32 0.34 0.37 0.44 0.48 0.51 0.52
0.47 0.29 0.40 0.46 0.43 0.45 0.51 0.53 0.52 0.37 0.29 0.19 0.20 0.21 0.21 0.18 0.16 0.16 0.17 0.20 0.21 0.20 0.22 0.20 0.20 0.19 0.18 0.18 0.17 0.18 0.20 0.19 0.20 0.23 0.25 0.26 0.29 0.31 0.32 0.35 0.41 0.47 0.54 0.60
0.54 0.32 0.42 0.47 0.41 0.44 0.43 0.40 0.42 0.44 0.34 0.25 0.25 0.24 0.22 0.18 0.15 0.15 0.13 0.13 0.16 0.17 0.19 0.19 0.18 0.17 0.16 0.16 0.17 0.17 0.19 0.19 0.20 0.23 0.26 0.27 0.30 0.34 0.40 0.45 0.52 0.59 0.62 0.72
0.55 0.38 0.51 0.37 0.30 0.32 0.36 0.34 0.37 0.35 0.27 0.23 0.23 0.23 0.22 0.17 0.14 0.12 0.09 0.08 0.09 0.11 0.12 0.12 0.12 0.12 0.13 0.13 0.14 0.16 0.19 0.23 0.24 0.25 0.33 0.39 0.39 0.42 0.49 0.56 0.63 0.70 0.70 0.72
0.55 0.41 0.28 0.20 0.20 0.23 0.31 0.34 0.31 0.23 0.17 0.16 0.17 0.21 0.21 0.17 0.13 0.10 0.09 0.09 0.08 0.09 0.11 0.11 0.11 0.13 0.15 0.15 0.16 0.16 0.20 0.25 0.28 0.29 0.38 0.47 0.47 0.49 0.54 0.60 0.66 0.68 0.67 0.63
0.51 0.43 0.21 0.13 0.08 0.10 0.20 0.32 0.22 0.20 0.18 0.18 0.20 0.24 0.21 0.16 0.14 0.13 0.12 0.11 0.11 0.11 0.12 0.14 0.16 0.18 0.20 0.22 0.27 0.29 0.30 0.34 0.39 0.44 0.51 0.55 0.55 0.54 0.51 0.51 0.52 0.51 0.47 0.43
0.40 0.36 0.10 0.05 0.05 0.07 0.22 0.27 0.13 0.14 0.16 0.18 0.19 0.18 0.17 0.13 0.11 0.14 0.16 0.15 0.15 0.15 0.18 0.20 0.20 0.21 0.24 0.27 0.36 0.41 0.43 0.46 0.47 0.50 0.52 0.52 0.50 0.47 0.41 0.36 0.34 0.33 0.32 0.31
0.20 0.27 0.14 0.06 0.07 0.11 0.15 0.11 0.11 0.14 0.16 0.17 0.17 0.14 0.13 0.14 0.12 0.11 0.12 0.13 0.16 0.18 0.21 0.23 0.26 0.30 0.31 0.33 0.39 0.42 0.42 0.43 0.42 0.40 0.39 0.40 0.39 0.37 0.32 0.29 0.27 0.26 0.27 0.30
0.11 0.12 0.09 0.09 0.08 0.08 0.07 0.08 0.08 0.11 0.13 0.13 0.14 0.14 0.12 0.11 0.11 0.10 0.11 0.12 0.15 0.20 0.24 0.27 0.28 0.31 0.32 0.32 0.31 0.32 0.33 0.33 0.31 0.27 0.25 0.26 0.26 0.27 0.26 0.24 0.23 0.25 0.29 0.31
0.08 0.05 0.04 0.06 0.06 0.06 0.05 0.04 0.04 0.05 0.07 0.11 0.14 0.14 0.13 0.11 0.10 0.08 0.09 0.10 0.12 0.14 0.16 0.19 0.20 0.22 0.23 0.21 0.21 0.20 0.20 0.21 0.22 0.19 0.18 0.19 0.19 0.21 0.22 0.23 0.22 0.23 0.27 0.32
0.08 0.05 0.05 0.05 0.04 0.04 0.03 0.03 0.02 0.02 0.03 0.06 0.08 0.08 0.10 0.11 0.09 0.08 0.08 0.09 0.09 0.09 0.09 0.11 0.12 0.12 0.13 0.12 0.13 0.14 0.14 0.15 0.16 0.18 0.18 0.19 0.21 0.23 0.25 0.26 0.29 0.28 0.26 0.28
0.10 0.06 0.06 0.06 0.04 0.04 0.04 0.03 0.03 0.03 0.03 0.04 0.05 0.06 0.05 0.06 0.06 0.06 0.07 0.08 0.08 0.08 0.09 0.12 0.12 0.10 0.11 0.10 0.10 0.12 0.14 0.15 0.16 0.17 0.18 0.19 0.20 0.23 0.26 0.28 0.30 0.31 0.32 0.31
0.06 0.04 0.05 0.04 0.03 0.03 0.03 0.03 0.03 0.03 0.03 0.05 0.06 0.05 0.05 0.06 0.07 0.09 0.10 0.11 0.11 0.09 0.09 0.11 0.13 0.12 0.12 0.12 0.12 0.12 0.14 0.16 0.17 0.18 0.19 0.19 0.20 0.22 0.22 0.23 0.26 0.27 0.29 0.31
0.03 0.04 0.05 0.04 0.03 0.02 0.03 0.03 0.03 0.03 0.03 0.04 0.05 0.05 0.05 0.05 0.07 0.10 0.11 0.13 0.13 0.12 0.12 0.11 0.12 0.14 0.13 0.12 0.13 0.15 0.15 0.17 0.18 0.18 0.18 0.18 0.18 0.19 0.20 0.21 0.21 0.20 0.22 0.26
0.02 0.04 0.05 0.05 0.04 0.04 0.04 0.03 0.03 0.04 0.04 0.04 0.04 0.04 0.05 0.06 0.08 0.10 0.10 0.11 0.13 0.13 0.12 0.12 0.12 0.13 0.14 0.13 0.12 0.12 0.14 0.14 0.16 0.17 0.19 0.20 0.20 0.20 0.20 0.21 0.21 0.20 0.21 0.23
0.03 0.03 0.03 0.03 0.03 0.03 0.04 0.04 0.05 0.05 0.05 0.05 0.06 0.07 0.09 0.09 0.09 0.09 0.09 0.10 0.10 0.11 0.10 0.09 0.11 0.11 0.11 0.12 0.12 0.11 0.12 0.16 0.17 0.16 0.16 0.18 0.20 0.21 0.21 0.22 0.23 0.22 0.23 0.24
0.04 0.05 0.05 0.05 0.04 0.04 0.04 0.04 0.05 0.06 0.06 0.06 0.07 0.08 0.09 0.09 0.08 0.08 0.08 0.08 0.08 0.09 0.10 0.10 0.11 0.10 0.10 0.10 0.11 0.11 0.11 0.13 0.17 0.16 0.15 0.16 0.17 0.19 0.20 0.21 0.22 0.22 0.22 0.26
0.05 0.05 0.05 0.06 0.06 0.05 0.05 0.05 0.05 0.06 0.06 0.06 0.06 0.07 0.09 0.09 0.10 0.10 0.10 0.10 0.09 0.09 0.09 0.09 0.09 0.09 0.09 0.10 0.11 0.11 0.12 0.12 0.13 0.14 0.15 0.17 0.19 0.19 0.20 0.20 0.20 0.20 0.21 0.24
0.04 0.04 0.04 0.05 0.06 0.06 0.06 0.07 0.07 0.06 0.07 0.07 0.07 0.08 0.09 0.09 0.09 0.09 0.09 0.10 0.11 0.11 0.11 0.11 0.12 0.10 0.09 0.10 0.12 0.11 0.12 0.13 0.14 0.15 0.17 0.20 0.21 0.19 0.19 0.20 0.20 0.20 0.21 0.22
0.04 0.05 0.07 0.08 0.09 0.10 0.10 0.09 0.09 0.09 0.09 0.08 0.08 0.08 0.08 0.09 0.08 0.08 0.08 0.09 0.09 0.10 0.11 0.13 0.13 0.11 0.11 0.11 0.14 0.12 0.12 0.13 0.15 0.17 0.19 0.20 0.20 0.19 0.19 0.19 0.20 0.20 0.21 0.21
0.08 0.08 0.09 0.11 0.11 0.12 0.12 0.11 0.10 0.09 0.09 0.08 0.08 0.09 0.10 0.10 0.10 0.09 0.09 0.10 0.10 0.09 0.09 0.11 0.11 0.10 0.11 0.13 0.16 0.14 0.14 0.14 0.15 0.16 0.18 0.19 0.20 0.20 0.19 0.19 0.20 0.20 0.20 0.20
0.11 0.11 0.11 0.13 0.14 0.15 0.13 0.11 0.09 0.09 0.08 0.08 0.08 0.08 0.08 0.09 0.10 0.10 0.10 0.10 0.11 0.11 0.09 0.08 0.08 0.10 0.13 0.15 0.14 0.14 0.15 0.16 0.16 0.17 0.19 0.19 0.21 0.21 0.21 0.21 0.22 0.22 0.22 0.22
0.11 0.12 0.12 0.13 0.13 0.14 0.14 0.12 0.11 0.10 0.09 0.09 0.09 0.10 0.09 0.10 0.10 0.09 0.10 0.09 0.08 0.09 0.08 0.07 0.09 0.12 0.13 0.12 0.11 0.13 0.14 0.16 0.17 0.17 0.18 0.19 0.20 0.21 0.22 0.22 0.21 0.21 0.21 0.21
0.13 0.13 0.12 0.12 0.11 0.11 0.10 0.11 0.11 0.11 0.11 0.11 0.11 0.11 0.11 0.11 0.10 0.09 0.09 0.10 0.10 0.11 0.09 0.09 0.11 0.12 0.13 0.11 0.11 0.13 0.15 0.16 0.17 0.18 0.18 0.19 0.20 0.21 0.21 0.21 0.20 0.19 0.19 0.19
0.13 0.12 0.11 0.10 0.10 0.11 0.10 0.10 0.10 0.09 0.09 0.09 0.09 0.08 0.09 0.10 0.10 0.10 0.09 0.09 0.11 0.12 0.11 0.11 0.13 0.14 0.14 0.13 0.14 0.15 0.17 0.18 0.19 0.20 0.20 0.20 0.19 0.19 0.19 0.19 0.20 0.19 0.19 0.18
0.10 0.09 0.09 0.08 0.08 0.08 0.09 0.09 0.09 0.09 0.09 0.09 0.08 0.08 0.08 0.08 0.08 0.08 0.08 0.08 0.09 0.11 0.11 0.12 0.13 0.15 0.15 0.15 0.16 0.17 0.17 0.18 0.19 0.19 0.18 0.18 0.18 0.20 0.19 0.19 0.19 0.19 0.18 0.17
0.09 0.08 0.08 0.08 0.07 0.07 0.08 0.08 0.08 0.09 0.10 0.10 0.10 0.09 0.09 0.09 0.09 0.08 0.08 0.08 0.08 0.08 0.09 0.10 0.10 0.11 0.12 0.13 0.14 0.15 0.16 0.16 0.16 0.17 0.17 0.18 0.19 0.19 0.18 0.18 0.19 0.18 0.18 0.17

GEFSNGP_prec_meanprecacc_150.txt.gz
Total_Precipitation_Accumulation
0.41 0.32 0.49 0.50 0.48 0.59 0.88 0.84 0.76 0.36 0.19 0.15 0.17 0.23 0.23 0.20 0.18 0.19 0.21 0.22 0.23 0.24 0.24 0.21 0.19 0.17 0.16 0.16 0.18 0.22 0.24 0.24 0.24 0.27 0.29 0.31 0.31 0.33 0.36 0.39 0.47 0.50 0.52 0.54
0.47 0.29 0.40 0.46 0.43 0.46 0.51 0.53 0.52 0.37 0.29 0.19 0.20 0.22 0.21 0.18 0.16 0.17 0.17 0.20 0.22 0.21 0.23 0.21 0.21 0.20 0.19 0.19 0.18 0.20 0.22 0.21 0.22 0.25 0.26 0.28 0.31 0.33 0.33 0.37 0.44 0.50 0.56 0.62
0.55 0.32 0.42 0.48 0.42 0.44 0.43 0.40 0.42 0.44 0.34 0.25 0.25 0.24 0.22 0.18 0.15 0.15 0.13 0.13 0.16 0.18 0.20 0.19 0.19 0.18 0.17 0.17 0.17 0.18 0.20 0.20 0.21 0.24 0.27 0.28 0.32 0.36 0.41 0.47 0.55 0.62 0.66 0.76
0.57 0.39 0.52 0.37 0.30 0.32 0.36 0.34 0.37 0.35 0.27 0.23 0.23 0.23 0.22 0.17 0.14 0.12 0.09 0.08 0.09 0.12 0.13 0.13 0.13 0.13 0.14 0.14 0.15 0.16 0.20 0.24 0.26 0.26 0.35 0.41 0.40 0.43 0.51 0.59 0.66 0.72 0.73 0.76
0.58 0.42 0.28 0.20 0.20 0.23 0.31 0.34 0.31 0.23 0.17 0.16 0.17 0.21 0.21 0.17 0.13 0.10 0.09 0.09 0.08 0.09 0.11 0.11 0.12 0.13 0.15 0.16 0.16 0.17 0.20 0.26 0.29 0.31 0.40 0.49 0.49 0.51 0.56 0.61 0.68 0.70 0.69 0.66
0.54 0.45 0.22 0.13 0.08 0.10 0.20 0.32 0.22 0.20 0.18 0.19 0.20 0.24 0.21 0.16 0.14 0.13 0.12 0.11 0.11 0.12 0.12 0.15 0.17 0.18 0.21 0.23 0.27 0.29 0.30 0.35 0.40 0.46 0.53 0.57 0.56 0.55 0.53 0.52 0.54 0.52 0.48 0.44
0.42 0.38 0.11 0.05 0.05 0.07 0.22 0.27 0.13 0.14 0.16 0.19 0.20 0.19 0.17 0.13 0.11 0.14 0.16 0.15 0.15 0.16 0.18 0.20 0.20 0.22 0.24 0.27 0.37 0.42 0.44 0.47 0.48 0.51 0.54 0.53 0.51 0.48 0.43 0.37 0.35 0.34 0.33 0.31
0.21 0.30 0.14 0.06 0.07 0.11 0.15 0.11 0.11 0.14 0.16 0.17 0.17 0.14 0.13 0.14 0.12 0.11 0.12 0.13 0.16 0.18 0.21 0.23 0.26 0.31 0.32 0.34 0.39 0.42 0.43 0.43 0.42 0.40 0.40 0.41 0.40 0.39 0.34 0.30 0.27 0.27 0.28 0.30
0.11 0.12 0.09 0.09 0.09 0.08 0.07 0.08 0.09 0.11 0.13 0.14 0.14 0.14 0.12 0.11 0.11 0.10 0.11 0.12 0.15 0.20 0.24 0.27 0.29 0.31 0.33 0.33 0.32 0.33 0.34 0.33 0.31 0.27 0.26 0.26 0.27 0.27 0.27 0.25 0.24 0.26 0.29 0.31
0.08 0.05 0.04 0.06 0.06 0.06 0.05 0.04 0.04 0.05 0.07 0.11 0.14 0.14 0.13 0.11 0.10 0.08 0.09 0.10 0.12 0.14 0.16 0.19 0.21 0.22 0.23 0.22 0.21 0.21 0.20 0.22 0.22 0.20 0.19 0.19 0.20 0.22 0.23 0.23 0.22 0.23 0.27 0.32
0.09 0.05 0.05 0.05 0.05 0.04 0.04 0.03 0.02 0.02 0.03 0.06 0.08 0.09 0.10 0.11 0.09 0.08 0.08 0.09 0.09 0.09 0.10 0.11 0.12 0.13 0.14 0.13 0.14 0.15 0.15 0.16 0.17 0.18 0.18 0.19 0.21 0.23 0.26 0.26 0.29 0.29 0.26 0.29
0.11 0.06 0.06 0.06 0.04 0.04 0.04 0.03 0.03 0.03 0.03 0.04 0.06 0.06 0.05 0.06 0.06 0.06 0.07 0.08 0.08 0.08 0.09 0.12 0.12 0.11 0.11 0.11 0.11 0.13 0.14 0.15 0.16 0.17 0.18 0.19 0.21 0.23 0.27 0.28 0.30 0.32 0.32 0.31
0.06 0.05 0.05 0.04 0.03 0.03 0.03 0.03 0.03 0.03 0.03 0.05 0.06 0.05 0.05 0.06 0.07 0.09 0.10 0.11 0.11 0.10 0.09 0.11 0.13 0.13 0.13 0.13 0.13 0.13 0.14 0.16 0.17 0.18 0.19 0.19 0.20 0.22 0.23 0.24 0.26 0.27 0.29 0.31
0.03 0.04 0.05 0.04 0.03 0.02 0.03 0.03 0.03 0.03 0.03 0.04 0.05 0.05 0.05 0.05 0.07 0.10 0.11 0.13 0.13 0.12 0.12 0.11 0.12 0.14 0.14 0.13 0.14 0.15 0.16 0.18 0.19 0.18 0.18 0.18 0.19 0.20 0.21 0.22 0.21 0.20 0.22 0.26
0.02 0.04 0.05 0.05 0.04 0.04 0.04 0.04 0.04 0.04 0.04 0.04 0.04 0.04 0.05 0.06 0.08 0.10 0.10 0.11 0.13 0.13 0.12 0.12 0.12 0.13 0.14 0.14 0.13 0.13 0.14 0.15 0.16 0.17 0.19 0.20 0.20 0.20 0.21 0.22 0.22 0.21 0.21 0.24
0.03 0.03 0.03 0.03 0.03 0.03 0.04 0.04 0.05 0.06 0.05 0.05 0.06 0.07 0.09 0.09 0.09 0.09 0.09 0.10 0.10 0.11 0.10 0.09 0.11 0.12 0.11 0.12 0.12 0.12 0.13 0.17 0.17 0.16 0.16 0.18 0.20 0.21 0.21 0.23 0.23 0.23 0.23 0.24
0.05 0.05 0.05 0.06 0.05 0.04 0.04 0.04 0.05 0.06 0.06 0.06 0.07 0.08 0.09 0.09 0.09 0.08 0.08 0.08 0.08 0.09 0.10 0.10 0.11 0.11 0.10 0.11 0.11 0.11 0.11 0.14 0.18 0.17 0.16 0.17 0.18 0.19 0.21 0.22 0.23 0.23 0.22 0.26
0.06 0.06 0.06 0.07 0.07 0.06 0.05 0.05 0.05 0.06 0.06 0.06 0.06 0.08 0.09 0.10 0.10 0.10 0.10 0.10 0.09 0.09 0.09 0.09 0.09 0.09 0.09 0.11 0.13 0.13 0.13 0.13 0.14 0.15 0.16 0.18 0.20 0.20 0.21 0.21 0.21 0.21 0.21 0.25
0.05 0.05 0.05 0.05 0.06 0.07 0.07 0.07 0.07 0.07 0.07 0.07 0.07 0.08 0.09 0.09 0.09 0.09 0.09 0.10 0.11 0.11 0.12 0.11 0.12 0.11 0.10 0.11 0.13 0.12 0.13 0.14 0.15 0.16 0.18 0.21 0.23 0.20 0.20 0.21 0.21 0.21 0.23 0.23
0.05 0.06 0.07 0.09 0.09 0.10 0.10 0.10 0.09 0.09 0.09 0.08 0.08 0.08 0.08 0.09 0.09 0.08 0.08 0.09 0.10 0.10 0.11 0.13 0.13 0.11 0.11 0.12 0.15 0.12 0.12 0.14 0.16 0.18 0.19 0.21 0.21 0.20 0.20 0.21 0.21 0.21 0.22 0.22
0.08 0.08 0.09 0.11 0.12 0.12 0.12 0.11 0.10 0.10 0.09 0.08 0.09 0.09 0.10 0.10 0.10 0.10 0.10 0.10 0.10 0.09 0.09 0.11 0.11 0.10 0.11 0.14 0.16 0.15 0.14 0.15 0.15 0.17 0.19 0.20 0.21 0.21 0.21 0.21 0.21 0.21 0.21 0.21
0.11 0.11 0.12 0.13 0.15 0.15 0.14 0.11 0.10 0.09 0.08 0.08 0.08 0.09 0.09 0.09 0.10 0.10 0.10 0.11 0.11 0.11 0.09 0.08 0.09 0.11 0.13 0.15 0.14 0.14 0.15 0.16 0.17 0.18 0.19 0.20 0.21 0.21 0.22 0.22 0.23 0.23 0.23 0.23
0.12 0.12 0.12 0.13 0.14 0.15 0.14 0.12 0.11 0.10 0.10 0.10 0.10 0.10 0.10 0.10 0.10 0.10 0.10 0.09 0.09 0.09 0.08 0.07 0.09 0.12 0.14 0.12 0.12 0.13 0.15 0.16 0.17 0.18 0.19 0.20 0.21 0.22 0.23 0.23 0.22 0.22 0.22 0.22
0.13 0.13 0.13 0.12 0.12 0.11 0.11 0.11 0.11 0.12 0.11 0.11 0.11 0.11 0.12 0.12 0.11 0.10 0.09 0.10 0.10 0.11 0.09 0.09 0.12 0.13 0.13 0.12 0.12 0.14 0.15 0.16 0.18 0.19 0.19 0.20 0.21 0.22 0.22 0.22 0.21 0.20 0.19 0.19
0.13 0.12 0.12 0.11 0.11 0.11 0.11 0.10 0.10 0.10 0.10 0.10 0.10 0.09 0.10 0.10 0.11 0.11 0.10 0.10 0.11 0.12 0.11 0.12 0.13 0.14 0.14 0.13 0.14 0.16 0.17 0.18 0.20 0.21 0.21 0.20 0.20 0.20 0.20 0.20 0.20 0.20 0.19 0.18
0.10 0.10 0.09 0.09 0.08 0.09 0.09 0.09 0.09 0.09 0.10 0.10 0.10 0.09 0.08 0.09 0.09 0.09 0.09 0.09 0.10 0.11 0.12 0.12 0.14 0.15 0.15 0.15 0.16 0.17 0.18 0.19 0.20 0.20 0.18 0.18 0.19 0.20 0.19 0.19 0.19 0.19 0.18 0.18
0.09 0.08 0.09 0.08 0.08 0.08 0.08 0.08 0.09 0.09 0.10 0.11 0.11 0.10 0.10 0.10 0.09 0.09 0.08 0.08 0.08 0.09 0.10 0.11 0.11 0.12 0.13 0.14 0.15 0.16 0.16 0.17 0.17 0.18 0.18 0.19 0.19 0.19 0.19 0.19 0.19 0.19 0.18 0.18

GEFSNGP_prec_meanprecacc_156.txt.gz
Total_Precipitation_Accumulation
0.41 0.32 0.49 0.51 0.48 0.59 0.88 0.85 0.77 0.36 0.19 0.15 0.17 0.24 0.23 0.21 0.19 0.20 0.22 0.23 0.24 0.25 0.25 0.22 0.19 0.18 0.16 0.16 0.19 0.22 0.25 0.25 0.27 0.30 0.32 0.34 0.35 0.36 0.38 0.40 0.48 0.52 0.53 0.55
0.47 0.29 0.40 0.46 0.43 0.46 0.51 0.53 0.52 0.37 0.29 0.19 0.20 0.22 0.21 0.18 0.16 0.17 0.18 0.20 0.22 0.21 0.23 0.21 0.21 0.21 0.20 0.19 0.19 0.21 0.23 0.23 0.24 0.27 0.29 0.32 0.35 0.36 0.36 0.38 0.45 0.51 0.57 0.64
0.55 0.32 0.42 0.48 0.42 0.44 0.43 0.40 0.42 0.44 0.34 0.25 0.26 0.24 0.22 0.18 0.15 0.15 0.13 0.13 0.16 0.18 0.20 0.19 0.19 0.18 0.17 0.18 0.18 0.19 0.21 0.22 0.23 0.26 0.30 0.32 0.35 0.39 0.44 0.49 0.56 0.63 0.67 0.78
0.59 0.40 0.52 0.37 0.30 0.32 0.36 0.34 0.37 0.35 0.27 0.23 0.23 0.23 0.22 0.17 0.14 0.12 0.09 0.08 0.09 0.12 0.13 0.13 0.13 0.13 0.15 0.14 0.15 0.17 0.21 0.26 0.27 0.28 0.37 0.43 0.43 0.46 0.54 0.61 0.68 0.74 0.74 0.77
0.60 0.44 0.29 0.20 0.20 0.23 0.31 0.34 0.31 0.23 0.17 0.16 0.17 0.21 0.21 0.17 0.13 0.11 0.09 0.09 0.08 0.09 0.11 0.12 0.12 0.13 0.16 0.16 0.17 0.18 0.21 0.28 0.32 0.33 0.42 0.52 0.51 0.53 0.58 0.63 0.70 0.72 0.71 0.67
0.57 0.47 0.22 0.13 0.08 0.10 0.20 0.32 0.22 0.20 0.19 0.19 0.21 0.25 0.21 0.16 0.14 0.13 0.12 0.11 0.11 0.12 0.13 0.15 0.17 0.18 0.21 0.23 0.27 0.30 0.31 0.36 0.42 0.48 0.56 0.59 0.58 0.57 0.54 0.54 0.56 0.54 0.50 0.46
0.44 0.40 0.12 0.06 0.05 0.07 0.23 0.28 0.14 0.14 0.16 0.19 0.20 0.19 0.17 0.13 0.11 0.14 0.16 0.15 0.15 0.16 0.18 0.20 0.20 0.22 0.25 0.28 0.37 0.42 0.44 0.47 0.49 0.53 0.56 0.55 0.53 0.50 0.44 0.39 0.38 0.37 0.35 0.34
0.22 0.31 0.15 0.07 0.07 0.12 0.17 0.12 0.12 0.15 0.17 0.17 0.17 0.14 0.13 0.14 0.12 0.11 0.12 0.13 0.16 0.18 0.21 0.23 0.26 0.31 0.32 0.35 0.40 0.43 0.43 0.44 0.43 0.42 0.42 0.43 0.42 0.40 0.35 0.32 0.30 0.29 0.30 0.32
0.12 0.13 0.09 0.09 0.09 0.09 0.08 0.09 0.10 0.12 0.14 0.14 0.14 0.15 0.12 0.11 0.11 0.10 0.11 0.12 0.15 0.20 0.24 0.27 0.29 0.31 0.33 0.33 0.33 0.34 0.34 0.34 0.31 0.29 0.28 0.28 0.28 0.29 0.29 0.27 0.25 0.28 0.31 0.33
0.08 0.05 0.05 0.06 0.06 0.06 0.05 0.05 0.04 0.05 0.07 0.12 0.14 0.14 0.13 0.11 0.10 0.08 0.09 0.10 0.12 0.14 0.16 0.19 0.21 0.22 0.24 0.23 0.22 0.22 0.21 0.22 0.22 0.20 0.20 0.21 0.21 0.23 0.24 0.24 0.24 0.24 0.28 0.34
0.09 0.05 0.05 0.05 0.05 0.04 0.04 0.03 0.02 0.02 0.03 0.06 0.08 0.09 0.10 0.11 0.09 0.08 0.08 0.09 0.09 0.09 0.10 0.11 0.12 0.13 0.14 0.14 0.15 0.16 0.16 0.16 0.17 0.19 0.19 0.21 0.22 0.24 0.27 0.27 0.30 0.30 0.28 0.30
0.11 0.06 0.06 0.06 0.04 0.04 0.04 0.03 0.03 0.03 0.03 0.04 0.06 0.06 0.05 0.06 0.06 0.07 0.07 0.08 0.08 0.08 0.09 0.12 0.12 0.11 0.11 0.11 0.12 0.14 0.16 0.17 0.18 0.19 0.19 0.20 0.22 0.24 0.28 0.29 0.31 0.32 0.33 0.32
0.06 0.05 0.05 0.04 0.03 0.03 0.03 0.03 0.03 0.03 0.03 0.05 0.06 0.06 0.05 0.06 0.07 0.09 0.10 0.11 0.11 0.10 0.09 0.11 0.13 0.13 0.13 0.13 0.14 0.14 0.16 0.18 0.18 0.19 0.20 0.20 0.21 0.23 0.24 0.25 0.27 0.28 0.30 0.32
0.04 0.04 0.06 0.04 0.03 0.02 0.03 0.03 0.03 0.03 0.03 0.04 0.05 0.05 0.05 0.05 0.07 0.10 0.11 0.13 0.13 0.12 0.12 0.11 0.12 0.14 0.14 0.14 0.14 0.17 0.18 0.20 0.21 0.20 0.20 0.20 0.20 0.21 0.22 0.22 0.21 0.20 0.22 0.27
0.03 0.04 0.06 0.05 0.04 0.04 0.04 0.04 0.04 0.04 0.04 0.04 0.04 0.04 0.05 0.06 0.08 0.10 0.10 0.12 0.13 0.13 0.12 0.12 0.12 0.13 0.14 0.15 0.13 0.14 0.16 0.17 0.18 0.19 0.21 0.21 0.22 0.21 0.21 0.22 0.22 0.21 0.21 0.24
0.03 0.03 0.03 0.03 0.03 0.03 0.04 0.04 0.05 0.06 0.06 0.05 0.06 0.08 0.09 0.09 0.09 0.09 0.09 0.10 0.11 0.11 0.10 0.09 0.11 0.12 0.11 0.12 0.13 0.13 0.14 0.19 0.19 0.18 0.17 0.19 0.21 0.22 0.22 0.23 0.24 0.24 0.24 0.25
0.06 0.06 0.06 0.06 0.06 0.05 0.04 0.05 0.05 0.06 0.06 0.07 0.07 0.08 0.09 0.09 0.09 0.08 0.09 0.09 0.08 0.09 0.10 0.10 0.11 0.11 0.10 0.11 0.12 0.12 0.12 0.15 0.19 0.18 0.17 0.18 0.18 0.20 0.21 0.22 0.24 0.23 0.23 0.27
0.07 0.07 0.07 0.08 0.08 0.07 0.06 0.06 0.05 0.06 0.06 0.06 0.06 0.08 0.09 0.10 0.10 0.10 0.11 0.10 0.09 0.09 0.09 0.09 0.09 0.09 0.09 0.11 0.13 0.13 0.13 0.14 0.15 0.15 0.17 0.20 0.22 0.21 0.22 0.22 0.21 0.21 0.22 0.25
0.05 0.05 0.05 0.06 0.07 0.07 0.07 0.07 0.07 0.07 0.07 0.07 0.07 0.08 0.09 0.10 0.10 0.10 0.10 0.10 0.11 0.12 0.12 0.11 0.12 0.11 0.10 0.11 0.13 0.12 0.13 0.15 0.16 0.17 0.18 0.22 0.24 0.22 0.22 0.22 0.21 0.22 0.23 0.24
0.05 0.06 0.07 0.09 0.09 0.10 0.10 0.10 0.09 0.09 0.09 0.08 0.09 0.09 0.09 0.09 0.10 0.10 0.10 0.09 0.10 0.10 0.12 0.13 0.13 0.11 0.11 0.12 0.15 0.12 0.12 0.14 0.16 0.18 0.20 0.21 0.22 0.21 0.21 0.22 0.22 0.22 0.22 0.22
0.08 0.08 0.10 0.11 0.12 0.12 0.12 0.11 0.10 0.10 0.09 0.09 0.09 0.10 0.11 0.11 0.11 0.11 0.11 0.11 0.11 0.10 0.10 0.12 0.11 0.10 0.12 0.14 0.16 0.15 0.14 0.15 0.16 0.17 0.19 0.21 0.21 0.21 0.21 0.21 0.22 0.22 0.22 0.22
0.12 0.12 0.12 0.14 0.15 0.16 0.14 0.11 0.10 0.09 0.09 0.08 0.09 0.09 0.09 0.10 0.11 0.11 0.11 0.12 0.12 0.12 0.10 0.09 0.09 0.11 0.14 0.16 0.15 0.15 0.16 0.17 0.17 0.18 0.20 0.21 0.22 0.22 0.22 0.23 0.24 0.24 0.24 0.24
0.13 0.13 0.13 0.14 0.15 0.16 0.14 0.13 0.11 0.11 0.10 0.10 0.10 0.11 0.11 0.11 0.11 0.11 0.11 0.10 0.10 0.11 0.09 0.08 0.10 0.13 0.14 0.13 0.12 0.13 0.15 0.17 0.18 0.19 0.19 0.20 0.22 0.23 0.24 0.24 0.23 0.23 0.23 0.23
0.14 0.14 0.13 0.13 0.12 0.12 0.11 0.11 0.12 0.12 0.12 0.12 0.12 0.12 0.12 0.12 0.11 0.10 0.10 0.11 0.12 0.12 0.10 0.10 0.13 0.13 0.14 0.12 0.12 0.14 0.16 0.17 0.18 0.19 0.20 0.21 0.22 0.22 0.23 0.23 0.22 0.21 0.21 0.21
0.14 0.13 0.12 0.11 0.11 0.11 0.11 0.11 0.11 0.10 0.11 0.11 0.10 0.10 0.10 0.11 0.12 0.11 0.11 0.11 0.12 0.13 0.12 0.12 0.14 0.15 0.15 0.14 0.15 0.16 0.18 0.19 0.21 0.22 0.22 0.21 0.21 0.21 0.21 0.21 0.21 0.21 0.21 0.20
0.11 0.10 0.10 0.09 0.09 0.09 0.10 0.10 0.10 0.10 0.11 0.11 0.10 0.09 0.09 0.09 0.09 0.10 0.10 0.10 0.11 0.13 0.13 0.14 0.15 0.16 0.16 0.16 0.17 0.18 0.18 0.19 0.21 0.20 0.19 0.19 0.20 0.21 0.21 0.20 0.20 0.20 0.20 0.19
0.09 0.09 0.09 0.09 0.08 0.08 0.09 0.09 0.10 0.10 0.11 0.11 0.11 0.11 0.10 0.10 0.10 0.10 0.10 0.09 0.10 0.11 0.12 0.12 0.12 0.13 0.14 0.15 0.16 0.16 0.17 0.17 0.18 0.18 0.19 0.20 0.20 0.20 0.20 0.20 0.20 0.20 0.19 0.19

GEFSNGP_prec_meanprecacc_162.txt.gz
Total_Precipitation_Accumulation
0.41 0.32 0.49 0.51 0.48 0.59 0.88 0.85 0.78 0.36 0.19 0.15 0.17 0.24 0.23 0.21 0.19 0.20 0.22 0.24 0.24 0.26 0.26 0.23 0.20 0.18 0.17 0.17 0.20 0.23 0.26 0.26 0.27 0.31 0.33 0.35 0.36 0.37 0.39 0.41 0.49 0.52 0.54 0.56
0.47 0.29 0.40 0.46 0.43 0.46 0.51 0.53 0.53 0.38 0.29 0.19 0.20 0.22 0.21 0.18 0.16 0.17 0.18 0.20 0.22 0.21 0.23 0.21 0.22 0.21 0.20 0.20 0.19 0.21 0.24 0.23 0.24 0.27 0.30 0.32 0.35 0.37 0.37 0.40 0.46 0.52 0.59 0.65
0.56 0.32 0.42 0.48 0.42 0.44 0.43 0.40 0.43 0.45 0.35 0.26 0.26 0.24 0.22 0.19 0.16 0.15 0.13 0.13 0.16 0.18 0.20 0.20 0.19 0.19 0.17 0.18 0.18 0.19 0.22 0.22 0.24 0.27 0.31 0.32 0.36 0.40 0.46 0.51 0.58 0.64 0.69 0.79
0.60 0.41 0.53 0.37 0.30 0.32 0.36 0.35 0.37 0.35 0.28 0.23 0.23 0.23 0.22 0.18 0.15 0.12 0.10 0.08 0.09 0.12 0.13 0.13 0.13 0.14 0.15 0.14 0.15 0.17 0.21 0.26 0.28 0.29 0.37 0.44 0.44 0.47 0.56 0.63 0.70 0.76 0.76 0.79
0.63 0.45 0.29 0.20 0.20 0.24 0.31 0.35 0.31 0.24 0.17 0.16 0.17 0.21 0.22 0.18 0.14 0.11 0.09 0.09 0.08 0.09 0.11 0.12 0.12 0.14 0.16 0.16 0.17 0.18 0.21 0.28 0.32 0.33 0.43 0.53 0.53 0.54 0.59 0.65 0.72 0.74 0.73 0.70
0.60 0.49 0.23 0.13 0.08 0.10 0.20 0.33 0.22 0.20 0.19 0.19 0.21 0.25 0.22 0.16 0.14 0.14 0.12 0.11 0.11 0.12 0.13 0.15 0.17 0.19 0.21 0.23 0.28 0.30 0.31 0.36 0.42 0.49 0.56 0.61 0.60 0.59 0.56 0.56 0.58 0.57 0.53 0.49
0.46 0.42 0.12 0.06 0.05 0.08 0.23 0.28 0.14 0.14 0.16 0.19 0.21 0.19 0.17 0.13 0.11 0.14 0.16 0.15 0.15 0.16 0.18 0.20 0.20 0.22 0.25 0.28 0.37 0.42 0.44 0.48 0.50 0.54 0.57 0.57 0.55 0.52 0.46 0.42 0.41 0.40 0.38 0.37
0.24 0.34 0.16 0.07 0.07 0.13 0.17 0.12 0.12 0.15 0.17 0.17 0.17 0.14 0.13 0.14 0.12 0.11 0.12 0.14 0.16 0.18 0.21 0.23 0.26 0.31 0.32 0.35 0.40 0.43 0.43 0.44 0.43 0.43 0.43 0.45 0.44 0.42 0.38 0.35 0.33 0.33 0.33 0.36
0.13 0.14 0.10 0.09 0.09 0.09 0.08 0.09 0.10 0.12 0.14 0.14 0.14 0.15 0.12 0.11 0.11 0.10 0.11 0.12 0.15 0.20 0.24 0.27 0.29 0.31 0.33 0.33 0.33 0.34 0.34 0.34 0.32 0.29 0.29 0.30 0.30 0.32 0.31 0.30 0.29 0.31 0.34 0.36
0.09 0.05 0.05 0.06 0.06 0.06 0.05 0.05 0.04 0.05 0.07 0.12 0.15 0.14 0.13 0.11 0.10 0.08 0.09 0.10 0.12 0.14 0.16 0.19 0.21 0.22 0.24 0.23 0.23 0.22 0.22 0.23 0.23 0.21 0.21 0.22 0.23 0.26 0.27 0.27 0.27 0.27 0.31 0.36
0.10 0.05 0.05 0.05 0.05 0.04 0.04 0.03 0.02 0.02 0.03 0.06 0.09 0.09 0.10 0.11 0.09 0.09 0.08 0.09 0.09 0.09 0.10 0.11 0.12 0.13 0.14 0.14 0.15 0.17 0.16 0.17 0.18 0.19 0.20 0.22 0.24 0.27 0.30 0.30 0.33 0.32 0.30 0.32
0.12 0.06 0.07 0.06 0.04 0.04 0.04 0.03 0.03 0.03 0.03 0.04 0.06 0.06 0.05 0.06 0.06 0.07 0.08 0.08 0.08 0.08 0.09 0.12 0.12 0.11 0.11 0.11 0.12 0.14 0.16 0.17 0.18 0.20 0.20 0.21 0.23 0.26 0.30 0.32 0.35 0.36 0.35 0.34
0.07 0.05 0.05 0.05 0.03 0.03 0.04 0.04 0.03 0.03 0.04 0.05 0.06 0.06 0.05 0.06 0.07 0.09 0.10 0.11 0.11 0.10 0.09 0.11 0.13 0.13 0.13 0.13 0.14 0.14 0.17 0.19 0.19 0.20 0.21 0.20 0.22 0.24 0.26 0.27 0.29 0.30 0.32 0.33
0.04 0.05 0.06 0.04 0.03 0.03 0.03 0.03 0.04 0.04 0.03 0.04 0.05 0.05 0.05 0.05 0.07 0.10 0.11 0.13 0.13 0.12 0.12 0.11 0.12 0.14 0.15 0.14 0.14 0.17 0.18 0.21 0.22 0.21 0.21 0.20 0.21 0.22 0.23 0.24 0.23 0.21 0.24 0.28
0.03 0.05 0.07 0.06 0.04 0.04 0.05 0.05 0.05 0.05 0.04 0.04 0.04 0.05 0.05 0.06 0.08 0.10 0.11 0.12 0.13 0.13 0.13 0.12 0.13 0.13 0.14 0.15 0.14 0.14 0.16 0.18 0.20 0.20 0.22 0.23 0.23 0.22 0.23 0.24 0.24 0.23 0.22 0.25
0.04 0.04 0.04 0.04 0.05 0.05 0.05 0.06 0.06 0.06 0.06 0.06 0.07 0.08 0.09 0.09 0.09 0.09 0.09 0.10 0.11 0.11 0.10 0.10 0.11 0.12 0.12 0.12 0.13 0.13 0.14 0.19 0.20 0.19 0.19 0.20 0.22 0.23 0.23 0.24 0.25 0.25 0.25 0.26
0.07 0.07 0.07 0.07 0.06 0.05 0.05 0.05 0.06 0.06 0.07 0.07 0.08 0.09 0.09 0.09 0.09 0.08 0.09 0.09 0.09 0.10 0.11 0.11 0.11 0.11 0.11 0.11 0.12 0.12 0.12 0.15 0.20 0.19 0.19 0.19 0.19 0.21 0.22 0.23 0.24 0.24 0.23 0.28
0.08 0.08 0.08 0.09 0.08 0.07 0.06 0.06 0.06 0.06 0.07 0.07 0.07 0.08 0.09 0.10 0.11 0.11 0.11 0.10 0.10 0.10 0.10 0.10 0.10 0.09 0.10 0.11 0.13 0.14 0.14 0.14 0.15 0.16 0.18 0.21 0.23 0.22 0.23 0.22 0.22 0.22 0.22 0.26
0.06 0.06 0.06 0.06 0.07 0.08 0.08 0.08 0.08 0.07 0.08 0.08 0.08 0.09 0.10 0.10 0.10 0.10 0.10 0.11 0.12 0.12 0.12 0.11 0.13 0.11 0.10 0.12 0.14 0.13 0.14 0.15 0.16 0.18 0.19 0.24 0.25 0.23 0.23 0.23 0.22 0.22 0.23 0.24
0.05 0.06 0.08 0.09 0.10 0.10 0.10 0.10 0.10 0.09 0.09 0.09 0.10 0.10 0.09 0.10 0.10 0.10 0.10 0.10 0.11 0.12 0.12 0.13 0.13 0.12 0.11 0.12 0.15 0.13 0.13 0.15 0.17 0.19 0.21 0.23 0.23 0.22 0.22 0.23 0.23 0.23 0.23 0.23
0.08 0.09 0.10 0.12 0.13 0.13 0.12 0.12 0.11 0.10 0.09 0.09 0.09 0.10 0.11 0.11 0.11 0.12 0.12 0.12 0.11 0.11 0.11 0.12 0.11 0.11 0.12 0.15 0.18 0.16 0.15 0.16 0.17 0.18 0.20 0.22 0.23 0.23 0.22 0.22 0.23 0.23 0.22 0.22
0.12 0.12 0.13 0.15 0.16 0.16 0.15 0.12 0.11 0.10 0.09 0.09 0.09 0.09 0.09 0.10 0.11 0.11 0.12 0.12 0.13 0.13 0.11 0.09 0.09 0.11 0.14 0.17 0.16 0.16 0.17 0.18 0.19 0.19 0.21 0.22 0.23 0.23 0.23 0.24 0.25 0.24 0.24 0.25
0.13 0.13 0.14 0.15 0.16 0.16 0.15 0.13 0.12 0.11 0.11 0.10 0.10 0.11 0.11 0.11 0.11 0.11 0.12 0.10 0.10 0.12 0.11 0.09 0.10 0.14 0.15 0.14 0.13 0.15 0.16 0.18 0.19 0.20 0.21 0.21 0.23 0.24 0.25 0.24 0.24 0.23 0.24 0.24
0.15 0.14 0.14 0.13 0.12 0.12 0.12 0.12 0.12 0.13 0.12 0.12 0.12 0.12 0.13 0.13 0.12 0.10 0.10 0.11 0.12 0.13 0.11 0.11 0.13 0.14 0.15 0.13 0.13 0.15 0.17 0.18 0.19 0.20 0.21 0.22 0.23 0.23 0.24 0.23 0.23 0.22 0.21 0.22
0.14 0.13 0.12 0.12 0.12 0.12 0.12 0.11 0.11 0.11 0.11 0.11 0.11 0.10 0.11 0.12 0.12 0.12 0.11 0.11 0.13 0.14 0.13 0.13 0.15 0.16 0.16 0.15 0.16 0.18 0.19 0.20 0.22 0.23 0.23 0.23 0.22 0.22 0.22 0.22 0.22 0.22 0.22 0.21
0.11 0.10 0.10 0.09 0.09 0.10 0.11 0.11 0.11 0.11 0.11 0.12 0.11 0.10 0.10 0.10 0.10 0.11 0.11 0.11 0.12 0.14 0.14 0.15 0.16 0.18 0.18 0.18 0.19 0.20 0.20 0.21 0.23 0.22 0.21 0.21 0.21 0.22 0.22 0.21 0.21 0.21 0.21 0.20
0.10 0.09 0.09 0.09 0.08 0.08 0.09 0.10 0.11 0.11 0.12 0.13 0.13 0.11 0.11 0.11 0.11 0.11 0.11 0.11 0.11 0.12 0.13 0.13 0.14 0.15 0.16 0.17 0.18 0.18 0.19 0.19 0.19 0.20 0.20 0.21 0.21 0.21 0.21 0.21 0.21 0.21 0.20 0.20

GEFSNGP_prec_meanprecacc_168.txt.gz
Total_Precipitation_Accumulation
0.41 0.32 0.49 0.51 0.49 0.60 0.89 0.86 0.79 0.37 0.20 0.17 0.19 0.25 0.24 0.21 0.19 0.20 0.22 0.24 0.25 0.26 0.26 0.23 0.20 0.19 0.17 0.17 0.20 0.23 0.26 0.26 0.27 0.31 0.33 0.35 0.36 0.38 0.40 0.42 0.50 0.53 0.55 0.57
0.48 0.29 0.40 0.47 0.43 0.46 0.51 0.54 0.53 0.38 0.31 0.22 0.21 0.22 0.22 0.19 0.17 0.17 0.18 0.21 0.22 0.21 0.23 0.21 0.22 0.21 0.20 0.20 0.20 0.21 0.24 0.24 0.24 0.28 0.30 0.33 0.35 0.38 0.38 0.41 0.48 0.53 0.60 0.66
0.57 0.32 0.43 0.49 0.42 0.44 0.43 0.41 0.43 0.46 0.36 0.26 0.26 0.24 0.23 0.20 0.16 0.15 0.13 0.13 0.16 0.18 0.20 0.20 0.19 0.19 0.17 0.18 0.18 0.20 0.22 0.22 0.24 0.27 0.31 0.32 0.36 0.41 0.46 0.51 0.59 0.66 0.70 0.80
0.63 0.42 0.54 0.38 0.30 0.32 0.36 0.35 0.38 0.36 0.28 0.23 0.24 0.23 0.23 0.19 0.15 0.13 0.10 0.08 0.09 0.12 0.13 0.13 0.13 0.14 0.16 0.15 0.16 0.17 0.21 0.26 0.28 0.29 0.37 0.44 0.44 0.48 0.56 0.63 0.70 0.77 0.77 0.80
0.68 0.48 0.30 0.20 0.20 0.24 0.32 0.35 0.32 0.24 0.17 0.16 0.17 0.22 0.22 0.18 0.14 0.11 0.09 0.09 0.09 0.09 0.12 0.12 0.12 0.14 0.16 0.18 0.18 0.18 0.22 0.28 0.32 0.33 0.43 0.53 0.53 0.55 0.59 0.65 0.72 0.75 0.74 0.71
0.65 0.53 0.24 0.14 0.09 0.10 0.21 0.33 0.22 0.20 0.19 0.19 0.21 0.26 0.22 0.16 0.14 0.14 0.12 0.11 0.11 0.12 0.13 0.15 0.17 0.19 0.21 0.24 0.29 0.31 0.32 0.37 0.43 0.49 0.56 0.61 0.60 0.59 0.57 0.56 0.58 0.57 0.53 0.50
0.51 0.46 0.14 0.07 0.05 0.08 0.25 0.29 0.14 0.14 0.17 0.20 0.21 0.20 0.17 0.13 0.11 0.14 0.16 0.16 0.15 0.16 0.18 0.20 0.20 0.22 0.25 0.28 0.38 0.43 0.45 0.48 0.50 0.55 0.57 0.57 0.55 0.52 0.47 0.42 0.41 0.40 0.38 0.37
0.27 0.39 0.19 0.07 0.08 0.14 0.18 0.13 0.13 0.15 0.17 0.18 0.18 0.14 0.13 0.14 0.13 0.11 0.12 0.14 0.16 0.19 0.21 0.23 0.26 0.31 0.33 0.35 0.40 0.43 0.44 0.44 0.44 0.43 0.44 0.45 0.44 0.43 0.39 0.36 0.34 0.34 0.34 0.36
0.15 0.15 0.10 0.09 0.10 0.10 0.09 0.10 0.10 0.13 0.14 0.14 0.15 0.15 0.12 0.11 0.11 0.10 0.11 0.12 0.15 0.20 0.24 0.27 0.29 0.31 0.34 0.34 0.34 0.34 0.35 0.34 0.32 0.30 0.29 0.30 0.31 0.32 0.32 0.31 0.30 0.32 0.35 0.37
0.10 0.06 0.05 0.06 0.06 0.06 0.06 0.05 0.05 0.05 0.08 0.12 0.15 0.14 0.13 0.11 0.10 0.08 0.09 0.10 0.12 0.14 0.16 0.19 0.21 0.22 0.24 0.23 0.23 0.22 0.22 0.23 0.24 0.21 0.21 0.23 0.23 0.26 0.28 0.28 0.28 0.28 0.32 0.38
0.11 0.06 0.05 0.05 0.05 0.04 0.04 0.03 0.03 0.02 0.04 0.06 0.09 0.09 0.10 0.11 0.09 0.09 0.08 0.09 0.09 0.09 0.10 0.11 0.12 0.13 0.14 0.14 0.15 0.17 0.17 0.17 0.18 0.20 0.20 0.22 0.24 0.27 0.31 0.31 0.34 0.34 0.31 0.33
0.13 0.07 0.08 0.07 0.04 0.04 0.05 0.04 0.03 0.03 0.04 0.04 0.06 0.06 0.05 0.06 0.06 0.07 0.08 0.08 0.08 0.08 0.09 0.12 0.12 0.11 0.11 0.11 0.12 0.15 0.17 0.17 0.19 0.20 0.20 0.21 0.23 0.27 0.31 0.33 0.36 0.37 0.37 0.36
0.07 0.06 0.06 0.05 0.03 0.03 0.04 0.04 0.04 0.04 0.04 0.05 0.06 0.06 0.06 0.06 0.07 0.09 0.10 0.11 0.11 0.10 0.09 0.11 0.13 0.13 0.13 0.13 0.14 0.15 0.17 0.19 0.19 0.20 0.21 0.21 0.22 0.25 0.27 0.28 0.30 0.32 0.33 0.35
0.04 0.05 0.07 0.05 0.04 0.03 0.03 0.04 0.04 0.04 0.04 0.05 0.06 0.06 0.06 0.06 0.07 0.10 0.12 0.13 0.13 0.12 0.12 0.11 0.12 0.14 0.15 0.14 0.15 0.17 0.18 0.21 0.22 0.21 0.21 0.21 0.22 0.23 0.24 0.26 0.25 0.23 0.25 0.30
0.03 0.05 0.07 0.06 0.05 0.05 0.05 0.05 0.05 0.05 0.05 0.05 0.05 0.05 0.06 0.07 0.09 0.11 0.11 0.12 0.13 0.13 0.13 0.13 0.13 0.13 0.14 0.15 0.14 0.14 0.16 0.18 0.20 0.21 0.23 0.24 0.24 0.24 0.24 0.25 0.25 0.24 0.24 0.27
0.05 0.05 0.05 0.05 0.05 0.05 0.06 0.06 0.06 0.07 0.06 0.06 0.07 0.08 0.10 0.10 0.10 0.09 0.10 0.10 0.11 0.11 0.10 0.10 0.11 0.12 0.12 0.13 0.13 0.13 0.14 0.20 0.21 0.20 0.20 0.22 0.24 0.25 0.25 0.26 0.26 0.26 0.26 0.28
0.08 0.08 0.07 0.08 0.07 0.05 0.05 0.05 0.06 0.07 0.07 0.07 0.08 0.09 0.10 0.10 0.09 0.09 0.09 0.09 0.09 0.10 0.11 0.12 0.12 0.12 0.11 0.11 0.12 0.12 0.13 0.16 0.21 0.20 0.20 0.20 0.21 0.22 0.23 0.25 0.25 0.25 0.25 0.29
0.08 0.08 0.08 0.09 0.09 0.08 0.07 0.06 0.06 0.06 0.07 0.07 0.07 0.08 0.10 0.11 0.11 0.11 0.11 0.11 0.10 0.10 0.10 0.11 0.11 0.10 0.10 0.12 0.14 0.14 0.14 0.15 0.16 0.17 0.19 0.22 0.25 0.24 0.24 0.24 0.23 0.24 0.24 0.28
0.06 0.06 0.06 0.07 0.08 0.09 0.08 0.08 0.08 0.08 0.08 0.08 0.09 0.09 0.10 0.10 0.10 0.10 0.11 0.11 0.12 0.13 0.12 0.12 0.13 0.11 0.10 0.12 0.14 0.14 0.15 0.16 0.17 0.18 0.21 0.25 0.27 0.25 0.24 0.24 0.24 0.24 0.25 0.26
0.05 0.07 0.08 0.10 0.11 0.11 0.11 0.10 0.10 0.10 0.10 0.09 0.10 0.10 0.10 0.10 0.10 0.10 0.10 0.11 0.11 0.12 0.13 0.14 0.13 0.12 0.11 0.12 0.16 0.13 0.14 0.15 0.18 0.20 0.22 0.24 0.25 0.24 0.24 0.25 0.25 0.25 0.25 0.25
0.08 0.09 0.11 0.13 0.13 0.13 0.13 0.12 0.12 0.11 0.10 0.09 0.10 0.11 0.11 0.11 0.12 0.12 0.13 0.13 0.11 0.11 0.11 0.12 0.12 0.11 0.12 0.15 0.18 0.17 0.16 0.17 0.18 0.20 0.22 0.23 0.24 0.24 0.24 0.24 0.25 0.25 0.24 0.25
0.12 0.12 0.13 0.15 0.17 0.17 0.15 0.13 0.11 0.10 0.09 0.09 0.09 0.10 0.10 0.10 0.11 0.12 0.12 0.13 0.13 0.14 0.11 0.09 0.10 0.12 0.15 0.18 0.17 0.17 0.18 0.19 0.20 0.21 0.22 0.23 0.25 0.25 0.25 0.26 0.27 0.27 0.27 0.27
0.13 0.14 0.14 0.15 0.16 0.17 0.16 0.14 0.13 0.12 0.11 0.11 0.11 0.12 0.12 0.12 0.12 0.12 0.13 0.11 0.11 0.12 0.11 0.09 0.11 0.14 0.16 0.15 0.14 0.16 0.18 0.19 0.20 0.21 0.22 0.23 0.24 0.26 0.27 0.26 0.26 0.26 0.26 0.26
0.16 0.15 0.15 0.14 0.13 0.13 0.13 0.12 0.12 0.13 0.12 0.12 0.12 0.13 0.14 0.14 0.12 0.11 0.11 0.12 0.13 0.14 0.12 0.11 0.14 0.15 0.16 0.15 0.15 0.17 0.18 0.20 0.21 0.22 0.23 0.24 0.25 0.25 0.26 0.26 0.25 0.24 0.23 0.24
0.15 0.14 0.13 0.13 0.13 0.13 0.13 0.12 0.11 0.11 0.11 0.11 0.11 0.11 0.11 0.12 0.13 0.12 0.12 0.12 0.14 0.15 0.13 0.14 0.16 0.17 0.17 0.16 0.17 0.19 0.21 0.22 0.24 0.25 0.25 0.25 0.24 0.24 0.24 0.24 0.24 0.24 0.23 0.22
0.12 0.11 0.11 0.10 0.10 0.10 0.11 0.11 0.11 0.11 0.12 0.12 0.11 0.10 0.10 0.10 0.11 0.12 0.12 0.12 0.13 0.15 0.15 0.15 0.17 0.19 0.19 0.19 0.20 0.21 0.22 0.23 0.24 0.24 0.22 0.22 0.23 0.24 0.24 0.23 0.23 0.23 0.22 0.21
0.11 0.10 0.10 0.09 0.08 0.09 0.10 0.11 0.11 0.12 0.13 0.13 0.13 0.12 0.12 0.12 0.12 0.12 0.12 0.12 0.12 0.13 0.13 0.14 0.15 0.16 0.17 0.18 0.20 0.20 0.21 0.21 0.21 0.21 0.22 0.23 0.23 0.23 0.22 0.22 0.22 0.22 0.21 0.21

GEFSNGP_prec_meanprecacc_174.txt.gz
Total_Precipitation_Accumulation
0.41 0.33 0.50 0.51 0.49 0.60 0.89 0.87 0.80 0.38 0.21 0.17 0.20 0.26 0.25 0.21 0.19 0.20 0.22 0.24 0.25 0.26 0.26 0.23 0.20 0.19 0.17 0.17 0.20 0.23 0.26 0.26 0.28 0.31 0.33 0.35 0.36 0.38 0.40 0.42 0.50 0.53 0.55 0.57
0.49 0.29 0.40 0.47 0.44 0.46 0.51 0.54 0.53 0.39 0.31 0.22 0.22 0.23 0.23 0.19 0.17 0.17 0.18 0.21 0.22 0.21 0.23 0.22 0.22 0.21 0.20 0.20 0.20 0.21 0.24 0.24 0.24 0.28 0.30 0.33 0.36 0.38 0.38 0.41 0.48 0.54 0.60 0.66
0.60 0.33 0.45 0.51 0.42 0.44 0.43 0.41 0.44 0.46 0.36 0.26 0.27 0.25 0.24 0.20 0.17 0.16 0.14 0.14 0.16 0.18 0.20 0.20 0.19 0.19 0.17 0.18 0.18 0.20 0.22 0.22 0.24 0.27 0.31 0.33 0.36 0.41 0.46 0.51 0.59 0.66 0.70 0.80
0.67 0.44 0.56 0.38 0.30 0.32 0.36 0.36 0.38 0.36 0.28 0.24 0.24 0.24 0.23 0.20 0.16 0.13 0.11 0.09 0.09 0.12 0.13 0.13 0.13 0.14 0.16 0.15 0.16 0.18 0.21 0.27 0.28 0.29 0.37 0.44 0.44 0.48 0.56 0.63 0.70 0.77 0.77 0.80
0.73 0.52 0.32 0.21 0.20 0.24 0.32 0.35 0.32 0.24 0.18 0.16 0.18 0.22 0.22 0.18 0.14 0.12 0.10 0.09 0.09 0.10 0.12 0.12 0.13 0.14 0.17 0.18 0.18 0.19 0.22 0.28 0.32 0.34 0.43 0.53 0.53 0.55 0.59 0.65 0.72 0.75 0.74 0.71
0.71 0.58 0.26 0.14 0.09 0.10 0.21 0.34 0.23 0.20 0.19 0.19 0.21 0.26 0.22 0.16 0.14 0.14 0.12 0.11 0.11 0.12 0.13 0.15 0.17 0.19 0.22 0.24 0.29 0.31 0.32 0.37 0.43 0.49 0.57 0.61 0.60 0.59 0.57 0.56 0.58 0.57 0.53 0.50
0.57 0.51 0.17 0.08 0.06 0.09 0.27 0.31 0.15 0.15 0.17 0.20 0.21 0.20 0.18 0.13 0.11 0.14 0.16 0.16 0.15 0.16 0.18 0.20 0.21 0.22 0.25 0.28 0.38 0.43 0.45 0.48 0.50 0.55 0.58 0.57 0.55 0.52 0.47 0.42 0.41 0.40 0.38 0.37
0.32 0.46 0.24 0.09 0.08 0.15 0.20 0.14 0.14 0.16 0.18 0.18 0.18 0.15 0.13 0.15 0.13 0.11 0.12 0.14 0.16 0.19 0.21 0.23 0.27 0.31 0.33 0.35 0.40 0.43 0.44 0.45 0.44 0.44 0.44 0.45 0.44 0.43 0.39 0.36 0.34 0.34 0.34 0.37
0.18 0.18 0.12 0.11 0.11 0.11 0.10 0.11 0.11 0.13 0.14 0.15 0.15 0.15 0.13 0.11 0.11 0.10 0.11 0.12 0.15 0.20 0.24 0.27 0.29 0.31 0.34 0.34 0.34 0.34 0.35 0.35 0.33 0.30 0.29 0.30 0.31 0.32 0.32 0.31 0.30 0.32 0.35 0.38
0.13 0.09 0.07 0.08 0.07 0.07 0.07 0.06 0.05 0.06 0.08 0.12 0.15 0.15 0.14 0.11 0.10 0.08 0.09 0.10 0.12 0.14 0.16 0.19 0.21 0.22 0.24 0.23 0.23 0.22 0.22 0.23 0.24 0.22 0.21 0.23 0.24 0.27 0.28 0.28 0.28 0.28 0.32 0.38
0.14 0.08 0.07 0.06 0.05 0.05 0.05 0.04 0.04 0.03 0.04 0.07 0.09 0.09 0.10 0.11 0.09 0.09 0.08 0.09 0.09 0.09 0.10 0.11 0.12 0.13 0.14 0.14 0.15 0.17 0.17 0.17 0.19 0.20 0.21 0.22 0.25 0.27 0.31 0.31 0.35 0.34 0.32 0.33
0.16 0.09 0.11 0.10 0.07 0.06 0.06 0.05 0.04 0.04 0.04 0.05 0.06 0.06 0.06 0.06 0.06 0.07 0.08 0.08 0.08 0.08 0.09 0.12 0.12 0.11 0.11 0.11 0.12 0.15 0.17 0.18 0.19 0.20 0.21 0.22 0.24 0.27 0.31 0.33 0.36 0.38 0.38 0.37
0.08 0.06 0.07 0.06 0.04 0.04 0.04 0.05 0.04 0.04 0.04 0.05 0.06 0.06 0.06 0.06 0.07 0.09 0.10 0.11 0.11 0.10 0.09 0.11 0.13 0.13 0.13 0.13 0.14 0.15 0.17 0.19 0.20 0.21 0.22 0.22 0.23 0.26 0.27 0.28 0.31 0.33 0.34 0.37
0.04 0.06 0.07 0.05 0.04 0.03 0.04 0.04 0.04 0.04 0.04 0.05 0.06 0.06 0.06 0.06 0.08 0.10 0.12 0.13 0.13 0.12 0.12 0.11 0.12 0.14 0.15 0.14 0.15 0.17 0.19 0.22 0.23 0.21 0.22 0.22 0.22 0.23 0.25 0.27 0.26 0.24 0.27 0.31
0.04 0.05 0.08 0.07 0.05 0.05 0.06 0.06 0.05 0.05 0.05 0.05 0.05 0.05 0.07 0.08 0.09 0.11 0.12 0.13 0.14 0.13 0.13 0.13 0.13 0.14 0.15 0.16 0.15 0.15 0.17 0.19 0.21 0.22 0.23 0.24 0.25 0.25 0.26 0.27 0.27 0.26 0.26 0.28
0.05 0.05 0.05 0.05 0.05 0.05 0.06 0.06 0.06 0.07 0.06 0.06 0.07 0.08 0.10 0.10 0.10 0.10 0.10 0.11 0.12 0.12 0.11 0.10 0.12 0.12 0.12 0.13 0.14 0.14 0.15 0.20 0.21 0.20 0.20 0.22 0.25 0.26 0.26 0.27 0.28 0.28 0.28 0.29
0.09 0.08 0.08 0.08 0.07 0.06 0.05 0.06 0.06 0.07 0.07 0.07 0.08 0.09 0.10 0.10 0.09 0.09 0.09 0.09 0.09 0.10 0.11 0.12 0.13 0.12 0.11 0.12 0.13 0.13 0.13 0.16 0.21 0.21 0.20 0.21 0.22 0.23 0.25 0.26 0.27 0.26 0.26 0.31
0.09 0.09 0.09 0.10 0.10 0.09 0.07 0.07 0.07 0.07 0.08 0.08 0.07 0.09 0.10 0.11 0.12 0.11 0.11 0.11 0.10 0.10 0.10 0.11 0.11 0.10 0.10 0.12 0.14 0.14 0.14 0.15 0.16 0.18 0.20 0.23 0.26 0.25 0.26 0.26 0.25 0.25 0.26 0.30
0.07 0.07 0.07 0.08 0.09 0.09 0.09 0.09 0.09 0.09 0.09 0.09 0.09 0.10 0.10 0.11 0.11 0.11 0.11 0.12 0.12 0.13 0.13 0.12 0.14 0.12 0.10 0.12 0.15 0.14 0.15 0.16 0.18 0.19 0.21 0.26 0.28 0.26 0.26 0.26 0.25 0.26 0.27 0.28
0.06 0.07 0.09 0.10 0.11 0.11 0.11 0.11 0.11 0.11 0.11 0.10 0.11 0.10 0.10 0.10 0.10 0.11 0.11 0.11 0.12 0.13 0.13 0.14 0.14 0.12 0.12 0.13 0.16 0.14 0.14 0.16 0.18 0.21 0.23 0.26 0.26 0.25 0.25 0.26 0.27 0.26 0.27 0.28
0.09 0.09 0.11 0.13 0.14 0.14 0.13 0.13 0.12 0.12 0.11 0.10 0.11 0.11 0.12 0.12 0.12 0.12 0.14 0.13 0.12 0.12 0.12 0.13 0.12 0.11 0.13 0.15 0.19 0.17 0.17 0.18 0.19 0.21 0.23 0.25 0.26 0.26 0.26 0.26 0.27 0.27 0.27 0.27
0.12 0.13 0.14 0.16 0.18 0.18 0.16 0.13 0.12 0.11 0.10 0.09 0.10 0.10 0.10 0.11 0.11 0.12 0.13 0.14 0.14 0.14 0.12 0.10 0.10 0.12 0.15 0.19 0.18 0.18 0.19 0.21 0.22 0.22 0.24 0.25 0.27 0.27 0.27 0.28 0.29 0.29 0.29 0.29
0.13 0.14 0.14 0.16 0.17 0.17 0.16 0.15 0.13 0.12 0.11 0.11 0.12 0.12 0.12 0.12 0.12 0.14 0.14 0.11 0.11 0.13 0.12 0.10 0.11 0.15 0.17 0.16 0.15 0.17 0.19 0.22 0.22 0.23 0.24 0.25 0.27 0.28 0.29 0.29 0.28 0.28 0.29 0.29
0.16 0.15 0.15 0.14 0.14 0.14 0.13 0.13 0.13 0.13 0.13 0.13 0.13 0.14 0.15 0.15 0.13 0.11 0.12 0.13 0.14 0.15 0.13 0.12 0.15 0.16 0.17 0.15 0.16 0.18 0.20 0.22 0.23 0.24 0.25 0.26 0.27 0.27 0.28 0.28 0.27 0.26 0.26 0.26
0.16 0.15 0.14 0.13 0.13 0.14 0.13 0.12 0.12 0.11 0.11 0.12 0.11 0.11 0.12 0.13 0.14 0.13 0.13 0.13 0.14 0.16 0.14 0.14 0.17 0.18 0.17 0.17 0.18 0.20 0.22 0.23 0.26 0.27 0.27 0.26 0.25 0.26 0.26 0.26 0.26 0.26 0.25 0.24
0.13 0.12 0.12 0.11 0.11 0.11 0.12 0.12 0.12 0.11 0.12 0.12 0.11 0.10 0.11 0.11 0.12 0.13 0.13 0.13 0.14 0.15 0.15 0.16 0.18 0.19 0.19 0.19 0.21 0.23 0.23 0.25 0.26 0.25 0.24 0.24 0.24 0.26 0.26 0.25 0.25 0.25 0.24 0.23
0.12 0.11 0.10 0.10 0.09 0.09 0.11 0.11 0.12 0.13 0.13 0.14 0.14 0.12 0.12 0.13 0.13 0.13 0.13 0.13 0.13 0.13 0.14 0.15 0.16 0.17 0.18 0.20 0.21 0.22 0.22 0.22 0.23 0.23 0.23 0.24 0.25 0.25 0.25 0.25 0.25 0.24 0.23 0.23

GEFSNGP_prec_meanprecacc_180.txt.gz
Total_Precipitation_Accumulation
0.42 0.33 0.50 0.52 0.49 0.60 0.91 0.88 0.81 0.38 0.21 0.17 0.20 0.26 0.25 0.22 0.19 0.20 0.22 0.24 0.25 0.26 0.26 0.23 0.20 0.19 0.17 0.18 0.20 0.24 0.26 0.27 0.28 0.31 0.33 0.35 0.36 0.38 0.40 0.42 0.50 0.53 0.55 0.57
0.50 0.29 0.41 0.48 0.44 0.46 0.52 0.54 0.54 0.39 0.32 0.22 0.22 0.23 0.23 0.20 0.17 0.17 0.18 0.21 0.22 0.21 0.23 0.22 0.22 0.21 0.20 0.20 0.20 0.21 0.24 0.24 0.25 0.28 0.31 0.33 0.36 0.38 0.38 0.41 0.48 0.54 0.60 0.66
0.61 0.33 0.45 0.52 0.43 0.44 0.44 0.41 0.44 0.47 0.37 0.27 0.27 0.25 0.24 0.21 0.17 0.16 0.14 0.14 0.17 0.18 0.20 0.20 0.19 0.19 0.18 0.18 0.18 0.20 0.22 0.23 0.24 0.27 0.31 0.33 0.36 0.41 0.46 0.51 0.59 0.66 0.70 0.80
0.69 0.46 0.58 0.39 0.30 0.32 0.36 0.36 0.39 0.37 0.29 0.24 0.24 0.24 0.23 0.20 0.16 0.13 0.11 0.09 0.10 0.12 0.13 0.13 0.13 0.14 0.16 0.15 0.16 0.18 0.22 0.27 0.28 0.29 0.38 0.44 0.45 0.48 0.56 0.63 0.70 0.77 0.77 0.80
0.77 0.55 0.32 0.21 0.20 0.24 0.32 0.37 0.33 0.25 0.18 0.16 0.18 0.23 0.22 0.18 0.14 0.12 0.10 0.09 0.09 0.10 0.12 0.12 0.13 0.14 0.17 0.18 0.19 0.19 0.23 0.29 0.33 0.34 0.43 0.53 0.53 0.55 0.59 0.65 0.72 0.75 0.74 0.71
0.75 0.62 0.28 0.16 0.09 0.11 0.22 0.37 0.25 0.21 0.20 0.20 0.22 0.27 0.23 0.16 0.14 0.14 0.13 0.11 0.12 0.12 0.13 0.15 0.18 0.19 0.22 0.24 0.29 0.32 0.33 0.37 0.43 0.49 0.57 0.61 0.61 0.59 0.57 0.56 0.58 0.57 0.53 0.50
0.61 0.56 0.21 0.11 0.07 0.09 0.30 0.36 0.17 0.16 0.17 0.20 0.22 0.21 0.18 0.13 0.11 0.14 0.16 0.16 0.15 0.16 0.18 0.21 0.21 0.22 0.25 0.29 0.38 0.43 0.45 0.49 0.51 0.55 0.58 0.57 0.56 0.53 0.47 0.42 0.41 0.40 0.38 0.37
0.35 0.50 0.27 0.11 0.09 0.17 0.24 0.16 0.15 0.16 0.18 0.19 0.18 0.15 0.13 0.15 0.13 0.11 0.12 0.14 0.16 0.19 0.21 0.24 0.27 0.31 0.33 0.35 0.40 0.43 0.44 0.45 0.44 0.44 0.44 0.46 0.45 0.44 0.39 0.36 0.34 0.34 0.34 0.37
0.20 0.21 0.15 0.12 0.12 0.12 0.11 0.12 0.11 0.13 0.15 0.15 0.15 0.15 0.13 0.11 0.11 0.10 0.11 0.12 0.16 0.20 0.24 0.28 0.29 0.32 0.34 0.34 0.34 0.34 0.35 0.35 0.33 0.30 0.29 0.31 0.31 0.33 0.32 0.31 0.30 0.32 0.36 0.38
0.14 0.10 0.08 0.09 0.08 0.08 0.07 0.07 0.06 0.06 0.08 0.13 0.16 0.15 0.14 0.12 0.10 0.08 0.09 0.10 0.12 0.14 0.16 0.19 0.21 0.22 0.24 0.23 0.23 0.23 0.22 0.23 0.24 0.22 0.22 0.23 0.24 0.27 0.28 0.28 0.28 0.28 0.33 0.38
0.15 0.09 0.08 0.07 0.06 0.06 0.06 0.06 0.05 0.04 0.05 0.08 0.10 0.10 0.11 0.11 0.10 0.09 0.09 0.09 0.09 0.09 0.10 0.11 0.12 0.13 0.14 0.14 0.15 0.17 0.17 0.18 0.19 0.20 0.21 0.23 0.25 0.28 0.31 0.31 0.35 0.34 0.32 0.34
0.17 0.10 0.12 0.11 0.07 0.07 0.07 0.06 0.06 0.05 0.05 0.05 0.07 0.07 0.06 0.07 0.06 0.07 0.08 0.08 0.09 0.08 0.09 0.12 0.12 0.11 0.11 0.11 0.12 0.15 0.17 0.18 0.19 0.20 0.21 0.22 0.24 0.27 0.31 0.33 0.36 0.38 0.38 0.37
0.09 0.07 0.08 0.06 0.04 0.04 0.05 0.05 0.05 0.05 0.05 0.06 0.06 0.06 0.06 0.06 0.08 0.09 0.10 0.11 0.11 0.10 0.09 0.11 0.13 0.13 0.13 0.13 0.14 0.15 0.18 0.20 0.20 0.21 0.22 0.22 0.23 0.26 0.27 0.28 0.31 0.33 0.35 0.37
0.05 0.06 0.08 0.06 0.04 0.03 0.04 0.04 0.05 0.05 0.04 0.05 0.07 0.07 0.06 0.06 0.08 0.10 0.12 0.13 0.14 0.12 0.12 0.11 0.12 0.14 0.15 0.14 0.15 0.18 0.19 0.22 0.23 0.22 0.22 0.22 0.23 0.24 0.26 0.27 0.26 0.24 0.27 0.31
0.04 0.06 0.08 0.07 0.06 0.05 0.06 0.06 0.06 0.06 0.05 0.05 0.05 0.06 0.07 0.08 0.10 0.11 0.12 0.13 0.14 0.14 0.13 0.13 0.13 0.14 0.15 0.16 0.15 0.16 0.18 0.20 0.21 0.22 0.24 0.25 0.25 0.26 0.26 0.27 0.27 0.26 0.26 0.29
0.05 0.05 0.06 0.06 0.06 0.06 0.06 0.06 0.07 0.07 0.07 0.07 0.07 0.09 0.10 0.11 0.11 0.10 0.10 0.11 0.12 0.12 0.11 0.11 0.12 0.13 0.12 0.14 0.14 0.14 0.15 0.21 0.22 0.21 0.21 0.23 0.25 0.27 0.27 0.28 0.29 0.29 0.28 0.29
0.09 0.09 0.09 0.09 0.08 0.07 0.06 0.07 0.07 0.08 0.09 0.09 0.10 0.11 0.11 0.11 0.10 0.10 0.10 0.10 0.10 0.11 0.12 0.13 0.13 0.12 0.11 0.12 0.13 0.13 0.13 0.16 0.22 0.21 0.21 0.21 0.22 0.24 0.25 0.27 0.28 0.27 0.27 0.32
0.10 0.11 0.11 0.12 0.11 0.10 0.08 0.07 0.07 0.08 0.09 0.09 0.09 0.10 0.11 0.12 0.13 0.12 0.12 0.12 0.11 0.11 0.11 0.11 0.11 0.10 0.10 0.12 0.14 0.15 0.15 0.15 0.16 0.18 0.20 0.24 0.26 0.25 0.26 0.27 0.26 0.26 0.27 0.31
0.08 0.08 0.08 0.08 0.10 0.10 0.10 0.09 0.09 0.09 0.10 0.10 0.10 0.11 0.11 0.11 0.12 0.12 0.12 0.13 0.14 0.14 0.13 0.12 0.14 0.12 0.11 0.12 0.15 0.14 0.15 0.17 0.18 0.19 0.22 0.27 0.29 0.26 0.27 0.27 0.27 0.27 0.29 0.30
0.07 0.08 0.09 0.11 0.11 0.12 0.12 0.12 0.11 0.11 0.11 0.11 0.12 0.11 0.11 0.11 0.11 0.12 0.12 0.12 0.13 0.14 0.14 0.15 0.14 0.12 0.12 0.13 0.17 0.14 0.15 0.16 0.19 0.21 0.24 0.26 0.27 0.26 0.26 0.27 0.28 0.28 0.29 0.30
0.09 0.10 0.12 0.14 0.14 0.14 0.14 0.13 0.13 0.12 0.11 0.11 0.11 0.12 0.12 0.12 0.13 0.14 0.15 0.15 0.13 0.13 0.13 0.14 0.13 0.12 0.13 0.16 0.19 0.18 0.18 0.18 0.20 0.21 0.24 0.26 0.27 0.27 0.27 0.27 0.28 0.28 0.29 0.29
0.13 0.13 0.14 0.16 0.18 0.18 0.16 0.14 0.13 0.12 0.11 0.10 0.10 0.11 0.11 0.11 0.12 0.13 0.14 0.15 0.16 0.16 0.13 0.11 0.11 0.13 0.16 0.20 0.19 0.19 0.20 0.22 0.23 0.23 0.25 0.26 0.28 0.29 0.28 0.29 0.31 0.31 0.31 0.31
0.14 0.14 0.15 0.16 0.17 0.18 0.17 0.16 0.14 0.13 0.12 0.12 0.13 0.13 0.13 0.13 0.14 0.15 0.15 0.12 0.12 0.14 0.12 0.10 0.12 0.16 0.18 0.17 0.16 0.18 0.21 0.23 0.24 0.25 0.25 0.27 0.28 0.30 0.31 0.30 0.30 0.30 0.31 0.31
0.16 0.16 0.15 0.15 0.14 0.14 0.14 0.14 0.14 0.14 0.14 0.14 0.14 0.15 0.16 0.16 0.14 0.12 0.13 0.14 0.15 0.16 0.13 0.12 0.15 0.16 0.18 0.16 0.16 0.19 0.21 0.23 0.24 0.25 0.26 0.27 0.28 0.29 0.30 0.29 0.29 0.28 0.28 0.28
0.16 0.15 0.14 0.14 0.14 0.14 0.14 0.13 0.12 0.12 0.12 0.12 0.11 0.12 0.13 0.15 0.16 0.14 0.14 0.14 0.15 0.16 0.14 0.15 0.17 0.18 0.18 0.17 0.19 0.22 0.23 0.25 0.27 0.29 0.29 0.28 0.27 0.28 0.27 0.28 0.28 0.28 0.27 0.26
0.13 0.13 0.12 0.12 0.12 0.12 0.13 0.13 0.13 0.12 0.12 0.13 0.11 0.11 0.11 0.12 0.13 0.14 0.14 0.14 0.15 0.16 0.16 0.16 0.18 0.20 0.20 0.20 0.22 0.24 0.25 0.26 0.28 0.27 0.26 0.26 0.26 0.28 0.27 0.27 0.27 0.27 0.26 0.25
0.12 0.11 0.11 0.11 0.10 0.10 0.11 0.13 0.13 0.13 0.14 0.15 0.15 0.13 0.13 0.13 0.13 0.14 0.14 0.14 0.14 0.14 0.15 0.15 0.16 0.18 0.19 0.21 0.22 0.23 0.24 0.24 0.24 0.25 0.25 0.26 0.26 0.27 0.26 0.27 0.27 0.26 0.25 0.24

GEFSNGP_prec_meanprecacc_186.txt.gz
Total_Precipitation_Accumulation
0.43 0.33 0.51 0.52 0.50 0.61 0.91 0.89 0.82 0.39 0.22 0.18 0.21 0.27 0.26 0.23 0.20 0.21 0.22 0.24 0.25 0.26 0.26 0.23 0.20 0.19 0.17 0.18 0.21 0.24 0.27 0.30 0.32 0.37 0.39 0.40 0.41 0.43 0.46 0.48 0.53 0.55 0.57 0.58
0.50 0.29 0.41 0.48 0.44 0.47 0.52 0.55 0.55 0.39 0.32 0.23 0.22 0.24 0.23 0.20 0.18 0.18 0.19 0.21 0.22 0.21 0.23 0.22 0.22 0.21 0.20 0.20 0.20 0.22 0.25 0.25 0.27 0.31 0.34 0.37 0.40 0.42 0.43 0.47 0.53 0.57 0.62 0.67
0.62 0.33 0.46 0.52 0.43 0.44 0.44 0.41 0.45 0.48 0.38 0.27 0.27 0.26 0.24 0.21 0.18 0.16 0.14 0.14 0.17 0.18 0.20 0.20 0.19 0.19 0.18 0.18 0.18 0.20 0.22 0.23 0.25 0.28 0.33 0.35 0.39 0.44 0.50 0.56 0.64 0.70 0.73 0.82
0.70 0.46 0.58 0.39 0.30 0.32 0.37 0.37 0.40 0.38 0.29 0.24 0.24 0.25 0.24 0.20 0.16 0.14 0.11 0.09 0.10 0.12 0.13 0.13 0.13 0.14 0.16 0.15 0.16 0.18 0.22 0.27 0.29 0.30 0.39 0.46 0.46 0.50 0.58 0.66 0.73 0.80 0.80 0.82
0.79 0.57 0.33 0.21 0.21 0.24 0.32 0.37 0.34 0.26 0.19 0.17 0.18 0.23 0.22 0.18 0.14 0.12 0.10 0.09 0.09 0.10 0.12 0.12 0.13 0.14 0.17 0.18 0.19 0.19 0.23 0.29 0.33 0.34 0.44 0.54 0.54 0.56 0.61 0.67 0.74 0.76 0.75 0.72
0.78 0.65 0.29 0.16 0.10 0.11 0.22 0.39 0.26 0.22 0.20 0.20 0.22 0.27 0.23 0.16 0.14 0.14 0.13 0.11 0.12 0.12 0.13 0.16 0.18 0.19 0.22 0.25 0.29 0.32 0.33 0.37 0.43 0.49 0.57 0.62 0.61 0.60 0.58 0.58 0.60 0.58 0.54 0.51
0.64 0.59 0.22 0.11 0.07 0.10 0.31 0.38 0.18 0.16 0.17 0.20 0.22 0.21 0.18 0.13 0.11 0.14 0.16 0.16 0.15 0.16 0.19 0.21 0.21 0.23 0.26 0.29 0.38 0.43 0.45 0.49 0.51 0.55 0.58 0.58 0.57 0.53 0.48 0.44 0.42 0.41 0.39 0.38
0.37 0.55 0.30 0.12 0.10 0.18 0.25 0.16 0.15 0.17 0.18 0.19 0.18 0.15 0.13 0.15 0.13 0.11 0.12 0.14 0.16 0.19 0.22 0.25 0.28 0.32 0.34 0.36 0.41 0.44 0.45 0.45 0.45 0.44 0.44 0.46 0.45 0.44 0.40 0.37 0.35 0.35 0.35 0.37
0.23 0.24 0.16 0.13 0.12 0.13 0.11 0.12 0.11 0.13 0.15 0.15 0.16 0.15 0.13 0.11 0.11 0.10 0.11 0.12 0.16 0.20 0.25 0.28 0.29 0.32 0.34 0.34 0.34 0.35 0.35 0.35 0.33 0.31 0.30 0.31 0.32 0.33 0.33 0.32 0.31 0.33 0.36 0.38
0.17 0.13 0.10 0.10 0.09 0.08 0.07 0.07 0.06 0.06 0.08 0.13 0.16 0.15 0.14 0.12 0.10 0.09 0.09 0.10 0.12 0.15 0.17 0.20 0.21 0.23 0.24 0.24 0.23 0.23 0.22 0.24 0.24 0.22 0.22 0.24 0.25 0.28 0.29 0.29 0.29 0.29 0.33 0.38
0.17 0.11 0.09 0.08 0.07 0.06 0.06 0.06 0.05 0.04 0.05 0.08 0.10 0.10 0.11 0.12 0.10 0.10 0.09 0.09 0.10 0.10 0.11 0.12 0.13 0.13 0.14 0.14 0.16 0.17 0.17 0.18 0.19 0.20 0.21 0.23 0.26 0.29 0.32 0.32 0.36 0.35 0.32 0.34
0.18 0.11 0.12 0.11 0.08 0.07 0.07 0.06 0.06 0.06 0.05 0.06 0.07 0.07 0.07 0.07 0.07 0.08 0.09 0.09 0.09 0.09 0.10 0.12 0.12 0.11 0.12 0.11 0.12 0.15 0.18 0.18 0.19 0.21 0.21 0.22 0.24 0.28 0.32 0.34 0.37 0.39 0.38 0.37
0.09 0.07 0.08 0.07 0.04 0.04 0.05 0.05 0.05 0.05 0.05 0.06 0.07 0.07 0.07 0.07 0.08 0.10 0.11 0.12 0.11 0.10 0.10 0.11 0.13 0.13 0.13 0.13 0.14 0.15 0.18 0.20 0.21 0.22 0.23 0.23 0.24 0.27 0.28 0.29 0.31 0.33 0.35 0.37
0.05 0.07 0.08 0.06 0.04 0.03 0.04 0.05 0.05 0.05 0.05 0.06 0.08 0.08 0.07 0.07 0.09 0.11 0.13 0.14 0.14 0.13 0.12 0.12 0.12 0.15 0.15 0.14 0.16 0.18 0.20 0.23 0.24 0.23 0.23 0.23 0.23 0.24 0.26 0.27 0.26 0.25 0.27 0.32
0.04 0.06 0.08 0.07 0.06 0.06 0.06 0.06 0.06 0.06 0.06 0.06 0.06 0.06 0.08 0.09 0.11 0.12 0.12 0.13 0.15 0.14 0.14 0.13 0.14 0.14 0.15 0.17 0.16 0.17 0.19 0.20 0.22 0.23 0.24 0.25 0.26 0.26 0.27 0.28 0.28 0.27 0.26 0.29
0.06 0.05 0.06 0.06 0.06 0.06 0.07 0.07 0.08 0.08 0.07 0.07 0.08 0.09 0.11 0.12 0.12 0.11 0.11 0.12 0.13 0.13 0.12 0.11 0.13 0.13 0.13 0.14 0.15 0.15 0.16 0.22 0.23 0.22 0.21 0.23 0.26 0.27 0.27 0.28 0.29 0.29 0.29 0.30
0.10 0.10 0.10 0.10 0.09 0.08 0.07 0.07 0.08 0.09 0.09 0.10 0.11 0.12 0.12 0.12 0.12 0.11 0.11 0.11 0.12 0.13 0.14 0.15 0.15 0.13 0.12 0.12 0.14 0.14 0.14 0.17 0.23 0.22 0.21 0.22 0.23 0.24 0.26 0.27 0.28 0.28 0.27 0.32
0.11 0.11 0.12 0.13 0.12 0.11 0.09 0.08 0.08 0.09 0.10 0.10 0.10 0.11 0.12 0.13 0.14 0.13 0.13 0.13 0.12 0.12 0.12 0.12 0.12 0.11 0.11 0.12 0.14 0.15 0.15 0.16 0.17 0.18 0.21 0.24 0.27 0.26 0.27 0.27 0.27 0.27 0.28 0.32
0.10 0.10 0.09 0.09 0.10 0.11 0.10 0.10 0.10 0.10 0.11 0.11 0.11 0.12 0.13 0.13 0.13 0.12 0.12 0.13 0.15 0.15 0.14 0.13 0.15 0.12 0.11 0.13 0.15 0.15 0.16 0.17 0.18 0.20 0.22 0.27 0.30 0.27 0.28 0.28 0.28 0.28 0.30 0.31
0.07 0.08 0.10 0.11 0.12 0.12 0.12 0.12 0.12 0.12 0.12 0.12 0.12 0.12 0.12 0.13 0.13 0.13 0.13 0.13 0.14 0.15 0.15 0.15 0.15 0.13 0.12 0.13 0.17 0.15 0.15 0.17 0.19 0.21 0.24 0.27 0.28 0.27 0.27 0.28 0.28 0.29 0.30 0.31
0.10 0.10 0.12 0.14 0.15 0.15 0.14 0.14 0.13 0.13 0.12 0.11 0.12 0.13 0.14 0.14 0.15 0.16 0.17 0.16 0.14 0.14 0.13 0.15 0.13 0.12 0.14 0.17 0.20 0.19 0.18 0.19 0.20 0.22 0.24 0.26 0.28 0.28 0.27 0.28 0.29 0.29 0.29 0.30
0.13 0.13 0.15 0.17 0.18 0.19 0.17 0.15 0.14 0.13 0.12 0.11 0.11 0.12 0.12 0.12 0.13 0.14 0.15 0.16 0.17 0.17 0.14 0.12 0.11 0.14 0.17 0.21 0.20 0.20 0.21 0.23 0.23 0.24 0.26 0.27 0.29 0.29 0.29 0.30 0.32 0.32 0.32 0.32
0.14 0.15 0.15 0.17 0.18 0.19 0.18 0.16 0.15 0.14 0.13 0.13 0.14 0.14 0.15 0.15 0.15 0.16 0.16 0.13 0.14 0.15 0.13 0.10 0.13 0.17 0.19 0.19 0.18 0.19 0.22 0.24 0.25 0.26 0.27 0.28 0.30 0.31 0.32 0.31 0.31 0.31 0.32 0.32
0.17 0.16 0.16 0.15 0.15 0.15 0.15 0.14 0.14 0.14 0.14 0.14 0.15 0.16 0.17 0.17 0.14 0.13 0.14 0.15 0.16 0.16 0.13 0.12 0.15 0.17 0.19 0.17 0.18 0.20 0.22 0.24 0.26 0.27 0.28 0.29 0.30 0.31 0.31 0.31 0.30 0.29 0.29 0.29
0.16 0.15 0.14 0.14 0.15 0.15 0.14 0.13 0.13 0.12 0.12 0.12 0.12 0.12 0.14 0.16 0.17 0.15 0.15 0.15 0.16 0.17 0.15 0.15 0.18 0.19 0.19 0.19 0.21 0.23 0.25 0.26 0.29 0.31 0.31 0.31 0.30 0.30 0.30 0.30 0.30 0.30 0.29 0.28
0.14 0.13 0.13 0.12 0.12 0.13 0.13 0.13 0.13 0.12 0.13 0.13 0.12 0.11 0.11 0.12 0.13 0.14 0.15 0.15 0.15 0.17 0.16 0.17 0.19 0.21 0.20 0.21 0.23 0.25 0.27 0.28 0.30 0.30 0.28 0.28 0.29 0.30 0.30 0.29 0.29 0.29 0.28 0.26
0.12 0.12 0.11 0.11 0.10 0.10 0.12 0.13 0.14 0.14 0.15 0.16 0.15 0.13 0.13 0.14 0.14 0.14 0.15 0.15 0.15 0.15 0.15 0.16 0.17 0.18 0.20 0.21 0.23 0.24 0.25 0.26 0.26 0.27 0.27 0.28 0.29 0.29 0.29 0.29 0.29 0.28 0.27 0.27

GEFSNGP_prec_meanprecacc_192.txt.gz
Total_Precipitation_Accumulation
0.43 0.34 0.51 0.52 0.50 0.61 0.92 0.90 0.83 0.39 0.22 0.18 0.21 0.27 0.26 0.24 0.21 0.21 0.23 0.24 0.25 0.26 0.26 0.25 0.23 0.21 0.18 0.18 0.21 0.25 0.29 0.32 0.35 0.39 0.41 0.43 0.43 0.45 0.48 0.50 0.55 0.57 0.60 0.61
0.50 0.30 0.41 0.48 0.44 0.47 0.52 0.55 0.55 0.40 0.32 0.23 0.23 0.24 0.24 0.21 0.19 0.19 0.20 0.22 0.23 0.21 0.23 0.22 0.24 0.24 0.22 0.21 0.21 0.23 0.26 0.27 0.30 0.34 0.37 0.41 0.44 0.44 0.45 0.49 0.55 0.59 0.65 0.71
0.62 0.33 0.46 0.52 0.43 0.44 0.44 0.41 0.45 0.48 0.38 0.27 0.27 0.26 0.24 0.22 0.18 0.17 0.15 0.15 0.17 0.19 0.21 0.20 0.20 0.20 0.19 0.19 0.19 0.21 0.24 0.25 0.28 0.31 0.36 0.39 0.45 0.48 0.53 0.59 0.66 0.72 0.76 0.86
0.71 0.47 0.59 0.39 0.30 0.33 0.37 0.37 0.40 0.38 0.30 0.25 0.25 0.25 0.24 0.20 0.17 0.14 0.11 0.09 0.10 0.12 0.14 0.14 0.14 0.15 0.17 0.16 0.17 0.19 0.23 0.28 0.31 0.33 0.42 0.49 0.51 0.56 0.63 0.70 0.78 0.84 0.84 0.86
0.81 0.58 0.34 0.21 0.21 0.24 0.33 0.38 0.34 0.26 0.19 0.17 0.19 0.23 0.23 0.18 0.14 0.12 0.10 0.10 0.09 0.10 0.12 0.12 0.13 0.14 0.17 0.19 0.20 0.20 0.24 0.30 0.35 0.37 0.47 0.57 0.58 0.62 0.67 0.72 0.79 0.82 0.81 0.77
0.81 0.67 0.30 0.17 0.10 0.11 0.23 0.41 0.27 0.22 0.20 0.20 0.22 0.27 0.23 0.16 0.14 0.14 0.13 0.11 0.12 0.12 0.13 0.16 0.18 0.20 0.22 0.25 0.30 0.32 0.34 0.39 0.45 0.52 0.60 0.65 0.65 0.65 0.63 0.62 0.64 0.63 0.59 0.56
0.68 0.63 0.24 0.13 0.08 0.10 0.33 0.41 0.19 0.16 0.18 0.21 0.22 0.21 0.18 0.13 0.11 0.14 0.16 0.16 0.15 0.16 0.19 0.21 0.22 0.24 0.27 0.30 0.39 0.44 0.46 0.50 0.52 0.57 0.61 0.60 0.60 0.57 0.54 0.48 0.46 0.45 0.44 0.43
0.41 0.59 0.33 0.13 0.11 0.20 0.27 0.18 0.16 0.17 0.19 0.19 0.19 0.15 0.14 0.15 0.13 0.11 0.12 0.14 0.16 0.19 0.22 0.25 0.28 0.33 0.35 0.38 0.43 0.45 0.46 0.47 0.47 0.46 0.47 0.49 0.48 0.48 0.44 0.42 0.39 0.38 0.39 0.41
0.26 0.27 0.18 0.14 0.13 0.14 0.13 0.13 0.12 0.14 0.15 0.16 0.16 0.16 0.13 0.12 0.11 0.10 0.11 0.13 0.16 0.20 0.25 0.28 0.29 0.33 0.35 0.36 0.36 0.36 0.37 0.37 0.35 0.32 0.32 0.34 0.34 0.36 0.37 0.36 0.35 0.36 0.39 0.42
0.22 0.17 0.13 0.12 0.10 0.09 0.08 0.08 0.07 0.07 0.09 0.13 0.16 0.15 0.14 0.12 0.11 0.09 0.09 0.10 0.13 0.15 0.17 0.20 0.22 0.24 0.25 0.25 0.25 0.24 0.24 0.25 0.25 0.23 0.24 0.26 0.27 0.30 0.31 0.32 0.32 0.32 0.36 0.42
0.20 0.14 0.12 0.10 0.08 0.07 0.07 0.06 0.05 0.04 0.05 0.08 0.10 0.10 0.11 0.12 0.10 0.10 0.09 0.10 0.10 0.10 0.11 0.13 0.14 0.15 0.16 0.15 0.16 0.18 0.18 0.18 0.19 0.21 0.22 0.24 0.27 0.30 0.34 0.34 0.39 0.39 0.36 0.38
0.20 0.12 0.13 0.12 0.08 0.07 0.08 0.07 0.06 0.06 0.06 0.06 0.07 0.07 0.07 0.07 0.07 0.08 0.09 0.10 0.10 0.10 0.12 0.14 0.14 0.13 0.12 0.12 0.13 0.16 0.18 0.18 0.20 0.21 0.21 0.23 0.25 0.29 0.34 0.36 0.40 0.42 0.42 0.41
0.10 0.08 0.08 0.07 0.05 0.04 0.05 0.05 0.05 0.05 0.06 0.07 0.07 0.07 0.07 0.08 0.09 0.10 0.12 0.13 0.13 0.12 0.11 0.13 0.14 0.14 0.13 0.14 0.15 0.16 0.18 0.20 0.21 0.22 0.23 0.23 0.24 0.27 0.29 0.31 0.34 0.36 0.38 0.41
0.06 0.07 0.08 0.06 0.04 0.03 0.04 0.05 0.05 0.05 0.06 0.07 0.08 0.08 0.08 0.08 0.10 0.12 0.14 0.15 0.15 0.14 0.13 0.12 0.13 0.15 0.15 0.15 0.16 0.18 0.20 0.23 0.24 0.23 0.23 0.23 0.24 0.25 0.27 0.28 0.27 0.26 0.28 0.34
0.04 0.06 0.08 0.07 0.06 0.06 0.06 0.06 0.06 0.06 0.07 0.07 0.07 0.07 0.09 0.10 0.11 0.13 0.13 0.14 0.15 0.15 0.14 0.14 0.14 0.14 0.16 0.17 0.17 0.17 0.19 0.21 0.23 0.23 0.25 0.26 0.26 0.27 0.27 0.28 0.28 0.27 0.27 0.30
0.06 0.05 0.06 0.06 0.06 0.07 0.07 0.07 0.08 0.08 0.08 0.09 0.10 0.11 0.12 0.13 0.12 0.11 0.11 0.12 0.13 0.13 0.12 0.11 0.13 0.14 0.13 0.15 0.16 0.16 0.17 0.22 0.23 0.22 0.22 0.24 0.27 0.28 0.28 0.29 0.30 0.30 0.29 0.30
0.10 0.10 0.10 0.10 0.09 0.08 0.07 0.07 0.08 0.10 0.11 0.12 0.13 0.14 0.13 0.13 0.12 0.11 0.11 0.11 0.12 0.13 0.14 0.15 0.15 0.13 0.12 0.13 0.14 0.14 0.15 0.18 0.24 0.23 0.23 0.23 0.24 0.26 0.27 0.29 0.29 0.29 0.28 0.33
0.11 0.12 0.12 0.13 0.12 0.11 0.09 0.09 0.09 0.10 0.11 0.12 0.12 0.13 0.14 0.14 0.14 0.13 0.13 0.13 0.12 0.12 0.12 0.13 0.13 0.11 0.11 0.13 0.15 0.16 0.16 0.16 0.17 0.19 0.21 0.25 0.28 0.27 0.28 0.28 0.28 0.28 0.29 0.33
0.11 0.10 0.10 0.10 0.11 0.11 0.11 0.10 0.10 0.10 0.11 0.12 0.13 0.14 0.14 0.14 0.14 0.13 0.13 0.14 0.15 0.15 0.14 0.13 0.15 0.13 0.11 0.13 0.16 0.15 0.17 0.18 0.19 0.20 0.23 0.28 0.31 0.28 0.28 0.29 0.29 0.29 0.31 0.33
0.07 0.08 0.10 0.11 0.12 0.12 0.13 0.12 0.12 0.12 0.12 0.13 0.13 0.14 0.14 0.15 0.15 0.14 0.14 0.14 0.15 0.16 0.15 0.15 0.15 0.13 0.13 0.14 0.18 0.15 0.16 0.18 0.20 0.22 0.25 0.28 0.28 0.28 0.28 0.29 0.30 0.30 0.31 0.32
0.10 0.10 0.12 0.14 0.15 0.15 0.15 0.14 0.14 0.13 0.12 0.12 0.13 0.15 0.15 0.16 0.17 0.17 0.18 0.17 0.15 0.14 0.14 0.15 0.13 0.13 0.14 0.17 0.21 0.19 0.19 0.20 0.21 0.23 0.26 0.28 0.29 0.29 0.28 0.29 0.30 0.30 0.31 0.31
0.13 0.13 0.15 0.17 0.19 0.19 0.17 0.15 0.14 0.13 0.12 0.12 0.12 0.13 0.13 0.14 0.15 0.16 0.17 0.18 0.18 0.18 0.15 0.12 0.12 0.14 0.18 0.22 0.21 0.21 0.22 0.23 0.24 0.25 0.27 0.28 0.30 0.31 0.30 0.31 0.33 0.33 0.33 0.33
0.14 0.15 0.16 0.17 0.18 0.19 0.18 0.17 0.16 0.15 0.14 0.14 0.15 0.15 0.16 0.16 0.16 0.17 0.17 0.15 0.15 0.16 0.14 0.11 0.13 0.17 0.20 0.19 0.18 0.20 0.22 0.25 0.26 0.27 0.28 0.29 0.31 0.33 0.34 0.33 0.32 0.32 0.33 0.33
0.17 0.16 0.16 0.15 0.15 0.15 0.15 0.15 0.15 0.15 0.15 0.15 0.16 0.16 0.18 0.18 0.15 0.14 0.15 0.17 0.17 0.17 0.14 0.13 0.16 0.18 0.20 0.18 0.18 0.21 0.23 0.25 0.27 0.28 0.30 0.31 0.32 0.32 0.33 0.33 0.32 0.30 0.30 0.31
0.17 0.16 0.15 0.15 0.15 0.15 0.15 0.14 0.13 0.12 0.13 0.13 0.13 0.13 0.14 0.16 0.18 0.16 0.15 0.16 0.17 0.18 0.16 0.16 0.19 0.20 0.20 0.19 0.21 0.24 0.26 0.27 0.30 0.33 0.33 0.33 0.31 0.32 0.31 0.31 0.32 0.31 0.30 0.29
0.14 0.14 0.13 0.13 0.13 0.13 0.14 0.14 0.14 0.13 0.13 0.14 0.12 0.12 0.12 0.13 0.14 0.15 0.15 0.16 0.16 0.17 0.17 0.18 0.20 0.21 0.21 0.22 0.24 0.26 0.27 0.29 0.31 0.31 0.30 0.30 0.30 0.32 0.31 0.31 0.30 0.31 0.29 0.28
0.13 0.12 0.12 0.11 0.10 0.11 0.12 0.14 0.15 0.15 0.15 0.17 0.16 0.14 0.14 0.14 0.15 0.15 0.15 0.16 0.16 0.16 0.16 0.17 0.18 0.19 0.20 0.22 0.24 0.25 0.26 0.27 0.27 0.28 0.28 0.30 0.30 0.31 0.31 0.31 0.31 0.30 0.29 0.29

GEFSNGP_prec_meanprecacc_198.txt.gz
Total_Precipitation_Accumulation
0.44 0.34 0.52 0.53 0.51 0.61 0.92 0.90 0.84 0.40 0.22 0.18 0.21 0.27 0.26 0.24 0.21 0.22 0.23 0.25 0.25 0.26 0.27 0.25 0.24 0.22 0.20 0.19 0.22 0.26 0.30 0.33 0.36 0.40 0.43 0.44 0.44 0.46 0.49 0.51 0.57 0.59 0.61 0.63
0.51 0.30 0.42 0.49 0.45 0.47 0.53 0.55 0.55 0.40 0.33 0.23 0.23 0.24 0.24 0.21 0.19 0.19 0.20 0.23 0.23 0.22 0.23 0.22 0.25 0.26 0.24 0.22 0.21 0.24 0.27 0.29 0.31 0.35 0.38 0.43 0.45 0.46 0.47 0.51 0.57 0.61 0.66 0.72
0.64 0.34 0.47 0.53 0.44 0.45 0.45 0.42 0.45 0.48 0.38 0.27 0.27 0.26 0.24 0.22 0.18 0.17 0.15 0.15 0.18 0.19 0.21 0.20 0.20 0.21 0.22 0.21 0.20 0.22 0.25 0.27 0.30 0.33 0.37 0.41 0.47 0.51 0.57 0.61 0.68 0.74 0.78 0.87
0.74 0.49 0.61 0.41 0.31 0.34 0.38 0.38 0.41 0.39 0.30 0.25 0.25 0.25 0.24 0.20 0.17 0.14 0.11 0.09 0.10 0.12 0.14 0.14 0.14 0.15 0.18 0.19 0.18 0.20 0.24 0.30 0.33 0.35 0.44 0.51 0.53 0.59 0.68 0.73 0.80 0.86 0.86 0.88
0.85 0.61 0.36 0.22 0.21 0.25 0.34 0.39 0.35 0.27 0.20 0.18 0.19 0.23 0.23 0.18 0.14 0.12 0.10 0.10 0.09 0.10 0.12 0.12 0.13 0.15 0.18 0.21 0.22 0.21 0.25 0.32 0.37 0.38 0.49 0.59 0.60 0.64 0.71 0.76 0.82 0.84 0.83 0.79
0.87 0.71 0.32 0.18 0.10 0.11 0.24 0.42 0.29 0.23 0.21 0.21 0.23 0.28 0.24 0.17 0.14 0.14 0.13 0.11 0.12 0.12 0.13 0.16 0.18 0.20 0.23 0.26 0.32 0.34 0.35 0.40 0.47 0.53 0.62 0.67 0.67 0.67 0.66 0.67 0.69 0.66 0.62 0.58
0.72 0.67 0.26 0.14 0.08 0.11 0.34 0.42 0.20 0.17 0.19 0.22 0.24 0.23 0.19 0.14 0.12 0.14 0.16 0.16 0.15 0.16 0.19 0.21 0.22 0.24 0.27 0.31 0.41 0.45 0.47 0.51 0.54 0.59 0.62 0.63 0.62 0.60 0.56 0.52 0.52 0.49 0.47 0.46
0.45 0.64 0.37 0.15 0.11 0.21 0.29 0.19 0.17 0.18 0.19 0.20 0.20 0.16 0.14 0.16 0.13 0.11 0.12 0.14 0.17 0.19 0.22 0.25 0.29 0.34 0.36 0.38 0.44 0.46 0.47 0.49 0.49 0.49 0.50 0.52 0.52 0.52 0.49 0.47 0.46 0.45 0.43 0.45
0.31 0.33 0.22 0.16 0.16 0.17 0.15 0.14 0.13 0.15 0.16 0.16 0.17 0.16 0.13 0.12 0.12 0.11 0.11 0.13 0.16 0.21 0.25 0.29 0.30 0.33 0.36 0.36 0.36 0.37 0.38 0.39 0.38 0.36 0.36 0.38 0.39 0.40 0.41 0.41 0.41 0.43 0.45 0.46
0.27 0.22 0.15 0.14 0.12 0.11 0.10 0.09 0.08 0.08 0.10 0.14 0.17 0.16 0.14 0.12 0.11 0.09 0.09 0.10 0.13 0.15 0.17 0.20 0.22 0.24 0.26 0.26 0.26 0.26 0.26 0.28 0.29 0.27 0.27 0.29 0.29 0.33 0.35 0.37 0.37 0.38 0.42 0.46
0.24 0.18 0.14 0.12 0.09 0.08 0.08 0.07 0.06 0.05 0.05 0.08 0.11 0.11 0.11 0.12 0.10 0.10 0.09 0.10 0.10 0.11 0.12 0.13 0.15 0.16 0.17 0.17 0.18 0.20 0.20 0.20 0.22 0.24 0.24 0.26 0.29 0.33 0.37 0.39 0.44 0.43 0.41 0.42
0.25 0.16 0.16 0.14 0.09 0.08 0.08 0.07 0.06 0.06 0.06 0.06 0.07 0.08 0.07 0.07 0.07 0.08 0.09 0.10 0.10 0.10 0.12 0.15 0.15 0.13 0.13 0.12 0.14 0.17 0.19 0.19 0.21 0.23 0.23 0.25 0.27 0.32 0.37 0.40 0.45 0.47 0.47 0.45
0.12 0.10 0.10 0.09 0.06 0.05 0.06 0.06 0.05 0.06 0.06 0.07 0.07 0.07 0.08 0.08 0.09 0.11 0.12 0.13 0.13 0.12 0.12 0.13 0.15 0.15 0.14 0.14 0.15 0.16 0.19 0.21 0.22 0.23 0.25 0.25 0.26 0.30 0.32 0.34 0.38 0.41 0.44 0.46
0.07 0.08 0.09 0.07 0.05 0.05 0.05 0.05 0.05 0.05 0.06 0.07 0.09 0.09 0.08 0.08 0.10 0.12 0.14 0.15 0.16 0.14 0.13 0.13 0.13 0.15 0.15 0.15 0.16 0.19 0.20 0.24 0.25 0.24 0.25 0.25 0.26 0.28 0.30 0.32 0.31 0.30 0.34 0.40
0.05 0.06 0.09 0.08 0.06 0.06 0.06 0.07 0.07 0.07 0.07 0.07 0.07 0.08 0.09 0.11 0.12 0.13 0.13 0.14 0.15 0.15 0.14 0.14 0.14 0.15 0.16 0.17 0.17 0.17 0.20 0.21 0.23 0.24 0.26 0.27 0.28 0.29 0.30 0.31 0.32 0.31 0.32 0.36
0.06 0.06 0.06 0.06 0.06 0.07 0.07 0.07 0.08 0.09 0.08 0.09 0.10 0.11 0.13 0.13 0.13 0.12 0.12 0.13 0.14 0.13 0.12 0.12 0.13 0.14 0.14 0.15 0.16 0.16 0.17 0.23 0.24 0.23 0.23 0.25 0.28 0.30 0.30 0.32 0.32 0.33 0.33 0.34
0.10 0.10 0.10 0.10 0.09 0.08 0.07 0.08 0.09 0.11 0.11 0.12 0.14 0.14 0.14 0.14 0.12 0.11 0.11 0.12 0.12 0.13 0.14 0.15 0.15 0.13 0.13 0.13 0.15 0.15 0.16 0.19 0.24 0.24 0.23 0.25 0.25 0.27 0.29 0.31 0.32 0.31 0.30 0.36
0.12 0.12 0.12 0.13 0.13 0.12 0.10 0.09 0.09 0.10 0.12 0.12 0.13 0.14 0.15 0.15 0.15 0.14 0.13 0.13 0.13 0.12 0.12 0.13 0.13 0.12 0.11 0.13 0.16 0.16 0.17 0.17 0.18 0.20 0.22 0.26 0.29 0.28 0.29 0.30 0.30 0.30 0.31 0.35
0.11 0.10 0.10 0.10 0.11 0.12 0.11 0.10 0.10 0.11 0.12 0.12 0.13 0.15 0.15 0.15 0.15 0.14 0.14 0.14 0.15 0.15 0.14 0.13 0.15 0.13 0.11 0.13 0.16 0.16 0.17 0.18 0.19 0.21 0.23 0.29 0.32 0.29 0.30 0.30 0.30 0.31 0.33 0.35
0.08 0.09 0.10 0.11 0.12 0.12 0.13 0.12 0.12 0.12 0.12 0.13 0.14 0.14 0.15 0.16 0.16 0.16 0.15 0.15 0.15 0.17 0.15 0.16 0.15 0.13 0.13 0.14 0.18 0.16 0.16 0.18 0.21 0.23 0.25 0.28 0.29 0.29 0.29 0.30 0.31 0.31 0.32 0.33
0.10 0.11 0.12 0.14 0.15 0.15 0.15 0.14 0.14 0.14 0.13 0.12 0.14 0.15 0.16 0.18 0.18 0.19 0.19 0.18 0.15 0.15 0.14 0.15 0.14 0.13 0.14 0.18 0.21 0.20 0.20 0.21 0.22 0.24 0.27 0.29 0.30 0.30 0.29 0.30 0.31 0.31 0.32 0.32
0.14 0.14 0.15 0.17 0.19 0.19 0.17 0.15 0.14 0.14 0.13 0.12 0.13 0.13 0.14 0.15 0.16 0.17 0.18 0.19 0.19 0.19 0.15 0.13 0.12 0.15 0.19 0.22 0.21 0.21 0.23 0.24 0.25 0.26 0.28 0.30 0.32 0.32 0.31 0.32 0.34 0.34 0.34 0.34
0.15 0.15 0.16 0.17 0.19 0.20 0.19 0.17 0.16 0.15 0.14 0.14 0.15 0.16 0.17 0.18 0.18 0.19 0.19 0.16 0.16 0.17 0.15 0.12 0.14 0.18 0.21 0.20 0.19 0.21 0.23 0.25 0.27 0.28 0.29 0.31 0.32 0.34 0.35 0.34 0.33 0.33 0.34 0.34
0.17 0.16 0.16 0.16 0.16 0.16 0.16 0.15 0.15 0.16 0.16 0.16 0.16 0.17 0.19 0.19 0.17 0.15 0.17 0.18 0.19 0.18 0.16 0.14 0.17 0.19 0.21 0.19 0.19 0.22 0.24 0.26 0.28 0.29 0.30 0.32 0.33 0.34 0.34 0.34 0.33 0.31 0.31 0.32
0.17 0.16 0.16 0.15 0.16 0.16 0.15 0.14 0.13 0.13 0.13 0.14 0.13 0.14 0.15 0.17 0.19 0.18 0.17 0.18 0.18 0.19 0.17 0.17 0.20 0.21 0.21 0.20 0.22 0.24 0.26 0.28 0.31 0.33 0.34 0.33 0.32 0.32 0.32 0.32 0.33 0.33 0.32 0.30
0.15 0.14 0.14 0.13 0.14 0.14 0.14 0.14 0.14 0.13 0.14 0.14 0.13 0.12 0.13 0.14 0.15 0.16 0.17 0.17 0.17 0.18 0.18 0.19 0.20 0.22 0.22 0.23 0.24 0.26 0.28 0.30 0.31 0.31 0.30 0.31 0.31 0.33 0.32 0.32 0.32 0.32 0.31 0.30
0.13 0.12 0.12 0.12 0.10 0.11 0.13 0.14 0.16 0.16 0.16 0.17 0.17 0.15 0.15 0.15 0.15 0.16 0.16 0.16 0.16 0.16 0.17 0.17 0.18 0.20 0.21 0.23 0.25 0.25 0.26 0.27 0.28 0.29 0.29 0.30 0.31 0.32 0.32 0.32 0.32 0.32 0.31 0.30

GEFSNGP_prec_meanprecacc_204.txt.gz
Total_Precipitation_Accumulation
0.46 0.36 0.53 0.55 0.51 0.62 0.93 0.92 0.85 0.40 0.22 0.18 0.21 0.28 0.27 0.24 0.21 0.22 0.23 0.25 0.26 0.27 0.27 0.26 0.25 0.24 0.21 0.21 0.23 0.27 0.31 0.33 0.36 0.42 0.45 0.47 0.46 0.49 0.51 0.53 0.58 0.60 0.62 0.63
0.52 0.31 0.43 0.50 0.46 0.48 0.53 0.56 0.56 0.40 0.33 0.23 0.23 0.24 0.24 0.21 0.19 0.19 0.20 0.23 0.24 0.22 0.24 0.23 0.26 0.28 0.26 0.24 0.23 0.25 0.28 0.29 0.32 0.36 0.40 0.45 0.48 0.48 0.50 0.53 0.58 0.62 0.67 0.73
0.65 0.35 0.49 0.55 0.45 0.46 0.46 0.43 0.46 0.49 0.39 0.28 0.27 0.26 0.25 0.22 0.18 0.17 0.15 0.15 0.18 0.19 0.21 0.21 0.21 0.23 0.24 0.24 0.22 0.23 0.26 0.27 0.30 0.34 0.39 0.42 0.48 0.53 0.59 0.63 0.70 0.76 0.79 0.88
0.77 0.51 0.64 0.42 0.32 0.34 0.39 0.40 0.42 0.40 0.31 0.25 0.25 0.25 0.24 0.21 0.17 0.14 0.11 0.09 0.10 0.13 0.14 0.14 0.15 0.16 0.21 0.21 0.21 0.22 0.26 0.31 0.34 0.36 0.45 0.52 0.54 0.60 0.69 0.75 0.82 0.88 0.87 0.89
0.89 0.64 0.38 0.23 0.22 0.25 0.35 0.41 0.37 0.28 0.21 0.18 0.19 0.23 0.23 0.19 0.14 0.12 0.10 0.10 0.09 0.10 0.13 0.13 0.14 0.16 0.20 0.23 0.24 0.24 0.27 0.33 0.38 0.40 0.50 0.60 0.61 0.65 0.72 0.78 0.84 0.86 0.84 0.80
0.93 0.75 0.35 0.20 0.11 0.12 0.25 0.44 0.30 0.24 0.22 0.22 0.24 0.29 0.24 0.17 0.14 0.14 0.13 0.11 0.12 0.12 0.13 0.16 0.19 0.21 0.25 0.28 0.35 0.37 0.37 0.41 0.48 0.55 0.63 0.68 0.68 0.68 0.67 0.68 0.70 0.68 0.64 0.60
0.79 0.72 0.29 0.16 0.09 0.12 0.36 0.44 0.20 0.18 0.20 0.23 0.25 0.24 0.20 0.14 0.12 0.14 0.16 0.16 0.15 0.16 0.19 0.22 0.22 0.24 0.28 0.32 0.42 0.48 0.50 0.52 0.55 0.60 0.63 0.63 0.63 0.60 0.57 0.54 0.54 0.52 0.50 0.48
0.51 0.70 0.41 0.17 0.13 0.23 0.32 0.20 0.17 0.18 0.20 0.21 0.21 0.17 0.15 0.17 0.14 0.12 0.12 0.14 0.17 0.20 0.23 0.25 0.29 0.34 0.36 0.39 0.44 0.48 0.50 0.51 0.50 0.50 0.51 0.53 0.53 0.53 0.50 0.48 0.48 0.47 0.47 0.49
0.38 0.39 0.26 0.18 0.18 0.19 0.16 0.15 0.14 0.16 0.17 0.17 0.17 0.17 0.14 0.13 0.12 0.11 0.12 0.13 0.16 0.21 0.26 0.29 0.31 0.34 0.37 0.37 0.37 0.39 0.40 0.42 0.41 0.38 0.37 0.38 0.40 0.42 0.43 0.43 0.43 0.46 0.48 0.50
0.32 0.27 0.19 0.17 0.14 0.12 0.10 0.10 0.09 0.09 0.11 0.15 0.17 0.16 0.15 0.13 0.12 0.10 0.10 0.11 0.13 0.16 0.18 0.21 0.22 0.25 0.27 0.27 0.27 0.27 0.28 0.31 0.32 0.30 0.28 0.30 0.31 0.34 0.36 0.38 0.38 0.39 0.43 0.48
0.29 0.22 0.17 0.15 0.11 0.09 0.09 0.08 0.06 0.05 0.06 0.09 0.11 0.11 0.12 0.13 0.11 0.10 0.10 0.10 0.11 0.11 0.12 0.14 0.15 0.16 0.18 0.18 0.19 0.22 0.22 0.22 0.24 0.26 0.26 0.28 0.30 0.34 0.38 0.40 0.45 0.45 0.42 0.43
0.29 0.20 0.20 0.18 0.12 0.10 0.10 0.08 0.07 0.06 0.06 0.06 0.07 0.08 0.07 0.08 0.07 0.08 0.10 0.10 0.11 0.11 0.12 0.16 0.15 0.14 0.13 0.13 0.14 0.19 0.21 0.21 0.23 0.25 0.25 0.26 0.28 0.32 0.38 0.41 0.46 0.48 0.48 0.47
0.16 0.13 0.13 0.12 0.08 0.07 0.07 0.07 0.06 0.06 0.07 0.08 0.08 0.08 0.08 0.08 0.09 0.11 0.13 0.14 0.14 0.13 0.12 0.14 0.15 0.15 0.14 0.14 0.15 0.17 0.21 0.23 0.23 0.25 0.27 0.27 0.28 0.31 0.33 0.35 0.40 0.43 0.46 0.48
0.09 0.10 0.11 0.09 0.07 0.06 0.06 0.06 0.06 0.06 0.06 0.08 0.09 0.09 0.09 0.09 0.11 0.13 0.15 0.16 0.16 0.15 0.14 0.13 0.13 0.16 0.16 0.15 0.17 0.19 0.21 0.25 0.27 0.26 0.27 0.27 0.28 0.29 0.31 0.34 0.33 0.33 0.37 0.44
0.05 0.07 0.10 0.09 0.07 0.07 0.07 0.08 0.08 0.07 0.07 0.07 0.08 0.09 0.10 0.11 0.13 0.14 0.14 0.15 0.16 0.15 0.14 0.14 0.14 0.15 0.16 0.17 0.17 0.18 0.20 0.23 0.25 0.26 0.28 0.30 0.30 0.30 0.32 0.34 0.34 0.34 0.35 0.41
0.06 0.06 0.06 0.06 0.07 0.07 0.07 0.09 0.10 0.09 0.09 0.09 0.10 0.12 0.13 0.14 0.13 0.12 0.12 0.13 0.14 0.14 0.12 0.12 0.13 0.14 0.14 0.16 0.17 0.16 0.18 0.24 0.26 0.25 0.25 0.27 0.30 0.32 0.32 0.34 0.35 0.36 0.37 0.40
0.12 0.11 0.11 0.11 0.10 0.09 0.08 0.08 0.10 0.12 0.12 0.13 0.14 0.15 0.15 0.14 0.13 0.12 0.12 0.12 0.13 0.14 0.15 0.15 0.15 0.14 0.13 0.14 0.15 0.15 0.16 0.19 0.25 0.25 0.25 0.27 0.28 0.30 0.31 0.33 0.35 0.35 0.35 0.41
0.13 0.13 0.13 0.14 0.13 0.12 0.11 0.10 0.10 0.11 0.12 0.13 0.13 0.14 0.15 0.16 0.16 0.14 0.14 0.14 0.13 0.13 0.13 0.13 0.13 0.12 0.12 0.13 0.16 0.17 0.17 0.18 0.19 0.21 0.24 0.28 0.31 0.31 0.32 0.33 0.33 0.34 0.36 0.41
0.12 0.11 0.10 0.11 0.12 0.13 0.12 0.11 0.11 0.11 0.12 0.12 0.13 0.15 0.16 0.16 0.16 0.15 0.14 0.15 0.16 0.16 0.15 0.13 0.15 0.13 0.12 0.14 0.17 0.16 0.18 0.19 0.20 0.22 0.25 0.31 0.34 0.31 0.33 0.33 0.33 0.34 0.37 0.39
0.08 0.09 0.11 0.12 0.13 0.13 0.13 0.12 0.12 0.13 0.13 0.13 0.14 0.14 0.15 0.17 0.17 0.16 0.16 0.16 0.16 0.18 0.17 0.16 0.16 0.14 0.13 0.14 0.18 0.16 0.17 0.19 0.21 0.23 0.26 0.30 0.31 0.31 0.31 0.33 0.34 0.34 0.35 0.36
0.11 0.11 0.13 0.15 0.15 0.15 0.15 0.15 0.14 0.14 0.13 0.13 0.14 0.15 0.17 0.18 0.19 0.20 0.20 0.19 0.16 0.16 0.16 0.16 0.14 0.13 0.15 0.18 0.22 0.20 0.20 0.21 0.23 0.24 0.27 0.30 0.31 0.31 0.31 0.32 0.34 0.34 0.34 0.35
0.14 0.15 0.16 0.18 0.19 0.19 0.18 0.16 0.15 0.14 0.13 0.13 0.13 0.14 0.14 0.15 0.17 0.18 0.19 0.20 0.20 0.20 0.17 0.14 0.13 0.15 0.19 0.23 0.22 0.22 0.23 0.25 0.26 0.27 0.29 0.30 0.33 0.33 0.33 0.34 0.36 0.36 0.36 0.36
0.15 0.16 0.17 0.18 0.19 0.20 0.19 0.18 0.17 0.16 0.15 0.15 0.16 0.17 0.18 0.19 0.19 0.20 0.20 0.17 0.17 0.18 0.16 0.13 0.15 0.19 0.21 0.21 0.20 0.21 0.24 0.26 0.27 0.29 0.30 0.31 0.33 0.35 0.36 0.35 0.35 0.35 0.36 0.37
0.18 0.17 0.17 0.17 0.17 0.16 0.16 0.16 0.16 0.16 0.16 0.16 0.17 0.18 0.20 0.20 0.18 0.16 0.18 0.19 0.20 0.19 0.17 0.15 0.18 0.20 0.21 0.20 0.20 0.23 0.24 0.26 0.28 0.30 0.31 0.33 0.34 0.35 0.35 0.35 0.35 0.33 0.32 0.33
0.18 0.17 0.16 0.16 0.17 0.17 0.16 0.15 0.14 0.13 0.14 0.14 0.14 0.14 0.16 0.18 0.20 0.19 0.18 0.19 0.19 0.20 0.18 0.18 0.21 0.22 0.22 0.21 0.23 0.25 0.27 0.29 0.32 0.34 0.35 0.34 0.33 0.33 0.33 0.33 0.34 0.34 0.32 0.31
0.16 0.15 0.15 0.14 0.15 0.15 0.16 0.16 0.15 0.14 0.14 0.15 0.13 0.13 0.13 0.14 0.16 0.17 0.18 0.18 0.18 0.19 0.19 0.20 0.21 0.23 0.23 0.23 0.25 0.27 0.28 0.30 0.32 0.32 0.31 0.31 0.32 0.33 0.33 0.33 0.32 0.32 0.32 0.30
0.14 0.13 0.13 0.13 0.11 0.12 0.14 0.16 0.17 0.17 0.17 0.18 0.18 0.15 0.15 0.16 0.16 0.16 0.17 0.17 0.17 0.17 0.18 0.18 0.19 0.21 0.22 0.24 0.25 0.26 0.27 0.28 0.29 0.29 0.30 0.31 0.32 0.33 0.32 0.33 0.33 0.32 0.31 0.31

GEFSNGP_prec_meanprecacc_210.txt.gz
Total_Precipitation_Accumulation
0.48 0.38 0.56 0.58 0.54 0.64 0.96 0.95 0.88 0.42 0.23 0.19 0.22 0.28 0.27 0.24 0.21 0.22 0.24 0.26 0.26 0.27 0.28 0.27 0.26 0.24 0.22 0.21 0.24 0.28 0.32 0.35 0.37 0.43 0.48 0.50 0.49 0.50 0.53 0.55 0.61 0.63 0.65 0.67
0.53 0.32 0.44 0.52 0.47 0.49 0.55 0.58 0.57 0.41 0.33 0.24 0.23 0.25 0.24 0.21 0.19 0.20 0.20 0.23 0.24 0.22 0.25 0.24 0.26 0.28 0.27 0.25 0.24 0.26 0.29 0.31 0.33 0.36 0.41 0.46 0.50 0.51 0.51 0.54 0.61 0.65 0.70 0.75
0.67 0.36 0.50 0.57 0.46 0.47 0.47 0.44 0.48 0.51 0.40 0.28 0.28 0.27 0.25 0.22 0.19 0.17 0.15 0.15 0.18 0.19 0.21 0.21 0.22 0.24 0.25 0.25 0.23 0.25 0.27 0.28 0.31 0.35 0.39 0.42 0.49 0.54 0.61 0.64 0.72 0.78 0.81 0.90
0.80 0.53 0.67 0.44 0.32 0.35 0.40 0.41 0.44 0.42 0.32 0.26 0.26 0.26 0.25 0.21 0.18 0.14 0.11 0.09 0.10 0.13 0.14 0.14 0.15 0.17 0.21 0.22 0.23 0.23 0.27 0.33 0.35 0.37 0.46 0.53 0.54 0.61 0.70 0.77 0.83 0.89 0.88 0.90
0.94 0.68 0.40 0.24 0.22 0.26 0.36 0.42 0.38 0.30 0.22 0.19 0.20 0.24 0.24 0.20 0.15 0.13 0.11 0.10 0.10 0.10 0.13 0.13 0.14 0.16 0.20 0.24 0.25 0.25 0.28 0.35 0.39 0.41 0.51 0.61 0.61 0.65 0.73 0.79 0.85 0.87 0.86 0.82
1.01 0.82 0.38 0.22 0.12 0.12 0.26 0.46 0.31 0.25 0.23 0.23 0.25 0.31 0.26 0.18 0.16 0.15 0.14 0.12 0.13 0.13 0.14 0.17 0.19 0.22 0.26 0.29 0.37 0.39 0.39 0.43 0.50 0.57 0.65 0.69 0.69 0.69 0.68 0.69 0.71 0.70 0.66 0.61
0.85 0.77 0.32 0.17 0.10 0.13 0.39 0.48 0.22 0.19 0.20 0.23 0.26 0.25 0.22 0.15 0.13 0.16 0.18 0.17 0.16 0.17 0.19 0.22 0.23 0.25 0.30 0.34 0.45 0.52 0.53 0.56 0.58 0.63 0.66 0.66 0.65 0.62 0.58 0.55 0.55 0.54 0.52 0.51
0.58 0.78 0.47 0.19 0.14 0.26 0.36 0.23 0.19 0.20 0.21 0.22 0.22 0.19 0.16 0.18 0.15 0.13 0.14 0.15 0.17 0.20 0.23 0.25 0.29 0.35 0.38 0.41 0.47 0.51 0.53 0.55 0.54 0.54 0.54 0.56 0.56 0.55 0.52 0.50 0.50 0.49 0.50 0.52
0.45 0.47 0.32 0.22 0.21 0.22 0.18 0.17 0.16 0.17 0.19 0.19 0.19 0.18 0.15 0.14 0.13 0.13 0.13 0.14 0.17 0.22 0.26 0.29 0.31 0.34 0.38 0.38 0.39 0.41 0.43 0.45 0.44 0.41 0.40 0.42 0.43 0.45 0.46 0.45 0.45 0.48 0.50 0.52
0.39 0.33 0.23 0.20 0.17 0.14 0.12 0.12 0.10 0.10 0.12 0.16 0.19 0.18 0.16 0.14 0.13 0.11 0.11 0.12 0.14 0.17 0.19 0.22 0.23 0.25 0.28 0.27 0.28 0.29 0.31 0.34 0.35 0.32 0.31 0.32 0.33 0.36 0.39 0.40 0.40 0.41 0.45 0.50
0.35 0.27 0.21 0.19 0.15 0.12 0.11 0.09 0.08 0.07 0.07 0.10 0.13 0.13 0.13 0.14 0.12 0.12 0.11 0.12 0.12 0.13 0.14 0.16 0.16 0.17 0.19 0.19 0.20 0.23 0.24 0.25 0.27 0.29 0.29 0.31 0.33 0.36 0.40 0.41 0.46 0.46 0.44 0.45
0.36 0.25 0.24 0.23 0.17 0.13 0.12 0.11 0.09 0.08 0.08 0.07 0.08 0.09 0.08 0.09 0.09 0.10 0.11 0.12 0.12 0.12 0.14 0.17 0.17 0.15 0.15 0.14 0.16 0.21 0.23 0.24 0.26 0.28 0.29 0.29 0.32 0.35 0.40 0.43 0.48 0.50 0.50 0.49
0.21 0.17 0.16 0.15 0.12 0.10 0.10 0.09 0.08 0.08 0.08 0.09 0.09 0.08 0.09 0.09 0.10 0.12 0.13 0.14 0.14 0.14 0.13 0.14 0.17 0.17 0.15 0.16 0.17 0.19 0.23 0.25 0.26 0.28 0.30 0.30 0.31 0.33 0.35 0.37 0.42 0.45 0.48 0.51
0.11 0.11 0.13 0.11 0.10 0.09 0.08 0.08 0.07 0.07 0.08 0.09 0.11 0.10 0.10 0.10 0.12 0.14 0.16 0.17 0.17 0.16 0.15 0.14 0.15 0.17 0.17 0.16 0.18 0.21 0.23 0.27 0.29 0.28 0.29 0.30 0.30 0.31 0.33 0.35 0.35 0.34 0.39 0.46
0.07 0.09 0.12 0.10 0.08 0.08 0.08 0.09 0.08 0.08 0.08 0.08 0.09 0.10 0.12 0.13 0.14 0.15 0.15 0.16 0.17 0.17 0.16 0.15 0.16 0.16 0.17 0.18 0.18 0.19 0.22 0.24 0.26 0.28 0.30 0.32 0.32 0.32 0.33 0.35 0.36 0.35 0.36 0.43
0.07 0.07 0.07 0.07 0.08 0.07 0.08 0.09 0.10 0.10 0.09 0.10 0.11 0.13 0.15 0.16 0.15 0.14 0.14 0.15 0.16 0.15 0.13 0.13 0.14 0.15 0.15 0.16 0.17 0.17 0.19 0.25 0.27 0.27 0.27 0.29 0.32 0.33 0.34 0.36 0.37 0.37 0.38 0.41
0.14 0.13 0.12 0.12 0.11 0.10 0.09 0.09 0.11 0.12 0.13 0.13 0.15 0.16 0.16 0.16 0.14 0.13 0.13 0.14 0.14 0.15 0.16 0.16 0.16 0.14 0.13 0.14 0.16 0.17 0.17 0.20 0.27 0.27 0.27 0.29 0.30 0.31 0.33 0.35 0.37 0.37 0.37 0.43
0.15 0.15 0.16 0.16 0.15 0.14 0.12 0.11 0.12 0.12 0.13 0.13 0.14 0.15 0.16 0.17 0.17 0.15 0.15 0.15 0.14 0.14 0.13 0.14 0.14 0.12 0.12 0.14 0.17 0.18 0.18 0.19 0.20 0.23 0.26 0.30 0.33 0.33 0.34 0.35 0.35 0.37 0.39 0.44
0.13 0.13 0.12 0.13 0.14 0.14 0.13 0.12 0.12 0.13 0.12 0.12 0.14 0.15 0.16 0.17 0.17 0.16 0.15 0.16 0.17 0.17 0.15 0.14 0.16 0.13 0.12 0.14 0.17 0.17 0.19 0.20 0.21 0.23 0.26 0.33 0.36 0.34 0.35 0.36 0.36 0.37 0.40 0.43
0.09 0.10 0.12 0.13 0.14 0.14 0.15 0.14 0.13 0.14 0.13 0.13 0.14 0.15 0.16 0.17 0.17 0.17 0.17 0.17 0.17 0.19 0.17 0.17 0.16 0.14 0.13 0.15 0.19 0.17 0.18 0.20 0.22 0.24 0.28 0.31 0.33 0.33 0.34 0.36 0.37 0.37 0.38 0.40
0.11 0.12 0.14 0.16 0.17 0.16 0.16 0.16 0.15 0.15 0.14 0.13 0.14 0.16 0.17 0.19 0.20 0.20 0.21 0.19 0.17 0.17 0.17 0.17 0.15 0.14 0.15 0.19 0.22 0.21 0.21 0.22 0.23 0.25 0.28 0.31 0.33 0.33 0.33 0.35 0.36 0.37 0.37 0.38
0.15 0.16 0.17 0.19 0.20 0.20 0.18 0.17 0.16 0.15 0.14 0.13 0.13 0.14 0.15 0.16 0.17 0.18 0.19 0.21 0.21 0.21 0.18 0.15 0.14 0.17 0.21 0.24 0.23 0.22 0.24 0.25 0.26 0.27 0.30 0.31 0.34 0.35 0.35 0.36 0.38 0.39 0.39 0.40
0.16 0.17 0.18 0.20 0.21 0.21 0.20 0.18 0.17 0.16 0.15 0.15 0.16 0.17 0.18 0.19 0.19 0.21 0.21 0.17 0.18 0.19 0.17 0.14 0.16 0.20 0.23 0.22 0.21 0.22 0.24 0.26 0.28 0.29 0.31 0.32 0.34 0.37 0.38 0.37 0.37 0.37 0.39 0.39
0.19 0.18 0.18 0.18 0.18 0.17 0.17 0.17 0.17 0.17 0.17 0.17 0.17 0.19 0.20 0.20 0.18 0.17 0.19 0.20 0.20 0.20 0.18 0.17 0.20 0.21 0.23 0.21 0.21 0.23 0.25 0.27 0.29 0.30 0.32 0.34 0.34 0.36 0.37 0.37 0.37 0.35 0.34 0.35
0.19 0.18 0.17 0.17 0.18 0.18 0.17 0.16 0.15 0.14 0.14 0.15 0.14 0.15 0.16 0.19 0.21 0.20 0.19 0.19 0.20 0.21 0.19 0.19 0.22 0.24 0.23 0.23 0.24 0.26 0.28 0.29 0.32 0.35 0.36 0.35 0.34 0.34 0.34 0.35 0.35 0.35 0.34 0.33
0.16 0.16 0.16 0.16 0.16 0.17 0.17 0.16 0.16 0.15 0.15 0.15 0.13 0.13 0.14 0.15 0.16 0.18 0.18 0.18 0.18 0.20 0.20 0.21 0.23 0.25 0.25 0.25 0.27 0.28 0.30 0.31 0.33 0.33 0.32 0.32 0.33 0.34 0.34 0.33 0.33 0.33 0.33 0.32
0.14 0.14 0.14 0.13 0.12 0.13 0.15 0.17 0.18 0.17 0.17 0.19 0.18 0.16 0.16 0.16 0.16 0.17 0.18 0.18 0.18 0.18 0.19 0.19 0.20 0.22 0.23 0.25 0.27 0.27 0.28 0.29 0.30 0.30 0.31 0.32 0.33 0.34 0.33 0.34 0.34 0.33 0.32 0.32

GEFSNGP_prec_meanprecacc_216.txt.gz
Total_Precipitation_Accumulation
0.50 0.40 0.59 0.61 0.57 0.68 1.01 1.01 0.94 0.45 0.25 0.21 0.23 0.29 0.27 0.25 0.22 0.22 0.24 0.26 0.28 0.30 0.30 0.28 0.27 0.25 0.23 0.22 0.25 0.29 0.34 0.38 0.41 0.47 0.52 0.55 0.55 0.55 0.57 0.59 0.64 0.65 0.67 0.70
0.57 0.33 0.46 0.54 0.48 0.50 0.57 0.60 0.60 0.43 0.36 0.26 0.24 0.26 0.25 0.22 0.19 0.20 0.21 0.23 0.25 0.24 0.26 0.25 0.28 0.29 0.28 0.26 0.25 0.27 0.31 0.33 0.36 0.40 0.43 0.50 0.54 0.55 0.56 0.59 0.65 0.69 0.73 0.77
0.72 0.38 0.52 0.60 0.48 0.48 0.49 0.46 0.50 0.53 0.42 0.31 0.30 0.28 0.26 0.23 0.19 0.18 0.16 0.15 0.18 0.20 0.22 0.23 0.23 0.25 0.26 0.26 0.24 0.26 0.29 0.30 0.34 0.38 0.42 0.45 0.52 0.57 0.64 0.68 0.75 0.81 0.85 0.93
0.86 0.56 0.71 0.47 0.35 0.37 0.42 0.43 0.45 0.43 0.34 0.28 0.28 0.28 0.26 0.22 0.18 0.16 0.13 0.11 0.11 0.13 0.14 0.15 0.16 0.18 0.23 0.24 0.25 0.25 0.29 0.35 0.38 0.41 0.49 0.55 0.56 0.63 0.72 0.79 0.86 0.92 0.91 0.93
1.01 0.72 0.43 0.27 0.24 0.29 0.39 0.44 0.40 0.31 0.23 0.21 0.22 0.25 0.25 0.21 0.16 0.14 0.12 0.12 0.11 0.11 0.13 0.14 0.15 0.17 0.22 0.25 0.27 0.27 0.30 0.37 0.42 0.45 0.55 0.64 0.63 0.67 0.74 0.80 0.87 0.89 0.88 0.84
1.07 0.87 0.42 0.24 0.13 0.14 0.28 0.49 0.33 0.26 0.24 0.25 0.27 0.33 0.28 0.20 0.17 0.16 0.15 0.13 0.14 0.14 0.15 0.17 0.20 0.22 0.27 0.31 0.38 0.40 0.40 0.45 0.52 0.59 0.69 0.73 0.70 0.69 0.69 0.70 0.72 0.70 0.67 0.63
0.90 0.83 0.37 0.20 0.12 0.14 0.42 0.52 0.24 0.21 0.22 0.25 0.28 0.28 0.24 0.17 0.15 0.17 0.19 0.18 0.17 0.18 0.21 0.23 0.24 0.26 0.30 0.35 0.46 0.52 0.54 0.57 0.60 0.65 0.69 0.70 0.68 0.63 0.59 0.56 0.56 0.54 0.53 0.51
0.64 0.84 0.54 0.23 0.17 0.30 0.40 0.25 0.20 0.21 0.23 0.24 0.24 0.20 0.18 0.19 0.18 0.16 0.16 0.17 0.19 0.22 0.24 0.27 0.30 0.35 0.38 0.41 0.48 0.52 0.55 0.57 0.57 0.57 0.58 0.61 0.60 0.58 0.54 0.52 0.52 0.51 0.50 0.53
0.53 0.56 0.41 0.28 0.27 0.26 0.21 0.19 0.17 0.18 0.20 0.20 0.21 0.21 0.17 0.16 0.16 0.16 0.17 0.17 0.19 0.24 0.28 0.31 0.32 0.36 0.39 0.39 0.40 0.42 0.45 0.48 0.47 0.45 0.44 0.45 0.47 0.49 0.49 0.48 0.48 0.51 0.52 0.54
0.44 0.42 0.31 0.26 0.21 0.18 0.15 0.15 0.13 0.12 0.14 0.18 0.21 0.20 0.18 0.16 0.15 0.14 0.14 0.15 0.17 0.19 0.21 0.23 0.24 0.26 0.29 0.28 0.29 0.31 0.33 0.36 0.39 0.36 0.35 0.36 0.36 0.40 0.42 0.44 0.44 0.45 0.48 0.52
0.40 0.33 0.26 0.24 0.20 0.17 0.14 0.12 0.11 0.10 0.10 0.13 0.15 0.15 0.16 0.16 0.15 0.14 0.14 0.14 0.14 0.15 0.16 0.17 0.17 0.18 0.20 0.21 0.22 0.26 0.27 0.28 0.30 0.32 0.33 0.34 0.36 0.38 0.42 0.43 0.49 0.49 0.46 0.46
0.42 0.31 0.30 0.29 0.21 0.16 0.15 0.13 0.11 0.10 0.10 0.10 0.11 0.12 0.11 0.12 0.11 0.12 0.14 0.14 0.14 0.14 0.16 0.19 0.19 0.17 0.16 0.16 0.18 0.23 0.26 0.26 0.28 0.31 0.32 0.33 0.35 0.38 0.42 0.45 0.50 0.52 0.52 0.51
0.27 0.22 0.20 0.19 0.15 0.13 0.12 0.11 0.10 0.10 0.11 0.12 0.12 0.11 0.11 0.11 0.12 0.14 0.16 0.17 0.17 0.16 0.15 0.17 0.19 0.19 0.17 0.18 0.19 0.22 0.25 0.28 0.29 0.31 0.33 0.33 0.34 0.37 0.38 0.40 0.44 0.46 0.49 0.52
0.13 0.13 0.15 0.13 0.13 0.11 0.11 0.11 0.10 0.10 0.10 0.12 0.14 0.13 0.12 0.12 0.13 0.16 0.18 0.19 0.19 0.18 0.17 0.16 0.16 0.19 0.19 0.19 0.21 0.24 0.25 0.29 0.31 0.31 0.33 0.33 0.34 0.35 0.36 0.37 0.37 0.36 0.40 0.47
0.08 0.11 0.14 0.12 0.10 0.09 0.10 0.10 0.10 0.10 0.10 0.11 0.11 0.13 0.14 0.14 0.16 0.17 0.17 0.18 0.19 0.19 0.17 0.17 0.17 0.18 0.19 0.21 0.22 0.22 0.24 0.26 0.29 0.31 0.33 0.36 0.36 0.36 0.36 0.37 0.37 0.36 0.38 0.44
0.09 0.08 0.09 0.08 0.08 0.08 0.09 0.10 0.12 0.12 0.11 0.12 0.13 0.15 0.17 0.18 0.16 0.15 0.15 0.16 0.18 0.17 0.15 0.14 0.16 0.16 0.17 0.19 0.21 0.21 0.22 0.28 0.30 0.29 0.30 0.32 0.35 0.37 0.37 0.38 0.39 0.39 0.40 0.43
0.16 0.16 0.15 0.14 0.12 0.11 0.10 0.11 0.12 0.14 0.14 0.15 0.17 0.18 0.17 0.17 0.15 0.14 0.14 0.15 0.16 0.17 0.17 0.18 0.18 0.16 0.16 0.17 0.19 0.20 0.20 0.23 0.29 0.29 0.30 0.31 0.33 0.34 0.35 0.37 0.39 0.39 0.39 0.45
0.17 0.18 0.18 0.19 0.18 0.16 0.14 0.13 0.13 0.14 0.14 0.15 0.15 0.17 0.18 0.19 0.19 0.17 0.17 0.16 0.15 0.15 0.15 0.15 0.15 0.14 0.14 0.16 0.19 0.21 0.21 0.21 0.23 0.25 0.28 0.33 0.36 0.35 0.36 0.36 0.36 0.38 0.40 0.46
0.15 0.15 0.15 0.15 0.17 0.17 0.15 0.14 0.14 0.14 0.14 0.14 0.15 0.17 0.17 0.18 0.18 0.17 0.17 0.17 0.18 0.18 0.16 0.15 0.17 0.15 0.13 0.16 0.19 0.19 0.21 0.22 0.23 0.25 0.28 0.35 0.38 0.36 0.37 0.37 0.37 0.38 0.42 0.45
0.11 0.12 0.14 0.16 0.16 0.16 0.17 0.16 0.15 0.15 0.15 0.15 0.15 0.16 0.16 0.18 0.18 0.18 0.18 0.18 0.19 0.21 0.19 0.18 0.18 0.15 0.15 0.16 0.21 0.19 0.20 0.21 0.24 0.26 0.29 0.33 0.35 0.35 0.36 0.38 0.38 0.38 0.40 0.42
0.12 0.13 0.15 0.17 0.18 0.18 0.18 0.18 0.17 0.16 0.15 0.14 0.15 0.17 0.18 0.19 0.20 0.21 0.22 0.20 0.18 0.18 0.18 0.18 0.16 0.15 0.16 0.20 0.24 0.23 0.23 0.24 0.25 0.26 0.29 0.32 0.34 0.35 0.35 0.36 0.38 0.39 0.40 0.41
0.16 0.16 0.18 0.20 0.21 0.21 0.20 0.18 0.17 0.17 0.15 0.14 0.14 0.14 0.15 0.16 0.17 0.19 0.20 0.21 0.21 0.21 0.18 0.16 0.15 0.17 0.22 0.26 0.25 0.24 0.25 0.27 0.28 0.29 0.31 0.33 0.35 0.36 0.37 0.38 0.40 0.41 0.42 0.43
0.17 0.18 0.19 0.20 0.22 0.22 0.21 0.19 0.18 0.17 0.16 0.16 0.17 0.18 0.19 0.19 0.20 0.21 0.21 0.18 0.18 0.20 0.17 0.15 0.17 0.21 0.25 0.24 0.22 0.23 0.25 0.28 0.29 0.31 0.32 0.34 0.36 0.38 0.40 0.39 0.39 0.39 0.41 0.42
0.19 0.19 0.19 0.18 0.18 0.18 0.18 0.17 0.17 0.18 0.18 0.17 0.18 0.19 0.21 0.21 0.19 0.17 0.19 0.21 0.21 0.21 0.18 0.17 0.21 0.23 0.24 0.22 0.22 0.24 0.26 0.28 0.30 0.31 0.33 0.35 0.35 0.37 0.38 0.38 0.38 0.36 0.36 0.37
0.19 0.18 0.17 0.17 0.18 0.18 0.18 0.17 0.15 0.15 0.15 0.15 0.15 0.15 0.17 0.19 0.22 0.20 0.19 0.20 0.20 0.21 0.20 0.20 0.23 0.24 0.24 0.23 0.24 0.27 0.28 0.30 0.33 0.36 0.36 0.36 0.35 0.35 0.35 0.36 0.37 0.37 0.36 0.35
0.16 0.16 0.16 0.16 0.17 0.17 0.18 0.17 0.17 0.15 0.16 0.16 0.14 0.13 0.14 0.15 0.17 0.18 0.19 0.19 0.19 0.20 0.21 0.21 0.23 0.25 0.25 0.26 0.27 0.29 0.30 0.32 0.33 0.34 0.33 0.33 0.33 0.35 0.35 0.35 0.35 0.35 0.34 0.33
0.14 0.14 0.14 0.13 0.12 0.13 0.16 0.17 0.19 0.18 0.18 0.20 0.20 0.16 0.16 0.16 0.17 0.17 0.18 0.18 0.18 0.19 0.19 0.20 0.21 0.23 0.24 0.26 0.28 0.28 0.29 0.30 0.31 0.31 0.32 0.33 0.34 0.35 0.34 0.35 0.35 0.35 0.34 0.33

GEFSNGP_prec_meanprecacc_222.txt.gz
Total_Precipitation_Accumulation
0.53 0.42 0.61 0.63 0.59 0.69 1.04 1.04 0.97 0.47 0.26 0.22 0.24 0.29 0.28 0.25 0.22 0.22 0.24 0.26 0.28 0.30 0.31 0.30 0.29 0.28 0.25 0.25 0.29 0.33 0.39 0.44 0.47 0.53 0.58 0.61 0.61 0.62 0.64 0.66 0.70 0.71 0.74 0.76
0.59 0.35 0.47 0.57 0.51 0.52 0.58 0.62 0.62 0.45 0.37 0.27 0.26 0.27 0.26 0.22 0.20 0.20 0.21 0.23 0.25 0.24 0.27 0.26 0.29 0.30 0.29 0.28 0.27 0.30 0.34 0.38 0.41 0.45 0.49 0.55 0.59 0.60 0.61 0.64 0.70 0.74 0.79 0.83
0.77 0.41 0.55 0.65 0.53 0.52 0.51 0.49 0.52 0.55 0.45 0.34 0.32 0.29 0.27 0.24 0.20 0.19 0.16 0.16 0.19 0.20 0.22 0.23 0.24 0.27 0.28 0.28 0.27 0.29 0.31 0.34 0.38 0.43 0.46 0.49 0.56 0.61 0.68 0.72 0.80 0.86 0.90 0.98
0.91 0.62 0.77 0.54 0.40 0.41 0.46 0.47 0.48 0.47 0.38 0.32 0.30 0.30 0.28 0.24 0.20 0.17 0.14 0.12 0.11 0.14 0.15 0.16 0.17 0.20 0.25 0.26 0.27 0.28 0.31 0.37 0.40 0.44 0.53 0.59 0.60 0.66 0.76 0.82 0.89 0.96 0.95 0.97
1.05 0.78 0.50 0.32 0.28 0.34 0.44 0.49 0.44 0.35 0.26 0.23 0.24 0.28 0.28 0.23 0.18 0.15 0.14 0.14 0.12 0.11 0.14 0.14 0.15 0.19 0.24 0.28 0.30 0.29 0.31 0.39 0.44 0.47 0.58 0.67 0.66 0.70 0.77 0.83 0.90 0.92 0.91 0.87
1.11 0.92 0.48 0.30 0.18 0.18 0.32 0.54 0.38 0.30 0.27 0.27 0.29 0.35 0.31 0.22 0.19 0.17 0.16 0.15 0.16 0.15 0.15 0.18 0.20 0.23 0.28 0.33 0.41 0.43 0.42 0.47 0.54 0.61 0.71 0.75 0.73 0.73 0.72 0.73 0.75 0.73 0.69 0.65
0.93 0.87 0.42 0.25 0.15 0.17 0.47 0.58 0.29 0.25 0.26 0.27 0.30 0.30 0.26 0.19 0.17 0.19 0.20 0.19 0.19 0.20 0.22 0.24 0.24 0.27 0.31 0.36 0.48 0.55 0.57 0.59 0.62 0.68 0.72 0.72 0.70 0.67 0.63 0.59 0.59 0.57 0.55 0.53
0.67 0.88 0.59 0.26 0.20 0.36 0.47 0.29 0.24 0.25 0.26 0.27 0.26 0.22 0.19 0.20 0.19 0.17 0.17 0.19 0.21 0.24 0.26 0.28 0.32 0.37 0.39 0.43 0.49 0.54 0.57 0.58 0.59 0.60 0.61 0.64 0.63 0.61 0.57 0.55 0.55 0.53 0.53 0.54
0.57 0.61 0.46 0.32 0.33 0.32 0.26 0.24 0.21 0.22 0.23 0.22 0.23 0.22 0.19 0.17 0.16 0.17 0.18 0.19 0.23 0.27 0.31 0.34 0.35 0.38 0.41 0.41 0.42 0.44 0.47 0.50 0.50 0.48 0.48 0.50 0.51 0.52 0.52 0.51 0.51 0.53 0.54 0.56
0.47 0.45 0.35 0.30 0.25 0.21 0.18 0.19 0.17 0.16 0.17 0.20 0.23 0.22 0.20 0.18 0.17 0.15 0.15 0.17 0.20 0.23 0.24 0.26 0.27 0.29 0.31 0.30 0.31 0.33 0.35 0.39 0.42 0.40 0.39 0.40 0.41 0.44 0.46 0.47 0.47 0.47 0.50 0.54
0.42 0.36 0.28 0.26 0.22 0.19 0.16 0.15 0.13 0.12 0.12 0.15 0.17 0.17 0.18 0.18 0.17 0.16 0.16 0.16 0.17 0.18 0.20 0.21 0.20 0.20 0.22 0.23 0.24 0.28 0.29 0.30 0.32 0.36 0.38 0.39 0.41 0.43 0.47 0.47 0.52 0.52 0.48 0.48
0.46 0.34 0.33 0.32 0.24 0.19 0.17 0.15 0.14 0.13 0.13 0.12 0.13 0.14 0.13 0.14 0.14 0.15 0.16 0.16 0.16 0.16 0.19 0.23 0.22 0.19 0.18 0.18 0.20 0.25 0.28 0.29 0.31 0.34 0.36 0.37 0.39 0.42 0.47 0.48 0.53 0.55 0.56 0.53
0.31 0.25 0.23 0.21 0.16 0.14 0.14 0.14 0.12 0.13 0.13 0.15 0.14 0.13 0.13 0.13 0.14 0.16 0.17 0.18 0.19 0.17 0.17 0.19 0.22 0.21 0.19 0.20 0.22 0.24 0.28 0.30 0.31 0.34 0.37 0.37 0.37 0.40 0.41 0.42 0.46 0.49 0.53 0.56
0.14 0.15 0.16 0.14 0.14 0.12 0.13 0.12 0.11 0.12 0.12 0.14 0.16 0.15 0.15 0.14 0.15 0.17 0.19 0.20 0.20 0.19 0.18 0.17 0.19 0.21 0.21 0.21 0.24 0.26 0.28 0.32 0.34 0.33 0.36 0.37 0.37 0.37 0.39 0.40 0.39 0.39 0.43 0.51
0.09 0.12 0.16 0.14 0.11 0.10 0.11 0.11 0.11 0.11 0.12 0.12 0.13 0.15 0.16 0.18 0.18 0.19 0.19 0.19 0.20 0.20 0.19 0.19 0.19 0.20 0.21 0.24 0.25 0.25 0.27 0.29 0.31 0.33 0.36 0.39 0.39 0.38 0.38 0.39 0.40 0.39 0.40 0.47
0.10 0.09 0.09 0.09 0.09 0.09 0.09 0.11 0.13 0.13 0.13 0.14 0.15 0.17 0.20 0.21 0.20 0.18 0.17 0.18 0.20 0.20 0.18 0.16 0.17 0.18 0.19 0.21 0.24 0.24 0.25 0.31 0.32 0.32 0.32 0.35 0.38 0.39 0.39 0.40 0.41 0.41 0.41 0.45
0.17 0.16 0.15 0.15 0.13 0.12 0.11 0.12 0.15 0.15 0.16 0.17 0.20 0.20 0.20 0.19 0.18 0.17 0.17 0.18 0.19 0.19 0.19 0.20 0.20 0.17 0.17 0.19 0.22 0.24 0.24 0.26 0.32 0.32 0.32 0.34 0.35 0.36 0.37 0.39 0.41 0.41 0.41 0.47
0.18 0.19 0.19 0.20 0.19 0.17 0.15 0.15 0.15 0.15 0.16 0.17 0.18 0.19 0.20 0.21 0.21 0.20 0.19 0.18 0.17 0.16 0.16 0.17 0.17 0.16 0.16 0.19 0.23 0.25 0.25 0.25 0.25 0.27 0.30 0.35 0.38 0.37 0.38 0.38 0.38 0.40 0.42 0.47
0.16 0.16 0.15 0.16 0.17 0.18 0.17 0.16 0.16 0.16 0.16 0.16 0.17 0.19 0.20 0.20 0.20 0.19 0.18 0.19 0.19 0.19 0.18 0.16 0.18 0.16 0.15 0.18 0.22 0.23 0.25 0.26 0.26 0.27 0.30 0.37 0.40 0.38 0.39 0.39 0.39 0.40 0.44 0.46
0.12 0.13 0.15 0.16 0.17 0.17 0.18 0.17 0.16 0.17 0.16 0.16 0.17 0.18 0.18 0.19 0.19 0.19 0.19 0.19 0.20 0.23 0.21 0.20 0.19 0.16 0.16 0.18 0.23 0.22 0.24 0.25 0.27 0.28 0.31 0.35 0.37 0.37 0.38 0.40 0.40 0.40 0.42 0.44
0.13 0.14 0.16 0.18 0.19 0.19 0.19 0.18 0.18 0.18 0.16 0.16 0.17 0.18 0.19 0.20 0.21 0.22 0.22 0.21 0.19 0.19 0.19 0.20 0.18 0.17 0.18 0.23 0.27 0.26 0.26 0.27 0.28 0.29 0.31 0.34 0.36 0.37 0.37 0.38 0.40 0.41 0.42 0.43
0.16 0.17 0.18 0.21 0.22 0.22 0.20 0.19 0.19 0.18 0.16 0.16 0.15 0.16 0.16 0.17 0.18 0.19 0.20 0.22 0.22 0.22 0.19 0.17 0.16 0.19 0.24 0.29 0.27 0.26 0.28 0.30 0.30 0.31 0.33 0.34 0.37 0.38 0.38 0.39 0.42 0.42 0.43 0.44
0.18 0.19 0.20 0.21 0.23 0.23 0.22 0.21 0.20 0.19 0.18 0.18 0.18 0.19 0.20 0.21 0.21 0.22 0.22 0.18 0.19 0.20 0.18 0.16 0.19 0.23 0.27 0.26 0.25 0.26 0.28 0.30 0.31 0.33 0.34 0.35 0.38 0.40 0.42 0.41 0.40 0.41 0.42 0.43
0.19 0.19 0.19 0.19 0.19 0.18 0.18 0.18 0.18 0.19 0.19 0.19 0.19 0.21 0.22 0.22 0.19 0.18 0.20 0.21 0.21 0.21 0.19 0.18 0.22 0.24 0.25 0.24 0.24 0.26 0.29 0.31 0.32 0.34 0.35 0.37 0.38 0.39 0.40 0.40 0.40 0.38 0.38 0.38
0.19 0.18 0.18 0.18 0.18 0.19 0.18 0.17 0.16 0.15 0.15 0.15 0.15 0.16 0.17 0.20 0.23 0.21 0.20 0.20 0.21 0.22 0.20 0.20 0.24 0.25 0.25 0.25 0.26 0.29 0.31 0.33 0.36 0.38 0.39 0.38 0.37 0.37 0.37 0.38 0.39 0.38 0.37 0.36
0.17 0.17 0.17 0.17 0.17 0.18 0.18 0.18 0.17 0.16 0.16 0.16 0.14 0.14 0.15 0.16 0.17 0.19 0.19 0.19 0.19 0.21 0.21 0.22 0.24 0.26 0.26 0.27 0.29 0.31 0.32 0.34 0.36 0.36 0.35 0.35 0.36 0.37 0.37 0.37 0.36 0.36 0.36 0.35
0.14 0.14 0.15 0.14 0.12 0.13 0.16 0.18 0.19 0.19 0.19 0.21 0.20 0.17 0.17 0.17 0.17 0.18 0.18 0.19 0.19 0.19 0.20 0.21 0.22 0.24 0.25 0.27 0.29 0.30 0.31 0.31 0.32 0.33 0.33 0.35 0.36 0.37 0.36 0.36 0.37 0.36 0.36 0.35

GEFSNGP_prec_meanprecacc_228.txt.gz
Total_Precipitation_Accumulation
0.55 0.43 0.63 0.66 0.62 0.73 1.08 1.07 0.99 0.49 0.28 0.23 0.25 0.31 0.29 0.26 0.23 0.24 0.26 0.27 0.28 0.30 0.32 0.30 0.29 0.28 0.25 0.26 0.30 0.34 0.40 0.45 0.48 0.54 0.59 0.63 0.63 0.64 0.66 0.67 0.72 0.74 0.77 0.79
0.62 0.37 0.48 0.58 0.53 0.55 0.62 0.66 0.65 0.47 0.40 0.29 0.27 0.28 0.27 0.24 0.22 0.22 0.23 0.25 0.26 0.24 0.27 0.27 0.29 0.30 0.30 0.28 0.28 0.31 0.35 0.39 0.43 0.47 0.51 0.58 0.62 0.63 0.64 0.67 0.73 0.77 0.83 0.88
0.80 0.44 0.56 0.67 0.56 0.56 0.55 0.53 0.55 0.58 0.48 0.36 0.34 0.31 0.29 0.26 0.23 0.22 0.19 0.18 0.20 0.20 0.23 0.24 0.24 0.27 0.28 0.28 0.27 0.30 0.33 0.35 0.40 0.45 0.49 0.53 0.61 0.66 0.72 0.76 0.84 0.90 0.94 1.02
0.94 0.66 0.81 0.58 0.43 0.44 0.49 0.50 0.52 0.50 0.41 0.35 0.33 0.31 0.30 0.26 0.21 0.19 0.17 0.15 0.13 0.15 0.15 0.16 0.18 0.21 0.25 0.26 0.28 0.29 0.32 0.39 0.42 0.46 0.55 0.62 0.64 0.71 0.81 0.87 0.94 1.01 1.00 1.02
1.09 0.81 0.53 0.34 0.31 0.39 0.47 0.53 0.49 0.38 0.29 0.27 0.27 0.29 0.30 0.25 0.19 0.16 0.16 0.17 0.15 0.14 0.15 0.15 0.16 0.20 0.25 0.30 0.31 0.30 0.32 0.39 0.45 0.48 0.60 0.69 0.69 0.73 0.81 0.87 0.94 0.97 0.96 0.91
1.15 0.95 0.51 0.33 0.20 0.21 0.36 0.59 0.42 0.33 0.30 0.30 0.32 0.38 0.33 0.24 0.20 0.19 0.17 0.17 0.19 0.18 0.17 0.20 0.22 0.24 0.30 0.35 0.42 0.44 0.43 0.48 0.55 0.62 0.72 0.77 0.75 0.75 0.75 0.76 0.78 0.76 0.73 0.69
0.96 0.90 0.45 0.29 0.18 0.20 0.53 0.64 0.32 0.29 0.29 0.31 0.34 0.33 0.28 0.21 0.18 0.20 0.21 0.20 0.21 0.21 0.23 0.26 0.28 0.29 0.33 0.38 0.50 0.57 0.58 0.60 0.63 0.70 0.73 0.73 0.72 0.69 0.65 0.61 0.61 0.59 0.58 0.57
0.71 0.92 0.63 0.30 0.24 0.42 0.54 0.33 0.28 0.29 0.31 0.31 0.31 0.25 0.21 0.22 0.20 0.18 0.18 0.20 0.23 0.25 0.27 0.30 0.35 0.40 0.41 0.45 0.51 0.56 0.59 0.60 0.61 0.62 0.63 0.66 0.65 0.63 0.59 0.57 0.56 0.55 0.55 0.57
0.61 0.67 0.52 0.38 0.39 0.39 0.31 0.29 0.26 0.27 0.28 0.27 0.28 0.27 0.22 0.19 0.18 0.18 0.19 0.21 0.25 0.29 0.32 0.36 0.38 0.41 0.44 0.43 0.43 0.46 0.50 0.52 0.51 0.49 0.50 0.51 0.53 0.54 0.54 0.53 0.53 0.55 0.56 0.58
0.51 0.51 0.41 0.36 0.30 0.26 0.23 0.24 0.22 0.21 0.22 0.25 0.27 0.26 0.23 0.20 0.19 0.16 0.17 0.19 0.22 0.25 0.27 0.29 0.31 0.32 0.34 0.32 0.32 0.35 0.37 0.41 0.43 0.42 0.41 0.42 0.43 0.46 0.48 0.49 0.49 0.50 0.52 0.56
0.46 0.41 0.32 0.30 0.27 0.23 0.20 0.18 0.17 0.16 0.16 0.19 0.21 0.21 0.21 0.21 0.19 0.18 0.17 0.18 0.19 0.21 0.23 0.25 0.25 0.25 0.26 0.26 0.26 0.29 0.31 0.33 0.34 0.38 0.39 0.41 0.42 0.45 0.49 0.49 0.55 0.55 0.51 0.50
0.51 0.39 0.38 0.37 0.28 0.22 0.19 0.18 0.17 0.16 0.16 0.15 0.16 0.18 0.16 0.17 0.17 0.18 0.19 0.19 0.19 0.19 0.22 0.26 0.26 0.22 0.22 0.22 0.23 0.28 0.31 0.32 0.33 0.36 0.38 0.39 0.40 0.44 0.49 0.51 0.55 0.58 0.58 0.55
0.35 0.28 0.25 0.23 0.18 0.16 0.17 0.16 0.15 0.16 0.17 0.18 0.17 0.16 0.16 0.16 0.17 0.19 0.21 0.21 0.22 0.21 0.20 0.22 0.25 0.25 0.22 0.23 0.25 0.27 0.31 0.33 0.34 0.36 0.38 0.39 0.39 0.41 0.44 0.45 0.49 0.51 0.55 0.57
0.16 0.16 0.17 0.15 0.15 0.13 0.14 0.13 0.12 0.13 0.14 0.17 0.19 0.18 0.17 0.16 0.17 0.20 0.22 0.23 0.23 0.21 0.21 0.19 0.21 0.24 0.24 0.24 0.27 0.29 0.31 0.34 0.36 0.35 0.37 0.39 0.39 0.39 0.41 0.42 0.42 0.41 0.45 0.53
0.09 0.12 0.17 0.14 0.11 0.10 0.11 0.12 0.12 0.12 0.13 0.14 0.15 0.16 0.18 0.20 0.21 0.22 0.22 0.22 0.22 0.22 0.21 0.20 0.21 0.22 0.24 0.27 0.28 0.29 0.31 0.32 0.33 0.35 0.38 0.41 0.41 0.40 0.41 0.42 0.42 0.41 0.42 0.49
0.10 0.09 0.09 0.09 0.10 0.10 0.10 0.12 0.14 0.14 0.14 0.15 0.17 0.19 0.22 0.23 0.23 0.21 0.20 0.21 0.23 0.23 0.20 0.19 0.20 0.21 0.22 0.25 0.27 0.28 0.29 0.34 0.36 0.35 0.36 0.38 0.41 0.42 0.42 0.43 0.44 0.44 0.44 0.47
0.17 0.17 0.16 0.16 0.14 0.12 0.12 0.14 0.16 0.17 0.17 0.19 0.22 0.23 0.22 0.22 0.20 0.19 0.20 0.21 0.21 0.22 0.22 0.22 0.23 0.21 0.21 0.23 0.26 0.27 0.28 0.31 0.35 0.35 0.35 0.37 0.38 0.39 0.40 0.43 0.45 0.44 0.43 0.49
0.19 0.20 0.20 0.21 0.20 0.19 0.17 0.16 0.16 0.17 0.18 0.19 0.20 0.21 0.22 0.24 0.24 0.23 0.22 0.21 0.19 0.18 0.18 0.19 0.20 0.18 0.18 0.22 0.26 0.27 0.28 0.28 0.28 0.30 0.33 0.38 0.41 0.39 0.40 0.41 0.41 0.42 0.44 0.49
0.17 0.17 0.16 0.17 0.18 0.19 0.18 0.18 0.17 0.18 0.17 0.17 0.19 0.21 0.22 0.23 0.23 0.22 0.20 0.21 0.21 0.22 0.21 0.19 0.20 0.18 0.18 0.20 0.25 0.25 0.28 0.29 0.29 0.29 0.33 0.39 0.42 0.40 0.40 0.41 0.42 0.42 0.45 0.48
0.13 0.14 0.16 0.17 0.18 0.18 0.19 0.18 0.18 0.18 0.18 0.18 0.19 0.19 0.20 0.21 0.21 0.20 0.20 0.20 0.22 0.25 0.23 0.22 0.21 0.18 0.18 0.20 0.25 0.25 0.26 0.28 0.29 0.30 0.33 0.37 0.39 0.39 0.40 0.42 0.42 0.42 0.43 0.45
0.14 0.15 0.17 0.19 0.20 0.19 0.20 0.20 0.19 0.19 0.18 0.17 0.19 0.20 0.20 0.22 0.22 0.23 0.23 0.22 0.21 0.20 0.20 0.21 0.19 0.18 0.20 0.25 0.29 0.28 0.29 0.30 0.31 0.32 0.33 0.36 0.38 0.39 0.39 0.40 0.42 0.43 0.43 0.44
0.17 0.18 0.19 0.21 0.23 0.23 0.21 0.20 0.20 0.19 0.17 0.17 0.17 0.17 0.17 0.18 0.19 0.20 0.21 0.23 0.24 0.23 0.20 0.18 0.17 0.21 0.26 0.31 0.29 0.29 0.31 0.32 0.33 0.33 0.34 0.36 0.39 0.40 0.40 0.42 0.44 0.45 0.45 0.46
0.18 0.19 0.20 0.22 0.23 0.24 0.23 0.21 0.21 0.20 0.19 0.19 0.20 0.21 0.21 0.22 0.22 0.24 0.24 0.20 0.20 0.21 0.19 0.17 0.20 0.25 0.29 0.28 0.27 0.28 0.30 0.33 0.34 0.35 0.35 0.37 0.39 0.42 0.44 0.43 0.43 0.43 0.45 0.46
0.20 0.20 0.20 0.20 0.19 0.19 0.19 0.18 0.19 0.19 0.19 0.19 0.20 0.22 0.24 0.23 0.21 0.19 0.21 0.22 0.22 0.22 0.20 0.19 0.23 0.25 0.27 0.25 0.26 0.29 0.31 0.33 0.35 0.36 0.37 0.39 0.39 0.40 0.42 0.43 0.43 0.40 0.40 0.41
0.19 0.19 0.18 0.18 0.19 0.19 0.19 0.17 0.16 0.15 0.16 0.16 0.16 0.17 0.19 0.21 0.24 0.22 0.21 0.21 0.21 0.22 0.21 0.21 0.25 0.26 0.26 0.26 0.28 0.31 0.34 0.35 0.39 0.41 0.41 0.41 0.39 0.39 0.39 0.40 0.41 0.41 0.40 0.39
0.17 0.17 0.17 0.17 0.18 0.18 0.19 0.18 0.18 0.16 0.17 0.17 0.15 0.14 0.15 0.17 0.18 0.20 0.20 0.20 0.20 0.21 0.22 0.22 0.25 0.27 0.27 0.28 0.30 0.33 0.35 0.37 0.38 0.38 0.37 0.38 0.39 0.40 0.40 0.39 0.39 0.39 0.38 0.37
0.14 0.14 0.15 0.14 0.13 0.14 0.16 0.18 0.20 0.19 0.19 0.21 0.21 0.17 0.17 0.18 0.18 0.18 0.19 0.19 0.19 0.20 0.21 0.21 0.23 0.24 0.26 0.28 0.30 0.31 0.33 0.34 0.35 0.36 0.36 0.38 0.39 0.40 0.39 0.39 0.40 0.39 0.38 0.37

GEFSNGP_prec_meanprecacc_234.txt.gz
Total_Precipitation_Accumulation
0.59 0.46 0.66 0.70 0.66 0.77 1.12 1.12 1.04 0.53 0.31 0.25 0.27 0.32 0.30 0.27 0.24 0.24 0.26 0.28 0.29 0.31 0.32 0.30 0.29 0.28 0.25 0.26 0.30 0.34 0.40 0.46 0.49 0.55 0.60 0.63 0.64 0.65 0.67 0.69 0.74 0.76 0.80 0.82
0.65 0.39 0.50 0.59 0.56 0.58 0.66 0.69 0.68 0.49 0.43 0.32 0.29 0.29 0.28 0.25 0.23 0.23 0.24 0.26 0.26 0.25 0.27 0.27 0.29 0.31 0.30 0.28 0.28 0.31 0.36 0.40 0.44 0.48 0.51 0.58 0.63 0.64 0.65 0.68 0.74 0.79 0.85 0.90
0.83 0.47 0.59 0.71 0.61 0.59 0.59 0.57 0.59 0.62 0.52 0.39 0.36 0.32 0.30 0.27 0.24 0.23 0.20 0.19 0.21 0.22 0.24 0.24 0.25 0.27 0.29 0.28 0.28 0.30 0.34 0.36 0.40 0.46 0.50 0.54 0.62 0.67 0.74 0.78 0.86 0.92 0.96 1.06
0.97 0.68 0.85 0.64 0.47 0.48 0.52 0.53 0.56 0.53 0.44 0.38 0.35 0.33 0.31 0.28 0.22 0.20 0.18 0.16 0.15 0.16 0.17 0.17 0.18 0.21 0.25 0.27 0.28 0.29 0.33 0.40 0.43 0.47 0.56 0.63 0.66 0.74 0.83 0.90 0.96 1.03 1.02 1.04
1.11 0.85 0.57 0.37 0.33 0.42 0.51 0.56 0.52 0.41 0.32 0.29 0.29 0.30 0.31 0.26 0.20 0.18 0.17 0.19 0.17 0.15 0.16 0.16 0.17 0.20 0.26 0.30 0.32 0.30 0.33 0.40 0.46 0.50 0.61 0.70 0.70 0.75 0.84 0.90 0.96 0.99 0.98 0.93
1.17 0.99 0.55 0.37 0.22 0.24 0.39 0.63 0.44 0.35 0.33 0.32 0.33 0.40 0.34 0.25 0.21 0.20 0.19 0.19 0.21 0.20 0.18 0.21 0.23 0.25 0.31 0.37 0.43 0.45 0.44 0.48 0.56 0.63 0.73 0.78 0.77 0.76 0.76 0.78 0.80 0.78 0.75 0.71
0.99 0.93 0.49 0.32 0.19 0.22 0.57 0.69 0.35 0.31 0.32 0.34 0.36 0.36 0.30 0.22 0.19 0.21 0.23 0.22 0.23 0.24 0.25 0.28 0.29 0.30 0.35 0.40 0.52 0.58 0.59 0.61 0.64 0.71 0.74 0.74 0.73 0.70 0.66 0.63 0.63 0.61 0.60 0.58
0.73 0.95 0.68 0.33 0.26 0.47 0.59 0.35 0.30 0.31 0.33 0.34 0.34 0.28 0.23 0.24 0.22 0.20 0.20 0.22 0.25 0.28 0.30 0.32 0.37 0.42 0.43 0.47 0.54 0.59 0.61 0.61 0.62 0.63 0.64 0.66 0.66 0.63 0.60 0.58 0.57 0.57 0.56 0.58
0.64 0.72 0.58 0.43 0.44 0.44 0.35 0.32 0.29 0.30 0.31 0.30 0.31 0.30 0.25 0.21 0.20 0.20 0.21 0.23 0.27 0.32 0.35 0.38 0.40 0.43 0.46 0.45 0.46 0.49 0.53 0.55 0.53 0.51 0.51 0.53 0.54 0.55 0.54 0.54 0.54 0.56 0.57 0.59
0.54 0.55 0.45 0.40 0.34 0.30 0.27 0.29 0.27 0.25 0.26 0.28 0.30 0.29 0.26 0.23 0.21 0.19 0.19 0.21 0.24 0.27 0.29 0.31 0.33 0.34 0.36 0.35 0.35 0.37 0.40 0.44 0.46 0.44 0.43 0.44 0.44 0.47 0.49 0.50 0.50 0.51 0.53 0.57
0.49 0.44 0.35 0.34 0.31 0.28 0.25 0.23 0.21 0.20 0.19 0.22 0.24 0.24 0.25 0.25 0.23 0.22 0.20 0.21 0.22 0.24 0.26 0.28 0.27 0.28 0.28 0.29 0.30 0.32 0.33 0.35 0.37 0.40 0.42 0.43 0.44 0.47 0.50 0.51 0.56 0.56 0.52 0.51
0.55 0.42 0.41 0.41 0.32 0.26 0.23 0.22 0.21 0.20 0.19 0.18 0.19 0.21 0.20 0.21 0.21 0.22 0.23 0.22 0.22 0.22 0.25 0.29 0.29 0.26 0.25 0.26 0.27 0.31 0.34 0.35 0.36 0.39 0.41 0.41 0.43 0.46 0.52 0.53 0.58 0.60 0.59 0.56
0.38 0.30 0.28 0.26 0.21 0.18 0.19 0.19 0.17 0.18 0.20 0.21 0.20 0.19 0.19 0.20 0.21 0.23 0.24 0.24 0.25 0.24 0.23 0.25 0.28 0.28 0.26 0.27 0.29 0.31 0.35 0.36 0.37 0.38 0.41 0.42 0.41 0.43 0.46 0.48 0.52 0.54 0.56 0.58
0.18 0.17 0.18 0.16 0.16 0.14 0.14 0.14 0.13 0.14 0.15 0.19 0.21 0.20 0.20 0.19 0.19 0.23 0.26 0.27 0.25 0.24 0.23 0.22 0.23 0.27 0.27 0.28 0.31 0.34 0.36 0.38 0.40 0.39 0.41 0.41 0.41 0.41 0.42 0.44 0.43 0.42 0.46 0.54
0.10 0.13 0.17 0.15 0.11 0.11 0.11 0.12 0.12 0.13 0.13 0.14 0.15 0.18 0.20 0.23 0.24 0.25 0.25 0.25 0.24 0.24 0.23 0.22 0.22 0.24 0.26 0.30 0.31 0.32 0.35 0.36 0.37 0.39 0.41 0.43 0.43 0.42 0.42 0.43 0.43 0.42 0.43 0.50
0.11 0.10 0.10 0.10 0.10 0.10 0.10 0.12 0.14 0.15 0.14 0.15 0.17 0.20 0.24 0.25 0.24 0.23 0.22 0.24 0.25 0.26 0.24 0.22 0.23 0.24 0.24 0.28 0.30 0.31 0.33 0.39 0.40 0.39 0.39 0.41 0.43 0.44 0.44 0.45 0.45 0.45 0.45 0.48
0.19 0.18 0.16 0.16 0.14 0.13 0.12 0.14 0.16 0.17 0.18 0.20 0.23 0.24 0.24 0.24 0.22 0.21 0.22 0.22 0.23 0.25 0.25 0.26 0.26 0.24 0.24 0.26 0.29 0.31 0.32 0.35 0.41 0.39 0.40 0.41 0.42 0.42 0.43 0.45 0.46 0.45 0.44 0.50
0.20 0.21 0.21 0.22 0.21 0.19 0.17 0.16 0.17 0.17 0.18 0.19 0.20 0.22 0.24 0.25 0.27 0.26 0.25 0.23 0.21 0.20 0.21 0.23 0.23 0.21 0.22 0.25 0.30 0.31 0.32 0.33 0.33 0.34 0.37 0.42 0.44 0.42 0.42 0.43 0.43 0.44 0.45 0.50
0.17 0.17 0.17 0.18 0.19 0.20 0.19 0.18 0.18 0.18 0.17 0.17 0.19 0.22 0.23 0.24 0.25 0.24 0.23 0.23 0.23 0.25 0.24 0.22 0.23 0.21 0.21 0.24 0.28 0.29 0.31 0.32 0.33 0.35 0.38 0.44 0.45 0.42 0.43 0.43 0.44 0.44 0.46 0.49
0.13 0.15 0.16 0.18 0.18 0.19 0.20 0.19 0.19 0.19 0.19 0.19 0.20 0.20 0.21 0.23 0.23 0.23 0.22 0.23 0.26 0.29 0.27 0.25 0.23 0.20 0.21 0.23 0.28 0.28 0.30 0.31 0.33 0.34 0.37 0.41 0.42 0.42 0.42 0.44 0.44 0.44 0.44 0.46
0.14 0.16 0.18 0.20 0.20 0.20 0.20 0.20 0.20 0.20 0.19 0.18 0.20 0.21 0.22 0.23 0.24 0.25 0.26 0.25 0.24 0.24 0.23 0.24 0.21 0.20 0.22 0.27 0.31 0.30 0.31 0.32 0.34 0.35 0.37 0.39 0.41 0.41 0.41 0.42 0.44 0.44 0.44 0.45
0.17 0.18 0.20 0.22 0.23 0.23 0.22 0.21 0.20 0.20 0.19 0.18 0.18 0.18 0.19 0.20 0.21 0.22 0.24 0.26 0.26 0.26 0.23 0.20 0.19 0.23 0.28 0.32 0.31 0.30 0.32 0.34 0.36 0.36 0.38 0.39 0.41 0.42 0.42 0.43 0.46 0.46 0.46 0.47
0.18 0.20 0.20 0.22 0.24 0.24 0.23 0.22 0.21 0.21 0.20 0.20 0.21 0.22 0.23 0.24 0.24 0.26 0.26 0.22 0.22 0.24 0.21 0.19 0.22 0.26 0.30 0.30 0.29 0.30 0.32 0.35 0.36 0.37 0.38 0.40 0.42 0.45 0.46 0.45 0.45 0.45 0.47 0.47
0.20 0.20 0.20 0.20 0.19 0.19 0.19 0.19 0.20 0.20 0.20 0.20 0.21 0.23 0.25 0.25 0.23 0.21 0.24 0.25 0.24 0.24 0.22 0.21 0.24 0.27 0.29 0.27 0.27 0.30 0.33 0.35 0.37 0.38 0.39 0.41 0.41 0.43 0.44 0.45 0.45 0.43 0.42 0.42
0.19 0.19 0.18 0.18 0.19 0.19 0.19 0.18 0.17 0.16 0.17 0.17 0.17 0.18 0.20 0.23 0.26 0.24 0.23 0.23 0.24 0.24 0.22 0.23 0.26 0.28 0.28 0.27 0.29 0.33 0.35 0.37 0.41 0.44 0.44 0.44 0.41 0.41 0.41 0.42 0.44 0.43 0.42 0.40
0.17 0.17 0.17 0.18 0.18 0.19 0.19 0.19 0.18 0.17 0.17 0.17 0.15 0.15 0.16 0.18 0.20 0.21 0.21 0.21 0.21 0.23 0.23 0.23 0.26 0.28 0.28 0.29 0.32 0.34 0.37 0.39 0.40 0.41 0.40 0.41 0.41 0.42 0.41 0.41 0.41 0.41 0.40 0.39
0.14 0.14 0.15 0.14 0.13 0.14 0.17 0.19 0.20 0.20 0.20 0.22 0.22 0.18 0.18 0.19 0.19 0.19 0.20 0.20 0.21 0.21 0.22 0.22 0.24 0.25 0.27 0.29 0.31 0.33 0.34 0.36 0.37 0.38 0.39 0.41 0.42 0.43 0.41 0.41 0.42 0.41 0.40 0.39

GEFSNGP_prec_meanprecacc_240.txt.gz
Total_Precipitation_Accumulation
0.61 0.48 0.67 0.71 0.69 0.81 1.17 1.18 1.10 0.61 0.36 0.30 0.30 0.35 0.32 0.28 0.26 0.26 0.28 0.29 0.29 0.31 0.33 0.31 0.29 0.28 0.26 0.27 0.30 0.34 0.41 0.46 0.49 0.55 0.60 0.64 0.64 0.66 0.68 0.70 0.75 0.78 0.81 0.84
0.67 0.41 0.51 0.60 0.57 0.60 0.69 0.74 0.74 0.54 0.48 0.37 0.33 0.31 0.30 0.27 0.25 0.25 0.25 0.27 0.27 0.25 0.28 0.28 0.30 0.31 0.30 0.29 0.28 0.32 0.36 0.40 0.44 0.48 0.52 0.58 0.64 0.65 0.66 0.70 0.75 0.80 0.87 0.92
0.85 0.48 0.60 0.74 0.64 0.62 0.63 0.62 0.63 0.66 0.57 0.43 0.39 0.35 0.32 0.29 0.25 0.24 0.21 0.20 0.22 0.22 0.24 0.24 0.25 0.28 0.29 0.29 0.28 0.30 0.34 0.36 0.41 0.46 0.51 0.54 0.62 0.69 0.75 0.80 0.87 0.94 0.98 1.07
0.98 0.69 0.87 0.68 0.50 0.51 0.55 0.57 0.59 0.56 0.47 0.41 0.38 0.35 0.34 0.30 0.24 0.21 0.19 0.17 0.15 0.17 0.17 0.17 0.19 0.21 0.26 0.27 0.28 0.29 0.34 0.40 0.44 0.48 0.57 0.64 0.66 0.74 0.84 0.91 0.98 1.05 1.04 1.06
1.13 0.86 0.59 0.39 0.36 0.47 0.55 0.60 0.55 0.43 0.34 0.31 0.31 0.32 0.33 0.28 0.22 0.19 0.18 0.20 0.18 0.16 0.17 0.17 0.18 0.21 0.27 0.31 0.32 0.31 0.34 0.41 0.47 0.50 0.62 0.71 0.71 0.76 0.85 0.91 0.97 1.00 1.00 0.95
1.18 1.01 0.57 0.39 0.24 0.26 0.43 0.66 0.47 0.38 0.35 0.34 0.35 0.42 0.36 0.27 0.23 0.22 0.20 0.20 0.22 0.21 0.19 0.22 0.24 0.26 0.32 0.38 0.44 0.46 0.45 0.49 0.56 0.64 0.74 0.79 0.78 0.77 0.78 0.80 0.82 0.80 0.77 0.72
1.00 0.95 0.51 0.35 0.22 0.23 0.60 0.72 0.37 0.34 0.35 0.36 0.39 0.39 0.32 0.24 0.21 0.23 0.25 0.24 0.24 0.25 0.26 0.30 0.31 0.33 0.36 0.41 0.53 0.59 0.60 0.62 0.65 0.71 0.75 0.76 0.74 0.71 0.68 0.64 0.65 0.63 0.62 0.60
0.75 0.98 0.71 0.37 0.28 0.50 0.64 0.38 0.32 0.33 0.36 0.37 0.36 0.29 0.25 0.25 0.24 0.21 0.22 0.23 0.27 0.30 0.31 0.34 0.40 0.44 0.46 0.49 0.55 0.60 0.62 0.62 0.63 0.64 0.65 0.68 0.67 0.65 0.61 0.59 0.59 0.59 0.59 0.61
0.67 0.75 0.62 0.47 0.49 0.49 0.40 0.36 0.31 0.32 0.33 0.32 0.33 0.32 0.26 0.23 0.22 0.21 0.23 0.24 0.29 0.34 0.37 0.41 0.42 0.45 0.48 0.47 0.48 0.51 0.55 0.57 0.55 0.53 0.53 0.55 0.56 0.57 0.56 0.56 0.56 0.57 0.58 0.61
0.56 0.57 0.48 0.44 0.38 0.34 0.32 0.33 0.30 0.28 0.28 0.29 0.32 0.31 0.28 0.25 0.23 0.20 0.21 0.23 0.26 0.30 0.32 0.34 0.36 0.37 0.39 0.37 0.37 0.39 0.42 0.46 0.48 0.46 0.45 0.46 0.46 0.49 0.51 0.52 0.52 0.52 0.54 0.58
0.51 0.46 0.37 0.36 0.35 0.33 0.31 0.27 0.24 0.22 0.22 0.25 0.26 0.26 0.27 0.28 0.26 0.24 0.23 0.23 0.24 0.26 0.29 0.31 0.31 0.31 0.32 0.32 0.32 0.35 0.36 0.37 0.39 0.42 0.44 0.46 0.47 0.49 0.53 0.53 0.58 0.58 0.53 0.52
0.57 0.44 0.43 0.44 0.36 0.31 0.29 0.28 0.25 0.23 0.22 0.21 0.22 0.24 0.22 0.24 0.24 0.24 0.26 0.25 0.25 0.25 0.28 0.32 0.32 0.29 0.29 0.30 0.31 0.35 0.37 0.37 0.39 0.42 0.43 0.44 0.45 0.49 0.55 0.57 0.61 0.63 0.62 0.58
0.40 0.32 0.30 0.29 0.24 0.23 0.24 0.24 0.22 0.22 0.23 0.24 0.23 0.21 0.21 0.22 0.24 0.27 0.29 0.28 0.28 0.27 0.26 0.28 0.31 0.31 0.30 0.31 0.33 0.36 0.39 0.40 0.40 0.41 0.44 0.44 0.44 0.45 0.48 0.50 0.55 0.57 0.60 0.61
0.19 0.18 0.20 0.18 0.19 0.17 0.17 0.17 0.17 0.17 0.18 0.22 0.24 0.23 0.22 0.22 0.23 0.27 0.31 0.32 0.30 0.27 0.26 0.24 0.26 0.30 0.31 0.31 0.34 0.38 0.40 0.43 0.44 0.43 0.44 0.45 0.44 0.44 0.44 0.46 0.45 0.44 0.49 0.56
0.11 0.14 0.19 0.17 0.13 0.12 0.13 0.13 0.13 0.14 0.15 0.17 0.17 0.20 0.23 0.26 0.28 0.30 0.31 0.30 0.28 0.27 0.26 0.24 0.24 0.26 0.29 0.32 0.34 0.36 0.39 0.40 0.41 0.43 0.45 0.47 0.47 0.45 0.45 0.45 0.45 0.43 0.44 0.51
0.12 0.10 0.11 0.11 0.11 0.11 0.11 0.12 0.15 0.16 0.15 0.17 0.19 0.22 0.26 0.27 0.27 0.26 0.26 0.27 0.29 0.29 0.27 0.25 0.26 0.27 0.27 0.30 0.33 0.35 0.37 0.43 0.43 0.42 0.43 0.45 0.47 0.48 0.47 0.47 0.48 0.46 0.46 0.49
0.19 0.18 0.17 0.17 0.15 0.14 0.13 0.14 0.17 0.18 0.18 0.20 0.24 0.25 0.24 0.24 0.23 0.22 0.23 0.25 0.26 0.28 0.29 0.30 0.30 0.27 0.27 0.29 0.32 0.34 0.35 0.39 0.44 0.43 0.43 0.45 0.46 0.46 0.47 0.48 0.49 0.48 0.46 0.51
0.21 0.22 0.22 0.24 0.22 0.20 0.18 0.17 0.17 0.17 0.18 0.20 0.21 0.22 0.24 0.26 0.28 0.27 0.27 0.25 0.23 0.22 0.23 0.26 0.26 0.25 0.25 0.28 0.33 0.34 0.35 0.36 0.37 0.38 0.41 0.46 0.49 0.47 0.48 0.48 0.48 0.48 0.48 0.53
0.18 0.18 0.18 0.19 0.20 0.20 0.19 0.19 0.18 0.18 0.18 0.18 0.19 0.22 0.24 0.25 0.26 0.26 0.24 0.24 0.25 0.27 0.26 0.24 0.26 0.24 0.24 0.28 0.32 0.32 0.35 0.36 0.37 0.39 0.42 0.49 0.50 0.47 0.48 0.48 0.48 0.48 0.50 0.52
0.14 0.15 0.16 0.18 0.19 0.19 0.20 0.20 0.19 0.19 0.19 0.19 0.20 0.20 0.21 0.23 0.24 0.24 0.23 0.24 0.28 0.32 0.30 0.27 0.25 0.23 0.23 0.26 0.31 0.31 0.34 0.35 0.37 0.40 0.43 0.46 0.47 0.47 0.47 0.49 0.49 0.47 0.47 0.49
0.15 0.16 0.18 0.20 0.20 0.20 0.21 0.21 0.20 0.21 0.20 0.19 0.20 0.21 0.22 0.24 0.25 0.26 0.27 0.26 0.25 0.26 0.26 0.26 0.24 0.23 0.25 0.29 0.34 0.33 0.34 0.36 0.38 0.39 0.41 0.44 0.45 0.46 0.45 0.46 0.48 0.48 0.48 0.48
0.17 0.18 0.20 0.22 0.23 0.23 0.22 0.21 0.21 0.20 0.19 0.18 0.18 0.19 0.19 0.21 0.22 0.23 0.25 0.28 0.28 0.28 0.25 0.22 0.22 0.25 0.31 0.35 0.34 0.33 0.35 0.37 0.39 0.40 0.41 0.43 0.45 0.46 0.46 0.47 0.50 0.50 0.50 0.50
0.18 0.20 0.21 0.22 0.24 0.25 0.23 0.22 0.22 0.21 0.20 0.20 0.22 0.23 0.24 0.25 0.25 0.27 0.28 0.24 0.24 0.26 0.23 0.21 0.24 0.29 0.33 0.33 0.31 0.32 0.35 0.37 0.39 0.40 0.41 0.43 0.45 0.48 0.49 0.48 0.48 0.48 0.50 0.50
0.20 0.20 0.20 0.20 0.20 0.19 0.19 0.19 0.20 0.21 0.21 0.21 0.22 0.24 0.26 0.26 0.24 0.23 0.25 0.26 0.26 0.26 0.24 0.23 0.27 0.29 0.31 0.30 0.30 0.32 0.35 0.37 0.40 0.41 0.43 0.44 0.44 0.46 0.47 0.48 0.48 0.46 0.45 0.45
0.19 0.19 0.18 0.19 0.19 0.20 0.20 0.18 0.17 0.16 0.17 0.17 0.17 0.18 0.21 0.24 0.28 0.26 0.24 0.24 0.25 0.26 0.24 0.25 0.28 0.30 0.30 0.29 0.31 0.34 0.37 0.39 0.43 0.46 0.47 0.47 0.44 0.44 0.44 0.45 0.47 0.46 0.45 0.43
0.17 0.17 0.17 0.18 0.19 0.19 0.19 0.19 0.19 0.17 0.18 0.18 0.16 0.16 0.17 0.19 0.20 0.22 0.23 0.22 0.23 0.24 0.25 0.25 0.28 0.29 0.30 0.30 0.33 0.36 0.38 0.41 0.42 0.43 0.42 0.43 0.44 0.44 0.44 0.43 0.43 0.44 0.43 0.42
0.15 0.15 0.15 0.15 0.13 0.14 0.17 0.19 0.21 0.21 0.21 0.23 0.22 0.19 0.19 0.19 0.20 0.20 0.21 0.21 0.22 0.22 0.23 0.24 0.25 0.27 0.28 0.30 0.33 0.34 0.35 0.37 0.39 0.40 0.41 0.43 0.45 0.45 0.44 0.44 0.44 0.43 0.42 0.42